<?xml version="1.0" encoding="UTF-8" standalone="no" ?>
<gpx xmlns="http://www.topografix.com/GPX/1/1" xmlns:xsi="http://www.w3.org/2001/XMLSchema-instance" xsi:schemaLocation="http://www.topografix.com/GPX/1/1 http://www.topografix.com/GPX/1/1/gpx.xsd" version="1.1" creator="VisuGPX - https://www.visugpx.com">
  <metadata>
    <name>N-NE-La Montagne Coueron Sautron La Ménardais La Chapelle Erdre Vieux Doulon Pirmil</name>
    <desc><![CDATA[N-NE-La Montagne Coueron Sautron La Ménardais La Chapelle Erdre Vieux Doulon Pirmil]]></desc>
  </metadata>
  <trk>
    <name><![CDATA[2022-04-02 12:42 GMT+2]]></name>
    <trkseg>
      <trkpt lat="47.16779" lon="-1.62661">
        <ele>82</ele>
        <time>2022-04-02T10:42:30Z</time>
      </trkpt>
      <trkpt lat="47.16775" lon="-1.62648">
        <ele>71</ele>
        <time>2022-04-02T10:44:07Z</time>
      </trkpt>
      <trkpt lat="47.16785" lon="-1.62659">
        <ele>72</ele>
        <time>2022-04-02T10:45:37Z</time>
      </trkpt>
      <trkpt lat="47.16779" lon="-1.62672">
        <ele>72</ele>
        <time>2022-04-02T10:45:40Z</time>
      </trkpt>
      <trkpt lat="47.16771" lon="-1.62678">
        <ele>71</ele>
        <time>2022-04-02T10:45:42Z</time>
      </trkpt>
      <trkpt lat="47.16761" lon="-1.62673">
        <ele>71</ele>
        <time>2022-04-02T10:45:44Z</time>
      </trkpt>
      <trkpt lat="47.1675" lon="-1.62672">
        <ele>70</ele>
        <time>2022-04-02T10:45:46Z</time>
      </trkpt>
      <trkpt lat="47.16739" lon="-1.6268">
        <ele>70</ele>
        <time>2022-04-02T10:45:48Z</time>
      </trkpt>
      <trkpt lat="47.16729" lon="-1.62688">
        <ele>70</ele>
        <time>2022-04-02T10:45:50Z</time>
      </trkpt>
      <trkpt lat="47.1672" lon="-1.62698">
        <ele>70</ele>
        <time>2022-04-02T10:45:52Z</time>
      </trkpt>
      <trkpt lat="47.16723" lon="-1.62714">
        <ele>70</ele>
        <time>2022-04-02T10:45:54Z</time>
      </trkpt>
      <trkpt lat="47.1673" lon="-1.62727">
        <ele>69</ele>
        <time>2022-04-02T10:45:56Z</time>
      </trkpt>
      <trkpt lat="47.16738" lon="-1.6274">
        <ele>70</ele>
        <time>2022-04-02T10:45:58Z</time>
      </trkpt>
      <trkpt lat="47.16746" lon="-1.62752">
        <ele>70</ele>
        <time>2022-04-02T10:46:00Z</time>
      </trkpt>
      <trkpt lat="47.16756" lon="-1.62763">
        <ele>69</ele>
        <time>2022-04-02T10:46:02Z</time>
      </trkpt>
      <trkpt lat="47.16767" lon="-1.62773">
        <ele>69</ele>
        <time>2022-04-02T10:46:04Z</time>
      </trkpt>
      <trkpt lat="47.16778" lon="-1.62783">
        <ele>69</ele>
        <time>2022-04-02T10:46:06Z</time>
      </trkpt>
      <trkpt lat="47.16789" lon="-1.62793">
        <ele>68</ele>
        <time>2022-04-02T10:46:08Z</time>
      </trkpt>
      <trkpt lat="47.168" lon="-1.62803">
        <ele>68</ele>
        <time>2022-04-02T10:46:10Z</time>
      </trkpt>
      <trkpt lat="47.1681" lon="-1.62812">
        <ele>69</ele>
        <time>2022-04-02T10:46:12Z</time>
      </trkpt>
      <trkpt lat="47.1682" lon="-1.62821">
        <ele>69</ele>
        <time>2022-04-02T10:46:14Z</time>
      </trkpt>
      <trkpt lat="47.1683" lon="-1.6283">
        <ele>69</ele>
        <time>2022-04-02T10:46:16Z</time>
      </trkpt>
      <trkpt lat="47.16839" lon="-1.62839">
        <ele>70</ele>
        <time>2022-04-02T10:46:18Z</time>
      </trkpt>
      <trkpt lat="47.16849" lon="-1.62849">
        <ele>70</ele>
        <time>2022-04-02T10:46:20Z</time>
      </trkpt>
      <trkpt lat="47.16858" lon="-1.62858">
        <ele>70</ele>
        <time>2022-04-02T10:46:22Z</time>
      </trkpt>
      <trkpt lat="47.16866" lon="-1.62867">
        <ele>70</ele>
        <time>2022-04-02T10:46:24Z</time>
      </trkpt>
      <trkpt lat="47.16875" lon="-1.62878">
        <ele>71</ele>
        <time>2022-04-02T10:46:26Z</time>
      </trkpt>
      <trkpt lat="47.16882" lon="-1.62891">
        <ele>71</ele>
        <time>2022-04-02T10:46:28Z</time>
      </trkpt>
      <trkpt lat="47.16887" lon="-1.62906">
        <ele>71</ele>
        <time>2022-04-02T10:46:30Z</time>
      </trkpt>
      <trkpt lat="47.16891" lon="-1.62922">
        <ele>72</ele>
        <time>2022-04-02T10:46:32Z</time>
      </trkpt>
      <trkpt lat="47.16893" lon="-1.62939">
        <ele>72</ele>
        <time>2022-04-02T10:46:34Z</time>
      </trkpt>
      <trkpt lat="47.16893" lon="-1.62956">
        <ele>72</ele>
        <time>2022-04-02T10:46:36Z</time>
      </trkpt>
      <trkpt lat="47.16893" lon="-1.62974">
        <ele>72</ele>
        <time>2022-04-02T10:46:38Z</time>
      </trkpt>
      <trkpt lat="47.16892" lon="-1.62991">
        <ele>72</ele>
        <time>2022-04-02T10:46:40Z</time>
      </trkpt>
      <trkpt lat="47.1689" lon="-1.63009">
        <ele>73</ele>
        <time>2022-04-02T10:46:42Z</time>
      </trkpt>
      <trkpt lat="47.16889" lon="-1.63027">
        <ele>73</ele>
        <time>2022-04-02T10:46:44Z</time>
      </trkpt>
      <trkpt lat="47.16889" lon="-1.63044">
        <ele>73</ele>
        <time>2022-04-02T10:46:46Z</time>
      </trkpt>
      <trkpt lat="47.1689" lon="-1.63062">
        <ele>74</ele>
        <time>2022-04-02T10:46:48Z</time>
      </trkpt>
      <trkpt lat="47.16892" lon="-1.63079">
        <ele>74</ele>
        <time>2022-04-02T10:46:50Z</time>
      </trkpt>
      <trkpt lat="47.16895" lon="-1.63096">
        <ele>74</ele>
        <time>2022-04-02T10:46:52Z</time>
      </trkpt>
      <trkpt lat="47.16898" lon="-1.63112">
        <ele>74</ele>
        <time>2022-04-02T10:46:54Z</time>
      </trkpt>
      <trkpt lat="47.16902" lon="-1.63128">
        <ele>74</ele>
        <time>2022-04-02T10:46:56Z</time>
      </trkpt>
      <trkpt lat="47.16907" lon="-1.63144">
        <ele>74</ele>
        <time>2022-04-02T10:46:58Z</time>
      </trkpt>
      <trkpt lat="47.16913" lon="-1.63159">
        <ele>74</ele>
        <time>2022-04-02T10:47:00Z</time>
      </trkpt>
      <trkpt lat="47.16919" lon="-1.63173">
        <ele>75</ele>
        <time>2022-04-02T10:47:02Z</time>
      </trkpt>
      <trkpt lat="47.16926" lon="-1.63186">
        <ele>74</ele>
        <time>2022-04-02T10:47:04Z</time>
      </trkpt>
      <trkpt lat="47.16933" lon="-1.63198">
        <ele>75</ele>
        <time>2022-04-02T10:47:06Z</time>
      </trkpt>
      <trkpt lat="47.16941" lon="-1.6321">
        <ele>75</ele>
        <time>2022-04-02T10:47:08Z</time>
      </trkpt>
      <trkpt lat="47.16949" lon="-1.63221">
        <ele>75</ele>
        <time>2022-04-02T10:47:10Z</time>
      </trkpt>
      <trkpt lat="47.16956" lon="-1.63232">
        <ele>75</ele>
        <time>2022-04-02T10:47:12Z</time>
      </trkpt>
      <trkpt lat="47.16964" lon="-1.63241">
        <ele>75</ele>
        <time>2022-04-02T10:47:14Z</time>
      </trkpt>
      <trkpt lat="47.16972" lon="-1.63252">
        <ele>74</ele>
        <time>2022-04-02T10:47:17Z</time>
      </trkpt>
      <trkpt lat="47.16967" lon="-1.63264">
        <ele>75</ele>
        <time>2022-04-02T10:47:19Z</time>
      </trkpt>
      <trkpt lat="47.16958" lon="-1.63276">
        <ele>75</ele>
        <time>2022-04-02T10:47:21Z</time>
      </trkpt>
      <trkpt lat="47.1695" lon="-1.63289">
        <ele>76</ele>
        <time>2022-04-02T10:47:23Z</time>
      </trkpt>
      <trkpt lat="47.16941" lon="-1.63303">
        <ele>76</ele>
        <time>2022-04-02T10:47:25Z</time>
      </trkpt>
      <trkpt lat="47.16932" lon="-1.63317">
        <ele>76</ele>
        <time>2022-04-02T10:47:27Z</time>
      </trkpt>
      <trkpt lat="47.16923" lon="-1.6333">
        <ele>76</ele>
        <time>2022-04-02T10:47:29Z</time>
      </trkpt>
      <trkpt lat="47.16915" lon="-1.63343">
        <ele>76</ele>
        <time>2022-04-02T10:47:31Z</time>
      </trkpt>
      <trkpt lat="47.16906" lon="-1.63356">
        <ele>76</ele>
        <time>2022-04-02T10:47:33Z</time>
      </trkpt>
      <trkpt lat="47.16898" lon="-1.63369">
        <ele>76</ele>
        <time>2022-04-02T10:47:35Z</time>
      </trkpt>
      <trkpt lat="47.16889" lon="-1.63383">
        <ele>76</ele>
        <time>2022-04-02T10:47:37Z</time>
      </trkpt>
      <trkpt lat="47.16881" lon="-1.63396">
        <ele>76</ele>
        <time>2022-04-02T10:47:39Z</time>
      </trkpt>
      <trkpt lat="47.16872" lon="-1.6341">
        <ele>76</ele>
        <time>2022-04-02T10:47:41Z</time>
      </trkpt>
      <trkpt lat="47.16864" lon="-1.63424">
        <ele>76</ele>
        <time>2022-04-02T10:47:43Z</time>
      </trkpt>
      <trkpt lat="47.16857" lon="-1.63438">
        <ele>76</ele>
        <time>2022-04-02T10:47:45Z</time>
      </trkpt>
      <trkpt lat="47.16849" lon="-1.63451">
        <ele>76</ele>
        <time>2022-04-02T10:47:47Z</time>
      </trkpt>
      <trkpt lat="47.16841" lon="-1.63465">
        <ele>76</ele>
        <time>2022-04-02T10:47:49Z</time>
      </trkpt>
      <trkpt lat="47.16832" lon="-1.6348">
        <ele>76</ele>
        <time>2022-04-02T10:47:51Z</time>
      </trkpt>
      <trkpt lat="47.16824" lon="-1.63494">
        <ele>76</ele>
        <time>2022-04-02T10:47:53Z</time>
      </trkpt>
      <trkpt lat="47.16815" lon="-1.63509">
        <ele>76</ele>
        <time>2022-04-02T10:47:55Z</time>
      </trkpt>
      <trkpt lat="47.16807" lon="-1.63523">
        <ele>76</ele>
        <time>2022-04-02T10:47:57Z</time>
      </trkpt>
      <trkpt lat="47.16798" lon="-1.63537">
        <ele>76</ele>
        <time>2022-04-02T10:47:59Z</time>
      </trkpt>
      <trkpt lat="47.1679" lon="-1.63551">
        <ele>76</ele>
        <time>2022-04-02T10:48:01Z</time>
      </trkpt>
      <trkpt lat="47.16781" lon="-1.63565">
        <ele>77</ele>
        <time>2022-04-02T10:48:03Z</time>
      </trkpt>
      <trkpt lat="47.16773" lon="-1.6358">
        <ele>76</ele>
        <time>2022-04-02T10:48:05Z</time>
      </trkpt>
      <trkpt lat="47.16764" lon="-1.63594">
        <ele>76</ele>
        <time>2022-04-02T10:48:07Z</time>
      </trkpt>
      <trkpt lat="47.16756" lon="-1.63609">
        <ele>76</ele>
        <time>2022-04-02T10:48:09Z</time>
      </trkpt>
      <trkpt lat="47.16748" lon="-1.63624">
        <ele>76</ele>
        <time>2022-04-02T10:48:11Z</time>
      </trkpt>
      <trkpt lat="47.16745" lon="-1.6364">
        <ele>76</ele>
        <time>2022-04-02T10:48:13Z</time>
      </trkpt>
      <trkpt lat="47.16758" lon="-1.63646">
        <ele>76</ele>
        <time>2022-04-02T10:48:15Z</time>
      </trkpt>
      <trkpt lat="47.1677" lon="-1.6365">
        <ele>76</ele>
        <time>2022-04-02T10:48:17Z</time>
      </trkpt>
      <trkpt lat="47.16782" lon="-1.63654">
        <ele>76</ele>
        <time>2022-04-02T10:48:19Z</time>
      </trkpt>
      <trkpt lat="47.16794" lon="-1.63658">
        <ele>76</ele>
        <time>2022-04-02T10:48:21Z</time>
      </trkpt>
      <trkpt lat="47.16805" lon="-1.63663">
        <ele>76</ele>
        <time>2022-04-02T10:48:23Z</time>
      </trkpt>
      <trkpt lat="47.16817" lon="-1.63667">
        <ele>76</ele>
        <time>2022-04-02T10:48:25Z</time>
      </trkpt>
      <trkpt lat="47.16829" lon="-1.63671">
        <ele>76</ele>
        <time>2022-04-02T10:48:27Z</time>
      </trkpt>
      <trkpt lat="47.16841" lon="-1.63676">
        <ele>76</ele>
        <time>2022-04-02T10:48:29Z</time>
      </trkpt>
      <trkpt lat="47.16853" lon="-1.6368">
        <ele>76</ele>
        <time>2022-04-02T10:48:31Z</time>
      </trkpt>
      <trkpt lat="47.16865" lon="-1.63684">
        <ele>76</ele>
        <time>2022-04-02T10:48:33Z</time>
      </trkpt>
      <trkpt lat="47.16878" lon="-1.63689">
        <ele>76</ele>
        <time>2022-04-02T10:48:35Z</time>
      </trkpt>
      <trkpt lat="47.1689" lon="-1.63693">
        <ele>76</ele>
        <time>2022-04-02T10:48:37Z</time>
      </trkpt>
      <trkpt lat="47.16902" lon="-1.63697">
        <ele>76</ele>
        <time>2022-04-02T10:48:39Z</time>
      </trkpt>
      <trkpt lat="47.16915" lon="-1.63703">
        <ele>76</ele>
        <time>2022-04-02T10:48:41Z</time>
      </trkpt>
      <trkpt lat="47.16927" lon="-1.63708">
        <ele>76</ele>
        <time>2022-04-02T10:48:43Z</time>
      </trkpt>
      <trkpt lat="47.16939" lon="-1.63713">
        <ele>75</ele>
        <time>2022-04-02T10:48:45Z</time>
      </trkpt>
      <trkpt lat="47.16952" lon="-1.63717">
        <ele>75</ele>
        <time>2022-04-02T10:48:47Z</time>
      </trkpt>
      <trkpt lat="47.16965" lon="-1.63722">
        <ele>76</ele>
        <time>2022-04-02T10:48:49Z</time>
      </trkpt>
      <trkpt lat="47.16977" lon="-1.63727">
        <ele>76</ele>
        <time>2022-04-02T10:48:51Z</time>
      </trkpt>
      <trkpt lat="47.1699" lon="-1.63731">
        <ele>76</ele>
        <time>2022-04-02T10:48:53Z</time>
      </trkpt>
      <trkpt lat="47.17002" lon="-1.63736">
        <ele>76</ele>
        <time>2022-04-02T10:48:55Z</time>
      </trkpt>
      <trkpt lat="47.17015" lon="-1.63741">
        <ele>76</ele>
        <time>2022-04-02T10:48:57Z</time>
      </trkpt>
      <trkpt lat="47.17027" lon="-1.63745">
        <ele>77</ele>
        <time>2022-04-02T10:48:59Z</time>
      </trkpt>
      <trkpt lat="47.17039" lon="-1.6375">
        <ele>77</ele>
        <time>2022-04-02T10:49:01Z</time>
      </trkpt>
      <trkpt lat="47.1705" lon="-1.63756">
        <ele>77</ele>
        <time>2022-04-02T10:49:03Z</time>
      </trkpt>
      <trkpt lat="47.1706" lon="-1.63767">
        <ele>77</ele>
        <time>2022-04-02T10:49:05Z</time>
      </trkpt>
      <trkpt lat="47.17068" lon="-1.63782">
        <ele>77</ele>
        <time>2022-04-02T10:49:07Z</time>
      </trkpt>
      <trkpt lat="47.17073" lon="-1.63799">
        <ele>77</ele>
        <time>2022-04-02T10:49:09Z</time>
      </trkpt>
      <trkpt lat="47.17078" lon="-1.63815">
        <ele>77</ele>
        <time>2022-04-02T10:49:11Z</time>
      </trkpt>
      <trkpt lat="47.17084" lon="-1.63832">
        <ele>77</ele>
        <time>2022-04-02T10:49:13Z</time>
      </trkpt>
      <trkpt lat="47.1709" lon="-1.63848">
        <ele>77</ele>
        <time>2022-04-02T10:49:15Z</time>
      </trkpt>
      <trkpt lat="47.17096" lon="-1.63864">
        <ele>77</ele>
        <time>2022-04-02T10:49:17Z</time>
      </trkpt>
      <trkpt lat="47.17102" lon="-1.6388">
        <ele>77</ele>
        <time>2022-04-02T10:49:19Z</time>
      </trkpt>
      <trkpt lat="47.17107" lon="-1.63896">
        <ele>77</ele>
        <time>2022-04-02T10:49:21Z</time>
      </trkpt>
      <trkpt lat="47.17113" lon="-1.63911">
        <ele>77</ele>
        <time>2022-04-02T10:49:23Z</time>
      </trkpt>
      <trkpt lat="47.17119" lon="-1.63926">
        <ele>76</ele>
        <time>2022-04-02T10:49:25Z</time>
      </trkpt>
      <trkpt lat="47.17126" lon="-1.63935">
        <ele>76</ele>
        <time>2022-04-02T10:49:27Z</time>
      </trkpt>
      <trkpt lat="47.17137" lon="-1.63944">
        <ele>77</ele>
        <time>2022-04-02T10:49:30Z</time>
      </trkpt>
      <trkpt lat="47.1714" lon="-1.63957">
        <ele>77</ele>
        <time>2022-04-02T10:49:32Z</time>
      </trkpt>
      <trkpt lat="47.17141" lon="-1.63975">
        <ele>77</ele>
        <time>2022-04-02T10:49:34Z</time>
      </trkpt>
      <trkpt lat="47.1714" lon="-1.63993">
        <ele>77</ele>
        <time>2022-04-02T10:49:36Z</time>
      </trkpt>
      <trkpt lat="47.17138" lon="-1.64011">
        <ele>77</ele>
        <time>2022-04-02T10:49:38Z</time>
      </trkpt>
      <trkpt lat="47.17136" lon="-1.64029">
        <ele>77</ele>
        <time>2022-04-02T10:49:40Z</time>
      </trkpt>
      <trkpt lat="47.17134" lon="-1.64047">
        <ele>77</ele>
        <time>2022-04-02T10:49:42Z</time>
      </trkpt>
      <trkpt lat="47.17132" lon="-1.64066">
        <ele>77</ele>
        <time>2022-04-02T10:49:44Z</time>
      </trkpt>
      <trkpt lat="47.1713" lon="-1.64085">
        <ele>78</ele>
        <time>2022-04-02T10:49:46Z</time>
      </trkpt>
      <trkpt lat="47.17128" lon="-1.64103">
        <ele>78</ele>
        <time>2022-04-02T10:49:48Z</time>
      </trkpt>
      <trkpt lat="47.17126" lon="-1.64122">
        <ele>78</ele>
        <time>2022-04-02T10:49:50Z</time>
      </trkpt>
      <trkpt lat="47.17124" lon="-1.64141">
        <ele>78</ele>
        <time>2022-04-02T10:49:52Z</time>
      </trkpt>
      <trkpt lat="47.17122" lon="-1.6416">
        <ele>78</ele>
        <time>2022-04-02T10:49:54Z</time>
      </trkpt>
      <trkpt lat="47.1712" lon="-1.64179">
        <ele>78</ele>
        <time>2022-04-02T10:49:56Z</time>
      </trkpt>
      <trkpt lat="47.17118" lon="-1.64197">
        <ele>77</ele>
        <time>2022-04-02T10:49:58Z</time>
      </trkpt>
      <trkpt lat="47.17115" lon="-1.64216">
        <ele>77</ele>
        <time>2022-04-02T10:50:00Z</time>
      </trkpt>
      <trkpt lat="47.17114" lon="-1.64235">
        <ele>78</ele>
        <time>2022-04-02T10:50:02Z</time>
      </trkpt>
      <trkpt lat="47.17112" lon="-1.64254">
        <ele>77</ele>
        <time>2022-04-02T10:50:04Z</time>
      </trkpt>
      <trkpt lat="47.1711" lon="-1.64272">
        <ele>77</ele>
        <time>2022-04-02T10:50:06Z</time>
      </trkpt>
      <trkpt lat="47.17108" lon="-1.64292">
        <ele>77</ele>
        <time>2022-04-02T10:50:08Z</time>
      </trkpt>
      <trkpt lat="47.17106" lon="-1.6431">
        <ele>77</ele>
        <time>2022-04-02T10:50:10Z</time>
      </trkpt>
      <trkpt lat="47.17104" lon="-1.64328">
        <ele>77</ele>
        <time>2022-04-02T10:50:12Z</time>
      </trkpt>
      <trkpt lat="47.17102" lon="-1.64347">
        <ele>77</ele>
        <time>2022-04-02T10:50:14Z</time>
      </trkpt>
      <trkpt lat="47.171" lon="-1.64366">
        <ele>77</ele>
        <time>2022-04-02T10:50:16Z</time>
      </trkpt>
      <trkpt lat="47.17098" lon="-1.64385">
        <ele>77</ele>
        <time>2022-04-02T10:50:18Z</time>
      </trkpt>
      <trkpt lat="47.17097" lon="-1.64404">
        <ele>77</ele>
        <time>2022-04-02T10:50:20Z</time>
      </trkpt>
      <trkpt lat="47.17096" lon="-1.64424">
        <ele>77</ele>
        <time>2022-04-02T10:50:22Z</time>
      </trkpt>
      <trkpt lat="47.17094" lon="-1.64443">
        <ele>77</ele>
        <time>2022-04-02T10:50:24Z</time>
      </trkpt>
      <trkpt lat="47.17093" lon="-1.64463">
        <ele>77</ele>
        <time>2022-04-02T10:50:26Z</time>
      </trkpt>
      <trkpt lat="47.17092" lon="-1.64482">
        <ele>77</ele>
        <time>2022-04-02T10:50:28Z</time>
      </trkpt>
      <trkpt lat="47.17091" lon="-1.64502">
        <ele>77</ele>
        <time>2022-04-02T10:50:30Z</time>
      </trkpt>
      <trkpt lat="47.17091" lon="-1.64521">
        <ele>76</ele>
        <time>2022-04-02T10:50:32Z</time>
      </trkpt>
      <trkpt lat="47.1709" lon="-1.64541">
        <ele>76</ele>
        <time>2022-04-02T10:50:34Z</time>
      </trkpt>
      <trkpt lat="47.1709" lon="-1.64561">
        <ele>76</ele>
        <time>2022-04-02T10:50:36Z</time>
      </trkpt>
      <trkpt lat="47.17089" lon="-1.64581">
        <ele>76</ele>
        <time>2022-04-02T10:50:38Z</time>
      </trkpt>
      <trkpt lat="47.17089" lon="-1.64601">
        <ele>76</ele>
        <time>2022-04-02T10:50:40Z</time>
      </trkpt>
      <trkpt lat="47.17089" lon="-1.64621">
        <ele>77</ele>
        <time>2022-04-02T10:50:42Z</time>
      </trkpt>
      <trkpt lat="47.17089" lon="-1.6464">
        <ele>77</ele>
        <time>2022-04-02T10:50:44Z</time>
      </trkpt>
      <trkpt lat="47.17089" lon="-1.6466">
        <ele>77</ele>
        <time>2022-04-02T10:50:46Z</time>
      </trkpt>
      <trkpt lat="47.1709" lon="-1.64681">
        <ele>76</ele>
        <time>2022-04-02T10:50:48Z</time>
      </trkpt>
      <trkpt lat="47.1709" lon="-1.64701">
        <ele>76</ele>
        <time>2022-04-02T10:50:50Z</time>
      </trkpt>
      <trkpt lat="47.17091" lon="-1.6472">
        <ele>76</ele>
        <time>2022-04-02T10:50:52Z</time>
      </trkpt>
      <trkpt lat="47.17091" lon="-1.6474">
        <ele>76</ele>
        <time>2022-04-02T10:50:54Z</time>
      </trkpt>
      <trkpt lat="47.17092" lon="-1.64758">
        <ele>77</ele>
        <time>2022-04-02T10:50:56Z</time>
      </trkpt>
      <trkpt lat="47.17093" lon="-1.64778">
        <ele>77</ele>
        <time>2022-04-02T10:50:58Z</time>
      </trkpt>
      <trkpt lat="47.17095" lon="-1.64798">
        <ele>77</ele>
        <time>2022-04-02T10:51:00Z</time>
      </trkpt>
      <trkpt lat="47.17096" lon="-1.64817">
        <ele>77</ele>
        <time>2022-04-02T10:51:02Z</time>
      </trkpt>
      <trkpt lat="47.17098" lon="-1.64838">
        <ele>77</ele>
        <time>2022-04-02T10:51:04Z</time>
      </trkpt>
      <trkpt lat="47.17099" lon="-1.64858">
        <ele>77</ele>
        <time>2022-04-02T10:51:06Z</time>
      </trkpt>
      <trkpt lat="47.17101" lon="-1.64878">
        <ele>76</ele>
        <time>2022-04-02T10:51:08Z</time>
      </trkpt>
      <trkpt lat="47.17102" lon="-1.64898">
        <ele>76</ele>
        <time>2022-04-02T10:51:10Z</time>
      </trkpt>
      <trkpt lat="47.17104" lon="-1.64917">
        <ele>76</ele>
        <time>2022-04-02T10:51:12Z</time>
      </trkpt>
      <trkpt lat="47.17105" lon="-1.64936">
        <ele>76</ele>
        <time>2022-04-02T10:51:14Z</time>
      </trkpt>
      <trkpt lat="47.17106" lon="-1.64955">
        <ele>75</ele>
        <time>2022-04-02T10:51:16Z</time>
      </trkpt>
      <trkpt lat="47.17108" lon="-1.64975">
        <ele>75</ele>
        <time>2022-04-02T10:51:18Z</time>
      </trkpt>
      <trkpt lat="47.17109" lon="-1.64994">
        <ele>76</ele>
        <time>2022-04-02T10:51:20Z</time>
      </trkpt>
      <trkpt lat="47.1711" lon="-1.65013">
        <ele>75</ele>
        <time>2022-04-02T10:51:22Z</time>
      </trkpt>
      <trkpt lat="47.17112" lon="-1.65032">
        <ele>75</ele>
        <time>2022-04-02T10:51:24Z</time>
      </trkpt>
      <trkpt lat="47.17113" lon="-1.6505">
        <ele>75</ele>
        <time>2022-04-02T10:51:26Z</time>
      </trkpt>
      <trkpt lat="47.17115" lon="-1.65068">
        <ele>75</ele>
        <time>2022-04-02T10:51:28Z</time>
      </trkpt>
      <trkpt lat="47.17116" lon="-1.65087">
        <ele>75</ele>
        <time>2022-04-02T10:51:30Z</time>
      </trkpt>
      <trkpt lat="47.17117" lon="-1.65106">
        <ele>75</ele>
        <time>2022-04-02T10:51:32Z</time>
      </trkpt>
      <trkpt lat="47.17118" lon="-1.65125">
        <ele>75</ele>
        <time>2022-04-02T10:51:34Z</time>
      </trkpt>
      <trkpt lat="47.17119" lon="-1.65144">
        <ele>75</ele>
        <time>2022-04-02T10:51:36Z</time>
      </trkpt>
      <trkpt lat="47.17121" lon="-1.65162">
        <ele>75</ele>
        <time>2022-04-02T10:51:38Z</time>
      </trkpt>
      <trkpt lat="47.17122" lon="-1.65181">
        <ele>76</ele>
        <time>2022-04-02T10:51:40Z</time>
      </trkpt>
      <trkpt lat="47.17123" lon="-1.65199">
        <ele>76</ele>
        <time>2022-04-02T10:51:42Z</time>
      </trkpt>
      <trkpt lat="47.17125" lon="-1.65217">
        <ele>76</ele>
        <time>2022-04-02T10:51:44Z</time>
      </trkpt>
      <trkpt lat="47.17126" lon="-1.65234">
        <ele>76</ele>
        <time>2022-04-02T10:51:46Z</time>
      </trkpt>
      <trkpt lat="47.17129" lon="-1.65249">
        <ele>77</ele>
        <time>2022-04-02T10:51:48Z</time>
      </trkpt>
      <trkpt lat="47.17135" lon="-1.65263">
        <ele>77</ele>
        <time>2022-04-02T10:51:50Z</time>
      </trkpt>
      <trkpt lat="47.17142" lon="-1.65275">
        <ele>77</ele>
        <time>2022-04-02T10:51:52Z</time>
      </trkpt>
      <trkpt lat="47.17151" lon="-1.65285">
        <ele>77</ele>
        <time>2022-04-02T10:51:54Z</time>
      </trkpt>
      <trkpt lat="47.17161" lon="-1.65295">
        <ele>77</ele>
        <time>2022-04-02T10:51:56Z</time>
      </trkpt>
      <trkpt lat="47.1717" lon="-1.65306">
        <ele>77</ele>
        <time>2022-04-02T10:51:58Z</time>
      </trkpt>
      <trkpt lat="47.17177" lon="-1.65322">
        <ele>76</ele>
        <time>2022-04-02T10:52:00Z</time>
      </trkpt>
      <trkpt lat="47.1718" lon="-1.6534">
        <ele>76</ele>
        <time>2022-04-02T10:52:02Z</time>
      </trkpt>
      <trkpt lat="47.1718" lon="-1.65359">
        <ele>76</ele>
        <time>2022-04-02T10:52:04Z</time>
      </trkpt>
      <trkpt lat="47.17178" lon="-1.65378">
        <ele>76</ele>
        <time>2022-04-02T10:52:06Z</time>
      </trkpt>
      <trkpt lat="47.17176" lon="-1.65396">
        <ele>76</ele>
        <time>2022-04-02T10:52:08Z</time>
      </trkpt>
      <trkpt lat="47.17174" lon="-1.65414">
        <ele>76</ele>
        <time>2022-04-02T10:52:10Z</time>
      </trkpt>
      <trkpt lat="47.17171" lon="-1.65433">
        <ele>76</ele>
        <time>2022-04-02T10:52:12Z</time>
      </trkpt>
      <trkpt lat="47.17169" lon="-1.65452">
        <ele>76</ele>
        <time>2022-04-02T10:52:14Z</time>
      </trkpt>
      <trkpt lat="47.17167" lon="-1.6547">
        <ele>77</ele>
        <time>2022-04-02T10:52:16Z</time>
      </trkpt>
      <trkpt lat="47.17165" lon="-1.65489">
        <ele>77</ele>
        <time>2022-04-02T10:52:18Z</time>
      </trkpt>
      <trkpt lat="47.17163" lon="-1.65507">
        <ele>77</ele>
        <time>2022-04-02T10:52:20Z</time>
      </trkpt>
      <trkpt lat="47.17161" lon="-1.65525">
        <ele>77</ele>
        <time>2022-04-02T10:52:22Z</time>
      </trkpt>
      <trkpt lat="47.1716" lon="-1.65543">
        <ele>77</ele>
        <time>2022-04-02T10:52:24Z</time>
      </trkpt>
      <trkpt lat="47.17159" lon="-1.65562">
        <ele>77</ele>
        <time>2022-04-02T10:52:26Z</time>
      </trkpt>
      <trkpt lat="47.17158" lon="-1.6558">
        <ele>77</ele>
        <time>2022-04-02T10:52:28Z</time>
      </trkpt>
      <trkpt lat="47.17157" lon="-1.65599">
        <ele>77</ele>
        <time>2022-04-02T10:52:30Z</time>
      </trkpt>
      <trkpt lat="47.17156" lon="-1.65617">
        <ele>77</ele>
        <time>2022-04-02T10:52:32Z</time>
      </trkpt>
      <trkpt lat="47.17156" lon="-1.65636">
        <ele>77</ele>
        <time>2022-04-02T10:52:34Z</time>
      </trkpt>
      <trkpt lat="47.17156" lon="-1.65655">
        <ele>77</ele>
        <time>2022-04-02T10:52:36Z</time>
      </trkpt>
      <trkpt lat="47.17156" lon="-1.65673">
        <ele>77</ele>
        <time>2022-04-02T10:52:38Z</time>
      </trkpt>
      <trkpt lat="47.17157" lon="-1.65693">
        <ele>77</ele>
        <time>2022-04-02T10:52:40Z</time>
      </trkpt>
      <trkpt lat="47.17158" lon="-1.65711">
        <ele>77</ele>
        <time>2022-04-02T10:52:42Z</time>
      </trkpt>
      <trkpt lat="47.1716" lon="-1.6573">
        <ele>77</ele>
        <time>2022-04-02T10:52:44Z</time>
      </trkpt>
      <trkpt lat="47.17162" lon="-1.65749">
        <ele>77</ele>
        <time>2022-04-02T10:52:46Z</time>
      </trkpt>
      <trkpt lat="47.17164" lon="-1.65768">
        <ele>77</ele>
        <time>2022-04-02T10:52:48Z</time>
      </trkpt>
      <trkpt lat="47.17166" lon="-1.65787">
        <ele>77</ele>
        <time>2022-04-02T10:52:50Z</time>
      </trkpt>
      <trkpt lat="47.17168" lon="-1.65806">
        <ele>76</ele>
        <time>2022-04-02T10:52:52Z</time>
      </trkpt>
      <trkpt lat="47.17171" lon="-1.65824">
        <ele>77</ele>
        <time>2022-04-02T10:52:54Z</time>
      </trkpt>
      <trkpt lat="47.17174" lon="-1.65843">
        <ele>77</ele>
        <time>2022-04-02T10:52:56Z</time>
      </trkpt>
      <trkpt lat="47.17177" lon="-1.65862">
        <ele>76</ele>
        <time>2022-04-02T10:52:58Z</time>
      </trkpt>
      <trkpt lat="47.17181" lon="-1.6588">
        <ele>76</ele>
        <time>2022-04-02T10:53:00Z</time>
      </trkpt>
      <trkpt lat="47.17184" lon="-1.65899">
        <ele>76</ele>
        <time>2022-04-02T10:53:02Z</time>
      </trkpt>
      <trkpt lat="47.17187" lon="-1.65918">
        <ele>77</ele>
        <time>2022-04-02T10:53:04Z</time>
      </trkpt>
      <trkpt lat="47.1719" lon="-1.65936">
        <ele>77</ele>
        <time>2022-04-02T10:53:06Z</time>
      </trkpt>
      <trkpt lat="47.17194" lon="-1.65955">
        <ele>76</ele>
        <time>2022-04-02T10:53:08Z</time>
      </trkpt>
      <trkpt lat="47.17197" lon="-1.65973">
        <ele>77</ele>
        <time>2022-04-02T10:53:10Z</time>
      </trkpt>
      <trkpt lat="47.17201" lon="-1.65991">
        <ele>77</ele>
        <time>2022-04-02T10:53:12Z</time>
      </trkpt>
      <trkpt lat="47.17204" lon="-1.66008">
        <ele>77</ele>
        <time>2022-04-02T10:53:14Z</time>
      </trkpt>
      <trkpt lat="47.17207" lon="-1.66025">
        <ele>77</ele>
        <time>2022-04-02T10:53:16Z</time>
      </trkpt>
      <trkpt lat="47.17211" lon="-1.66043">
        <ele>77</ele>
        <time>2022-04-02T10:53:18Z</time>
      </trkpt>
      <trkpt lat="47.17214" lon="-1.66061">
        <ele>77</ele>
        <time>2022-04-02T10:53:20Z</time>
      </trkpt>
      <trkpt lat="47.17217" lon="-1.66078">
        <ele>77</ele>
        <time>2022-04-02T10:53:22Z</time>
      </trkpt>
      <trkpt lat="47.1722" lon="-1.66096">
        <ele>77</ele>
        <time>2022-04-02T10:53:24Z</time>
      </trkpt>
      <trkpt lat="47.17224" lon="-1.66113">
        <ele>77</ele>
        <time>2022-04-02T10:53:26Z</time>
      </trkpt>
      <trkpt lat="47.17229" lon="-1.66129">
        <ele>76</ele>
        <time>2022-04-02T10:53:28Z</time>
      </trkpt>
      <trkpt lat="47.17233" lon="-1.66145">
        <ele>76</ele>
        <time>2022-04-02T10:53:30Z</time>
      </trkpt>
      <trkpt lat="47.17238" lon="-1.66161">
        <ele>77</ele>
        <time>2022-04-02T10:53:32Z</time>
      </trkpt>
      <trkpt lat="47.17244" lon="-1.66176">
        <ele>77</ele>
        <time>2022-04-02T10:53:34Z</time>
      </trkpt>
      <trkpt lat="47.17251" lon="-1.66188">
        <ele>78</ele>
        <time>2022-04-02T10:53:36Z</time>
      </trkpt>
      <trkpt lat="47.17258" lon="-1.662">
        <ele>79</ele>
        <time>2022-04-02T10:53:38Z</time>
      </trkpt>
      <trkpt lat="47.17265" lon="-1.66212">
        <ele>80</ele>
        <time>2022-04-02T10:53:40Z</time>
      </trkpt>
      <trkpt lat="47.17271" lon="-1.66225">
        <ele>81</ele>
        <time>2022-04-02T10:53:42Z</time>
      </trkpt>
      <trkpt lat="47.17277" lon="-1.66238">
        <ele>82</ele>
        <time>2022-04-02T10:53:44Z</time>
      </trkpt>
      <trkpt lat="47.17284" lon="-1.66249">
        <ele>83</ele>
        <time>2022-04-02T10:53:46Z</time>
      </trkpt>
      <trkpt lat="47.17292" lon="-1.66263">
        <ele>84</ele>
        <time>2022-04-02T10:53:48Z</time>
      </trkpt>
      <trkpt lat="47.17299" lon="-1.66274">
        <ele>84</ele>
        <time>2022-04-02T10:53:50Z</time>
      </trkpt>
      <trkpt lat="47.17307" lon="-1.66287">
        <ele>85</ele>
        <time>2022-04-02T10:53:52Z</time>
      </trkpt>
      <trkpt lat="47.17314" lon="-1.663">
        <ele>84</ele>
        <time>2022-04-02T10:53:54Z</time>
      </trkpt>
      <trkpt lat="47.17322" lon="-1.66312">
        <ele>84</ele>
        <time>2022-04-02T10:53:56Z</time>
      </trkpt>
      <trkpt lat="47.17329" lon="-1.66325">
        <ele>84</ele>
        <time>2022-04-02T10:53:58Z</time>
      </trkpt>
      <trkpt lat="47.17335" lon="-1.66338">
        <ele>84</ele>
        <time>2022-04-02T10:54:00Z</time>
      </trkpt>
      <trkpt lat="47.17342" lon="-1.6635">
        <ele>84</ele>
        <time>2022-04-02T10:54:02Z</time>
      </trkpt>
      <trkpt lat="47.17349" lon="-1.66363">
        <ele>84</ele>
        <time>2022-04-02T10:54:04Z</time>
      </trkpt>
      <trkpt lat="47.17355" lon="-1.66376">
        <ele>85</ele>
        <time>2022-04-02T10:54:06Z</time>
      </trkpt>
      <trkpt lat="47.17362" lon="-1.6639">
        <ele>85</ele>
        <time>2022-04-02T10:54:08Z</time>
      </trkpt>
      <trkpt lat="47.17368" lon="-1.66403">
        <ele>85</ele>
        <time>2022-04-02T10:54:10Z</time>
      </trkpt>
      <trkpt lat="47.17376" lon="-1.66418">
        <ele>84</ele>
        <time>2022-04-02T10:54:12Z</time>
      </trkpt>
      <trkpt lat="47.17383" lon="-1.66431">
        <ele>84</ele>
        <time>2022-04-02T10:54:14Z</time>
      </trkpt>
      <trkpt lat="47.17391" lon="-1.66445">
        <ele>83</ele>
        <time>2022-04-02T10:54:16Z</time>
      </trkpt>
      <trkpt lat="47.17399" lon="-1.66457">
        <ele>82</ele>
        <time>2022-04-02T10:54:18Z</time>
      </trkpt>
      <trkpt lat="47.17406" lon="-1.66471">
        <ele>81</ele>
        <time>2022-04-02T10:54:20Z</time>
      </trkpt>
      <trkpt lat="47.17414" lon="-1.66485">
        <ele>81</ele>
        <time>2022-04-02T10:54:22Z</time>
      </trkpt>
      <trkpt lat="47.1742" lon="-1.66498">
        <ele>82</ele>
        <time>2022-04-02T10:54:24Z</time>
      </trkpt>
      <trkpt lat="47.17427" lon="-1.66512">
        <ele>82</ele>
        <time>2022-04-02T10:54:26Z</time>
      </trkpt>
      <trkpt lat="47.17435" lon="-1.66526">
        <ele>82</ele>
        <time>2022-04-02T10:54:28Z</time>
      </trkpt>
      <trkpt lat="47.17442" lon="-1.66539">
        <ele>82</ele>
        <time>2022-04-02T10:54:30Z</time>
      </trkpt>
      <trkpt lat="47.17449" lon="-1.66551">
        <ele>83</ele>
        <time>2022-04-02T10:54:32Z</time>
      </trkpt>
      <trkpt lat="47.17455" lon="-1.66564">
        <ele>83</ele>
        <time>2022-04-02T10:54:34Z</time>
      </trkpt>
      <trkpt lat="47.17462" lon="-1.66578">
        <ele>84</ele>
        <time>2022-04-02T10:54:36Z</time>
      </trkpt>
      <trkpt lat="47.17469" lon="-1.66591">
        <ele>84</ele>
        <time>2022-04-02T10:54:38Z</time>
      </trkpt>
      <trkpt lat="47.17475" lon="-1.66604">
        <ele>84</ele>
        <time>2022-04-02T10:54:40Z</time>
      </trkpt>
      <trkpt lat="47.17484" lon="-1.66618">
        <ele>84</ele>
        <time>2022-04-02T10:54:42Z</time>
      </trkpt>
      <trkpt lat="47.17492" lon="-1.66632">
        <ele>83</ele>
        <time>2022-04-02T10:54:44Z</time>
      </trkpt>
      <trkpt lat="47.175" lon="-1.66647">
        <ele>83</ele>
        <time>2022-04-02T10:54:46Z</time>
      </trkpt>
      <trkpt lat="47.17507" lon="-1.66661">
        <ele>82</ele>
        <time>2022-04-02T10:54:48Z</time>
      </trkpt>
      <trkpt lat="47.17514" lon="-1.66674">
        <ele>82</ele>
        <time>2022-04-02T10:54:50Z</time>
      </trkpt>
      <trkpt lat="47.17521" lon="-1.66687">
        <ele>83</ele>
        <time>2022-04-02T10:54:52Z</time>
      </trkpt>
      <trkpt lat="47.17529" lon="-1.66701">
        <ele>83</ele>
        <time>2022-04-02T10:54:54Z</time>
      </trkpt>
      <trkpt lat="47.17536" lon="-1.66715">
        <ele>83</ele>
        <time>2022-04-02T10:54:56Z</time>
      </trkpt>
      <trkpt lat="47.17543" lon="-1.66728">
        <ele>83</ele>
        <time>2022-04-02T10:54:58Z</time>
      </trkpt>
      <trkpt lat="47.17551" lon="-1.66742">
        <ele>83</ele>
        <time>2022-04-02T10:55:00Z</time>
      </trkpt>
      <trkpt lat="47.17558" lon="-1.66756">
        <ele>82</ele>
        <time>2022-04-02T10:55:02Z</time>
      </trkpt>
      <trkpt lat="47.17566" lon="-1.66771">
        <ele>82</ele>
        <time>2022-04-02T10:55:04Z</time>
      </trkpt>
      <trkpt lat="47.17573" lon="-1.66783">
        <ele>81</ele>
        <time>2022-04-02T10:55:06Z</time>
      </trkpt>
      <trkpt lat="47.17581" lon="-1.66796">
        <ele>81</ele>
        <time>2022-04-02T10:55:08Z</time>
      </trkpt>
      <trkpt lat="47.17588" lon="-1.66808">
        <ele>82</ele>
        <time>2022-04-02T10:55:10Z</time>
      </trkpt>
      <trkpt lat="47.17595" lon="-1.66822">
        <ele>82</ele>
        <time>2022-04-02T10:55:12Z</time>
      </trkpt>
      <trkpt lat="47.17602" lon="-1.66836">
        <ele>83</ele>
        <time>2022-04-02T10:55:14Z</time>
      </trkpt>
      <trkpt lat="47.17609" lon="-1.6685">
        <ele>82</ele>
        <time>2022-04-02T10:55:16Z</time>
      </trkpt>
      <trkpt lat="47.17617" lon="-1.66866">
        <ele>81</ele>
        <time>2022-04-02T10:55:18Z</time>
      </trkpt>
      <trkpt lat="47.17624" lon="-1.66879">
        <ele>81</ele>
        <time>2022-04-02T10:55:20Z</time>
      </trkpt>
      <trkpt lat="47.17631" lon="-1.66892">
        <ele>81</ele>
        <time>2022-04-02T10:55:22Z</time>
      </trkpt>
      <trkpt lat="47.17639" lon="-1.66906">
        <ele>81</ele>
        <time>2022-04-02T10:55:24Z</time>
      </trkpt>
      <trkpt lat="47.17646" lon="-1.6692">
        <ele>81</ele>
        <time>2022-04-02T10:55:26Z</time>
      </trkpt>
      <trkpt lat="47.17654" lon="-1.66934">
        <ele>80</ele>
        <time>2022-04-02T10:55:28Z</time>
      </trkpt>
      <trkpt lat="47.17661" lon="-1.66949">
        <ele>80</ele>
        <time>2022-04-02T10:55:30Z</time>
      </trkpt>
      <trkpt lat="47.17673" lon="-1.6697">
        <ele>80</ele>
        <time>2022-04-02T10:55:33Z</time>
      </trkpt>
      <trkpt lat="47.1768" lon="-1.66983">
        <ele>80</ele>
        <time>2022-04-02T10:55:35Z</time>
      </trkpt>
      <trkpt lat="47.17687" lon="-1.66997">
        <ele>80</ele>
        <time>2022-04-02T10:55:37Z</time>
      </trkpt>
      <trkpt lat="47.17695" lon="-1.67012">
        <ele>80</ele>
        <time>2022-04-02T10:55:39Z</time>
      </trkpt>
      <trkpt lat="47.17703" lon="-1.67026">
        <ele>79</ele>
        <time>2022-04-02T10:55:41Z</time>
      </trkpt>
      <trkpt lat="47.1771" lon="-1.67039">
        <ele>80</ele>
        <time>2022-04-02T10:55:43Z</time>
      </trkpt>
      <trkpt lat="47.17717" lon="-1.67054">
        <ele>79</ele>
        <time>2022-04-02T10:55:45Z</time>
      </trkpt>
      <trkpt lat="47.17725" lon="-1.67068">
        <ele>79</ele>
        <time>2022-04-02T10:55:47Z</time>
      </trkpt>
      <trkpt lat="47.17732" lon="-1.67081">
        <ele>79</ele>
        <time>2022-04-02T10:55:49Z</time>
      </trkpt>
      <trkpt lat="47.17739" lon="-1.67095">
        <ele>79</ele>
        <time>2022-04-02T10:55:51Z</time>
      </trkpt>
      <trkpt lat="47.17746" lon="-1.67107">
        <ele>80</ele>
        <time>2022-04-02T10:55:53Z</time>
      </trkpt>
      <trkpt lat="47.17754" lon="-1.67121">
        <ele>79</ele>
        <time>2022-04-02T10:55:55Z</time>
      </trkpt>
      <trkpt lat="47.17761" lon="-1.67135">
        <ele>79</ele>
        <time>2022-04-02T10:55:57Z</time>
      </trkpt>
      <trkpt lat="47.17769" lon="-1.67149">
        <ele>80</ele>
        <time>2022-04-02T10:55:59Z</time>
      </trkpt>
      <trkpt lat="47.17775" lon="-1.67162">
        <ele>80</ele>
        <time>2022-04-02T10:56:01Z</time>
      </trkpt>
      <trkpt lat="47.17782" lon="-1.67175">
        <ele>80</ele>
        <time>2022-04-02T10:56:03Z</time>
      </trkpt>
      <trkpt lat="47.1779" lon="-1.67187">
        <ele>81</ele>
        <time>2022-04-02T10:56:05Z</time>
      </trkpt>
      <trkpt lat="47.17798" lon="-1.67202">
        <ele>80</ele>
        <time>2022-04-02T10:56:07Z</time>
      </trkpt>
      <trkpt lat="47.17805" lon="-1.67217">
        <ele>80</ele>
        <time>2022-04-02T10:56:09Z</time>
      </trkpt>
      <trkpt lat="47.17812" lon="-1.67231">
        <ele>80</ele>
        <time>2022-04-02T10:56:11Z</time>
      </trkpt>
      <trkpt lat="47.1782" lon="-1.67245">
        <ele>80</ele>
        <time>2022-04-02T10:56:13Z</time>
      </trkpt>
      <trkpt lat="47.17827" lon="-1.67259">
        <ele>80</ele>
        <time>2022-04-02T10:56:15Z</time>
      </trkpt>
      <trkpt lat="47.17835" lon="-1.67273">
        <ele>80</ele>
        <time>2022-04-02T10:56:17Z</time>
      </trkpt>
      <trkpt lat="47.17841" lon="-1.67286">
        <ele>80</ele>
        <time>2022-04-02T10:56:19Z</time>
      </trkpt>
      <trkpt lat="47.17849" lon="-1.67299">
        <ele>80</ele>
        <time>2022-04-02T10:56:21Z</time>
      </trkpt>
      <trkpt lat="47.17856" lon="-1.67312">
        <ele>80</ele>
        <time>2022-04-02T10:56:23Z</time>
      </trkpt>
      <trkpt lat="47.17863" lon="-1.67325">
        <ele>80</ele>
        <time>2022-04-02T10:56:25Z</time>
      </trkpt>
      <trkpt lat="47.17871" lon="-1.67338">
        <ele>80</ele>
        <time>2022-04-02T10:56:27Z</time>
      </trkpt>
      <trkpt lat="47.17877" lon="-1.67351">
        <ele>80</ele>
        <time>2022-04-02T10:56:29Z</time>
      </trkpt>
      <trkpt lat="47.17884" lon="-1.67364">
        <ele>80</ele>
        <time>2022-04-02T10:56:31Z</time>
      </trkpt>
      <trkpt lat="47.1789" lon="-1.67375">
        <ele>80</ele>
        <time>2022-04-02T10:56:33Z</time>
      </trkpt>
      <trkpt lat="47.17896" lon="-1.67387">
        <ele>80</ele>
        <time>2022-04-02T10:56:36Z</time>
      </trkpt>
      <trkpt lat="47.17904" lon="-1.67398">
        <ele>80</ele>
        <time>2022-04-02T10:56:40Z</time>
      </trkpt>
      <trkpt lat="47.1791" lon="-1.67412">
        <ele>80</ele>
        <time>2022-04-02T10:56:42Z</time>
      </trkpt>
      <trkpt lat="47.17915" lon="-1.67428">
        <ele>80</ele>
        <time>2022-04-02T10:56:44Z</time>
      </trkpt>
      <trkpt lat="47.1792" lon="-1.67444">
        <ele>80</ele>
        <time>2022-04-02T10:56:46Z</time>
      </trkpt>
      <trkpt lat="47.17925" lon="-1.67462">
        <ele>80</ele>
        <time>2022-04-02T10:56:48Z</time>
      </trkpt>
      <trkpt lat="47.17929" lon="-1.67479">
        <ele>80</ele>
        <time>2022-04-02T10:56:50Z</time>
      </trkpt>
      <trkpt lat="47.17934" lon="-1.67497">
        <ele>80</ele>
        <time>2022-04-02T10:56:52Z</time>
      </trkpt>
      <trkpt lat="47.17938" lon="-1.67514">
        <ele>80</ele>
        <time>2022-04-02T10:56:54Z</time>
      </trkpt>
      <trkpt lat="47.17943" lon="-1.67531">
        <ele>79</ele>
        <time>2022-04-02T10:56:56Z</time>
      </trkpt>
      <trkpt lat="47.17948" lon="-1.67547">
        <ele>79</ele>
        <time>2022-04-02T10:56:58Z</time>
      </trkpt>
      <trkpt lat="47.17952" lon="-1.67563">
        <ele>80</ele>
        <time>2022-04-02T10:57:00Z</time>
      </trkpt>
      <trkpt lat="47.17957" lon="-1.6758">
        <ele>80</ele>
        <time>2022-04-02T10:57:02Z</time>
      </trkpt>
      <trkpt lat="47.17961" lon="-1.67596">
        <ele>80</ele>
        <time>2022-04-02T10:57:04Z</time>
      </trkpt>
      <trkpt lat="47.17966" lon="-1.67612">
        <ele>80</ele>
        <time>2022-04-02T10:57:06Z</time>
      </trkpt>
      <trkpt lat="47.1797" lon="-1.67628">
        <ele>81</ele>
        <time>2022-04-02T10:57:08Z</time>
      </trkpt>
      <trkpt lat="47.17975" lon="-1.67644">
        <ele>82</ele>
        <time>2022-04-02T10:57:10Z</time>
      </trkpt>
      <trkpt lat="47.17979" lon="-1.6766">
        <ele>82</ele>
        <time>2022-04-02T10:57:12Z</time>
      </trkpt>
      <trkpt lat="47.17983" lon="-1.67676">
        <ele>83</ele>
        <time>2022-04-02T10:57:14Z</time>
      </trkpt>
      <trkpt lat="47.17987" lon="-1.67691">
        <ele>83</ele>
        <time>2022-04-02T10:57:16Z</time>
      </trkpt>
      <trkpt lat="47.17991" lon="-1.67706">
        <ele>82</ele>
        <time>2022-04-02T10:57:18Z</time>
      </trkpt>
      <trkpt lat="47.17997" lon="-1.67721">
        <ele>82</ele>
        <time>2022-04-02T10:57:20Z</time>
      </trkpt>
      <trkpt lat="47.18008" lon="-1.67726">
        <ele>81</ele>
        <time>2022-04-02T10:57:22Z</time>
      </trkpt>
      <trkpt lat="47.18018" lon="-1.67721">
        <ele>80</ele>
        <time>2022-04-02T10:57:24Z</time>
      </trkpt>
      <trkpt lat="47.1803" lon="-1.67714">
        <ele>80</ele>
        <time>2022-04-02T10:57:26Z</time>
      </trkpt>
      <trkpt lat="47.18041" lon="-1.67708">
        <ele>79</ele>
        <time>2022-04-02T10:57:28Z</time>
      </trkpt>
      <trkpt lat="47.18053" lon="-1.67701">
        <ele>79</ele>
        <time>2022-04-02T10:57:30Z</time>
      </trkpt>
      <trkpt lat="47.18065" lon="-1.67694">
        <ele>79</ele>
        <time>2022-04-02T10:57:32Z</time>
      </trkpt>
      <trkpt lat="47.18076" lon="-1.67688">
        <ele>79</ele>
        <time>2022-04-02T10:57:34Z</time>
      </trkpt>
      <trkpt lat="47.18087" lon="-1.67681">
        <ele>79</ele>
        <time>2022-04-02T10:57:36Z</time>
      </trkpt>
      <trkpt lat="47.18099" lon="-1.67674">
        <ele>78</ele>
        <time>2022-04-02T10:57:38Z</time>
      </trkpt>
      <trkpt lat="47.1811" lon="-1.67667">
        <ele>78</ele>
        <time>2022-04-02T10:57:40Z</time>
      </trkpt>
      <trkpt lat="47.18122" lon="-1.6766">
        <ele>78</ele>
        <time>2022-04-02T10:57:42Z</time>
      </trkpt>
      <trkpt lat="47.18133" lon="-1.67653">
        <ele>78</ele>
        <time>2022-04-02T10:57:44Z</time>
      </trkpt>
      <trkpt lat="47.18145" lon="-1.67646">
        <ele>78</ele>
        <time>2022-04-02T10:57:46Z</time>
      </trkpt>
      <trkpt lat="47.18157" lon="-1.67639">
        <ele>77</ele>
        <time>2022-04-02T10:57:48Z</time>
      </trkpt>
      <trkpt lat="47.18169" lon="-1.67632">
        <ele>77</ele>
        <time>2022-04-02T10:57:50Z</time>
      </trkpt>
      <trkpt lat="47.1818" lon="-1.67624">
        <ele>77</ele>
        <time>2022-04-02T10:57:52Z</time>
      </trkpt>
      <trkpt lat="47.18191" lon="-1.67615">
        <ele>77</ele>
        <time>2022-04-02T10:57:54Z</time>
      </trkpt>
      <trkpt lat="47.18202" lon="-1.67606">
        <ele>77</ele>
        <time>2022-04-02T10:57:56Z</time>
      </trkpt>
      <trkpt lat="47.18214" lon="-1.676">
        <ele>78</ele>
        <time>2022-04-02T10:57:58Z</time>
      </trkpt>
      <trkpt lat="47.18226" lon="-1.67595">
        <ele>77</ele>
        <time>2022-04-02T10:58:00Z</time>
      </trkpt>
      <trkpt lat="47.18237" lon="-1.67588">
        <ele>77</ele>
        <time>2022-04-02T10:58:02Z</time>
      </trkpt>
      <trkpt lat="47.18249" lon="-1.67581">
        <ele>77</ele>
        <time>2022-04-02T10:58:04Z</time>
      </trkpt>
      <trkpt lat="47.1826" lon="-1.67575">
        <ele>77</ele>
        <time>2022-04-02T10:58:06Z</time>
      </trkpt>
      <trkpt lat="47.18272" lon="-1.67567">
        <ele>77</ele>
        <time>2022-04-02T10:58:08Z</time>
      </trkpt>
      <trkpt lat="47.18283" lon="-1.6756">
        <ele>78</ele>
        <time>2022-04-02T10:58:10Z</time>
      </trkpt>
      <trkpt lat="47.18294" lon="-1.67554">
        <ele>78</ele>
        <time>2022-04-02T10:58:12Z</time>
      </trkpt>
      <trkpt lat="47.18305" lon="-1.67548">
        <ele>78</ele>
        <time>2022-04-02T10:58:14Z</time>
      </trkpt>
      <trkpt lat="47.18316" lon="-1.67541">
        <ele>78</ele>
        <time>2022-04-02T10:58:16Z</time>
      </trkpt>
      <trkpt lat="47.18327" lon="-1.67534">
        <ele>78</ele>
        <time>2022-04-02T10:58:18Z</time>
      </trkpt>
      <trkpt lat="47.18338" lon="-1.67527">
        <ele>79</ele>
        <time>2022-04-02T10:58:20Z</time>
      </trkpt>
      <trkpt lat="47.18349" lon="-1.67521">
        <ele>79</ele>
        <time>2022-04-02T10:58:22Z</time>
      </trkpt>
      <trkpt lat="47.18359" lon="-1.67515">
        <ele>79</ele>
        <time>2022-04-02T10:58:24Z</time>
      </trkpt>
      <trkpt lat="47.1837" lon="-1.67508">
        <ele>79</ele>
        <time>2022-04-02T10:58:26Z</time>
      </trkpt>
      <trkpt lat="47.1838" lon="-1.67502">
        <ele>80</ele>
        <time>2022-04-02T10:58:28Z</time>
      </trkpt>
      <trkpt lat="47.1839" lon="-1.67495">
        <ele>80</ele>
        <time>2022-04-02T10:58:30Z</time>
      </trkpt>
      <trkpt lat="47.18401" lon="-1.67489">
        <ele>80</ele>
        <time>2022-04-02T10:58:32Z</time>
      </trkpt>
      <trkpt lat="47.18412" lon="-1.67483">
        <ele>80</ele>
        <time>2022-04-02T10:58:34Z</time>
      </trkpt>
      <trkpt lat="47.18422" lon="-1.67477">
        <ele>80</ele>
        <time>2022-04-02T10:58:36Z</time>
      </trkpt>
      <trkpt lat="47.18433" lon="-1.67471">
        <ele>80</ele>
        <time>2022-04-02T10:58:38Z</time>
      </trkpt>
      <trkpt lat="47.18443" lon="-1.67465">
        <ele>80</ele>
        <time>2022-04-02T10:58:40Z</time>
      </trkpt>
      <trkpt lat="47.18453" lon="-1.67459">
        <ele>80</ele>
        <time>2022-04-02T10:58:42Z</time>
      </trkpt>
      <trkpt lat="47.18463" lon="-1.67453">
        <ele>80</ele>
        <time>2022-04-02T10:58:44Z</time>
      </trkpt>
      <trkpt lat="47.18473" lon="-1.67446">
        <ele>80</ele>
        <time>2022-04-02T10:58:46Z</time>
      </trkpt>
      <trkpt lat="47.18483" lon="-1.6744">
        <ele>80</ele>
        <time>2022-04-02T10:58:48Z</time>
      </trkpt>
      <trkpt lat="47.18494" lon="-1.67434">
        <ele>81</ele>
        <time>2022-04-02T10:58:50Z</time>
      </trkpt>
      <trkpt lat="47.18503" lon="-1.67428">
        <ele>82</ele>
        <time>2022-04-02T10:58:52Z</time>
      </trkpt>
      <trkpt lat="47.18512" lon="-1.67422">
        <ele>82</ele>
        <time>2022-04-02T10:58:54Z</time>
      </trkpt>
      <trkpt lat="47.1852" lon="-1.67415">
        <ele>82</ele>
        <time>2022-04-02T10:58:56Z</time>
      </trkpt>
      <trkpt lat="47.18528" lon="-1.67409">
        <ele>82</ele>
        <time>2022-04-02T10:58:58Z</time>
      </trkpt>
      <trkpt lat="47.18537" lon="-1.67415">
        <ele>81</ele>
        <time>2022-04-02T10:59:00Z</time>
      </trkpt>
      <trkpt lat="47.18539" lon="-1.67429">
        <ele>81</ele>
        <time>2022-04-02T10:59:02Z</time>
      </trkpt>
      <trkpt lat="47.18544" lon="-1.67443">
        <ele>81</ele>
        <time>2022-04-02T10:59:04Z</time>
      </trkpt>
      <trkpt lat="47.18554" lon="-1.67445">
        <ele>82</ele>
        <time>2022-04-02T10:59:06Z</time>
      </trkpt>
      <trkpt lat="47.18563" lon="-1.67439">
        <ele>84</ele>
        <time>2022-04-02T10:59:08Z</time>
      </trkpt>
      <trkpt lat="47.18572" lon="-1.67433">
        <ele>84</ele>
        <time>2022-04-02T10:59:10Z</time>
      </trkpt>
      <trkpt lat="47.18582" lon="-1.67428">
        <ele>84</ele>
        <time>2022-04-02T10:59:12Z</time>
      </trkpt>
      <trkpt lat="47.18592" lon="-1.67431">
        <ele>84</ele>
        <time>2022-04-02T10:59:14Z</time>
      </trkpt>
      <trkpt lat="47.186" lon="-1.67442">
        <ele>84</ele>
        <time>2022-04-02T10:59:16Z</time>
      </trkpt>
      <trkpt lat="47.18605" lon="-1.67458">
        <ele>84</ele>
        <time>2022-04-02T10:59:18Z</time>
      </trkpt>
      <trkpt lat="47.18609" lon="-1.67473">
        <ele>84</ele>
        <time>2022-04-02T10:59:20Z</time>
      </trkpt>
      <trkpt lat="47.18614" lon="-1.67488">
        <ele>84</ele>
        <time>2022-04-02T10:59:22Z</time>
      </trkpt>
      <trkpt lat="47.1862" lon="-1.67503">
        <ele>83</ele>
        <time>2022-04-02T10:59:24Z</time>
      </trkpt>
      <trkpt lat="47.18626" lon="-1.67518">
        <ele>83</ele>
        <time>2022-04-02T10:59:26Z</time>
      </trkpt>
      <trkpt lat="47.18632" lon="-1.67531">
        <ele>84</ele>
        <time>2022-04-02T10:59:28Z</time>
      </trkpt>
      <trkpt lat="47.1864" lon="-1.67542">
        <ele>84</ele>
        <time>2022-04-02T10:59:30Z</time>
      </trkpt>
      <trkpt lat="47.18648" lon="-1.67553">
        <ele>84</ele>
        <time>2022-04-02T10:59:32Z</time>
      </trkpt>
      <trkpt lat="47.18657" lon="-1.67564">
        <ele>83</ele>
        <time>2022-04-02T10:59:34Z</time>
      </trkpt>
      <trkpt lat="47.18665" lon="-1.67576">
        <ele>83</ele>
        <time>2022-04-02T10:59:36Z</time>
      </trkpt>
      <trkpt lat="47.18673" lon="-1.67587">
        <ele>83</ele>
        <time>2022-04-02T10:59:38Z</time>
      </trkpt>
      <trkpt lat="47.18681" lon="-1.67598">
        <ele>83</ele>
        <time>2022-04-02T10:59:40Z</time>
      </trkpt>
      <trkpt lat="47.1869" lon="-1.67608">
        <ele>82</ele>
        <time>2022-04-02T10:59:42Z</time>
      </trkpt>
      <trkpt lat="47.18699" lon="-1.67615">
        <ele>83</ele>
        <time>2022-04-02T10:59:44Z</time>
      </trkpt>
      <trkpt lat="47.1871" lon="-1.67617">
        <ele>83</ele>
        <time>2022-04-02T10:59:46Z</time>
      </trkpt>
      <trkpt lat="47.18721" lon="-1.67615">
        <ele>83</ele>
        <time>2022-04-02T10:59:48Z</time>
      </trkpt>
      <trkpt lat="47.18731" lon="-1.67611">
        <ele>83</ele>
        <time>2022-04-02T10:59:50Z</time>
      </trkpt>
      <trkpt lat="47.1874" lon="-1.67607">
        <ele>83</ele>
        <time>2022-04-02T10:59:52Z</time>
      </trkpt>
      <trkpt lat="47.18751" lon="-1.67609">
        <ele>83</ele>
        <time>2022-04-02T10:59:55Z</time>
      </trkpt>
      <trkpt lat="47.18759" lon="-1.67627">
        <ele>83</ele>
        <time>2022-04-02T10:59:58Z</time>
      </trkpt>
      <trkpt lat="47.18765" lon="-1.67643">
        <ele>83</ele>
        <time>2022-04-02T11:00:00Z</time>
      </trkpt>
      <trkpt lat="47.18772" lon="-1.67656">
        <ele>82</ele>
        <time>2022-04-02T11:00:02Z</time>
      </trkpt>
      <trkpt lat="47.1878" lon="-1.67668">
        <ele>82</ele>
        <time>2022-04-02T11:00:04Z</time>
      </trkpt>
      <trkpt lat="47.18788" lon="-1.6768">
        <ele>81</ele>
        <time>2022-04-02T11:00:06Z</time>
      </trkpt>
      <trkpt lat="47.18795" lon="-1.67693">
        <ele>81</ele>
        <time>2022-04-02T11:00:08Z</time>
      </trkpt>
      <trkpt lat="47.18801" lon="-1.67708">
        <ele>81</ele>
        <time>2022-04-02T11:00:10Z</time>
      </trkpt>
      <trkpt lat="47.18805" lon="-1.67723">
        <ele>81</ele>
        <time>2022-04-02T11:00:12Z</time>
      </trkpt>
      <trkpt lat="47.18811" lon="-1.67739">
        <ele>81</ele>
        <time>2022-04-02T11:00:14Z</time>
      </trkpt>
      <trkpt lat="47.18818" lon="-1.67754">
        <ele>81</ele>
        <time>2022-04-02T11:00:16Z</time>
      </trkpt>
      <trkpt lat="47.18824" lon="-1.6777">
        <ele>80</ele>
        <time>2022-04-02T11:00:18Z</time>
      </trkpt>
      <trkpt lat="47.1883" lon="-1.67787">
        <ele>80</ele>
        <time>2022-04-02T11:00:20Z</time>
      </trkpt>
      <trkpt lat="47.18837" lon="-1.67805">
        <ele>79</ele>
        <time>2022-04-02T11:00:22Z</time>
      </trkpt>
      <trkpt lat="47.18843" lon="-1.67823">
        <ele>78</ele>
        <time>2022-04-02T11:00:24Z</time>
      </trkpt>
      <trkpt lat="47.1885" lon="-1.67841">
        <ele>77</ele>
        <time>2022-04-02T11:00:26Z</time>
      </trkpt>
      <trkpt lat="47.18857" lon="-1.6786">
        <ele>77</ele>
        <time>2022-04-02T11:00:28Z</time>
      </trkpt>
      <trkpt lat="47.18866" lon="-1.67877">
        <ele>76</ele>
        <time>2022-04-02T11:00:30Z</time>
      </trkpt>
      <trkpt lat="47.18878" lon="-1.6789">
        <ele>76</ele>
        <time>2022-04-02T11:00:32Z</time>
      </trkpt>
      <trkpt lat="47.18892" lon="-1.67897">
        <ele>75</ele>
        <time>2022-04-02T11:00:34Z</time>
      </trkpt>
      <trkpt lat="47.18906" lon="-1.679">
        <ele>76</ele>
        <time>2022-04-02T11:00:36Z</time>
      </trkpt>
      <trkpt lat="47.18918" lon="-1.67907">
        <ele>76</ele>
        <time>2022-04-02T11:00:38Z</time>
      </trkpt>
      <trkpt lat="47.18926" lon="-1.6792">
        <ele>76</ele>
        <time>2022-04-02T11:00:40Z</time>
      </trkpt>
      <trkpt lat="47.18933" lon="-1.67935">
        <ele>76</ele>
        <time>2022-04-02T11:00:42Z</time>
      </trkpt>
      <trkpt lat="47.1894" lon="-1.6795">
        <ele>76</ele>
        <time>2022-04-02T11:00:44Z</time>
      </trkpt>
      <trkpt lat="47.18947" lon="-1.67964">
        <ele>76</ele>
        <time>2022-04-02T11:00:46Z</time>
      </trkpt>
      <trkpt lat="47.18955" lon="-1.67978">
        <ele>77</ele>
        <time>2022-04-02T11:00:48Z</time>
      </trkpt>
      <trkpt lat="47.18962" lon="-1.67991">
        <ele>77</ele>
        <time>2022-04-02T11:00:50Z</time>
      </trkpt>
      <trkpt lat="47.18969" lon="-1.68003">
        <ele>77</ele>
        <time>2022-04-02T11:00:52Z</time>
      </trkpt>
      <trkpt lat="47.18976" lon="-1.68016">
        <ele>78</ele>
        <time>2022-04-02T11:00:54Z</time>
      </trkpt>
      <trkpt lat="47.18983" lon="-1.68026">
        <ele>78</ele>
        <time>2022-04-02T11:00:56Z</time>
      </trkpt>
      <trkpt lat="47.18992" lon="-1.68037">
        <ele>78</ele>
        <time>2022-04-02T11:00:59Z</time>
      </trkpt>
      <trkpt lat="47.19002" lon="-1.68028">
        <ele>78</ele>
        <time>2022-04-02T11:01:01Z</time>
      </trkpt>
      <trkpt lat="47.19016" lon="-1.6802">
        <ele>76</ele>
        <time>2022-04-02T11:01:03Z</time>
      </trkpt>
      <trkpt lat="47.19032" lon="-1.68019">
        <ele>75</ele>
        <time>2022-04-02T11:01:05Z</time>
      </trkpt>
      <trkpt lat="47.1905" lon="-1.68024">
        <ele>74</ele>
        <time>2022-04-02T11:01:07Z</time>
      </trkpt>
      <trkpt lat="47.19066" lon="-1.68031">
        <ele>73</ele>
        <time>2022-04-02T11:01:09Z</time>
      </trkpt>
      <trkpt lat="47.1908" lon="-1.68042">
        <ele>73</ele>
        <time>2022-04-02T11:01:11Z</time>
      </trkpt>
      <trkpt lat="47.19088" lon="-1.68059">
        <ele>73</ele>
        <time>2022-04-02T11:01:13Z</time>
      </trkpt>
      <trkpt lat="47.19095" lon="-1.68076">
        <ele>73</ele>
        <time>2022-04-02T11:01:15Z</time>
      </trkpt>
      <trkpt lat="47.19102" lon="-1.68093">
        <ele>73</ele>
        <time>2022-04-02T11:01:17Z</time>
      </trkpt>
      <trkpt lat="47.19107" lon="-1.6811">
        <ele>73</ele>
        <time>2022-04-02T11:01:19Z</time>
      </trkpt>
      <trkpt lat="47.19112" lon="-1.68127">
        <ele>73</ele>
        <time>2022-04-02T11:01:21Z</time>
      </trkpt>
      <trkpt lat="47.19115" lon="-1.68142">
        <ele>74</ele>
        <time>2022-04-02T11:01:23Z</time>
      </trkpt>
      <trkpt lat="47.19118" lon="-1.68156">
        <ele>74</ele>
        <time>2022-04-02T11:01:25Z</time>
      </trkpt>
      <trkpt lat="47.19122" lon="-1.68168">
        <ele>73</ele>
        <time>2022-04-02T11:01:28Z</time>
      </trkpt>
      <trkpt lat="47.1913" lon="-1.68179">
        <ele>72</ele>
        <time>2022-04-02T11:01:33Z</time>
      </trkpt>
      <trkpt lat="47.19126" lon="-1.68191">
        <ele>72</ele>
        <time>2022-04-02T11:01:38Z</time>
      </trkpt>
      <trkpt lat="47.19133" lon="-1.68179">
        <ele>72</ele>
        <time>2022-04-02T11:01:44Z</time>
      </trkpt>
      <trkpt lat="47.19142" lon="-1.68183">
        <ele>70</ele>
        <time>2022-04-02T11:01:49Z</time>
      </trkpt>
      <trkpt lat="47.19146" lon="-1.682">
        <ele>69</ele>
        <time>2022-04-02T11:01:53Z</time>
      </trkpt>
      <trkpt lat="47.19156" lon="-1.68212">
        <ele>67</ele>
        <time>2022-04-02T11:01:56Z</time>
      </trkpt>
      <trkpt lat="47.1917" lon="-1.68219">
        <ele>66</ele>
        <time>2022-04-02T11:01:58Z</time>
      </trkpt>
      <trkpt lat="47.19186" lon="-1.68223">
        <ele>63</ele>
        <time>2022-04-02T11:02:00Z</time>
      </trkpt>
      <trkpt lat="47.19198" lon="-1.68218">
        <ele>62</ele>
        <time>2022-04-02T11:02:02Z</time>
      </trkpt>
      <trkpt lat="47.1921" lon="-1.68211">
        <ele>59</ele>
        <time>2022-04-02T11:02:04Z</time>
      </trkpt>
      <trkpt lat="47.19221" lon="-1.68203">
        <ele>57</ele>
        <time>2022-04-02T11:02:06Z</time>
      </trkpt>
      <trkpt lat="47.19232" lon="-1.68196">
        <ele>55</ele>
        <time>2022-04-02T11:02:08Z</time>
      </trkpt>
      <trkpt lat="47.19244" lon="-1.68187">
        <ele>55</ele>
        <time>2022-04-02T11:02:10Z</time>
      </trkpt>
      <trkpt lat="47.19256" lon="-1.6818">
        <ele>54</ele>
        <time>2022-04-02T11:02:12Z</time>
      </trkpt>
      <trkpt lat="47.19268" lon="-1.68171">
        <ele>54</ele>
        <time>2022-04-02T11:02:14Z</time>
      </trkpt>
      <trkpt lat="47.1928" lon="-1.68163">
        <ele>54</ele>
        <time>2022-04-02T11:02:16Z</time>
      </trkpt>
      <trkpt lat="47.19291" lon="-1.68155">
        <ele>54</ele>
        <time>2022-04-02T11:02:18Z</time>
      </trkpt>
      <trkpt lat="47.19302" lon="-1.68146">
        <ele>54</ele>
        <time>2022-04-02T11:02:20Z</time>
      </trkpt>
      <trkpt lat="47.19313" lon="-1.68139">
        <ele>54</ele>
        <time>2022-04-02T11:02:22Z</time>
      </trkpt>
      <trkpt lat="47.19324" lon="-1.68131">
        <ele>54</ele>
        <time>2022-04-02T11:02:24Z</time>
      </trkpt>
      <trkpt lat="47.19335" lon="-1.68123">
        <ele>54</ele>
        <time>2022-04-02T11:02:26Z</time>
      </trkpt>
      <trkpt lat="47.19347" lon="-1.68115">
        <ele>53</ele>
        <time>2022-04-02T11:02:28Z</time>
      </trkpt>
      <trkpt lat="47.19358" lon="-1.68107">
        <ele>53</ele>
        <time>2022-04-02T11:02:30Z</time>
      </trkpt>
      <trkpt lat="47.19368" lon="-1.681">
        <ele>54</ele>
        <time>2022-04-02T11:02:32Z</time>
      </trkpt>
      <trkpt lat="47.19379" lon="-1.68092">
        <ele>54</ele>
        <time>2022-04-02T11:02:34Z</time>
      </trkpt>
      <trkpt lat="47.1939" lon="-1.68084">
        <ele>54</ele>
        <time>2022-04-02T11:02:36Z</time>
      </trkpt>
      <trkpt lat="47.19401" lon="-1.68077">
        <ele>54</ele>
        <time>2022-04-02T11:02:38Z</time>
      </trkpt>
      <trkpt lat="47.19411" lon="-1.68069">
        <ele>54</ele>
        <time>2022-04-02T11:02:40Z</time>
      </trkpt>
      <trkpt lat="47.19418" lon="-1.68058">
        <ele>54</ele>
        <time>2022-04-02T11:02:42Z</time>
      </trkpt>
      <trkpt lat="47.19418" lon="-1.6804">
        <ele>54</ele>
        <time>2022-04-02T11:02:44Z</time>
      </trkpt>
      <trkpt lat="47.19414" lon="-1.68021">
        <ele>53</ele>
        <time>2022-04-02T11:02:46Z</time>
      </trkpt>
      <trkpt lat="47.19408" lon="-1.68002">
        <ele>53</ele>
        <time>2022-04-02T11:02:48Z</time>
      </trkpt>
      <trkpt lat="47.19403" lon="-1.67983">
        <ele>53</ele>
        <time>2022-04-02T11:02:50Z</time>
      </trkpt>
      <trkpt lat="47.19398" lon="-1.67965">
        <ele>53</ele>
        <time>2022-04-02T11:02:52Z</time>
      </trkpt>
      <trkpt lat="47.19393" lon="-1.67948">
        <ele>54</ele>
        <time>2022-04-02T11:02:54Z</time>
      </trkpt>
      <trkpt lat="47.19388" lon="-1.6793">
        <ele>54</ele>
        <time>2022-04-02T11:02:56Z</time>
      </trkpt>
      <trkpt lat="47.19383" lon="-1.67912">
        <ele>54</ele>
        <time>2022-04-02T11:02:58Z</time>
      </trkpt>
      <trkpt lat="47.19379" lon="-1.67894">
        <ele>54</ele>
        <time>2022-04-02T11:03:00Z</time>
      </trkpt>
      <trkpt lat="47.19375" lon="-1.67875">
        <ele>54</ele>
        <time>2022-04-02T11:03:02Z</time>
      </trkpt>
      <trkpt lat="47.19372" lon="-1.67856">
        <ele>54</ele>
        <time>2022-04-02T11:03:04Z</time>
      </trkpt>
      <trkpt lat="47.19369" lon="-1.67836">
        <ele>53</ele>
        <time>2022-04-02T11:03:06Z</time>
      </trkpt>
      <trkpt lat="47.19368" lon="-1.67816">
        <ele>53</ele>
        <time>2022-04-02T11:03:08Z</time>
      </trkpt>
      <trkpt lat="47.19368" lon="-1.67796">
        <ele>53</ele>
        <time>2022-04-02T11:03:10Z</time>
      </trkpt>
      <trkpt lat="47.19369" lon="-1.67777">
        <ele>52</ele>
        <time>2022-04-02T11:03:12Z</time>
      </trkpt>
      <trkpt lat="47.19371" lon="-1.67757">
        <ele>52</ele>
        <time>2022-04-02T11:03:14Z</time>
      </trkpt>
      <trkpt lat="47.19373" lon="-1.67737">
        <ele>52</ele>
        <time>2022-04-02T11:03:16Z</time>
      </trkpt>
      <trkpt lat="47.19377" lon="-1.67718">
        <ele>51</ele>
        <time>2022-04-02T11:03:18Z</time>
      </trkpt>
      <trkpt lat="47.19381" lon="-1.677">
        <ele>51</ele>
        <time>2022-04-02T11:03:20Z</time>
      </trkpt>
      <trkpt lat="47.19386" lon="-1.67683">
        <ele>51</ele>
        <time>2022-04-02T11:03:22Z</time>
      </trkpt>
      <trkpt lat="47.19392" lon="-1.67666">
        <ele>51</ele>
        <time>2022-04-02T11:03:24Z</time>
      </trkpt>
      <trkpt lat="47.19398" lon="-1.6765">
        <ele>51</ele>
        <time>2022-04-02T11:03:26Z</time>
      </trkpt>
      <trkpt lat="47.19405" lon="-1.67635">
        <ele>51</ele>
        <time>2022-04-02T11:03:28Z</time>
      </trkpt>
      <trkpt lat="47.19413" lon="-1.6762">
        <ele>51</ele>
        <time>2022-04-02T11:03:30Z</time>
      </trkpt>
      <trkpt lat="47.19421" lon="-1.67606">
        <ele>51</ele>
        <time>2022-04-02T11:03:32Z</time>
      </trkpt>
      <trkpt lat="47.19431" lon="-1.67593">
        <ele>51</ele>
        <time>2022-04-02T11:03:34Z</time>
      </trkpt>
      <trkpt lat="47.19441" lon="-1.6758">
        <ele>51</ele>
        <time>2022-04-02T11:03:36Z</time>
      </trkpt>
      <trkpt lat="47.19452" lon="-1.67568">
        <ele>51</ele>
        <time>2022-04-02T11:03:38Z</time>
      </trkpt>
      <trkpt lat="47.19463" lon="-1.67558">
        <ele>52</ele>
        <time>2022-04-02T11:03:40Z</time>
      </trkpt>
      <trkpt lat="47.19474" lon="-1.67549">
        <ele>51</ele>
        <time>2022-04-02T11:03:42Z</time>
      </trkpt>
      <trkpt lat="47.19485" lon="-1.6754">
        <ele>51</ele>
        <time>2022-04-02T11:03:44Z</time>
      </trkpt>
      <trkpt lat="47.19494" lon="-1.67529">
        <ele>52</ele>
        <time>2022-04-02T11:03:46Z</time>
      </trkpt>
      <trkpt lat="47.195" lon="-1.67516">
        <ele>53</ele>
        <time>2022-04-02T11:03:48Z</time>
      </trkpt>
      <trkpt lat="47.19508" lon="-1.67508">
        <ele>53</ele>
        <time>2022-04-02T11:03:50Z</time>
      </trkpt>
      <trkpt lat="47.19518" lon="-1.6751">
        <ele>53</ele>
        <time>2022-04-02T11:03:52Z</time>
      </trkpt>
      <trkpt lat="47.19527" lon="-1.67509">
        <ele>53</ele>
        <time>2022-04-02T11:03:54Z</time>
      </trkpt>
      <trkpt lat="47.19537" lon="-1.67511">
        <ele>51</ele>
        <time>2022-04-02T11:03:56Z</time>
      </trkpt>
      <trkpt lat="47.19545" lon="-1.67522">
        <ele>51</ele>
        <time>2022-04-02T11:03:58Z</time>
      </trkpt>
      <trkpt lat="47.19554" lon="-1.67535">
        <ele>49</ele>
        <time>2022-04-02T11:04:00Z</time>
      </trkpt>
      <trkpt lat="47.19564" lon="-1.67549">
        <ele>47</ele>
        <time>2022-04-02T11:04:02Z</time>
      </trkpt>
      <trkpt lat="47.19574" lon="-1.67563">
        <ele>46</ele>
        <time>2022-04-02T11:04:04Z</time>
      </trkpt>
      <trkpt lat="47.19585" lon="-1.67576">
        <ele>46</ele>
        <time>2022-04-02T11:04:06Z</time>
      </trkpt>
      <trkpt lat="47.19593" lon="-1.67583">
        <ele>47</ele>
        <time>2022-04-02T11:04:08Z</time>
      </trkpt>
      <trkpt lat="47.19602" lon="-1.67595">
        <ele>47</ele>
        <time>2022-04-02T11:04:11Z</time>
      </trkpt>
      <trkpt lat="47.19609" lon="-1.67605">
        <ele>49</ele>
        <time>2022-04-02T11:04:14Z</time>
      </trkpt>
      <trkpt lat="47.19618" lon="-1.67602">
        <ele>51</ele>
        <time>2022-04-02T11:05:43Z</time>
      </trkpt>
      <trkpt lat="47.19627" lon="-1.67597">
        <ele>49</ele>
        <time>2022-04-02T11:06:03Z</time>
      </trkpt>
      <trkpt lat="47.19637" lon="-1.67598">
        <ele>49</ele>
        <time>2022-04-02T11:06:11Z</time>
      </trkpt>
      <trkpt lat="47.19646" lon="-1.67599">
        <ele>49</ele>
        <time>2022-04-02T11:06:17Z</time>
      </trkpt>
      <trkpt lat="47.19656" lon="-1.67598">
        <ele>50</ele>
        <time>2022-04-02T11:06:23Z</time>
      </trkpt>
      <trkpt lat="47.19665" lon="-1.67597">
        <ele>51</ele>
        <time>2022-04-02T11:06:29Z</time>
      </trkpt>
      <trkpt lat="47.19675" lon="-1.67595">
        <ele>50</ele>
        <time>2022-04-02T11:06:36Z</time>
      </trkpt>
      <trkpt lat="47.19684" lon="-1.6759">
        <ele>50</ele>
        <time>2022-04-02T11:06:43Z</time>
      </trkpt>
      <trkpt lat="47.19693" lon="-1.67582">
        <ele>48</ele>
        <time>2022-04-02T11:06:49Z</time>
      </trkpt>
      <trkpt lat="47.19701" lon="-1.67573">
        <ele>49</ele>
        <time>2022-04-02T11:06:55Z</time>
      </trkpt>
      <trkpt lat="47.19706" lon="-1.67562">
        <ele>49</ele>
        <time>2022-04-02T11:07:01Z</time>
      </trkpt>
      <trkpt lat="47.19712" lon="-1.67551">
        <ele>48</ele>
        <time>2022-04-02T11:07:06Z</time>
      </trkpt>
      <trkpt lat="47.19717" lon="-1.67539">
        <ele>48</ele>
        <time>2022-04-02T11:07:11Z</time>
      </trkpt>
      <trkpt lat="47.19721" lon="-1.67527">
        <ele>48</ele>
        <time>2022-04-02T11:07:16Z</time>
      </trkpt>
      <trkpt lat="47.19725" lon="-1.67513">
        <ele>47</ele>
        <time>2022-04-02T11:07:22Z</time>
      </trkpt>
      <trkpt lat="47.19729" lon="-1.67501">
        <ele>45</ele>
        <time>2022-04-02T11:07:28Z</time>
      </trkpt>
      <trkpt lat="47.19734" lon="-1.67489">
        <ele>45</ele>
        <time>2022-04-02T11:07:37Z</time>
      </trkpt>
      <trkpt lat="47.19738" lon="-1.67476">
        <ele>42</ele>
        <time>2022-04-02T11:07:45Z</time>
      </trkpt>
      <trkpt lat="47.19744" lon="-1.67464">
        <ele>43</ele>
        <time>2022-04-02T11:08:02Z</time>
      </trkpt>
      <trkpt lat="47.19748" lon="-1.67452">
        <ele>44</ele>
        <time>2022-04-02T11:08:24Z</time>
      </trkpt>
      <trkpt lat="47.19748" lon="-1.67434">
        <ele>49</ele>
        <time>2022-04-02T11:08:37Z</time>
      </trkpt>
      <trkpt lat="47.19746" lon="-1.67418">
        <ele>49</ele>
        <time>2022-04-02T11:08:39Z</time>
      </trkpt>
      <trkpt lat="47.19746" lon="-1.67401">
        <ele>49</ele>
        <time>2022-04-02T11:08:41Z</time>
      </trkpt>
      <trkpt lat="47.19745" lon="-1.67385">
        <ele>50</ele>
        <time>2022-04-02T11:08:43Z</time>
      </trkpt>
      <trkpt lat="47.19744" lon="-1.6737">
        <ele>50</ele>
        <time>2022-04-02T11:08:45Z</time>
      </trkpt>
      <trkpt lat="47.19742" lon="-1.67354">
        <ele>50</ele>
        <time>2022-04-02T11:08:47Z</time>
      </trkpt>
      <trkpt lat="47.19746" lon="-1.67339">
        <ele>50</ele>
        <time>2022-04-02T11:08:49Z</time>
      </trkpt>
      <trkpt lat="47.19755" lon="-1.67327">
        <ele>49</ele>
        <time>2022-04-02T11:08:51Z</time>
      </trkpt>
      <trkpt lat="47.19764" lon="-1.67318">
        <ele>49</ele>
        <time>2022-04-02T11:08:53Z</time>
      </trkpt>
      <trkpt lat="47.19776" lon="-1.67312">
        <ele>49</ele>
        <time>2022-04-02T11:08:55Z</time>
      </trkpt>
      <trkpt lat="47.19788" lon="-1.67302">
        <ele>50</ele>
        <time>2022-04-02T11:08:57Z</time>
      </trkpt>
      <trkpt lat="47.19797" lon="-1.67293">
        <ele>50</ele>
        <time>2022-04-02T11:08:59Z</time>
      </trkpt>
      <trkpt lat="47.19808" lon="-1.67299">
        <ele>50</ele>
        <time>2022-04-02T11:09:01Z</time>
      </trkpt>
      <trkpt lat="47.19815" lon="-1.67315">
        <ele>50</ele>
        <time>2022-04-02T11:09:03Z</time>
      </trkpt>
      <trkpt lat="47.19823" lon="-1.6733">
        <ele>50</ele>
        <time>2022-04-02T11:09:05Z</time>
      </trkpt>
      <trkpt lat="47.19831" lon="-1.67346">
        <ele>50</ele>
        <time>2022-04-02T11:09:07Z</time>
      </trkpt>
      <trkpt lat="47.19839" lon="-1.67362">
        <ele>50</ele>
        <time>2022-04-02T11:09:09Z</time>
      </trkpt>
      <trkpt lat="47.19847" lon="-1.67378">
        <ele>50</ele>
        <time>2022-04-02T11:09:11Z</time>
      </trkpt>
      <trkpt lat="47.19855" lon="-1.67394">
        <ele>49</ele>
        <time>2022-04-02T11:09:13Z</time>
      </trkpt>
      <trkpt lat="47.19863" lon="-1.6741">
        <ele>49</ele>
        <time>2022-04-02T11:09:15Z</time>
      </trkpt>
      <trkpt lat="47.19871" lon="-1.67427">
        <ele>50</ele>
        <time>2022-04-02T11:09:17Z</time>
      </trkpt>
      <trkpt lat="47.19878" lon="-1.67443">
        <ele>50</ele>
        <time>2022-04-02T11:09:19Z</time>
      </trkpt>
      <trkpt lat="47.19886" lon="-1.67458">
        <ele>49</ele>
        <time>2022-04-02T11:09:21Z</time>
      </trkpt>
      <trkpt lat="47.19894" lon="-1.67474">
        <ele>49</ele>
        <time>2022-04-02T11:09:23Z</time>
      </trkpt>
      <trkpt lat="47.19901" lon="-1.6749">
        <ele>49</ele>
        <time>2022-04-02T11:09:25Z</time>
      </trkpt>
      <trkpt lat="47.19909" lon="-1.67505">
        <ele>49</ele>
        <time>2022-04-02T11:09:27Z</time>
      </trkpt>
      <trkpt lat="47.19917" lon="-1.67522">
        <ele>49</ele>
        <time>2022-04-02T11:09:29Z</time>
      </trkpt>
      <trkpt lat="47.19924" lon="-1.67538">
        <ele>49</ele>
        <time>2022-04-02T11:09:31Z</time>
      </trkpt>
      <trkpt lat="47.19931" lon="-1.67554">
        <ele>49</ele>
        <time>2022-04-02T11:09:33Z</time>
      </trkpt>
      <trkpt lat="47.19938" lon="-1.6757">
        <ele>49</ele>
        <time>2022-04-02T11:09:35Z</time>
      </trkpt>
      <trkpt lat="47.19945" lon="-1.67586">
        <ele>49</ele>
        <time>2022-04-02T11:09:37Z</time>
      </trkpt>
      <trkpt lat="47.19953" lon="-1.67601">
        <ele>49</ele>
        <time>2022-04-02T11:09:39Z</time>
      </trkpt>
      <trkpt lat="47.1996" lon="-1.67617">
        <ele>48</ele>
        <time>2022-04-02T11:09:41Z</time>
      </trkpt>
      <trkpt lat="47.19968" lon="-1.67632">
        <ele>49</ele>
        <time>2022-04-02T11:09:43Z</time>
      </trkpt>
      <trkpt lat="47.19976" lon="-1.67646">
        <ele>49</ele>
        <time>2022-04-02T11:09:45Z</time>
      </trkpt>
      <trkpt lat="47.19984" lon="-1.6766">
        <ele>49</ele>
        <time>2022-04-02T11:09:47Z</time>
      </trkpt>
      <trkpt lat="47.19992" lon="-1.67673">
        <ele>49</ele>
        <time>2022-04-02T11:09:49Z</time>
      </trkpt>
      <trkpt lat="47.19999" lon="-1.67688">
        <ele>49</ele>
        <time>2022-04-02T11:09:51Z</time>
      </trkpt>
      <trkpt lat="47.20007" lon="-1.67702">
        <ele>49</ele>
        <time>2022-04-02T11:09:53Z</time>
      </trkpt>
      <trkpt lat="47.20017" lon="-1.67715">
        <ele>49</ele>
        <time>2022-04-02T11:09:55Z</time>
      </trkpt>
      <trkpt lat="47.20026" lon="-1.67728">
        <ele>49</ele>
        <time>2022-04-02T11:09:57Z</time>
      </trkpt>
      <trkpt lat="47.20034" lon="-1.67742">
        <ele>50</ele>
        <time>2022-04-02T11:09:59Z</time>
      </trkpt>
      <trkpt lat="47.20043" lon="-1.67757">
        <ele>50</ele>
        <time>2022-04-02T11:10:01Z</time>
      </trkpt>
      <trkpt lat="47.20052" lon="-1.67771">
        <ele>50</ele>
        <time>2022-04-02T11:10:03Z</time>
      </trkpt>
      <trkpt lat="47.2006" lon="-1.67786">
        <ele>50</ele>
        <time>2022-04-02T11:10:05Z</time>
      </trkpt>
      <trkpt lat="47.20068" lon="-1.67801">
        <ele>50</ele>
        <time>2022-04-02T11:10:07Z</time>
      </trkpt>
      <trkpt lat="47.20077" lon="-1.67815">
        <ele>50</ele>
        <time>2022-04-02T11:10:09Z</time>
      </trkpt>
      <trkpt lat="47.20086" lon="-1.6783">
        <ele>50</ele>
        <time>2022-04-02T11:10:11Z</time>
      </trkpt>
      <trkpt lat="47.20094" lon="-1.67845">
        <ele>50</ele>
        <time>2022-04-02T11:10:13Z</time>
      </trkpt>
      <trkpt lat="47.20102" lon="-1.6786">
        <ele>50</ele>
        <time>2022-04-02T11:10:15Z</time>
      </trkpt>
      <trkpt lat="47.2011" lon="-1.67875">
        <ele>50</ele>
        <time>2022-04-02T11:10:17Z</time>
      </trkpt>
      <trkpt lat="47.20118" lon="-1.67889">
        <ele>50</ele>
        <time>2022-04-02T11:10:19Z</time>
      </trkpt>
      <trkpt lat="47.20126" lon="-1.67903">
        <ele>50</ele>
        <time>2022-04-02T11:10:21Z</time>
      </trkpt>
      <trkpt lat="47.20136" lon="-1.67912">
        <ele>51</ele>
        <time>2022-04-02T11:10:23Z</time>
      </trkpt>
      <trkpt lat="47.20147" lon="-1.67908">
        <ele>51</ele>
        <time>2022-04-02T11:10:25Z</time>
      </trkpt>
      <trkpt lat="47.20156" lon="-1.679">
        <ele>51</ele>
        <time>2022-04-02T11:10:27Z</time>
      </trkpt>
      <trkpt lat="47.20163" lon="-1.67892">
        <ele>52</ele>
        <time>2022-04-02T11:10:29Z</time>
      </trkpt>
      <trkpt lat="47.20171" lon="-1.67885">
        <ele>52</ele>
        <time>2022-04-02T11:10:31Z</time>
      </trkpt>
      <trkpt lat="47.20182" lon="-1.67874">
        <ele>53</ele>
        <time>2022-04-02T11:10:34Z</time>
      </trkpt>
      <trkpt lat="47.20192" lon="-1.67864">
        <ele>54</ele>
        <time>2022-04-02T11:10:37Z</time>
      </trkpt>
      <trkpt lat="47.20203" lon="-1.67857">
        <ele>56</ele>
        <time>2022-04-02T11:10:40Z</time>
      </trkpt>
      <trkpt lat="47.20212" lon="-1.6785">
        <ele>56</ele>
        <time>2022-04-02T11:10:42Z</time>
      </trkpt>
      <trkpt lat="47.20223" lon="-1.67842">
        <ele>55</ele>
        <time>2022-04-02T11:10:44Z</time>
      </trkpt>
      <trkpt lat="47.20233" lon="-1.67832">
        <ele>55</ele>
        <time>2022-04-02T11:10:46Z</time>
      </trkpt>
      <trkpt lat="47.20231" lon="-1.67811">
        <ele>55</ele>
        <time>2022-04-02T11:10:48Z</time>
      </trkpt>
      <trkpt lat="47.20226" lon="-1.67799">
        <ele>55</ele>
        <time>2022-04-02T11:10:49Z</time>
      </trkpt>
      <trkpt lat="47.20219" lon="-1.67778">
        <ele>54</ele>
        <time>2022-04-02T11:10:51Z</time>
      </trkpt>
      <trkpt lat="47.20212" lon="-1.67757">
        <ele>54</ele>
        <time>2022-04-02T11:10:53Z</time>
      </trkpt>
      <trkpt lat="47.20205" lon="-1.67736">
        <ele>53</ele>
        <time>2022-04-02T11:10:55Z</time>
      </trkpt>
      <trkpt lat="47.20198" lon="-1.67714">
        <ele>52</ele>
        <time>2022-04-02T11:10:57Z</time>
      </trkpt>
      <trkpt lat="47.20191" lon="-1.67694">
        <ele>52</ele>
        <time>2022-04-02T11:10:59Z</time>
      </trkpt>
      <trkpt lat="47.20183" lon="-1.67675">
        <ele>52</ele>
        <time>2022-04-02T11:11:01Z</time>
      </trkpt>
      <trkpt lat="47.20175" lon="-1.67656">
        <ele>52</ele>
        <time>2022-04-02T11:11:03Z</time>
      </trkpt>
      <trkpt lat="47.20168" lon="-1.67636">
        <ele>52</ele>
        <time>2022-04-02T11:11:05Z</time>
      </trkpt>
      <trkpt lat="47.20161" lon="-1.67617">
        <ele>52</ele>
        <time>2022-04-02T11:11:07Z</time>
      </trkpt>
      <trkpt lat="47.20154" lon="-1.676">
        <ele>52</ele>
        <time>2022-04-02T11:11:09Z</time>
      </trkpt>
      <trkpt lat="47.20149" lon="-1.67581">
        <ele>52</ele>
        <time>2022-04-02T11:11:11Z</time>
      </trkpt>
      <trkpt lat="47.20143" lon="-1.67563">
        <ele>52</ele>
        <time>2022-04-02T11:11:13Z</time>
      </trkpt>
      <trkpt lat="47.20135" lon="-1.67546">
        <ele>52</ele>
        <time>2022-04-02T11:11:15Z</time>
      </trkpt>
      <trkpt lat="47.20128" lon="-1.67529">
        <ele>52</ele>
        <time>2022-04-02T11:11:17Z</time>
      </trkpt>
      <trkpt lat="47.20122" lon="-1.67514">
        <ele>52</ele>
        <time>2022-04-02T11:11:19Z</time>
      </trkpt>
      <trkpt lat="47.20117" lon="-1.67498">
        <ele>52</ele>
        <time>2022-04-02T11:11:21Z</time>
      </trkpt>
      <trkpt lat="47.2012" lon="-1.67484">
        <ele>52</ele>
        <time>2022-04-02T11:11:23Z</time>
      </trkpt>
      <trkpt lat="47.20132" lon="-1.67475">
        <ele>51</ele>
        <time>2022-04-02T11:11:25Z</time>
      </trkpt>
      <trkpt lat="47.20145" lon="-1.67469">
        <ele>50</ele>
        <time>2022-04-02T11:11:27Z</time>
      </trkpt>
      <trkpt lat="47.20157" lon="-1.67463">
        <ele>51</ele>
        <time>2022-04-02T11:11:29Z</time>
      </trkpt>
      <trkpt lat="47.2017" lon="-1.67457">
        <ele>51</ele>
        <time>2022-04-02T11:11:31Z</time>
      </trkpt>
      <trkpt lat="47.20183" lon="-1.67451">
        <ele>51</ele>
        <time>2022-04-02T11:11:33Z</time>
      </trkpt>
      <trkpt lat="47.20195" lon="-1.67445">
        <ele>51</ele>
        <time>2022-04-02T11:11:35Z</time>
      </trkpt>
      <trkpt lat="47.20207" lon="-1.67438">
        <ele>51</ele>
        <time>2022-04-02T11:11:37Z</time>
      </trkpt>
      <trkpt lat="47.2022" lon="-1.67432">
        <ele>51</ele>
        <time>2022-04-02T11:11:39Z</time>
      </trkpt>
      <trkpt lat="47.20232" lon="-1.67426">
        <ele>50</ele>
        <time>2022-04-02T11:11:41Z</time>
      </trkpt>
      <trkpt lat="47.20245" lon="-1.67421">
        <ele>50</ele>
        <time>2022-04-02T11:11:43Z</time>
      </trkpt>
      <trkpt lat="47.20257" lon="-1.67415">
        <ele>50</ele>
        <time>2022-04-02T11:11:45Z</time>
      </trkpt>
      <trkpt lat="47.20269" lon="-1.67409">
        <ele>50</ele>
        <time>2022-04-02T11:11:47Z</time>
      </trkpt>
      <trkpt lat="47.20281" lon="-1.67404">
        <ele>51</ele>
        <time>2022-04-02T11:11:49Z</time>
      </trkpt>
      <trkpt lat="47.20293" lon="-1.67397">
        <ele>50</ele>
        <time>2022-04-02T11:11:51Z</time>
      </trkpt>
      <trkpt lat="47.20306" lon="-1.67392">
        <ele>50</ele>
        <time>2022-04-02T11:11:53Z</time>
      </trkpt>
      <trkpt lat="47.20318" lon="-1.67386">
        <ele>50</ele>
        <time>2022-04-02T11:11:55Z</time>
      </trkpt>
      <trkpt lat="47.20332" lon="-1.67386">
        <ele>50</ele>
        <time>2022-04-02T11:11:57Z</time>
      </trkpt>
      <trkpt lat="47.20344" lon="-1.67391">
        <ele>50</ele>
        <time>2022-04-02T11:11:59Z</time>
      </trkpt>
      <trkpt lat="47.20356" lon="-1.67401">
        <ele>50</ele>
        <time>2022-04-02T11:12:01Z</time>
      </trkpt>
      <trkpt lat="47.20365" lon="-1.67416">
        <ele>49</ele>
        <time>2022-04-02T11:12:03Z</time>
      </trkpt>
      <trkpt lat="47.2037" lon="-1.67433">
        <ele>49</ele>
        <time>2022-04-02T11:12:05Z</time>
      </trkpt>
      <trkpt lat="47.20374" lon="-1.67452">
        <ele>49</ele>
        <time>2022-04-02T11:12:07Z</time>
      </trkpt>
      <trkpt lat="47.20377" lon="-1.67471">
        <ele>48</ele>
        <time>2022-04-02T11:12:09Z</time>
      </trkpt>
      <trkpt lat="47.2038" lon="-1.6749">
        <ele>48</ele>
        <time>2022-04-02T11:12:11Z</time>
      </trkpt>
      <trkpt lat="47.20383" lon="-1.67508">
        <ele>48</ele>
        <time>2022-04-02T11:12:13Z</time>
      </trkpt>
      <trkpt lat="47.20385" lon="-1.67526">
        <ele>48</ele>
        <time>2022-04-02T11:12:15Z</time>
      </trkpt>
      <trkpt lat="47.20391" lon="-1.6754">
        <ele>49</ele>
        <time>2022-04-02T11:12:17Z</time>
      </trkpt>
      <trkpt lat="47.204" lon="-1.67549">
        <ele>49</ele>
        <time>2022-04-02T11:12:19Z</time>
      </trkpt>
      <trkpt lat="47.20411" lon="-1.67547">
        <ele>48</ele>
        <time>2022-04-02T11:12:21Z</time>
      </trkpt>
      <trkpt lat="47.2042" lon="-1.67536">
        <ele>48</ele>
        <time>2022-04-02T11:12:23Z</time>
      </trkpt>
      <trkpt lat="47.2043" lon="-1.67531">
        <ele>48</ele>
        <time>2022-04-02T11:12:25Z</time>
      </trkpt>
      <trkpt lat="47.20442" lon="-1.67537">
        <ele>48</ele>
        <time>2022-04-02T11:12:27Z</time>
      </trkpt>
      <trkpt lat="47.20449" lon="-1.67552">
        <ele>48</ele>
        <time>2022-04-02T11:12:29Z</time>
      </trkpt>
      <trkpt lat="47.20453" lon="-1.67569">
        <ele>48</ele>
        <time>2022-04-02T11:12:31Z</time>
      </trkpt>
      <trkpt lat="47.2046" lon="-1.67585">
        <ele>48</ele>
        <time>2022-04-02T11:12:33Z</time>
      </trkpt>
      <trkpt lat="47.20469" lon="-1.67597">
        <ele>48</ele>
        <time>2022-04-02T11:12:35Z</time>
      </trkpt>
      <trkpt lat="47.20478" lon="-1.67611">
        <ele>49</ele>
        <time>2022-04-02T11:12:37Z</time>
      </trkpt>
      <trkpt lat="47.20484" lon="-1.67626">
        <ele>49</ele>
        <time>2022-04-02T11:12:39Z</time>
      </trkpt>
      <trkpt lat="47.20491" lon="-1.67642">
        <ele>49</ele>
        <time>2022-04-02T11:12:41Z</time>
      </trkpt>
      <trkpt lat="47.20497" lon="-1.67658">
        <ele>49</ele>
        <time>2022-04-02T11:12:43Z</time>
      </trkpt>
      <trkpt lat="47.20504" lon="-1.67674">
        <ele>49</ele>
        <time>2022-04-02T11:12:45Z</time>
      </trkpt>
      <trkpt lat="47.2051" lon="-1.67691">
        <ele>49</ele>
        <time>2022-04-02T11:12:47Z</time>
      </trkpt>
      <trkpt lat="47.20516" lon="-1.67707">
        <ele>50</ele>
        <time>2022-04-02T11:12:49Z</time>
      </trkpt>
      <trkpt lat="47.20521" lon="-1.67724">
        <ele>49</ele>
        <time>2022-04-02T11:12:51Z</time>
      </trkpt>
      <trkpt lat="47.20527" lon="-1.6774">
        <ele>49</ele>
        <time>2022-04-02T11:12:53Z</time>
      </trkpt>
      <trkpt lat="47.20533" lon="-1.67757">
        <ele>49</ele>
        <time>2022-04-02T11:12:55Z</time>
      </trkpt>
      <trkpt lat="47.20539" lon="-1.67773">
        <ele>49</ele>
        <time>2022-04-02T11:12:57Z</time>
      </trkpt>
      <trkpt lat="47.20545" lon="-1.6779">
        <ele>49</ele>
        <time>2022-04-02T11:12:59Z</time>
      </trkpt>
      <trkpt lat="47.2055" lon="-1.67807">
        <ele>49</ele>
        <time>2022-04-02T11:13:01Z</time>
      </trkpt>
      <trkpt lat="47.20556" lon="-1.67824">
        <ele>49</ele>
        <time>2022-04-02T11:13:03Z</time>
      </trkpt>
      <trkpt lat="47.20561" lon="-1.67842">
        <ele>49</ele>
        <time>2022-04-02T11:13:05Z</time>
      </trkpt>
      <trkpt lat="47.20567" lon="-1.67859">
        <ele>49</ele>
        <time>2022-04-02T11:13:07Z</time>
      </trkpt>
      <trkpt lat="47.20572" lon="-1.67877">
        <ele>49</ele>
        <time>2022-04-02T11:13:09Z</time>
      </trkpt>
      <trkpt lat="47.20578" lon="-1.67895">
        <ele>49</ele>
        <time>2022-04-02T11:13:11Z</time>
      </trkpt>
      <trkpt lat="47.20583" lon="-1.67913">
        <ele>49</ele>
        <time>2022-04-02T11:13:13Z</time>
      </trkpt>
      <trkpt lat="47.20588" lon="-1.67931">
        <ele>49</ele>
        <time>2022-04-02T11:13:15Z</time>
      </trkpt>
      <trkpt lat="47.20594" lon="-1.67948">
        <ele>49</ele>
        <time>2022-04-02T11:13:17Z</time>
      </trkpt>
      <trkpt lat="47.20599" lon="-1.67966">
        <ele>49</ele>
        <time>2022-04-02T11:13:19Z</time>
      </trkpt>
      <trkpt lat="47.20604" lon="-1.67983">
        <ele>49</ele>
        <time>2022-04-02T11:13:21Z</time>
      </trkpt>
      <trkpt lat="47.20609" lon="-1.67999">
        <ele>50</ele>
        <time>2022-04-02T11:13:23Z</time>
      </trkpt>
      <trkpt lat="47.20614" lon="-1.68017">
        <ele>49</ele>
        <time>2022-04-02T11:13:25Z</time>
      </trkpt>
      <trkpt lat="47.20619" lon="-1.68035">
        <ele>49</ele>
        <time>2022-04-02T11:13:27Z</time>
      </trkpt>
      <trkpt lat="47.20625" lon="-1.68052">
        <ele>50</ele>
        <time>2022-04-02T11:13:29Z</time>
      </trkpt>
      <trkpt lat="47.2063" lon="-1.68069">
        <ele>50</ele>
        <time>2022-04-02T11:13:31Z</time>
      </trkpt>
      <trkpt lat="47.20635" lon="-1.68087">
        <ele>49</ele>
        <time>2022-04-02T11:13:33Z</time>
      </trkpt>
      <trkpt lat="47.2064" lon="-1.68106">
        <ele>49</ele>
        <time>2022-04-02T11:13:35Z</time>
      </trkpt>
      <trkpt lat="47.20646" lon="-1.68123">
        <ele>49</ele>
        <time>2022-04-02T11:13:37Z</time>
      </trkpt>
      <trkpt lat="47.20651" lon="-1.68141">
        <ele>49</ele>
        <time>2022-04-02T11:13:39Z</time>
      </trkpt>
      <trkpt lat="47.20656" lon="-1.68158">
        <ele>49</ele>
        <time>2022-04-02T11:13:41Z</time>
      </trkpt>
      <trkpt lat="47.20661" lon="-1.68175">
        <ele>49</ele>
        <time>2022-04-02T11:13:43Z</time>
      </trkpt>
      <trkpt lat="47.20666" lon="-1.68193">
        <ele>49</ele>
        <time>2022-04-02T11:13:45Z</time>
      </trkpt>
      <trkpt lat="47.20671" lon="-1.6821">
        <ele>49</ele>
        <time>2022-04-02T11:13:47Z</time>
      </trkpt>
      <trkpt lat="47.20676" lon="-1.68228">
        <ele>49</ele>
        <time>2022-04-02T11:13:49Z</time>
      </trkpt>
      <trkpt lat="47.20681" lon="-1.68246">
        <ele>49</ele>
        <time>2022-04-02T11:13:51Z</time>
      </trkpt>
      <trkpt lat="47.20687" lon="-1.68263">
        <ele>49</ele>
        <time>2022-04-02T11:13:53Z</time>
      </trkpt>
      <trkpt lat="47.20691" lon="-1.6828">
        <ele>49</ele>
        <time>2022-04-02T11:13:55Z</time>
      </trkpt>
      <trkpt lat="47.20696" lon="-1.68297">
        <ele>49</ele>
        <time>2022-04-02T11:13:57Z</time>
      </trkpt>
      <trkpt lat="47.20702" lon="-1.68313">
        <ele>49</ele>
        <time>2022-04-02T11:13:59Z</time>
      </trkpt>
      <trkpt lat="47.20707" lon="-1.68331">
        <ele>49</ele>
        <time>2022-04-02T11:14:01Z</time>
      </trkpt>
      <trkpt lat="47.20712" lon="-1.68347">
        <ele>49</ele>
        <time>2022-04-02T11:14:03Z</time>
      </trkpt>
      <trkpt lat="47.2072" lon="-1.68362">
        <ele>49</ele>
        <time>2022-04-02T11:14:05Z</time>
      </trkpt>
      <trkpt lat="47.20731" lon="-1.68372">
        <ele>48</ele>
        <time>2022-04-02T11:14:07Z</time>
      </trkpt>
      <trkpt lat="47.20743" lon="-1.6838">
        <ele>48</ele>
        <time>2022-04-02T11:14:09Z</time>
      </trkpt>
      <trkpt lat="47.20755" lon="-1.68383">
        <ele>48</ele>
        <time>2022-04-02T11:14:11Z</time>
      </trkpt>
      <trkpt lat="47.20768" lon="-1.68384">
        <ele>48</ele>
        <time>2022-04-02T11:14:13Z</time>
      </trkpt>
      <trkpt lat="47.20779" lon="-1.68385">
        <ele>48</ele>
        <time>2022-04-02T11:14:15Z</time>
      </trkpt>
      <trkpt lat="47.20791" lon="-1.68387">
        <ele>48</ele>
        <time>2022-04-02T11:14:17Z</time>
      </trkpt>
      <trkpt lat="47.20803" lon="-1.68388">
        <ele>49</ele>
        <time>2022-04-02T11:14:19Z</time>
      </trkpt>
      <trkpt lat="47.20814" lon="-1.68389">
        <ele>48</ele>
        <time>2022-04-02T11:14:21Z</time>
      </trkpt>
      <trkpt lat="47.20825" lon="-1.6839">
        <ele>49</ele>
        <time>2022-04-02T11:14:23Z</time>
      </trkpt>
      <trkpt lat="47.20836" lon="-1.6839">
        <ele>49</ele>
        <time>2022-04-02T11:14:25Z</time>
      </trkpt>
      <trkpt lat="47.20848" lon="-1.68391">
        <ele>49</ele>
        <time>2022-04-02T11:14:27Z</time>
      </trkpt>
      <trkpt lat="47.20859" lon="-1.68392">
        <ele>48</ele>
        <time>2022-04-02T11:14:29Z</time>
      </trkpt>
      <trkpt lat="47.20871" lon="-1.68392">
        <ele>49</ele>
        <time>2022-04-02T11:14:31Z</time>
      </trkpt>
      <trkpt lat="47.20882" lon="-1.68393">
        <ele>49</ele>
        <time>2022-04-02T11:14:33Z</time>
      </trkpt>
      <trkpt lat="47.20894" lon="-1.68394">
        <ele>48</ele>
        <time>2022-04-02T11:14:35Z</time>
      </trkpt>
      <trkpt lat="47.20905" lon="-1.68394">
        <ele>48</ele>
        <time>2022-04-02T11:14:37Z</time>
      </trkpt>
      <trkpt lat="47.20917" lon="-1.68394">
        <ele>48</ele>
        <time>2022-04-02T11:14:39Z</time>
      </trkpt>
      <trkpt lat="47.20929" lon="-1.68395">
        <ele>48</ele>
        <time>2022-04-02T11:14:41Z</time>
      </trkpt>
      <trkpt lat="47.20941" lon="-1.68395">
        <ele>48</ele>
        <time>2022-04-02T11:14:43Z</time>
      </trkpt>
      <trkpt lat="47.20952" lon="-1.68395">
        <ele>48</ele>
        <time>2022-04-02T11:14:45Z</time>
      </trkpt>
      <trkpt lat="47.20963" lon="-1.68395">
        <ele>49</ele>
        <time>2022-04-02T11:14:47Z</time>
      </trkpt>
      <trkpt lat="47.20974" lon="-1.68396">
        <ele>49</ele>
        <time>2022-04-02T11:14:49Z</time>
      </trkpt>
      <trkpt lat="47.20985" lon="-1.68397">
        <ele>49</ele>
        <time>2022-04-02T11:14:51Z</time>
      </trkpt>
      <trkpt lat="47.20996" lon="-1.68398">
        <ele>49</ele>
        <time>2022-04-02T11:14:53Z</time>
      </trkpt>
      <trkpt lat="47.21008" lon="-1.68398">
        <ele>49</ele>
        <time>2022-04-02T11:14:55Z</time>
      </trkpt>
      <trkpt lat="47.21019" lon="-1.68398">
        <ele>48</ele>
        <time>2022-04-02T11:14:57Z</time>
      </trkpt>
      <trkpt lat="47.2103" lon="-1.68399">
        <ele>48</ele>
        <time>2022-04-02T11:14:59Z</time>
      </trkpt>
      <trkpt lat="47.21041" lon="-1.68399">
        <ele>48</ele>
        <time>2022-04-02T11:15:01Z</time>
      </trkpt>
      <trkpt lat="47.21052" lon="-1.684">
        <ele>48</ele>
        <time>2022-04-02T11:15:03Z</time>
      </trkpt>
      <trkpt lat="47.21063" lon="-1.684">
        <ele>48</ele>
        <time>2022-04-02T11:15:05Z</time>
      </trkpt>
      <trkpt lat="47.21074" lon="-1.68401">
        <ele>48</ele>
        <time>2022-04-02T11:15:07Z</time>
      </trkpt>
      <trkpt lat="47.21085" lon="-1.68401">
        <ele>48</ele>
        <time>2022-04-02T11:15:09Z</time>
      </trkpt>
      <trkpt lat="47.21097" lon="-1.68402">
        <ele>48</ele>
        <time>2022-04-02T11:15:11Z</time>
      </trkpt>
      <trkpt lat="47.21108" lon="-1.68402">
        <ele>48</ele>
        <time>2022-04-02T11:15:13Z</time>
      </trkpt>
      <trkpt lat="47.21119" lon="-1.68403">
        <ele>48</ele>
        <time>2022-04-02T11:15:15Z</time>
      </trkpt>
      <trkpt lat="47.2113" lon="-1.68403">
        <ele>48</ele>
        <time>2022-04-02T11:15:17Z</time>
      </trkpt>
      <trkpt lat="47.21141" lon="-1.68404">
        <ele>48</ele>
        <time>2022-04-02T11:15:19Z</time>
      </trkpt>
      <trkpt lat="47.21152" lon="-1.68404">
        <ele>48</ele>
        <time>2022-04-02T11:15:21Z</time>
      </trkpt>
      <trkpt lat="47.21163" lon="-1.68405">
        <ele>48</ele>
        <time>2022-04-02T11:15:23Z</time>
      </trkpt>
      <trkpt lat="47.21173" lon="-1.68404">
        <ele>49</ele>
        <time>2022-04-02T11:15:25Z</time>
      </trkpt>
      <trkpt lat="47.21183" lon="-1.68403">
        <ele>50</ele>
        <time>2022-04-02T11:15:27Z</time>
      </trkpt>
      <trkpt lat="47.21191" lon="-1.68397">
        <ele>50</ele>
        <time>2022-04-02T11:15:29Z</time>
      </trkpt>
      <trkpt lat="47.21195" lon="-1.68386">
        <ele>50</ele>
        <time>2022-04-02T11:15:31Z</time>
      </trkpt>
      <trkpt lat="47.21194" lon="-1.68366">
        <ele>50</ele>
        <time>2022-04-02T11:15:34Z</time>
      </trkpt>
      <trkpt lat="47.21192" lon="-1.68348">
        <ele>51</ele>
        <time>2022-04-02T11:15:37Z</time>
      </trkpt>
      <trkpt lat="47.21191" lon="-1.68329">
        <ele>51</ele>
        <time>2022-04-02T11:15:40Z</time>
      </trkpt>
      <trkpt lat="47.21191" lon="-1.68312">
        <ele>52</ele>
        <time>2022-04-02T11:15:43Z</time>
      </trkpt>
      <trkpt lat="47.21194" lon="-1.68295">
        <ele>53</ele>
        <time>2022-04-02T11:15:46Z</time>
      </trkpt>
      <trkpt lat="47.21204" lon="-1.68282">
        <ele>53</ele>
        <time>2022-04-02T11:15:49Z</time>
      </trkpt>
      <trkpt lat="47.21215" lon="-1.68276">
        <ele>53</ele>
        <time>2022-04-02T11:15:52Z</time>
      </trkpt>
      <trkpt lat="47.21227" lon="-1.68273">
        <ele>54</ele>
        <time>2022-04-02T11:15:55Z</time>
      </trkpt>
      <trkpt lat="47.21238" lon="-1.68271">
        <ele>55</ele>
        <time>2022-04-02T11:15:58Z</time>
      </trkpt>
      <trkpt lat="47.2125" lon="-1.68269">
        <ele>56</ele>
        <time>2022-04-02T11:16:01Z</time>
      </trkpt>
      <trkpt lat="47.21262" lon="-1.68265">
        <ele>58</ele>
        <time>2022-04-02T11:16:04Z</time>
      </trkpt>
      <trkpt lat="47.21273" lon="-1.68259">
        <ele>59</ele>
        <time>2022-04-02T11:16:07Z</time>
      </trkpt>
      <trkpt lat="47.21285" lon="-1.68254">
        <ele>60</ele>
        <time>2022-04-02T11:16:10Z</time>
      </trkpt>
      <trkpt lat="47.21296" lon="-1.6825">
        <ele>61</ele>
        <time>2022-04-02T11:16:13Z</time>
      </trkpt>
      <trkpt lat="47.21307" lon="-1.68244">
        <ele>62</ele>
        <time>2022-04-02T11:16:16Z</time>
      </trkpt>
      <trkpt lat="47.21319" lon="-1.68238">
        <ele>62</ele>
        <time>2022-04-02T11:16:19Z</time>
      </trkpt>
      <trkpt lat="47.2133" lon="-1.68233">
        <ele>64</ele>
        <time>2022-04-02T11:16:22Z</time>
      </trkpt>
      <trkpt lat="47.21343" lon="-1.6823">
        <ele>64</ele>
        <time>2022-04-02T11:16:25Z</time>
      </trkpt>
      <trkpt lat="47.21354" lon="-1.68227">
        <ele>65</ele>
        <time>2022-04-02T11:16:28Z</time>
      </trkpt>
      <trkpt lat="47.21367" lon="-1.68223">
        <ele>66</ele>
        <time>2022-04-02T11:16:31Z</time>
      </trkpt>
      <trkpt lat="47.21376" lon="-1.68222">
        <ele>66</ele>
        <time>2022-04-02T11:16:33Z</time>
      </trkpt>
      <trkpt lat="47.2139" lon="-1.6822">
        <ele>66</ele>
        <time>2022-04-02T11:16:36Z</time>
      </trkpt>
      <trkpt lat="47.21403" lon="-1.68218">
        <ele>66</ele>
        <time>2022-04-02T11:16:39Z</time>
      </trkpt>
      <trkpt lat="47.21416" lon="-1.68217">
        <ele>66</ele>
        <time>2022-04-02T11:16:42Z</time>
      </trkpt>
      <trkpt lat="47.21429" lon="-1.68217">
        <ele>67</ele>
        <time>2022-04-02T11:16:45Z</time>
      </trkpt>
      <trkpt lat="47.21442" lon="-1.68215">
        <ele>67</ele>
        <time>2022-04-02T11:16:48Z</time>
      </trkpt>
      <trkpt lat="47.21451" lon="-1.68214">
        <ele>67</ele>
        <time>2022-04-02T11:16:50Z</time>
      </trkpt>
      <trkpt lat="47.21464" lon="-1.68213">
        <ele>69</ele>
        <time>2022-04-02T11:16:53Z</time>
      </trkpt>
      <trkpt lat="47.21477" lon="-1.68211">
        <ele>70</ele>
        <time>2022-04-02T11:16:56Z</time>
      </trkpt>
      <trkpt lat="47.2149" lon="-1.68205">
        <ele>70</ele>
        <time>2022-04-02T11:16:59Z</time>
      </trkpt>
      <trkpt lat="47.21502" lon="-1.68197">
        <ele>70</ele>
        <time>2022-04-02T11:17:02Z</time>
      </trkpt>
      <trkpt lat="47.21513" lon="-1.68189">
        <ele>70</ele>
        <time>2022-04-02T11:17:05Z</time>
      </trkpt>
      <trkpt lat="47.21524" lon="-1.68182">
        <ele>70</ele>
        <time>2022-04-02T11:17:08Z</time>
      </trkpt>
      <trkpt lat="47.21531" lon="-1.68173">
        <ele>70</ele>
        <time>2022-04-02T11:17:13Z</time>
      </trkpt>
      <trkpt lat="47.21543" lon="-1.68169">
        <ele>71</ele>
        <time>2022-04-02T11:17:17Z</time>
      </trkpt>
      <trkpt lat="47.21553" lon="-1.68172">
        <ele>71</ele>
        <time>2022-04-02T11:17:20Z</time>
      </trkpt>
      <trkpt lat="47.21563" lon="-1.68174">
        <ele>71</ele>
        <time>2022-04-02T11:17:22Z</time>
      </trkpt>
      <trkpt lat="47.21574" lon="-1.68176">
        <ele>71</ele>
        <time>2022-04-02T11:17:24Z</time>
      </trkpt>
      <trkpt lat="47.21585" lon="-1.68178">
        <ele>71</ele>
        <time>2022-04-02T11:17:26Z</time>
      </trkpt>
      <trkpt lat="47.21596" lon="-1.6818">
        <ele>72</ele>
        <time>2022-04-02T11:17:28Z</time>
      </trkpt>
      <trkpt lat="47.21607" lon="-1.68183">
        <ele>72</ele>
        <time>2022-04-02T11:17:30Z</time>
      </trkpt>
      <trkpt lat="47.21619" lon="-1.68186">
        <ele>72</ele>
        <time>2022-04-02T11:17:32Z</time>
      </trkpt>
      <trkpt lat="47.21631" lon="-1.68189">
        <ele>73</ele>
        <time>2022-04-02T11:17:34Z</time>
      </trkpt>
      <trkpt lat="47.21643" lon="-1.6819">
        <ele>73</ele>
        <time>2022-04-02T11:17:36Z</time>
      </trkpt>
      <trkpt lat="47.21656" lon="-1.68191">
        <ele>73</ele>
        <time>2022-04-02T11:17:38Z</time>
      </trkpt>
      <trkpt lat="47.21668" lon="-1.68194">
        <ele>73</ele>
        <time>2022-04-02T11:17:40Z</time>
      </trkpt>
      <trkpt lat="47.2168" lon="-1.68197">
        <ele>73</ele>
        <time>2022-04-02T11:17:42Z</time>
      </trkpt>
      <trkpt lat="47.21692" lon="-1.682">
        <ele>72</ele>
        <time>2022-04-02T11:17:44Z</time>
      </trkpt>
      <trkpt lat="47.21704" lon="-1.68202">
        <ele>72</ele>
        <time>2022-04-02T11:17:46Z</time>
      </trkpt>
      <trkpt lat="47.21716" lon="-1.68205">
        <ele>72</ele>
        <time>2022-04-02T11:17:48Z</time>
      </trkpt>
      <trkpt lat="47.21727" lon="-1.68208">
        <ele>72</ele>
        <time>2022-04-02T11:17:50Z</time>
      </trkpt>
      <trkpt lat="47.2174" lon="-1.6821">
        <ele>72</ele>
        <time>2022-04-02T11:17:52Z</time>
      </trkpt>
      <trkpt lat="47.21752" lon="-1.68213">
        <ele>72</ele>
        <time>2022-04-02T11:17:54Z</time>
      </trkpt>
      <trkpt lat="47.21764" lon="-1.68216">
        <ele>72</ele>
        <time>2022-04-02T11:17:56Z</time>
      </trkpt>
      <trkpt lat="47.21776" lon="-1.68219">
        <ele>72</ele>
        <time>2022-04-02T11:17:58Z</time>
      </trkpt>
      <trkpt lat="47.21788" lon="-1.68221">
        <ele>72</ele>
        <time>2022-04-02T11:18:00Z</time>
      </trkpt>
      <trkpt lat="47.21799" lon="-1.68222">
        <ele>71</ele>
        <time>2022-04-02T11:18:02Z</time>
      </trkpt>
      <trkpt lat="47.21811" lon="-1.68222">
        <ele>71</ele>
        <time>2022-04-02T11:18:04Z</time>
      </trkpt>
      <trkpt lat="47.21824" lon="-1.68224">
        <ele>71</ele>
        <time>2022-04-02T11:18:06Z</time>
      </trkpt>
      <trkpt lat="47.21836" lon="-1.68226">
        <ele>71</ele>
        <time>2022-04-02T11:18:08Z</time>
      </trkpt>
      <trkpt lat="47.21848" lon="-1.68227">
        <ele>71</ele>
        <time>2022-04-02T11:18:10Z</time>
      </trkpt>
      <trkpt lat="47.21859" lon="-1.68228">
        <ele>72</ele>
        <time>2022-04-02T11:18:12Z</time>
      </trkpt>
      <trkpt lat="47.21871" lon="-1.68226">
        <ele>72</ele>
        <time>2022-04-02T11:18:14Z</time>
      </trkpt>
      <trkpt lat="47.21883" lon="-1.68223">
        <ele>72</ele>
        <time>2022-04-02T11:18:16Z</time>
      </trkpt>
      <trkpt lat="47.21895" lon="-1.68217">
        <ele>72</ele>
        <time>2022-04-02T11:18:18Z</time>
      </trkpt>
      <trkpt lat="47.21906" lon="-1.6821">
        <ele>72</ele>
        <time>2022-04-02T11:18:20Z</time>
      </trkpt>
      <trkpt lat="47.21916" lon="-1.68204">
        <ele>73</ele>
        <time>2022-04-02T11:18:22Z</time>
      </trkpt>
      <trkpt lat="47.21927" lon="-1.68196">
        <ele>72</ele>
        <time>2022-04-02T11:18:24Z</time>
      </trkpt>
      <trkpt lat="47.21937" lon="-1.68189">
        <ele>72</ele>
        <time>2022-04-02T11:18:26Z</time>
      </trkpt>
      <trkpt lat="47.21949" lon="-1.68183">
        <ele>72</ele>
        <time>2022-04-02T11:18:28Z</time>
      </trkpt>
      <trkpt lat="47.21959" lon="-1.68176">
        <ele>73</ele>
        <time>2022-04-02T11:18:30Z</time>
      </trkpt>
      <trkpt lat="47.2197" lon="-1.68169">
        <ele>73</ele>
        <time>2022-04-02T11:18:32Z</time>
      </trkpt>
      <trkpt lat="47.2198" lon="-1.68161">
        <ele>73</ele>
        <time>2022-04-02T11:18:34Z</time>
      </trkpt>
      <trkpt lat="47.2199" lon="-1.68155">
        <ele>73</ele>
        <time>2022-04-02T11:18:36Z</time>
      </trkpt>
      <trkpt lat="47.22001" lon="-1.68148">
        <ele>73</ele>
        <time>2022-04-02T11:18:38Z</time>
      </trkpt>
      <trkpt lat="47.2201" lon="-1.6814">
        <ele>73</ele>
        <time>2022-04-02T11:18:40Z</time>
      </trkpt>
      <trkpt lat="47.2202" lon="-1.68132">
        <ele>73</ele>
        <time>2022-04-02T11:18:42Z</time>
      </trkpt>
      <trkpt lat="47.22029" lon="-1.68122">
        <ele>73</ele>
        <time>2022-04-02T11:18:44Z</time>
      </trkpt>
      <trkpt lat="47.22038" lon="-1.68112">
        <ele>73</ele>
        <time>2022-04-02T11:18:46Z</time>
      </trkpt>
      <trkpt lat="47.22047" lon="-1.68101">
        <ele>74</ele>
        <time>2022-04-02T11:18:48Z</time>
      </trkpt>
      <trkpt lat="47.22055" lon="-1.6809">
        <ele>74</ele>
        <time>2022-04-02T11:18:50Z</time>
      </trkpt>
      <trkpt lat="47.22064" lon="-1.68079">
        <ele>74</ele>
        <time>2022-04-02T11:18:52Z</time>
      </trkpt>
      <trkpt lat="47.22072" lon="-1.68067">
        <ele>74</ele>
        <time>2022-04-02T11:18:54Z</time>
      </trkpt>
      <trkpt lat="47.2208" lon="-1.68057">
        <ele>74</ele>
        <time>2022-04-02T11:18:56Z</time>
      </trkpt>
      <trkpt lat="47.22088" lon="-1.68046">
        <ele>75</ele>
        <time>2022-04-02T11:18:58Z</time>
      </trkpt>
      <trkpt lat="47.22097" lon="-1.68035">
        <ele>75</ele>
        <time>2022-04-02T11:19:00Z</time>
      </trkpt>
      <trkpt lat="47.22105" lon="-1.68025">
        <ele>76</ele>
        <time>2022-04-02T11:19:02Z</time>
      </trkpt>
      <trkpt lat="47.22113" lon="-1.68014">
        <ele>76</ele>
        <time>2022-04-02T11:19:04Z</time>
      </trkpt>
      <trkpt lat="47.22122" lon="-1.68003">
        <ele>76</ele>
        <time>2022-04-02T11:19:06Z</time>
      </trkpt>
      <trkpt lat="47.22131" lon="-1.67994">
        <ele>76</ele>
        <time>2022-04-02T11:19:08Z</time>
      </trkpt>
      <trkpt lat="47.2214" lon="-1.67986">
        <ele>76</ele>
        <time>2022-04-02T11:19:10Z</time>
      </trkpt>
      <trkpt lat="47.22149" lon="-1.67978">
        <ele>76</ele>
        <time>2022-04-02T11:19:12Z</time>
      </trkpt>
      <trkpt lat="47.22159" lon="-1.67971">
        <ele>76</ele>
        <time>2022-04-02T11:19:14Z</time>
      </trkpt>
      <trkpt lat="47.22169" lon="-1.67964">
        <ele>75</ele>
        <time>2022-04-02T11:19:16Z</time>
      </trkpt>
      <trkpt lat="47.2218" lon="-1.67957">
        <ele>75</ele>
        <time>2022-04-02T11:19:18Z</time>
      </trkpt>
      <trkpt lat="47.2219" lon="-1.67951">
        <ele>75</ele>
        <time>2022-04-02T11:19:20Z</time>
      </trkpt>
      <trkpt lat="47.22201" lon="-1.67943">
        <ele>74</ele>
        <time>2022-04-02T11:19:22Z</time>
      </trkpt>
      <trkpt lat="47.22211" lon="-1.67936">
        <ele>74</ele>
        <time>2022-04-02T11:19:24Z</time>
      </trkpt>
      <trkpt lat="47.22223" lon="-1.67928">
        <ele>74</ele>
        <time>2022-04-02T11:19:26Z</time>
      </trkpt>
      <trkpt lat="47.22234" lon="-1.67921">
        <ele>74</ele>
        <time>2022-04-02T11:19:28Z</time>
      </trkpt>
      <trkpt lat="47.22245" lon="-1.67914">
        <ele>74</ele>
        <time>2022-04-02T11:19:30Z</time>
      </trkpt>
      <trkpt lat="47.22257" lon="-1.67906">
        <ele>73</ele>
        <time>2022-04-02T11:19:32Z</time>
      </trkpt>
      <trkpt lat="47.22268" lon="-1.67898">
        <ele>73</ele>
        <time>2022-04-02T11:19:34Z</time>
      </trkpt>
      <trkpt lat="47.22279" lon="-1.67891">
        <ele>73</ele>
        <time>2022-04-02T11:19:36Z</time>
      </trkpt>
      <trkpt lat="47.2229" lon="-1.67883">
        <ele>73</ele>
        <time>2022-04-02T11:19:38Z</time>
      </trkpt>
      <trkpt lat="47.22301" lon="-1.67876">
        <ele>73</ele>
        <time>2022-04-02T11:19:40Z</time>
      </trkpt>
      <trkpt lat="47.22312" lon="-1.67869">
        <ele>73</ele>
        <time>2022-04-02T11:19:42Z</time>
      </trkpt>
      <trkpt lat="47.22323" lon="-1.67861">
        <ele>72</ele>
        <time>2022-04-02T11:19:44Z</time>
      </trkpt>
      <trkpt lat="47.22334" lon="-1.67854">
        <ele>73</ele>
        <time>2022-04-02T11:19:46Z</time>
      </trkpt>
      <trkpt lat="47.22345" lon="-1.67848">
        <ele>73</ele>
        <time>2022-04-02T11:19:48Z</time>
      </trkpt>
      <trkpt lat="47.22356" lon="-1.67842">
        <ele>73</ele>
        <time>2022-04-02T11:19:50Z</time>
      </trkpt>
      <trkpt lat="47.22367" lon="-1.67837">
        <ele>73</ele>
        <time>2022-04-02T11:19:52Z</time>
      </trkpt>
      <trkpt lat="47.22377" lon="-1.67833">
        <ele>74</ele>
        <time>2022-04-02T11:19:54Z</time>
      </trkpt>
      <trkpt lat="47.22388" lon="-1.67829">
        <ele>74</ele>
        <time>2022-04-02T11:19:56Z</time>
      </trkpt>
      <trkpt lat="47.22399" lon="-1.67826">
        <ele>74</ele>
        <time>2022-04-02T11:19:58Z</time>
      </trkpt>
      <trkpt lat="47.22409" lon="-1.67824">
        <ele>74</ele>
        <time>2022-04-02T11:20:00Z</time>
      </trkpt>
      <trkpt lat="47.2242" lon="-1.67822">
        <ele>74</ele>
        <time>2022-04-02T11:20:02Z</time>
      </trkpt>
      <trkpt lat="47.2243" lon="-1.6782">
        <ele>74</ele>
        <time>2022-04-02T11:20:04Z</time>
      </trkpt>
      <trkpt lat="47.22441" lon="-1.6782">
        <ele>75</ele>
        <time>2022-04-02T11:20:06Z</time>
      </trkpt>
      <trkpt lat="47.22451" lon="-1.67819">
        <ele>75</ele>
        <time>2022-04-02T11:20:08Z</time>
      </trkpt>
      <trkpt lat="47.22461" lon="-1.6782">
        <ele>75</ele>
        <time>2022-04-02T11:20:10Z</time>
      </trkpt>
      <trkpt lat="47.2247" lon="-1.67821">
        <ele>75</ele>
        <time>2022-04-02T11:20:12Z</time>
      </trkpt>
      <trkpt lat="47.22481" lon="-1.67822">
        <ele>76</ele>
        <time>2022-04-02T11:20:14Z</time>
      </trkpt>
      <trkpt lat="47.2249" lon="-1.67823">
        <ele>76</ele>
        <time>2022-04-02T11:20:16Z</time>
      </trkpt>
      <trkpt lat="47.22501" lon="-1.67825">
        <ele>76</ele>
        <time>2022-04-02T11:20:18Z</time>
      </trkpt>
      <trkpt lat="47.2251" lon="-1.67826">
        <ele>76</ele>
        <time>2022-04-02T11:20:20Z</time>
      </trkpt>
      <trkpt lat="47.2252" lon="-1.67828">
        <ele>77</ele>
        <time>2022-04-02T11:20:22Z</time>
      </trkpt>
      <trkpt lat="47.2253" lon="-1.6783">
        <ele>77</ele>
        <time>2022-04-02T11:20:24Z</time>
      </trkpt>
      <trkpt lat="47.2254" lon="-1.67831">
        <ele>77</ele>
        <time>2022-04-02T11:20:26Z</time>
      </trkpt>
      <trkpt lat="47.2255" lon="-1.67832">
        <ele>77</ele>
        <time>2022-04-02T11:20:28Z</time>
      </trkpt>
      <trkpt lat="47.22559" lon="-1.67833">
        <ele>78</ele>
        <time>2022-04-02T11:20:30Z</time>
      </trkpt>
      <trkpt lat="47.22569" lon="-1.67834">
        <ele>78</ele>
        <time>2022-04-02T11:20:32Z</time>
      </trkpt>
      <trkpt lat="47.22578" lon="-1.67831">
        <ele>78</ele>
        <time>2022-04-02T11:20:34Z</time>
      </trkpt>
      <trkpt lat="47.22585" lon="-1.67823">
        <ele>78</ele>
        <time>2022-04-02T11:20:36Z</time>
      </trkpt>
      <trkpt lat="47.22596" lon="-1.67825">
        <ele>78</ele>
        <time>2022-04-02T11:20:38Z</time>
      </trkpt>
      <trkpt lat="47.22605" lon="-1.67829">
        <ele>78</ele>
        <time>2022-04-02T11:20:40Z</time>
      </trkpt>
      <trkpt lat="47.22615" lon="-1.67833">
        <ele>79</ele>
        <time>2022-04-02T11:20:42Z</time>
      </trkpt>
      <trkpt lat="47.22624" lon="-1.67832">
        <ele>79</ele>
        <time>2022-04-02T11:20:44Z</time>
      </trkpt>
      <trkpt lat="47.22639" lon="-1.6783">
        <ele>80</ele>
        <time>2022-04-02T11:20:47Z</time>
      </trkpt>
      <trkpt lat="47.22649" lon="-1.67828">
        <ele>80</ele>
        <time>2022-04-02T11:20:49Z</time>
      </trkpt>
      <trkpt lat="47.22658" lon="-1.67827">
        <ele>80</ele>
        <time>2022-04-02T11:20:51Z</time>
      </trkpt>
      <trkpt lat="47.22668" lon="-1.67825">
        <ele>80</ele>
        <time>2022-04-02T11:20:53Z</time>
      </trkpt>
      <trkpt lat="47.22681" lon="-1.67822">
        <ele>81</ele>
        <time>2022-04-02T11:20:56Z</time>
      </trkpt>
      <trkpt lat="47.22695" lon="-1.67818">
        <ele>82</ele>
        <time>2022-04-02T11:20:59Z</time>
      </trkpt>
      <trkpt lat="47.22704" lon="-1.67816">
        <ele>82</ele>
        <time>2022-04-02T11:21:01Z</time>
      </trkpt>
      <trkpt lat="47.22714" lon="-1.67814">
        <ele>83</ele>
        <time>2022-04-02T11:21:03Z</time>
      </trkpt>
      <trkpt lat="47.22723" lon="-1.67813">
        <ele>83</ele>
        <time>2022-04-02T11:21:05Z</time>
      </trkpt>
      <trkpt lat="47.22732" lon="-1.67811">
        <ele>84</ele>
        <time>2022-04-02T11:21:07Z</time>
      </trkpt>
      <trkpt lat="47.22741" lon="-1.67808">
        <ele>84</ele>
        <time>2022-04-02T11:21:09Z</time>
      </trkpt>
      <trkpt lat="47.22754" lon="-1.67803">
        <ele>85</ele>
        <time>2022-04-02T11:21:12Z</time>
      </trkpt>
      <trkpt lat="47.22766" lon="-1.67799">
        <ele>85</ele>
        <time>2022-04-02T11:21:15Z</time>
      </trkpt>
      <trkpt lat="47.22778" lon="-1.67794">
        <ele>86</ele>
        <time>2022-04-02T11:21:18Z</time>
      </trkpt>
      <trkpt lat="47.22791" lon="-1.6779">
        <ele>86</ele>
        <time>2022-04-02T11:21:21Z</time>
      </trkpt>
      <trkpt lat="47.22803" lon="-1.67785">
        <ele>86</ele>
        <time>2022-04-02T11:21:24Z</time>
      </trkpt>
      <trkpt lat="47.22815" lon="-1.6778">
        <ele>87</ele>
        <time>2022-04-02T11:21:27Z</time>
      </trkpt>
      <trkpt lat="47.22827" lon="-1.67774">
        <ele>87</ele>
        <time>2022-04-02T11:21:30Z</time>
      </trkpt>
      <trkpt lat="47.22835" lon="-1.67771">
        <ele>87</ele>
        <time>2022-04-02T11:21:32Z</time>
      </trkpt>
      <trkpt lat="47.22847" lon="-1.67765">
        <ele>88</ele>
        <time>2022-04-02T11:21:35Z</time>
      </trkpt>
      <trkpt lat="47.22857" lon="-1.67759">
        <ele>89</ele>
        <time>2022-04-02T11:21:38Z</time>
      </trkpt>
      <trkpt lat="47.22869" lon="-1.67753">
        <ele>90</ele>
        <time>2022-04-02T11:21:41Z</time>
      </trkpt>
      <trkpt lat="47.2288" lon="-1.67745">
        <ele>91</ele>
        <time>2022-04-02T11:21:44Z</time>
      </trkpt>
      <trkpt lat="47.22892" lon="-1.67739">
        <ele>91</ele>
        <time>2022-04-02T11:21:47Z</time>
      </trkpt>
      <trkpt lat="47.22903" lon="-1.67732">
        <ele>92</ele>
        <time>2022-04-02T11:21:50Z</time>
      </trkpt>
      <trkpt lat="47.22915" lon="-1.67724">
        <ele>92</ele>
        <time>2022-04-02T11:21:53Z</time>
      </trkpt>
      <trkpt lat="47.22926" lon="-1.67717">
        <ele>92</ele>
        <time>2022-04-02T11:21:56Z</time>
      </trkpt>
      <trkpt lat="47.22937" lon="-1.67709">
        <ele>92</ele>
        <time>2022-04-02T11:21:59Z</time>
      </trkpt>
      <trkpt lat="47.22949" lon="-1.67701">
        <ele>92</ele>
        <time>2022-04-02T11:22:02Z</time>
      </trkpt>
      <trkpt lat="47.2296" lon="-1.67693">
        <ele>93</ele>
        <time>2022-04-02T11:22:05Z</time>
      </trkpt>
      <trkpt lat="47.22971" lon="-1.67685">
        <ele>93</ele>
        <time>2022-04-02T11:22:08Z</time>
      </trkpt>
      <trkpt lat="47.22983" lon="-1.67676">
        <ele>93</ele>
        <time>2022-04-02T11:22:11Z</time>
      </trkpt>
      <trkpt lat="47.22995" lon="-1.67668">
        <ele>93</ele>
        <time>2022-04-02T11:22:14Z</time>
      </trkpt>
      <trkpt lat="47.23007" lon="-1.67659">
        <ele>93</ele>
        <time>2022-04-02T11:22:17Z</time>
      </trkpt>
      <trkpt lat="47.23019" lon="-1.6765">
        <ele>93</ele>
        <time>2022-04-02T11:22:20Z</time>
      </trkpt>
      <trkpt lat="47.23027" lon="-1.67643">
        <ele>93</ele>
        <time>2022-04-02T11:22:22Z</time>
      </trkpt>
      <trkpt lat="47.23034" lon="-1.67635">
        <ele>93</ele>
        <time>2022-04-02T11:22:24Z</time>
      </trkpt>
      <trkpt lat="47.23041" lon="-1.67625">
        <ele>93</ele>
        <time>2022-04-02T11:22:26Z</time>
      </trkpt>
      <trkpt lat="47.23048" lon="-1.67616">
        <ele>93</ele>
        <time>2022-04-02T11:22:28Z</time>
      </trkpt>
      <trkpt lat="47.23054" lon="-1.67606">
        <ele>93</ele>
        <time>2022-04-02T11:22:30Z</time>
      </trkpt>
      <trkpt lat="47.23061" lon="-1.67596">
        <ele>93</ele>
        <time>2022-04-02T11:22:32Z</time>
      </trkpt>
      <trkpt lat="47.23067" lon="-1.67586">
        <ele>93</ele>
        <time>2022-04-02T11:22:34Z</time>
      </trkpt>
      <trkpt lat="47.23073" lon="-1.67576">
        <ele>93</ele>
        <time>2022-04-02T11:22:36Z</time>
      </trkpt>
      <trkpt lat="47.23083" lon="-1.67563">
        <ele>93</ele>
        <time>2022-04-02T11:22:39Z</time>
      </trkpt>
      <trkpt lat="47.23092" lon="-1.67551">
        <ele>93</ele>
        <time>2022-04-02T11:22:42Z</time>
      </trkpt>
      <trkpt lat="47.23102" lon="-1.67539">
        <ele>93</ele>
        <time>2022-04-02T11:22:45Z</time>
      </trkpt>
      <trkpt lat="47.23109" lon="-1.6753">
        <ele>93</ele>
        <time>2022-04-02T11:22:47Z</time>
      </trkpt>
      <trkpt lat="47.2312" lon="-1.67519">
        <ele>93</ele>
        <time>2022-04-02T11:22:50Z</time>
      </trkpt>
      <trkpt lat="47.2313" lon="-1.67507">
        <ele>93</ele>
        <time>2022-04-02T11:22:53Z</time>
      </trkpt>
      <trkpt lat="47.23141" lon="-1.67496">
        <ele>94</ele>
        <time>2022-04-02T11:22:56Z</time>
      </trkpt>
      <trkpt lat="47.23148" lon="-1.67488">
        <ele>94</ele>
        <time>2022-04-02T11:22:58Z</time>
      </trkpt>
      <trkpt lat="47.23156" lon="-1.6748">
        <ele>94</ele>
        <time>2022-04-02T11:23:00Z</time>
      </trkpt>
      <trkpt lat="47.23166" lon="-1.67469">
        <ele>95</ele>
        <time>2022-04-02T11:23:03Z</time>
      </trkpt>
      <trkpt lat="47.23177" lon="-1.67456">
        <ele>95</ele>
        <time>2022-04-02T11:23:06Z</time>
      </trkpt>
      <trkpt lat="47.23187" lon="-1.67447">
        <ele>96</ele>
        <time>2022-04-02T11:23:09Z</time>
      </trkpt>
      <trkpt lat="47.23197" lon="-1.67435">
        <ele>96</ele>
        <time>2022-04-02T11:23:12Z</time>
      </trkpt>
      <trkpt lat="47.23208" lon="-1.67423">
        <ele>96</ele>
        <time>2022-04-02T11:23:15Z</time>
      </trkpt>
      <trkpt lat="47.23218" lon="-1.67411">
        <ele>97</ele>
        <time>2022-04-02T11:23:18Z</time>
      </trkpt>
      <trkpt lat="47.23229" lon="-1.67401">
        <ele>97</ele>
        <time>2022-04-02T11:23:21Z</time>
      </trkpt>
      <trkpt lat="47.2324" lon="-1.67393">
        <ele>98</ele>
        <time>2022-04-02T11:23:24Z</time>
      </trkpt>
      <trkpt lat="47.23251" lon="-1.67383">
        <ele>99</ele>
        <time>2022-04-02T11:23:27Z</time>
      </trkpt>
      <trkpt lat="47.23263" lon="-1.67374">
        <ele>100</ele>
        <time>2022-04-02T11:23:30Z</time>
      </trkpt>
      <trkpt lat="47.23274" lon="-1.67366">
        <ele>101</ele>
        <time>2022-04-02T11:23:33Z</time>
      </trkpt>
      <trkpt lat="47.23286" lon="-1.67358">
        <ele>101</ele>
        <time>2022-04-02T11:23:36Z</time>
      </trkpt>
      <trkpt lat="47.23298" lon="-1.67351">
        <ele>102</ele>
        <time>2022-04-02T11:23:39Z</time>
      </trkpt>
      <trkpt lat="47.23306" lon="-1.67345">
        <ele>103</ele>
        <time>2022-04-02T11:23:41Z</time>
      </trkpt>
      <trkpt lat="47.23318" lon="-1.67336">
        <ele>103</ele>
        <time>2022-04-02T11:23:44Z</time>
      </trkpt>
      <trkpt lat="47.23329" lon="-1.67328">
        <ele>104</ele>
        <time>2022-04-02T11:23:47Z</time>
      </trkpt>
      <trkpt lat="47.23341" lon="-1.6732">
        <ele>103</ele>
        <time>2022-04-02T11:23:50Z</time>
      </trkpt>
      <trkpt lat="47.23353" lon="-1.67312">
        <ele>103</ele>
        <time>2022-04-02T11:23:53Z</time>
      </trkpt>
      <trkpt lat="47.23364" lon="-1.67305">
        <ele>104</ele>
        <time>2022-04-02T11:23:56Z</time>
      </trkpt>
      <trkpt lat="47.23376" lon="-1.67296">
        <ele>104</ele>
        <time>2022-04-02T11:23:59Z</time>
      </trkpt>
      <trkpt lat="47.23387" lon="-1.67288">
        <ele>104</ele>
        <time>2022-04-02T11:24:02Z</time>
      </trkpt>
      <trkpt lat="47.234" lon="-1.67281">
        <ele>105</ele>
        <time>2022-04-02T11:24:05Z</time>
      </trkpt>
      <trkpt lat="47.23412" lon="-1.67272">
        <ele>105</ele>
        <time>2022-04-02T11:24:08Z</time>
      </trkpt>
      <trkpt lat="47.2342" lon="-1.67267">
        <ele>105</ele>
        <time>2022-04-02T11:24:10Z</time>
      </trkpt>
      <trkpt lat="47.23432" lon="-1.67258">
        <ele>105</ele>
        <time>2022-04-02T11:24:13Z</time>
      </trkpt>
      <trkpt lat="47.23444" lon="-1.6725">
        <ele>105</ele>
        <time>2022-04-02T11:24:16Z</time>
      </trkpt>
      <trkpt lat="47.23453" lon="-1.67245">
        <ele>105</ele>
        <time>2022-04-02T11:24:18Z</time>
      </trkpt>
      <trkpt lat="47.23461" lon="-1.67239">
        <ele>105</ele>
        <time>2022-04-02T11:24:20Z</time>
      </trkpt>
      <trkpt lat="47.23469" lon="-1.67234">
        <ele>105</ele>
        <time>2022-04-02T11:24:22Z</time>
      </trkpt>
      <trkpt lat="47.23482" lon="-1.67225">
        <ele>106</ele>
        <time>2022-04-02T11:24:25Z</time>
      </trkpt>
      <trkpt lat="47.2349" lon="-1.67219">
        <ele>106</ele>
        <time>2022-04-02T11:24:27Z</time>
      </trkpt>
      <trkpt lat="47.23502" lon="-1.6721">
        <ele>107</ele>
        <time>2022-04-02T11:24:30Z</time>
      </trkpt>
      <trkpt lat="47.23514" lon="-1.67202">
        <ele>107</ele>
        <time>2022-04-02T11:24:33Z</time>
      </trkpt>
      <trkpt lat="47.23523" lon="-1.67197">
        <ele>107</ele>
        <time>2022-04-02T11:24:35Z</time>
      </trkpt>
      <trkpt lat="47.23532" lon="-1.67193">
        <ele>107</ele>
        <time>2022-04-02T11:24:37Z</time>
      </trkpt>
      <trkpt lat="47.23541" lon="-1.67189">
        <ele>107</ele>
        <time>2022-04-02T11:24:39Z</time>
      </trkpt>
      <trkpt lat="47.2355" lon="-1.67186">
        <ele>107</ele>
        <time>2022-04-02T11:24:41Z</time>
      </trkpt>
      <trkpt lat="47.2356" lon="-1.67183">
        <ele>106</ele>
        <time>2022-04-02T11:24:43Z</time>
      </trkpt>
      <trkpt lat="47.2357" lon="-1.6718">
        <ele>106</ele>
        <time>2022-04-02T11:24:45Z</time>
      </trkpt>
      <trkpt lat="47.2358" lon="-1.67179">
        <ele>106</ele>
        <time>2022-04-02T11:24:47Z</time>
      </trkpt>
      <trkpt lat="47.2359" lon="-1.67177">
        <ele>106</ele>
        <time>2022-04-02T11:24:49Z</time>
      </trkpt>
      <trkpt lat="47.236" lon="-1.67176">
        <ele>106</ele>
        <time>2022-04-02T11:24:51Z</time>
      </trkpt>
      <trkpt lat="47.2361" lon="-1.67175">
        <ele>105</ele>
        <time>2022-04-02T11:24:53Z</time>
      </trkpt>
      <trkpt lat="47.2362" lon="-1.67174">
        <ele>106</ele>
        <time>2022-04-02T11:24:55Z</time>
      </trkpt>
      <trkpt lat="47.23629" lon="-1.67167">
        <ele>106</ele>
        <time>2022-04-02T11:24:57Z</time>
      </trkpt>
      <trkpt lat="47.23636" lon="-1.67157">
        <ele>106</ele>
        <time>2022-04-02T11:24:59Z</time>
      </trkpt>
      <trkpt lat="47.23646" lon="-1.67152">
        <ele>106</ele>
        <time>2022-04-02T11:25:01Z</time>
      </trkpt>
      <trkpt lat="47.23655" lon="-1.67157">
        <ele>105</ele>
        <time>2022-04-02T11:25:03Z</time>
      </trkpt>
      <trkpt lat="47.23663" lon="-1.67167">
        <ele>105</ele>
        <time>2022-04-02T11:25:05Z</time>
      </trkpt>
      <trkpt lat="47.23674" lon="-1.67169">
        <ele>105</ele>
        <time>2022-04-02T11:25:07Z</time>
      </trkpt>
      <trkpt lat="47.23685" lon="-1.67168">
        <ele>105</ele>
        <time>2022-04-02T11:25:09Z</time>
      </trkpt>
      <trkpt lat="47.23697" lon="-1.67166">
        <ele>106</ele>
        <time>2022-04-02T11:25:11Z</time>
      </trkpt>
      <trkpt lat="47.23708" lon="-1.67165">
        <ele>106</ele>
        <time>2022-04-02T11:25:13Z</time>
      </trkpt>
      <trkpt lat="47.23718" lon="-1.67163">
        <ele>106</ele>
        <time>2022-04-02T11:25:15Z</time>
      </trkpt>
      <trkpt lat="47.23728" lon="-1.67159">
        <ele>106</ele>
        <time>2022-04-02T11:25:17Z</time>
      </trkpt>
      <trkpt lat="47.23738" lon="-1.67156">
        <ele>106</ele>
        <time>2022-04-02T11:25:19Z</time>
      </trkpt>
      <trkpt lat="47.23748" lon="-1.67152">
        <ele>106</ele>
        <time>2022-04-02T11:25:21Z</time>
      </trkpt>
      <trkpt lat="47.23758" lon="-1.67148">
        <ele>106</ele>
        <time>2022-04-02T11:25:23Z</time>
      </trkpt>
      <trkpt lat="47.23769" lon="-1.67144">
        <ele>106</ele>
        <time>2022-04-02T11:25:25Z</time>
      </trkpt>
      <trkpt lat="47.23779" lon="-1.6714">
        <ele>106</ele>
        <time>2022-04-02T11:25:27Z</time>
      </trkpt>
      <trkpt lat="47.23789" lon="-1.67137">
        <ele>106</ele>
        <time>2022-04-02T11:25:29Z</time>
      </trkpt>
      <trkpt lat="47.23799" lon="-1.67133">
        <ele>106</ele>
        <time>2022-04-02T11:25:31Z</time>
      </trkpt>
      <trkpt lat="47.23809" lon="-1.67131">
        <ele>105</ele>
        <time>2022-04-02T11:25:33Z</time>
      </trkpt>
      <trkpt lat="47.23819" lon="-1.67129">
        <ele>105</ele>
        <time>2022-04-02T11:25:35Z</time>
      </trkpt>
      <trkpt lat="47.2383" lon="-1.67128">
        <ele>106</ele>
        <time>2022-04-02T11:25:37Z</time>
      </trkpt>
      <trkpt lat="47.2384" lon="-1.67128">
        <ele>106</ele>
        <time>2022-04-02T11:25:39Z</time>
      </trkpt>
      <trkpt lat="47.2385" lon="-1.67129">
        <ele>106</ele>
        <time>2022-04-02T11:25:41Z</time>
      </trkpt>
      <trkpt lat="47.2386" lon="-1.67131">
        <ele>106</ele>
        <time>2022-04-02T11:25:43Z</time>
      </trkpt>
      <trkpt lat="47.2387" lon="-1.67134">
        <ele>107</ele>
        <time>2022-04-02T11:25:45Z</time>
      </trkpt>
      <trkpt lat="47.2388" lon="-1.67138">
        <ele>107</ele>
        <time>2022-04-02T11:25:47Z</time>
      </trkpt>
      <trkpt lat="47.23889" lon="-1.67143">
        <ele>108</ele>
        <time>2022-04-02T11:25:49Z</time>
      </trkpt>
      <trkpt lat="47.23899" lon="-1.67148">
        <ele>108</ele>
        <time>2022-04-02T11:25:51Z</time>
      </trkpt>
      <trkpt lat="47.23909" lon="-1.67154">
        <ele>108</ele>
        <time>2022-04-02T11:25:53Z</time>
      </trkpt>
      <trkpt lat="47.23919" lon="-1.6716">
        <ele>108</ele>
        <time>2022-04-02T11:25:55Z</time>
      </trkpt>
      <trkpt lat="47.23928" lon="-1.67166">
        <ele>108</ele>
        <time>2022-04-02T11:25:57Z</time>
      </trkpt>
      <trkpt lat="47.23937" lon="-1.67172">
        <ele>108</ele>
        <time>2022-04-02T11:25:59Z</time>
      </trkpt>
      <trkpt lat="47.23945" lon="-1.6718">
        <ele>108</ele>
        <time>2022-04-02T11:26:01Z</time>
      </trkpt>
      <trkpt lat="47.23957" lon="-1.67193">
        <ele>109</ele>
        <time>2022-04-02T11:26:04Z</time>
      </trkpt>
      <trkpt lat="47.23965" lon="-1.67203">
        <ele>109</ele>
        <time>2022-04-02T11:26:06Z</time>
      </trkpt>
      <trkpt lat="47.23972" lon="-1.67215">
        <ele>108</ele>
        <time>2022-04-02T11:26:08Z</time>
      </trkpt>
      <trkpt lat="47.23982" lon="-1.67233">
        <ele>108</ele>
        <time>2022-04-02T11:26:11Z</time>
      </trkpt>
      <trkpt lat="47.23991" lon="-1.67242">
        <ele>108</ele>
        <time>2022-04-02T11:26:13Z</time>
      </trkpt>
      <trkpt lat="47.24" lon="-1.67252">
        <ele>107</ele>
        <time>2022-04-02T11:26:15Z</time>
      </trkpt>
      <trkpt lat="47.24011" lon="-1.67261">
        <ele>107</ele>
        <time>2022-04-02T11:26:17Z</time>
      </trkpt>
      <trkpt lat="47.24022" lon="-1.67269">
        <ele>107</ele>
        <time>2022-04-02T11:26:19Z</time>
      </trkpt>
      <trkpt lat="47.24034" lon="-1.67276">
        <ele>106</ele>
        <time>2022-04-02T11:26:21Z</time>
      </trkpt>
      <trkpt lat="47.24048" lon="-1.67281">
        <ele>105</ele>
        <time>2022-04-02T11:26:23Z</time>
      </trkpt>
      <trkpt lat="47.24063" lon="-1.67283">
        <ele>104</ele>
        <time>2022-04-02T11:26:25Z</time>
      </trkpt>
      <trkpt lat="47.24079" lon="-1.67285">
        <ele>103</ele>
        <time>2022-04-02T11:26:27Z</time>
      </trkpt>
      <trkpt lat="47.24095" lon="-1.67286">
        <ele>102</ele>
        <time>2022-04-02T11:26:29Z</time>
      </trkpt>
      <trkpt lat="47.24112" lon="-1.67288">
        <ele>102</ele>
        <time>2022-04-02T11:26:31Z</time>
      </trkpt>
      <trkpt lat="47.24129" lon="-1.6729">
        <ele>102</ele>
        <time>2022-04-02T11:26:33Z</time>
      </trkpt>
      <trkpt lat="47.24146" lon="-1.6729">
        <ele>101</ele>
        <time>2022-04-02T11:26:35Z</time>
      </trkpt>
      <trkpt lat="47.24162" lon="-1.67288">
        <ele>101</ele>
        <time>2022-04-02T11:26:37Z</time>
      </trkpt>
      <trkpt lat="47.24177" lon="-1.67284">
        <ele>101</ele>
        <time>2022-04-02T11:26:39Z</time>
      </trkpt>
      <trkpt lat="47.24191" lon="-1.67279">
        <ele>100</ele>
        <time>2022-04-02T11:26:41Z</time>
      </trkpt>
      <trkpt lat="47.24205" lon="-1.67274">
        <ele>100</ele>
        <time>2022-04-02T11:26:43Z</time>
      </trkpt>
      <trkpt lat="47.24217" lon="-1.67266">
        <ele>100</ele>
        <time>2022-04-02T11:26:45Z</time>
      </trkpt>
      <trkpt lat="47.24225" lon="-1.67253">
        <ele>100</ele>
        <time>2022-04-02T11:26:47Z</time>
      </trkpt>
      <trkpt lat="47.24228" lon="-1.67235">
        <ele>99</ele>
        <time>2022-04-02T11:26:49Z</time>
      </trkpt>
      <trkpt lat="47.24228" lon="-1.67217">
        <ele>99</ele>
        <time>2022-04-02T11:26:51Z</time>
      </trkpt>
      <trkpt lat="47.24231" lon="-1.67201">
        <ele>98</ele>
        <time>2022-04-02T11:26:53Z</time>
      </trkpt>
      <trkpt lat="47.2424" lon="-1.6719">
        <ele>98</ele>
        <time>2022-04-02T11:26:55Z</time>
      </trkpt>
      <trkpt lat="47.24248" lon="-1.6718">
        <ele>98</ele>
        <time>2022-04-02T11:26:57Z</time>
      </trkpt>
      <trkpt lat="47.24249" lon="-1.67163">
        <ele>98</ele>
        <time>2022-04-02T11:26:59Z</time>
      </trkpt>
      <trkpt lat="47.24247" lon="-1.67145">
        <ele>98</ele>
        <time>2022-04-02T11:27:01Z</time>
      </trkpt>
      <trkpt lat="47.24245" lon="-1.67127">
        <ele>98</ele>
        <time>2022-04-02T11:27:03Z</time>
      </trkpt>
      <trkpt lat="47.24244" lon="-1.6711">
        <ele>99</ele>
        <time>2022-04-02T11:27:05Z</time>
      </trkpt>
      <trkpt lat="47.24243" lon="-1.67093">
        <ele>99</ele>
        <time>2022-04-02T11:27:07Z</time>
      </trkpt>
      <trkpt lat="47.24244" lon="-1.67076">
        <ele>99</ele>
        <time>2022-04-02T11:27:09Z</time>
      </trkpt>
      <trkpt lat="47.24244" lon="-1.67059">
        <ele>99</ele>
        <time>2022-04-02T11:27:11Z</time>
      </trkpt>
      <trkpt lat="47.24245" lon="-1.67042">
        <ele>99</ele>
        <time>2022-04-02T11:27:13Z</time>
      </trkpt>
      <trkpt lat="47.24247" lon="-1.67025">
        <ele>99</ele>
        <time>2022-04-02T11:27:15Z</time>
      </trkpt>
      <trkpt lat="47.2425" lon="-1.67009">
        <ele>99</ele>
        <time>2022-04-02T11:27:17Z</time>
      </trkpt>
      <trkpt lat="47.24253" lon="-1.66993">
        <ele>99</ele>
        <time>2022-04-02T11:27:19Z</time>
      </trkpt>
      <trkpt lat="47.24256" lon="-1.66977">
        <ele>100</ele>
        <time>2022-04-02T11:27:21Z</time>
      </trkpt>
      <trkpt lat="47.24259" lon="-1.66961">
        <ele>100</ele>
        <time>2022-04-02T11:27:23Z</time>
      </trkpt>
      <trkpt lat="47.24262" lon="-1.66946">
        <ele>100</ele>
        <time>2022-04-02T11:27:25Z</time>
      </trkpt>
      <trkpt lat="47.24265" lon="-1.6693">
        <ele>99</ele>
        <time>2022-04-02T11:27:27Z</time>
      </trkpt>
      <trkpt lat="47.24268" lon="-1.66914">
        <ele>100</ele>
        <time>2022-04-02T11:27:29Z</time>
      </trkpt>
      <trkpt lat="47.24271" lon="-1.66898">
        <ele>100</ele>
        <time>2022-04-02T11:27:31Z</time>
      </trkpt>
      <trkpt lat="47.24274" lon="-1.66882">
        <ele>99</ele>
        <time>2022-04-02T11:27:33Z</time>
      </trkpt>
      <trkpt lat="47.24278" lon="-1.66865">
        <ele>99</ele>
        <time>2022-04-02T11:27:35Z</time>
      </trkpt>
      <trkpt lat="47.24284" lon="-1.66851">
        <ele>100</ele>
        <time>2022-04-02T11:27:37Z</time>
      </trkpt>
      <trkpt lat="47.24288" lon="-1.66835">
        <ele>100</ele>
        <time>2022-04-02T11:27:39Z</time>
      </trkpt>
      <trkpt lat="47.24293" lon="-1.6682">
        <ele>100</ele>
        <time>2022-04-02T11:27:41Z</time>
      </trkpt>
      <trkpt lat="47.24302" lon="-1.66812">
        <ele>100</ele>
        <time>2022-04-02T11:27:43Z</time>
      </trkpt>
      <trkpt lat="47.24313" lon="-1.66814">
        <ele>99</ele>
        <time>2022-04-02T11:27:45Z</time>
      </trkpt>
      <trkpt lat="47.24323" lon="-1.66824">
        <ele>99</ele>
        <time>2022-04-02T11:27:47Z</time>
      </trkpt>
      <trkpt lat="47.24332" lon="-1.66835">
        <ele>99</ele>
        <time>2022-04-02T11:27:49Z</time>
      </trkpt>
      <trkpt lat="47.24343" lon="-1.66843">
        <ele>98</ele>
        <time>2022-04-02T11:27:51Z</time>
      </trkpt>
      <trkpt lat="47.24354" lon="-1.66852">
        <ele>98</ele>
        <time>2022-04-02T11:27:53Z</time>
      </trkpt>
      <trkpt lat="47.24365" lon="-1.66863">
        <ele>97</ele>
        <time>2022-04-02T11:27:55Z</time>
      </trkpt>
      <trkpt lat="47.24376" lon="-1.66875">
        <ele>97</ele>
        <time>2022-04-02T11:27:57Z</time>
      </trkpt>
      <trkpt lat="47.24386" lon="-1.66887">
        <ele>97</ele>
        <time>2022-04-02T11:27:59Z</time>
      </trkpt>
      <trkpt lat="47.24396" lon="-1.669">
        <ele>96</ele>
        <time>2022-04-02T11:28:01Z</time>
      </trkpt>
      <trkpt lat="47.24406" lon="-1.66913">
        <ele>96</ele>
        <time>2022-04-02T11:28:03Z</time>
      </trkpt>
      <trkpt lat="47.24416" lon="-1.66925">
        <ele>95</ele>
        <time>2022-04-02T11:28:05Z</time>
      </trkpt>
      <trkpt lat="47.24426" lon="-1.66939">
        <ele>95</ele>
        <time>2022-04-02T11:28:07Z</time>
      </trkpt>
      <trkpt lat="47.24433" lon="-1.66955">
        <ele>95</ele>
        <time>2022-04-02T11:28:09Z</time>
      </trkpt>
      <trkpt lat="47.24443" lon="-1.66966">
        <ele>95</ele>
        <time>2022-04-02T11:28:11Z</time>
      </trkpt>
      <trkpt lat="47.24453" lon="-1.66977">
        <ele>95</ele>
        <time>2022-04-02T11:28:13Z</time>
      </trkpt>
      <trkpt lat="47.24462" lon="-1.6699">
        <ele>94</ele>
        <time>2022-04-02T11:28:15Z</time>
      </trkpt>
      <trkpt lat="47.24473" lon="-1.66999">
        <ele>94</ele>
        <time>2022-04-02T11:28:17Z</time>
      </trkpt>
      <trkpt lat="47.24485" lon="-1.67005">
        <ele>94</ele>
        <time>2022-04-02T11:28:19Z</time>
      </trkpt>
      <trkpt lat="47.24496" lon="-1.67012">
        <ele>95</ele>
        <time>2022-04-02T11:28:21Z</time>
      </trkpt>
      <trkpt lat="47.24507" lon="-1.67019">
        <ele>95</ele>
        <time>2022-04-02T11:28:23Z</time>
      </trkpt>
      <trkpt lat="47.24519" lon="-1.67024">
        <ele>95</ele>
        <time>2022-04-02T11:28:25Z</time>
      </trkpt>
      <trkpt lat="47.2453" lon="-1.67028">
        <ele>95</ele>
        <time>2022-04-02T11:28:27Z</time>
      </trkpt>
      <trkpt lat="47.24542" lon="-1.67031">
        <ele>96</ele>
        <time>2022-04-02T11:28:29Z</time>
      </trkpt>
      <trkpt lat="47.24554" lon="-1.67032">
        <ele>96</ele>
        <time>2022-04-02T11:28:31Z</time>
      </trkpt>
      <trkpt lat="47.24566" lon="-1.67031">
        <ele>97</ele>
        <time>2022-04-02T11:28:33Z</time>
      </trkpt>
      <trkpt lat="47.24577" lon="-1.6703">
        <ele>97</ele>
        <time>2022-04-02T11:28:35Z</time>
      </trkpt>
      <trkpt lat="47.24589" lon="-1.67027">
        <ele>97</ele>
        <time>2022-04-02T11:28:37Z</time>
      </trkpt>
      <trkpt lat="47.24601" lon="-1.67023">
        <ele>96</ele>
        <time>2022-04-02T11:28:39Z</time>
      </trkpt>
      <trkpt lat="47.24613" lon="-1.67018">
        <ele>96</ele>
        <time>2022-04-02T11:28:41Z</time>
      </trkpt>
      <trkpt lat="47.24624" lon="-1.67014">
        <ele>96</ele>
        <time>2022-04-02T11:28:43Z</time>
      </trkpt>
      <trkpt lat="47.24635" lon="-1.6701">
        <ele>96</ele>
        <time>2022-04-02T11:28:45Z</time>
      </trkpt>
      <trkpt lat="47.24647" lon="-1.67004">
        <ele>96</ele>
        <time>2022-04-02T11:28:47Z</time>
      </trkpt>
      <trkpt lat="47.24658" lon="-1.66998">
        <ele>96</ele>
        <time>2022-04-02T11:28:49Z</time>
      </trkpt>
      <trkpt lat="47.24669" lon="-1.66988">
        <ele>95</ele>
        <time>2022-04-02T11:28:51Z</time>
      </trkpt>
      <trkpt lat="47.2468" lon="-1.66977">
        <ele>94</ele>
        <time>2022-04-02T11:28:53Z</time>
      </trkpt>
      <trkpt lat="47.2469" lon="-1.66964">
        <ele>94</ele>
        <time>2022-04-02T11:28:55Z</time>
      </trkpt>
      <trkpt lat="47.24699" lon="-1.6695">
        <ele>94</ele>
        <time>2022-04-02T11:28:57Z</time>
      </trkpt>
      <trkpt lat="47.24708" lon="-1.66938">
        <ele>95</ele>
        <time>2022-04-02T11:28:59Z</time>
      </trkpt>
      <trkpt lat="47.24719" lon="-1.66927">
        <ele>95</ele>
        <time>2022-04-02T11:29:01Z</time>
      </trkpt>
      <trkpt lat="47.2473" lon="-1.66918">
        <ele>95</ele>
        <time>2022-04-02T11:29:03Z</time>
      </trkpt>
      <trkpt lat="47.24741" lon="-1.66911">
        <ele>95</ele>
        <time>2022-04-02T11:29:05Z</time>
      </trkpt>
      <trkpt lat="47.24753" lon="-1.66905">
        <ele>94</ele>
        <time>2022-04-02T11:29:07Z</time>
      </trkpt>
      <trkpt lat="47.24764" lon="-1.66899">
        <ele>94</ele>
        <time>2022-04-02T11:29:09Z</time>
      </trkpt>
      <trkpt lat="47.24775" lon="-1.66891">
        <ele>95</ele>
        <time>2022-04-02T11:29:11Z</time>
      </trkpt>
      <trkpt lat="47.24786" lon="-1.66882">
        <ele>95</ele>
        <time>2022-04-02T11:29:13Z</time>
      </trkpt>
      <trkpt lat="47.24796" lon="-1.66873">
        <ele>95</ele>
        <time>2022-04-02T11:29:15Z</time>
      </trkpt>
      <trkpt lat="47.24806" lon="-1.66863">
        <ele>94</ele>
        <time>2022-04-02T11:29:17Z</time>
      </trkpt>
      <trkpt lat="47.24817" lon="-1.66854">
        <ele>94</ele>
        <time>2022-04-02T11:29:19Z</time>
      </trkpt>
      <trkpt lat="47.24828" lon="-1.66847">
        <ele>94</ele>
        <time>2022-04-02T11:29:21Z</time>
      </trkpt>
      <trkpt lat="47.24839" lon="-1.66842">
        <ele>93</ele>
        <time>2022-04-02T11:29:23Z</time>
      </trkpt>
      <trkpt lat="47.24851" lon="-1.66838">
        <ele>93</ele>
        <time>2022-04-02T11:29:25Z</time>
      </trkpt>
      <trkpt lat="47.24863" lon="-1.66835">
        <ele>92</ele>
        <time>2022-04-02T11:29:27Z</time>
      </trkpt>
      <trkpt lat="47.24874" lon="-1.66831">
        <ele>92</ele>
        <time>2022-04-02T11:29:29Z</time>
      </trkpt>
      <trkpt lat="47.24886" lon="-1.66827">
        <ele>92</ele>
        <time>2022-04-02T11:29:31Z</time>
      </trkpt>
      <trkpt lat="47.24899" lon="-1.66823">
        <ele>91</ele>
        <time>2022-04-02T11:29:33Z</time>
      </trkpt>
      <trkpt lat="47.24911" lon="-1.66819">
        <ele>91</ele>
        <time>2022-04-02T11:29:35Z</time>
      </trkpt>
      <trkpt lat="47.24924" lon="-1.66816">
        <ele>91</ele>
        <time>2022-04-02T11:29:37Z</time>
      </trkpt>
      <trkpt lat="47.24936" lon="-1.66812">
        <ele>91</ele>
        <time>2022-04-02T11:29:39Z</time>
      </trkpt>
      <trkpt lat="47.24949" lon="-1.66808">
        <ele>91</ele>
        <time>2022-04-02T11:29:41Z</time>
      </trkpt>
      <trkpt lat="47.24962" lon="-1.66804">
        <ele>92</ele>
        <time>2022-04-02T11:29:43Z</time>
      </trkpt>
      <trkpt lat="47.24975" lon="-1.66801">
        <ele>92</ele>
        <time>2022-04-02T11:29:45Z</time>
      </trkpt>
      <trkpt lat="47.24987" lon="-1.66797">
        <ele>92</ele>
        <time>2022-04-02T11:29:47Z</time>
      </trkpt>
      <trkpt lat="47.25" lon="-1.66795">
        <ele>92</ele>
        <time>2022-04-02T11:29:49Z</time>
      </trkpt>
      <trkpt lat="47.25012" lon="-1.66793">
        <ele>91</ele>
        <time>2022-04-02T11:29:51Z</time>
      </trkpt>
      <trkpt lat="47.25026" lon="-1.66792">
        <ele>91</ele>
        <time>2022-04-02T11:29:53Z</time>
      </trkpt>
      <trkpt lat="47.25039" lon="-1.6679">
        <ele>91</ele>
        <time>2022-04-02T11:29:55Z</time>
      </trkpt>
      <trkpt lat="47.25052" lon="-1.66791">
        <ele>91</ele>
        <time>2022-04-02T11:29:57Z</time>
      </trkpt>
      <trkpt lat="47.25065" lon="-1.66792">
        <ele>90</ele>
        <time>2022-04-02T11:29:59Z</time>
      </trkpt>
      <trkpt lat="47.25078" lon="-1.66793">
        <ele>90</ele>
        <time>2022-04-02T11:30:01Z</time>
      </trkpt>
      <trkpt lat="47.25092" lon="-1.66796">
        <ele>90</ele>
        <time>2022-04-02T11:30:03Z</time>
      </trkpt>
      <trkpt lat="47.25106" lon="-1.668">
        <ele>90</ele>
        <time>2022-04-02T11:30:05Z</time>
      </trkpt>
      <trkpt lat="47.25121" lon="-1.66804">
        <ele>89</ele>
        <time>2022-04-02T11:30:07Z</time>
      </trkpt>
      <trkpt lat="47.25136" lon="-1.66809">
        <ele>88</ele>
        <time>2022-04-02T11:30:09Z</time>
      </trkpt>
      <trkpt lat="47.25151" lon="-1.66813">
        <ele>87</ele>
        <time>2022-04-02T11:30:11Z</time>
      </trkpt>
      <trkpt lat="47.25166" lon="-1.66818">
        <ele>87</ele>
        <time>2022-04-02T11:30:13Z</time>
      </trkpt>
      <trkpt lat="47.25181" lon="-1.66822">
        <ele>86</ele>
        <time>2022-04-02T11:30:15Z</time>
      </trkpt>
      <trkpt lat="47.25195" lon="-1.66825">
        <ele>87</ele>
        <time>2022-04-02T11:30:17Z</time>
      </trkpt>
      <trkpt lat="47.25207" lon="-1.66828">
        <ele>87</ele>
        <time>2022-04-02T11:30:19Z</time>
      </trkpt>
      <trkpt lat="47.25219" lon="-1.66831">
        <ele>87</ele>
        <time>2022-04-02T11:30:21Z</time>
      </trkpt>
      <trkpt lat="47.25231" lon="-1.66833">
        <ele>88</ele>
        <time>2022-04-02T11:30:23Z</time>
      </trkpt>
      <trkpt lat="47.25241" lon="-1.66835">
        <ele>88</ele>
        <time>2022-04-02T11:30:25Z</time>
      </trkpt>
      <trkpt lat="47.25251" lon="-1.66837">
        <ele>88</ele>
        <time>2022-04-02T11:30:27Z</time>
      </trkpt>
      <trkpt lat="47.25261" lon="-1.66839">
        <ele>88</ele>
        <time>2022-04-02T11:30:29Z</time>
      </trkpt>
      <trkpt lat="47.25271" lon="-1.66841">
        <ele>89</ele>
        <time>2022-04-02T11:30:31Z</time>
      </trkpt>
      <trkpt lat="47.25281" lon="-1.66842">
        <ele>89</ele>
        <time>2022-04-02T11:30:33Z</time>
      </trkpt>
      <trkpt lat="47.25292" lon="-1.66843">
        <ele>90</ele>
        <time>2022-04-02T11:30:35Z</time>
      </trkpt>
      <trkpt lat="47.25302" lon="-1.66844">
        <ele>90</ele>
        <time>2022-04-02T11:30:37Z</time>
      </trkpt>
      <trkpt lat="47.25313" lon="-1.66846">
        <ele>90</ele>
        <time>2022-04-02T11:30:39Z</time>
      </trkpt>
      <trkpt lat="47.25323" lon="-1.66847">
        <ele>90</ele>
        <time>2022-04-02T11:30:41Z</time>
      </trkpt>
      <trkpt lat="47.25333" lon="-1.66849">
        <ele>91</ele>
        <time>2022-04-02T11:30:43Z</time>
      </trkpt>
      <trkpt lat="47.25344" lon="-1.66851">
        <ele>91</ele>
        <time>2022-04-02T11:30:45Z</time>
      </trkpt>
      <trkpt lat="47.25354" lon="-1.66852">
        <ele>91</ele>
        <time>2022-04-02T11:30:47Z</time>
      </trkpt>
      <trkpt lat="47.25363" lon="-1.66854">
        <ele>92</ele>
        <time>2022-04-02T11:30:49Z</time>
      </trkpt>
      <trkpt lat="47.25373" lon="-1.66856">
        <ele>92</ele>
        <time>2022-04-02T11:30:51Z</time>
      </trkpt>
      <trkpt lat="47.25383" lon="-1.66857">
        <ele>92</ele>
        <time>2022-04-02T11:30:53Z</time>
      </trkpt>
      <trkpt lat="47.25392" lon="-1.66858">
        <ele>92</ele>
        <time>2022-04-02T11:30:55Z</time>
      </trkpt>
      <trkpt lat="47.25403" lon="-1.6686">
        <ele>92</ele>
        <time>2022-04-02T11:30:57Z</time>
      </trkpt>
      <trkpt lat="47.25413" lon="-1.66862">
        <ele>92</ele>
        <time>2022-04-02T11:30:59Z</time>
      </trkpt>
      <trkpt lat="47.25423" lon="-1.66863">
        <ele>92</ele>
        <time>2022-04-02T11:31:01Z</time>
      </trkpt>
      <trkpt lat="47.25433" lon="-1.66865">
        <ele>92</ele>
        <time>2022-04-02T11:31:03Z</time>
      </trkpt>
      <trkpt lat="47.25443" lon="-1.66866">
        <ele>92</ele>
        <time>2022-04-02T11:31:05Z</time>
      </trkpt>
      <trkpt lat="47.25453" lon="-1.66868">
        <ele>92</ele>
        <time>2022-04-02T11:31:07Z</time>
      </trkpt>
      <trkpt lat="47.25464" lon="-1.66869">
        <ele>92</ele>
        <time>2022-04-02T11:31:09Z</time>
      </trkpt>
      <trkpt lat="47.25474" lon="-1.66871">
        <ele>92</ele>
        <time>2022-04-02T11:31:11Z</time>
      </trkpt>
      <trkpt lat="47.25485" lon="-1.66872">
        <ele>93</ele>
        <time>2022-04-02T11:31:13Z</time>
      </trkpt>
      <trkpt lat="47.25495" lon="-1.66874">
        <ele>93</ele>
        <time>2022-04-02T11:31:15Z</time>
      </trkpt>
      <trkpt lat="47.25506" lon="-1.66875">
        <ele>94</ele>
        <time>2022-04-02T11:31:17Z</time>
      </trkpt>
      <trkpt lat="47.25516" lon="-1.66875">
        <ele>94</ele>
        <time>2022-04-02T11:31:19Z</time>
      </trkpt>
      <trkpt lat="47.25527" lon="-1.66873">
        <ele>94</ele>
        <time>2022-04-02T11:31:21Z</time>
      </trkpt>
      <trkpt lat="47.25537" lon="-1.66876">
        <ele>94</ele>
        <time>2022-04-02T11:31:23Z</time>
      </trkpt>
      <trkpt lat="47.25547" lon="-1.6688">
        <ele>95</ele>
        <time>2022-04-02T11:31:25Z</time>
      </trkpt>
      <trkpt lat="47.25556" lon="-1.66882">
        <ele>95</ele>
        <time>2022-04-02T11:31:27Z</time>
      </trkpt>
      <trkpt lat="47.25567" lon="-1.66883">
        <ele>95</ele>
        <time>2022-04-02T11:31:29Z</time>
      </trkpt>
      <trkpt lat="47.25577" lon="-1.66884">
        <ele>96</ele>
        <time>2022-04-02T11:31:31Z</time>
      </trkpt>
      <trkpt lat="47.25587" lon="-1.66885">
        <ele>96</ele>
        <time>2022-04-02T11:31:33Z</time>
      </trkpt>
      <trkpt lat="47.25597" lon="-1.66885">
        <ele>96</ele>
        <time>2022-04-02T11:31:35Z</time>
      </trkpt>
      <trkpt lat="47.25607" lon="-1.66886">
        <ele>95</ele>
        <time>2022-04-02T11:31:37Z</time>
      </trkpt>
      <trkpt lat="47.25618" lon="-1.66887">
        <ele>95</ele>
        <time>2022-04-02T11:31:39Z</time>
      </trkpt>
      <trkpt lat="47.25628" lon="-1.66887">
        <ele>95</ele>
        <time>2022-04-02T11:31:41Z</time>
      </trkpt>
      <trkpt lat="47.25639" lon="-1.66888">
        <ele>95</ele>
        <time>2022-04-02T11:31:43Z</time>
      </trkpt>
      <trkpt lat="47.25649" lon="-1.66889">
        <ele>94</ele>
        <time>2022-04-02T11:31:45Z</time>
      </trkpt>
      <trkpt lat="47.25659" lon="-1.66889">
        <ele>94</ele>
        <time>2022-04-02T11:31:47Z</time>
      </trkpt>
      <trkpt lat="47.25669" lon="-1.6689">
        <ele>94</ele>
        <time>2022-04-02T11:31:49Z</time>
      </trkpt>
      <trkpt lat="47.25679" lon="-1.66889">
        <ele>94</ele>
        <time>2022-04-02T11:31:51Z</time>
      </trkpt>
      <trkpt lat="47.25689" lon="-1.66885">
        <ele>94</ele>
        <time>2022-04-02T11:31:53Z</time>
      </trkpt>
      <trkpt lat="47.25699" lon="-1.66884">
        <ele>94</ele>
        <time>2022-04-02T11:31:55Z</time>
      </trkpt>
      <trkpt lat="47.25709" lon="-1.66889">
        <ele>94</ele>
        <time>2022-04-02T11:31:57Z</time>
      </trkpt>
      <trkpt lat="47.25719" lon="-1.66892">
        <ele>95</ele>
        <time>2022-04-02T11:31:59Z</time>
      </trkpt>
      <trkpt lat="47.25729" lon="-1.66893">
        <ele>95</ele>
        <time>2022-04-02T11:32:01Z</time>
      </trkpt>
      <trkpt lat="47.2574" lon="-1.66895">
        <ele>95</ele>
        <time>2022-04-02T11:32:03Z</time>
      </trkpt>
      <trkpt lat="47.2575" lon="-1.66896">
        <ele>95</ele>
        <time>2022-04-02T11:32:05Z</time>
      </trkpt>
      <trkpt lat="47.2576" lon="-1.66897">
        <ele>95</ele>
        <time>2022-04-02T11:32:07Z</time>
      </trkpt>
      <trkpt lat="47.25771" lon="-1.66899">
        <ele>96</ele>
        <time>2022-04-02T11:32:09Z</time>
      </trkpt>
      <trkpt lat="47.25781" lon="-1.66901">
        <ele>96</ele>
        <time>2022-04-02T11:32:11Z</time>
      </trkpt>
      <trkpt lat="47.2579" lon="-1.66902">
        <ele>97</ele>
        <time>2022-04-02T11:32:13Z</time>
      </trkpt>
      <trkpt lat="47.258" lon="-1.66904">
        <ele>97</ele>
        <time>2022-04-02T11:32:15Z</time>
      </trkpt>
      <trkpt lat="47.25809" lon="-1.66906">
        <ele>97</ele>
        <time>2022-04-02T11:32:17Z</time>
      </trkpt>
      <trkpt lat="47.25819" lon="-1.66908">
        <ele>98</ele>
        <time>2022-04-02T11:32:19Z</time>
      </trkpt>
      <trkpt lat="47.25829" lon="-1.6691">
        <ele>99</ele>
        <time>2022-04-02T11:32:21Z</time>
      </trkpt>
      <trkpt lat="47.25839" lon="-1.66913">
        <ele>99</ele>
        <time>2022-04-02T11:32:23Z</time>
      </trkpt>
      <trkpt lat="47.25849" lon="-1.66915">
        <ele>100</ele>
        <time>2022-04-02T11:32:25Z</time>
      </trkpt>
      <trkpt lat="47.25858" lon="-1.66917">
        <ele>100</ele>
        <time>2022-04-02T11:32:27Z</time>
      </trkpt>
      <trkpt lat="47.25867" lon="-1.6692">
        <ele>100</ele>
        <time>2022-04-02T11:32:29Z</time>
      </trkpt>
      <trkpt lat="47.25877" lon="-1.66923">
        <ele>101</ele>
        <time>2022-04-02T11:32:31Z</time>
      </trkpt>
      <trkpt lat="47.2589" lon="-1.66928">
        <ele>101</ele>
        <time>2022-04-02T11:32:34Z</time>
      </trkpt>
      <trkpt lat="47.25899" lon="-1.66931">
        <ele>101</ele>
        <time>2022-04-02T11:32:36Z</time>
      </trkpt>
      <trkpt lat="47.25908" lon="-1.66934">
        <ele>101</ele>
        <time>2022-04-02T11:32:38Z</time>
      </trkpt>
      <trkpt lat="47.25917" lon="-1.66938">
        <ele>102</ele>
        <time>2022-04-02T11:32:40Z</time>
      </trkpt>
      <trkpt lat="47.25926" lon="-1.66941">
        <ele>102</ele>
        <time>2022-04-02T11:32:42Z</time>
      </trkpt>
      <trkpt lat="47.25939" lon="-1.66947">
        <ele>103</ele>
        <time>2022-04-02T11:32:45Z</time>
      </trkpt>
      <trkpt lat="47.25948" lon="-1.66951">
        <ele>103</ele>
        <time>2022-04-02T11:32:47Z</time>
      </trkpt>
      <trkpt lat="47.25957" lon="-1.66954">
        <ele>103</ele>
        <time>2022-04-02T11:32:49Z</time>
      </trkpt>
      <trkpt lat="47.25966" lon="-1.66959">
        <ele>103</ele>
        <time>2022-04-02T11:32:51Z</time>
      </trkpt>
      <trkpt lat="47.25978" lon="-1.66965">
        <ele>103</ele>
        <time>2022-04-02T11:32:54Z</time>
      </trkpt>
      <trkpt lat="47.25989" lon="-1.6697">
        <ele>104</ele>
        <time>2022-04-02T11:32:57Z</time>
      </trkpt>
      <trkpt lat="47.26001" lon="-1.66975">
        <ele>104</ele>
        <time>2022-04-02T11:33:00Z</time>
      </trkpt>
      <trkpt lat="47.26013" lon="-1.66981">
        <ele>104</ele>
        <time>2022-04-02T11:33:03Z</time>
      </trkpt>
      <trkpt lat="47.26024" lon="-1.66986">
        <ele>105</ele>
        <time>2022-04-02T11:33:06Z</time>
      </trkpt>
      <trkpt lat="47.26036" lon="-1.66991">
        <ele>105</ele>
        <time>2022-04-02T11:33:09Z</time>
      </trkpt>
      <trkpt lat="47.26047" lon="-1.66996">
        <ele>106</ele>
        <time>2022-04-02T11:33:12Z</time>
      </trkpt>
      <trkpt lat="47.26059" lon="-1.67001">
        <ele>106</ele>
        <time>2022-04-02T11:33:15Z</time>
      </trkpt>
      <trkpt lat="47.2607" lon="-1.67006">
        <ele>106</ele>
        <time>2022-04-02T11:33:18Z</time>
      </trkpt>
      <trkpt lat="47.2608" lon="-1.67011">
        <ele>106</ele>
        <time>2022-04-02T11:33:21Z</time>
      </trkpt>
      <trkpt lat="47.26092" lon="-1.67016">
        <ele>106</ele>
        <time>2022-04-02T11:33:24Z</time>
      </trkpt>
      <trkpt lat="47.26104" lon="-1.67021">
        <ele>106</ele>
        <time>2022-04-02T11:33:27Z</time>
      </trkpt>
      <trkpt lat="47.26116" lon="-1.67027">
        <ele>107</ele>
        <time>2022-04-02T11:33:30Z</time>
      </trkpt>
      <trkpt lat="47.26128" lon="-1.67032">
        <ele>106</ele>
        <time>2022-04-02T11:33:33Z</time>
      </trkpt>
      <trkpt lat="47.2614" lon="-1.67037">
        <ele>107</ele>
        <time>2022-04-02T11:33:36Z</time>
      </trkpt>
      <trkpt lat="47.26151" lon="-1.67042">
        <ele>107</ele>
        <time>2022-04-02T11:33:39Z</time>
      </trkpt>
      <trkpt lat="47.26163" lon="-1.67048">
        <ele>108</ele>
        <time>2022-04-02T11:33:42Z</time>
      </trkpt>
      <trkpt lat="47.26173" lon="-1.67053">
        <ele>108</ele>
        <time>2022-04-02T11:33:45Z</time>
      </trkpt>
      <trkpt lat="47.26185" lon="-1.67058">
        <ele>109</ele>
        <time>2022-04-02T11:33:48Z</time>
      </trkpt>
      <trkpt lat="47.26196" lon="-1.6706">
        <ele>110</ele>
        <time>2022-04-02T11:33:51Z</time>
      </trkpt>
      <trkpt lat="47.26207" lon="-1.67065">
        <ele>110</ele>
        <time>2022-04-02T11:33:54Z</time>
      </trkpt>
      <trkpt lat="47.26211" lon="-1.67077">
        <ele>110</ele>
        <time>2022-04-02T11:33:56Z</time>
      </trkpt>
      <trkpt lat="47.26213" lon="-1.6709">
        <ele>110</ele>
        <time>2022-04-02T11:33:58Z</time>
      </trkpt>
      <trkpt lat="47.26216" lon="-1.67104">
        <ele>110</ele>
        <time>2022-04-02T11:34:00Z</time>
      </trkpt>
      <trkpt lat="47.26219" lon="-1.67117">
        <ele>110</ele>
        <time>2022-04-02T11:34:02Z</time>
      </trkpt>
      <trkpt lat="47.26221" lon="-1.67131">
        <ele>110</ele>
        <time>2022-04-02T11:34:04Z</time>
      </trkpt>
      <trkpt lat="47.26224" lon="-1.67145">
        <ele>111</ele>
        <time>2022-04-02T11:34:06Z</time>
      </trkpt>
      <trkpt lat="47.26226" lon="-1.67159">
        <ele>111</ele>
        <time>2022-04-02T11:34:08Z</time>
      </trkpt>
      <trkpt lat="47.2623" lon="-1.67174">
        <ele>111</ele>
        <time>2022-04-02T11:34:10Z</time>
      </trkpt>
      <trkpt lat="47.26233" lon="-1.67188">
        <ele>111</ele>
        <time>2022-04-02T11:34:12Z</time>
      </trkpt>
      <trkpt lat="47.26236" lon="-1.67202">
        <ele>111</ele>
        <time>2022-04-02T11:34:14Z</time>
      </trkpt>
      <trkpt lat="47.26239" lon="-1.67216">
        <ele>110</ele>
        <time>2022-04-02T11:34:16Z</time>
      </trkpt>
      <trkpt lat="47.26242" lon="-1.67229">
        <ele>110</ele>
        <time>2022-04-02T11:34:18Z</time>
      </trkpt>
      <trkpt lat="47.26249" lon="-1.67239">
        <ele>110</ele>
        <time>2022-04-02T11:34:20Z</time>
      </trkpt>
      <trkpt lat="47.26258" lon="-1.6724">
        <ele>111</ele>
        <time>2022-04-02T11:34:22Z</time>
      </trkpt>
      <trkpt lat="47.26272" lon="-1.67238">
        <ele>112</ele>
        <time>2022-04-02T11:34:25Z</time>
      </trkpt>
      <trkpt lat="47.26282" lon="-1.67235">
        <ele>112</ele>
        <time>2022-04-02T11:34:27Z</time>
      </trkpt>
      <trkpt lat="47.26292" lon="-1.67231">
        <ele>112</ele>
        <time>2022-04-02T11:34:29Z</time>
      </trkpt>
      <trkpt lat="47.26302" lon="-1.67228">
        <ele>112</ele>
        <time>2022-04-02T11:34:31Z</time>
      </trkpt>
      <trkpt lat="47.26312" lon="-1.67225">
        <ele>112</ele>
        <time>2022-04-02T11:34:33Z</time>
      </trkpt>
      <trkpt lat="47.26322" lon="-1.67222">
        <ele>111</ele>
        <time>2022-04-02T11:34:35Z</time>
      </trkpt>
      <trkpt lat="47.26333" lon="-1.6722">
        <ele>112</ele>
        <time>2022-04-02T11:34:37Z</time>
      </trkpt>
      <trkpt lat="47.26342" lon="-1.67217">
        <ele>111</ele>
        <time>2022-04-02T11:34:39Z</time>
      </trkpt>
      <trkpt lat="47.26351" lon="-1.67222">
        <ele>111</ele>
        <time>2022-04-02T11:34:41Z</time>
      </trkpt>
      <trkpt lat="47.26356" lon="-1.67234">
        <ele>111</ele>
        <time>2022-04-02T11:34:43Z</time>
      </trkpt>
      <trkpt lat="47.26359" lon="-1.67248">
        <ele>111</ele>
        <time>2022-04-02T11:34:45Z</time>
      </trkpt>
      <trkpt lat="47.26361" lon="-1.67262">
        <ele>111</ele>
        <time>2022-04-02T11:34:47Z</time>
      </trkpt>
      <trkpt lat="47.26364" lon="-1.67276">
        <ele>111</ele>
        <time>2022-04-02T11:34:49Z</time>
      </trkpt>
      <trkpt lat="47.26371" lon="-1.67286">
        <ele>111</ele>
        <time>2022-04-02T11:34:51Z</time>
      </trkpt>
      <trkpt lat="47.26381" lon="-1.6729">
        <ele>111</ele>
        <time>2022-04-02T11:34:53Z</time>
      </trkpt>
      <trkpt lat="47.2639" lon="-1.67293">
        <ele>111</ele>
        <time>2022-04-02T11:34:55Z</time>
      </trkpt>
      <trkpt lat="47.264" lon="-1.67296">
        <ele>112</ele>
        <time>2022-04-02T11:34:57Z</time>
      </trkpt>
      <trkpt lat="47.26409" lon="-1.673">
        <ele>111</ele>
        <time>2022-04-02T11:34:59Z</time>
      </trkpt>
      <trkpt lat="47.26419" lon="-1.67304">
        <ele>112</ele>
        <time>2022-04-02T11:35:01Z</time>
      </trkpt>
      <trkpt lat="47.26428" lon="-1.67309">
        <ele>112</ele>
        <time>2022-04-02T11:35:03Z</time>
      </trkpt>
      <trkpt lat="47.26438" lon="-1.67314">
        <ele>111</ele>
        <time>2022-04-02T11:35:05Z</time>
      </trkpt>
      <trkpt lat="47.26447" lon="-1.67312">
        <ele>111</ele>
        <time>2022-04-02T11:35:07Z</time>
      </trkpt>
      <trkpt lat="47.26455" lon="-1.67301">
        <ele>110</ele>
        <time>2022-04-02T11:35:09Z</time>
      </trkpt>
      <trkpt lat="47.2646" lon="-1.67286">
        <ele>110</ele>
        <time>2022-04-02T11:35:11Z</time>
      </trkpt>
      <trkpt lat="47.26466" lon="-1.67271">
        <ele>109</ele>
        <time>2022-04-02T11:35:13Z</time>
      </trkpt>
      <trkpt lat="47.26471" lon="-1.67256">
        <ele>109</ele>
        <time>2022-04-02T11:35:15Z</time>
      </trkpt>
      <trkpt lat="47.26477" lon="-1.67242">
        <ele>108</ele>
        <time>2022-04-02T11:35:17Z</time>
      </trkpt>
      <trkpt lat="47.26484" lon="-1.67228">
        <ele>108</ele>
        <time>2022-04-02T11:35:19Z</time>
      </trkpt>
      <trkpt lat="47.2649" lon="-1.67212">
        <ele>107</ele>
        <time>2022-04-02T11:35:21Z</time>
      </trkpt>
      <trkpt lat="47.26498" lon="-1.67196">
        <ele>106</ele>
        <time>2022-04-02T11:35:23Z</time>
      </trkpt>
      <trkpt lat="47.26506" lon="-1.6718">
        <ele>106</ele>
        <time>2022-04-02T11:35:25Z</time>
      </trkpt>
      <trkpt lat="47.26516" lon="-1.67165">
        <ele>105</ele>
        <time>2022-04-02T11:35:27Z</time>
      </trkpt>
      <trkpt lat="47.26528" lon="-1.67151">
        <ele>104</ele>
        <time>2022-04-02T11:35:29Z</time>
      </trkpt>
      <trkpt lat="47.26541" lon="-1.67139">
        <ele>103</ele>
        <time>2022-04-02T11:35:31Z</time>
      </trkpt>
      <trkpt lat="47.26554" lon="-1.67129">
        <ele>103</ele>
        <time>2022-04-02T11:35:33Z</time>
      </trkpt>
      <trkpt lat="47.26569" lon="-1.67119">
        <ele>103</ele>
        <time>2022-04-02T11:35:35Z</time>
      </trkpt>
      <trkpt lat="47.26583" lon="-1.67108">
        <ele>102</ele>
        <time>2022-04-02T11:35:37Z</time>
      </trkpt>
      <trkpt lat="47.26598" lon="-1.67095">
        <ele>101</ele>
        <time>2022-04-02T11:35:39Z</time>
      </trkpt>
      <trkpt lat="47.26615" lon="-1.67086">
        <ele>100</ele>
        <time>2022-04-02T11:35:41Z</time>
      </trkpt>
      <trkpt lat="47.26631" lon="-1.67076">
        <ele>98</ele>
        <time>2022-04-02T11:35:43Z</time>
      </trkpt>
      <trkpt lat="47.26647" lon="-1.67065">
        <ele>97</ele>
        <time>2022-04-02T11:35:45Z</time>
      </trkpt>
      <trkpt lat="47.26664" lon="-1.67054">
        <ele>96</ele>
        <time>2022-04-02T11:35:47Z</time>
      </trkpt>
      <trkpt lat="47.26672" lon="-1.67049">
        <ele>95</ele>
        <time>2022-04-02T11:35:48Z</time>
      </trkpt>
      <trkpt lat="47.26688" lon="-1.67038">
        <ele>94</ele>
        <time>2022-04-02T11:35:50Z</time>
      </trkpt>
      <trkpt lat="47.26704" lon="-1.67027">
        <ele>94</ele>
        <time>2022-04-02T11:35:52Z</time>
      </trkpt>
      <trkpt lat="47.26721" lon="-1.67017">
        <ele>94</ele>
        <time>2022-04-02T11:35:54Z</time>
      </trkpt>
      <trkpt lat="47.26729" lon="-1.67013">
        <ele>94</ele>
        <time>2022-04-02T11:35:55Z</time>
      </trkpt>
      <trkpt lat="47.26746" lon="-1.67008">
        <ele>94</ele>
        <time>2022-04-02T11:35:57Z</time>
      </trkpt>
      <trkpt lat="47.26763" lon="-1.67011">
        <ele>93</ele>
        <time>2022-04-02T11:35:59Z</time>
      </trkpt>
      <trkpt lat="47.26779" lon="-1.67021">
        <ele>92</ele>
        <time>2022-04-02T11:36:01Z</time>
      </trkpt>
      <trkpt lat="47.26793" lon="-1.67036">
        <ele>90</ele>
        <time>2022-04-02T11:36:03Z</time>
      </trkpt>
      <trkpt lat="47.26807" lon="-1.67054">
        <ele>88</ele>
        <time>2022-04-02T11:36:05Z</time>
      </trkpt>
      <trkpt lat="47.26813" lon="-1.67063">
        <ele>88</ele>
        <time>2022-04-02T11:36:06Z</time>
      </trkpt>
      <trkpt lat="47.26818" lon="-1.67074">
        <ele>87</ele>
        <time>2022-04-02T11:36:07Z</time>
      </trkpt>
      <trkpt lat="47.2683" lon="-1.67094">
        <ele>86</ele>
        <time>2022-04-02T11:36:09Z</time>
      </trkpt>
      <trkpt lat="47.26838" lon="-1.67101">
        <ele>85</ele>
        <time>2022-04-02T11:36:10Z</time>
      </trkpt>
      <trkpt lat="47.26846" lon="-1.67109">
        <ele>85</ele>
        <time>2022-04-02T11:36:11Z</time>
      </trkpt>
      <trkpt lat="47.26853" lon="-1.67118">
        <ele>85</ele>
        <time>2022-04-02T11:36:12Z</time>
      </trkpt>
      <trkpt lat="47.2686" lon="-1.67128">
        <ele>85</ele>
        <time>2022-04-02T11:36:13Z</time>
      </trkpt>
      <trkpt lat="47.26866" lon="-1.67138">
        <ele>85</ele>
        <time>2022-04-02T11:36:14Z</time>
      </trkpt>
      <trkpt lat="47.26873" lon="-1.67147">
        <ele>85</ele>
        <time>2022-04-02T11:36:15Z</time>
      </trkpt>
      <trkpt lat="47.26887" lon="-1.67159">
        <ele>85</ele>
        <time>2022-04-02T11:36:17Z</time>
      </trkpt>
      <trkpt lat="47.26902" lon="-1.67162">
        <ele>85</ele>
        <time>2022-04-02T11:36:19Z</time>
      </trkpt>
      <trkpt lat="47.26914" lon="-1.67161">
        <ele>85</ele>
        <time>2022-04-02T11:36:21Z</time>
      </trkpt>
      <trkpt lat="47.26923" lon="-1.67157">
        <ele>86</ele>
        <time>2022-04-02T11:36:23Z</time>
      </trkpt>
      <trkpt lat="47.26933" lon="-1.67153">
        <ele>86</ele>
        <time>2022-04-02T11:36:25Z</time>
      </trkpt>
      <trkpt lat="47.26942" lon="-1.67149">
        <ele>87</ele>
        <time>2022-04-02T11:36:27Z</time>
      </trkpt>
      <trkpt lat="47.2695" lon="-1.67145">
        <ele>87</ele>
        <time>2022-04-02T11:36:29Z</time>
      </trkpt>
      <trkpt lat="47.26959" lon="-1.6714">
        <ele>88</ele>
        <time>2022-04-02T11:36:31Z</time>
      </trkpt>
      <trkpt lat="47.26969" lon="-1.67136">
        <ele>88</ele>
        <time>2022-04-02T11:36:33Z</time>
      </trkpt>
      <trkpt lat="47.26978" lon="-1.67131">
        <ele>89</ele>
        <time>2022-04-02T11:36:35Z</time>
      </trkpt>
      <trkpt lat="47.26987" lon="-1.67127">
        <ele>89</ele>
        <time>2022-04-02T11:36:37Z</time>
      </trkpt>
      <trkpt lat="47.27" lon="-1.67124">
        <ele>91</ele>
        <time>2022-04-02T11:36:40Z</time>
      </trkpt>
      <trkpt lat="47.27013" lon="-1.67121">
        <ele>93</ele>
        <time>2022-04-02T11:36:43Z</time>
      </trkpt>
      <trkpt lat="47.27026" lon="-1.67118">
        <ele>94</ele>
        <time>2022-04-02T11:36:46Z</time>
      </trkpt>
      <trkpt lat="47.27039" lon="-1.67116">
        <ele>95</ele>
        <time>2022-04-02T11:36:49Z</time>
      </trkpt>
      <trkpt lat="47.27052" lon="-1.67116">
        <ele>96</ele>
        <time>2022-04-02T11:36:52Z</time>
      </trkpt>
      <trkpt lat="47.27065" lon="-1.67117">
        <ele>97</ele>
        <time>2022-04-02T11:36:55Z</time>
      </trkpt>
      <trkpt lat="47.27074" lon="-1.67118">
        <ele>97</ele>
        <time>2022-04-02T11:36:57Z</time>
      </trkpt>
      <trkpt lat="47.27086" lon="-1.6712">
        <ele>98</ele>
        <time>2022-04-02T11:37:00Z</time>
      </trkpt>
      <trkpt lat="47.27098" lon="-1.67124">
        <ele>99</ele>
        <time>2022-04-02T11:37:03Z</time>
      </trkpt>
      <trkpt lat="47.2711" lon="-1.67128">
        <ele>100</ele>
        <time>2022-04-02T11:37:06Z</time>
      </trkpt>
      <trkpt lat="47.27121" lon="-1.67132">
        <ele>101</ele>
        <time>2022-04-02T11:37:09Z</time>
      </trkpt>
      <trkpt lat="47.27132" lon="-1.67137">
        <ele>103</ele>
        <time>2022-04-02T11:37:12Z</time>
      </trkpt>
      <trkpt lat="47.27144" lon="-1.6714">
        <ele>104</ele>
        <time>2022-04-02T11:37:15Z</time>
      </trkpt>
      <trkpt lat="47.27157" lon="-1.67144">
        <ele>105</ele>
        <time>2022-04-02T11:37:18Z</time>
      </trkpt>
      <trkpt lat="47.27165" lon="-1.67148">
        <ele>105</ele>
        <time>2022-04-02T11:37:20Z</time>
      </trkpt>
      <trkpt lat="47.27174" lon="-1.67152">
        <ele>105</ele>
        <time>2022-04-02T11:37:22Z</time>
      </trkpt>
      <trkpt lat="47.27186" lon="-1.67159">
        <ele>105</ele>
        <time>2022-04-02T11:37:25Z</time>
      </trkpt>
      <trkpt lat="47.27198" lon="-1.67165">
        <ele>106</ele>
        <time>2022-04-02T11:37:28Z</time>
      </trkpt>
      <trkpt lat="47.2721" lon="-1.67171">
        <ele>106</ele>
        <time>2022-04-02T11:37:31Z</time>
      </trkpt>
      <trkpt lat="47.27223" lon="-1.67177">
        <ele>106</ele>
        <time>2022-04-02T11:37:34Z</time>
      </trkpt>
      <trkpt lat="47.27235" lon="-1.67181">
        <ele>106</ele>
        <time>2022-04-02T11:37:37Z</time>
      </trkpt>
      <trkpt lat="47.27246" lon="-1.67186">
        <ele>106</ele>
        <time>2022-04-02T11:37:40Z</time>
      </trkpt>
      <trkpt lat="47.27258" lon="-1.67191">
        <ele>106</ele>
        <time>2022-04-02T11:37:43Z</time>
      </trkpt>
      <trkpt lat="47.27268" lon="-1.67194">
        <ele>107</ele>
        <time>2022-04-02T11:37:45Z</time>
      </trkpt>
      <trkpt lat="47.27281" lon="-1.67199">
        <ele>107</ele>
        <time>2022-04-02T11:37:48Z</time>
      </trkpt>
      <trkpt lat="47.27294" lon="-1.67203">
        <ele>107</ele>
        <time>2022-04-02T11:37:51Z</time>
      </trkpt>
      <trkpt lat="47.27306" lon="-1.67208">
        <ele>106</ele>
        <time>2022-04-02T11:37:54Z</time>
      </trkpt>
      <trkpt lat="47.27319" lon="-1.67212">
        <ele>106</ele>
        <time>2022-04-02T11:37:57Z</time>
      </trkpt>
      <trkpt lat="47.27331" lon="-1.67214">
        <ele>106</ele>
        <time>2022-04-02T11:38:00Z</time>
      </trkpt>
      <trkpt lat="47.27344" lon="-1.67213">
        <ele>107</ele>
        <time>2022-04-02T11:38:03Z</time>
      </trkpt>
      <trkpt lat="47.27353" lon="-1.6721">
        <ele>107</ele>
        <time>2022-04-02T11:38:05Z</time>
      </trkpt>
      <trkpt lat="47.27362" lon="-1.67207">
        <ele>108</ele>
        <time>2022-04-02T11:38:07Z</time>
      </trkpt>
      <trkpt lat="47.27374" lon="-1.67201">
        <ele>108</ele>
        <time>2022-04-02T11:38:10Z</time>
      </trkpt>
      <trkpt lat="47.27383" lon="-1.67194">
        <ele>108</ele>
        <time>2022-04-02T11:38:12Z</time>
      </trkpt>
      <trkpt lat="47.27395" lon="-1.67185">
        <ele>109</ele>
        <time>2022-04-02T11:38:15Z</time>
      </trkpt>
      <trkpt lat="47.27406" lon="-1.67175">
        <ele>109</ele>
        <time>2022-04-02T11:38:18Z</time>
      </trkpt>
      <trkpt lat="47.27417" lon="-1.67164">
        <ele>109</ele>
        <time>2022-04-02T11:38:21Z</time>
      </trkpt>
      <trkpt lat="47.27425" lon="-1.67157">
        <ele>108</ele>
        <time>2022-04-02T11:38:23Z</time>
      </trkpt>
      <trkpt lat="47.27433" lon="-1.6715">
        <ele>109</ele>
        <time>2022-04-02T11:38:25Z</time>
      </trkpt>
      <trkpt lat="47.27444" lon="-1.67139">
        <ele>108</ele>
        <time>2022-04-02T11:38:28Z</time>
      </trkpt>
      <trkpt lat="47.27456" lon="-1.67129">
        <ele>107</ele>
        <time>2022-04-02T11:38:31Z</time>
      </trkpt>
      <trkpt lat="47.27463" lon="-1.67122">
        <ele>107</ele>
        <time>2022-04-02T11:38:33Z</time>
      </trkpt>
      <trkpt lat="47.27475" lon="-1.67112">
        <ele>107</ele>
        <time>2022-04-02T11:38:36Z</time>
      </trkpt>
      <trkpt lat="47.27486" lon="-1.67101">
        <ele>107</ele>
        <time>2022-04-02T11:38:39Z</time>
      </trkpt>
      <trkpt lat="47.27494" lon="-1.67094">
        <ele>107</ele>
        <time>2022-04-02T11:38:41Z</time>
      </trkpt>
      <trkpt lat="47.27505" lon="-1.67084">
        <ele>107</ele>
        <time>2022-04-02T11:38:44Z</time>
      </trkpt>
      <trkpt lat="47.27516" lon="-1.67072">
        <ele>106</ele>
        <time>2022-04-02T11:38:47Z</time>
      </trkpt>
      <trkpt lat="47.27524" lon="-1.67064">
        <ele>106</ele>
        <time>2022-04-02T11:38:49Z</time>
      </trkpt>
      <trkpt lat="47.27531" lon="-1.67055">
        <ele>106</ele>
        <time>2022-04-02T11:38:51Z</time>
      </trkpt>
      <trkpt lat="47.27539" lon="-1.67046">
        <ele>106</ele>
        <time>2022-04-02T11:38:53Z</time>
      </trkpt>
      <trkpt lat="47.27546" lon="-1.67036">
        <ele>106</ele>
        <time>2022-04-02T11:38:55Z</time>
      </trkpt>
      <trkpt lat="47.27552" lon="-1.67025">
        <ele>106</ele>
        <time>2022-04-02T11:38:57Z</time>
      </trkpt>
      <trkpt lat="47.27558" lon="-1.67012">
        <ele>106</ele>
        <time>2022-04-02T11:38:59Z</time>
      </trkpt>
      <trkpt lat="47.27563" lon="-1.67">
        <ele>106</ele>
        <time>2022-04-02T11:39:01Z</time>
      </trkpt>
      <trkpt lat="47.27567" lon="-1.66987">
        <ele>107</ele>
        <time>2022-04-02T11:39:03Z</time>
      </trkpt>
      <trkpt lat="47.27572" lon="-1.66973">
        <ele>107</ele>
        <time>2022-04-02T11:39:05Z</time>
      </trkpt>
      <trkpt lat="47.27575" lon="-1.66959">
        <ele>107</ele>
        <time>2022-04-02T11:39:07Z</time>
      </trkpt>
      <trkpt lat="47.27578" lon="-1.66945">
        <ele>107</ele>
        <time>2022-04-02T11:39:09Z</time>
      </trkpt>
      <trkpt lat="47.27582" lon="-1.66931">
        <ele>107</ele>
        <time>2022-04-02T11:39:11Z</time>
      </trkpt>
      <trkpt lat="47.27585" lon="-1.66917">
        <ele>107</ele>
        <time>2022-04-02T11:39:13Z</time>
      </trkpt>
      <trkpt lat="47.27588" lon="-1.66903">
        <ele>108</ele>
        <time>2022-04-02T11:39:15Z</time>
      </trkpt>
      <trkpt lat="47.27591" lon="-1.66889">
        <ele>108</ele>
        <time>2022-04-02T11:39:17Z</time>
      </trkpt>
      <trkpt lat="47.27594" lon="-1.66875">
        <ele>108</ele>
        <time>2022-04-02T11:39:19Z</time>
      </trkpt>
      <trkpt lat="47.27598" lon="-1.6686">
        <ele>108</ele>
        <time>2022-04-02T11:39:21Z</time>
      </trkpt>
      <trkpt lat="47.27601" lon="-1.66846">
        <ele>108</ele>
        <time>2022-04-02T11:39:23Z</time>
      </trkpt>
      <trkpt lat="47.27604" lon="-1.66831">
        <ele>108</ele>
        <time>2022-04-02T11:39:25Z</time>
      </trkpt>
      <trkpt lat="47.27608" lon="-1.66817">
        <ele>109</ele>
        <time>2022-04-02T11:39:27Z</time>
      </trkpt>
      <trkpt lat="47.27611" lon="-1.66803">
        <ele>109</ele>
        <time>2022-04-02T11:39:29Z</time>
      </trkpt>
      <trkpt lat="47.27616" lon="-1.66789">
        <ele>109</ele>
        <time>2022-04-02T11:39:31Z</time>
      </trkpt>
      <trkpt lat="47.27621" lon="-1.66776">
        <ele>109</ele>
        <time>2022-04-02T11:39:33Z</time>
      </trkpt>
      <trkpt lat="47.27626" lon="-1.66764">
        <ele>109</ele>
        <time>2022-04-02T11:39:35Z</time>
      </trkpt>
      <trkpt lat="47.27633" lon="-1.66753">
        <ele>109</ele>
        <time>2022-04-02T11:39:37Z</time>
      </trkpt>
      <trkpt lat="47.2764" lon="-1.66741">
        <ele>109</ele>
        <time>2022-04-02T11:39:39Z</time>
      </trkpt>
      <trkpt lat="47.27648" lon="-1.66731">
        <ele>109</ele>
        <time>2022-04-02T11:39:41Z</time>
      </trkpt>
      <trkpt lat="47.27656" lon="-1.6672">
        <ele>109</ele>
        <time>2022-04-02T11:39:43Z</time>
      </trkpt>
      <trkpt lat="47.27663" lon="-1.66709">
        <ele>109</ele>
        <time>2022-04-02T11:39:45Z</time>
      </trkpt>
      <trkpt lat="47.27671" lon="-1.66699">
        <ele>109</ele>
        <time>2022-04-02T11:39:47Z</time>
      </trkpt>
      <trkpt lat="47.27678" lon="-1.66688">
        <ele>109</ele>
        <time>2022-04-02T11:39:49Z</time>
      </trkpt>
      <trkpt lat="47.27686" lon="-1.66678">
        <ele>109</ele>
        <time>2022-04-02T11:39:51Z</time>
      </trkpt>
      <trkpt lat="47.27694" lon="-1.66668">
        <ele>110</ele>
        <time>2022-04-02T11:39:53Z</time>
      </trkpt>
      <trkpt lat="47.27702" lon="-1.66658">
        <ele>109</ele>
        <time>2022-04-02T11:39:55Z</time>
      </trkpt>
      <trkpt lat="47.2771" lon="-1.66649">
        <ele>109</ele>
        <time>2022-04-02T11:39:57Z</time>
      </trkpt>
      <trkpt lat="47.27719" lon="-1.6664">
        <ele>109</ele>
        <time>2022-04-02T11:39:59Z</time>
      </trkpt>
      <trkpt lat="47.27728" lon="-1.66632">
        <ele>110</ele>
        <time>2022-04-02T11:40:01Z</time>
      </trkpt>
      <trkpt lat="47.27739" lon="-1.66624">
        <ele>110</ele>
        <time>2022-04-02T11:40:03Z</time>
      </trkpt>
      <trkpt lat="47.2775" lon="-1.66616">
        <ele>110</ele>
        <time>2022-04-02T11:40:05Z</time>
      </trkpt>
      <trkpt lat="47.27762" lon="-1.66607">
        <ele>110</ele>
        <time>2022-04-02T11:40:07Z</time>
      </trkpt>
      <trkpt lat="47.27774" lon="-1.66598">
        <ele>110</ele>
        <time>2022-04-02T11:40:09Z</time>
      </trkpt>
      <trkpt lat="47.27787" lon="-1.66589">
        <ele>110</ele>
        <time>2022-04-02T11:40:11Z</time>
      </trkpt>
      <trkpt lat="47.27799" lon="-1.6658">
        <ele>111</ele>
        <time>2022-04-02T11:40:13Z</time>
      </trkpt>
      <trkpt lat="47.27811" lon="-1.6657">
        <ele>110</ele>
        <time>2022-04-02T11:40:15Z</time>
      </trkpt>
      <trkpt lat="47.27824" lon="-1.66561">
        <ele>110</ele>
        <time>2022-04-02T11:40:17Z</time>
      </trkpt>
      <trkpt lat="47.27837" lon="-1.66554">
        <ele>109</ele>
        <time>2022-04-02T11:40:19Z</time>
      </trkpt>
      <trkpt lat="47.2785" lon="-1.66549">
        <ele>109</ele>
        <time>2022-04-02T11:40:21Z</time>
      </trkpt>
      <trkpt lat="47.27864" lon="-1.66543">
        <ele>109</ele>
        <time>2022-04-02T11:40:23Z</time>
      </trkpt>
      <trkpt lat="47.27878" lon="-1.66537">
        <ele>108</ele>
        <time>2022-04-02T11:40:25Z</time>
      </trkpt>
      <trkpt lat="47.27892" lon="-1.66531">
        <ele>107</ele>
        <time>2022-04-02T11:40:27Z</time>
      </trkpt>
      <trkpt lat="47.27905" lon="-1.66526">
        <ele>107</ele>
        <time>2022-04-02T11:40:29Z</time>
      </trkpt>
      <trkpt lat="47.27919" lon="-1.66521">
        <ele>107</ele>
        <time>2022-04-02T11:40:31Z</time>
      </trkpt>
      <trkpt lat="47.27932" lon="-1.66516">
        <ele>107</ele>
        <time>2022-04-02T11:40:33Z</time>
      </trkpt>
      <trkpt lat="47.27945" lon="-1.66511">
        <ele>107</ele>
        <time>2022-04-02T11:40:35Z</time>
      </trkpt>
      <trkpt lat="47.27958" lon="-1.66506">
        <ele>108</ele>
        <time>2022-04-02T11:40:37Z</time>
      </trkpt>
      <trkpt lat="47.27971" lon="-1.66501">
        <ele>107</ele>
        <time>2022-04-02T11:40:39Z</time>
      </trkpt>
      <trkpt lat="47.27985" lon="-1.66495">
        <ele>107</ele>
        <time>2022-04-02T11:40:41Z</time>
      </trkpt>
      <trkpt lat="47.27998" lon="-1.66489">
        <ele>107</ele>
        <time>2022-04-02T11:40:43Z</time>
      </trkpt>
      <trkpt lat="47.28012" lon="-1.66482">
        <ele>107</ele>
        <time>2022-04-02T11:40:45Z</time>
      </trkpt>
      <trkpt lat="47.28025" lon="-1.66477">
        <ele>107</ele>
        <time>2022-04-02T11:40:47Z</time>
      </trkpt>
      <trkpt lat="47.28038" lon="-1.66471">
        <ele>108</ele>
        <time>2022-04-02T11:40:49Z</time>
      </trkpt>
      <trkpt lat="47.28052" lon="-1.66464">
        <ele>108</ele>
        <time>2022-04-02T11:40:51Z</time>
      </trkpt>
      <trkpt lat="47.28064" lon="-1.66458">
        <ele>108</ele>
        <time>2022-04-02T11:40:53Z</time>
      </trkpt>
      <trkpt lat="47.28076" lon="-1.66451">
        <ele>108</ele>
        <time>2022-04-02T11:40:55Z</time>
      </trkpt>
      <trkpt lat="47.28087" lon="-1.66443">
        <ele>109</ele>
        <time>2022-04-02T11:40:57Z</time>
      </trkpt>
      <trkpt lat="47.28099" lon="-1.66434">
        <ele>109</ele>
        <time>2022-04-02T11:40:59Z</time>
      </trkpt>
      <trkpt lat="47.2811" lon="-1.66425">
        <ele>108</ele>
        <time>2022-04-02T11:41:01Z</time>
      </trkpt>
      <trkpt lat="47.28122" lon="-1.66416">
        <ele>108</ele>
        <time>2022-04-02T11:41:03Z</time>
      </trkpt>
      <trkpt lat="47.28132" lon="-1.66407">
        <ele>108</ele>
        <time>2022-04-02T11:41:05Z</time>
      </trkpt>
      <trkpt lat="47.28144" lon="-1.66397">
        <ele>108</ele>
        <time>2022-04-02T11:41:07Z</time>
      </trkpt>
      <trkpt lat="47.28156" lon="-1.66388">
        <ele>107</ele>
        <time>2022-04-02T11:41:09Z</time>
      </trkpt>
      <trkpt lat="47.28167" lon="-1.66377">
        <ele>107</ele>
        <time>2022-04-02T11:41:11Z</time>
      </trkpt>
      <trkpt lat="47.28179" lon="-1.66367">
        <ele>106</ele>
        <time>2022-04-02T11:41:13Z</time>
      </trkpt>
      <trkpt lat="47.2819" lon="-1.66358">
        <ele>106</ele>
        <time>2022-04-02T11:41:15Z</time>
      </trkpt>
      <trkpt lat="47.28202" lon="-1.66348">
        <ele>106</ele>
        <time>2022-04-02T11:41:17Z</time>
      </trkpt>
      <trkpt lat="47.28214" lon="-1.66339">
        <ele>105</ele>
        <time>2022-04-02T11:41:19Z</time>
      </trkpt>
      <trkpt lat="47.28225" lon="-1.6633">
        <ele>105</ele>
        <time>2022-04-02T11:41:21Z</time>
      </trkpt>
      <trkpt lat="47.28236" lon="-1.66321">
        <ele>105</ele>
        <time>2022-04-02T11:41:23Z</time>
      </trkpt>
      <trkpt lat="47.28247" lon="-1.66313">
        <ele>105</ele>
        <time>2022-04-02T11:41:25Z</time>
      </trkpt>
      <trkpt lat="47.28258" lon="-1.66304">
        <ele>105</ele>
        <time>2022-04-02T11:41:27Z</time>
      </trkpt>
      <trkpt lat="47.28269" lon="-1.66295">
        <ele>105</ele>
        <time>2022-04-02T11:41:29Z</time>
      </trkpt>
      <trkpt lat="47.2828" lon="-1.66286">
        <ele>105</ele>
        <time>2022-04-02T11:41:31Z</time>
      </trkpt>
      <trkpt lat="47.2829" lon="-1.66278">
        <ele>105</ele>
        <time>2022-04-02T11:41:33Z</time>
      </trkpt>
      <trkpt lat="47.283" lon="-1.66269">
        <ele>106</ele>
        <time>2022-04-02T11:41:35Z</time>
      </trkpt>
      <trkpt lat="47.28311" lon="-1.66261">
        <ele>106</ele>
        <time>2022-04-02T11:41:37Z</time>
      </trkpt>
      <trkpt lat="47.28321" lon="-1.66253">
        <ele>106</ele>
        <time>2022-04-02T11:41:39Z</time>
      </trkpt>
      <trkpt lat="47.28331" lon="-1.66245">
        <ele>106</ele>
        <time>2022-04-02T11:41:41Z</time>
      </trkpt>
      <trkpt lat="47.28341" lon="-1.66237">
        <ele>106</ele>
        <time>2022-04-02T11:41:43Z</time>
      </trkpt>
      <trkpt lat="47.28351" lon="-1.66229">
        <ele>107</ele>
        <time>2022-04-02T11:41:45Z</time>
      </trkpt>
      <trkpt lat="47.28361" lon="-1.66221">
        <ele>107</ele>
        <time>2022-04-02T11:41:47Z</time>
      </trkpt>
      <trkpt lat="47.28371" lon="-1.66213">
        <ele>107</ele>
        <time>2022-04-02T11:41:49Z</time>
      </trkpt>
      <trkpt lat="47.28381" lon="-1.66206">
        <ele>107</ele>
        <time>2022-04-02T11:41:51Z</time>
      </trkpt>
      <trkpt lat="47.2839" lon="-1.66198">
        <ele>107</ele>
        <time>2022-04-02T11:41:53Z</time>
      </trkpt>
      <trkpt lat="47.284" lon="-1.6619">
        <ele>108</ele>
        <time>2022-04-02T11:41:55Z</time>
      </trkpt>
      <trkpt lat="47.2841" lon="-1.66183">
        <ele>108</ele>
        <time>2022-04-02T11:41:57Z</time>
      </trkpt>
      <trkpt lat="47.28419" lon="-1.66175">
        <ele>109</ele>
        <time>2022-04-02T11:41:59Z</time>
      </trkpt>
      <trkpt lat="47.28429" lon="-1.66167">
        <ele>109</ele>
        <time>2022-04-02T11:42:01Z</time>
      </trkpt>
      <trkpt lat="47.28439" lon="-1.6616">
        <ele>109</ele>
        <time>2022-04-02T11:42:03Z</time>
      </trkpt>
      <trkpt lat="47.28449" lon="-1.66151">
        <ele>110</ele>
        <time>2022-04-02T11:42:05Z</time>
      </trkpt>
      <trkpt lat="47.28458" lon="-1.66143">
        <ele>109</ele>
        <time>2022-04-02T11:42:07Z</time>
      </trkpt>
      <trkpt lat="47.28468" lon="-1.66135">
        <ele>109</ele>
        <time>2022-04-02T11:42:09Z</time>
      </trkpt>
      <trkpt lat="47.28478" lon="-1.66127">
        <ele>110</ele>
        <time>2022-04-02T11:42:11Z</time>
      </trkpt>
      <trkpt lat="47.28488" lon="-1.6612">
        <ele>110</ele>
        <time>2022-04-02T11:42:13Z</time>
      </trkpt>
      <trkpt lat="47.28498" lon="-1.66112">
        <ele>111</ele>
        <time>2022-04-02T11:42:15Z</time>
      </trkpt>
      <trkpt lat="47.28507" lon="-1.66104">
        <ele>111</ele>
        <time>2022-04-02T11:42:17Z</time>
      </trkpt>
      <trkpt lat="47.28517" lon="-1.66096">
        <ele>111</ele>
        <time>2022-04-02T11:42:19Z</time>
      </trkpt>
      <trkpt lat="47.28527" lon="-1.66088">
        <ele>111</ele>
        <time>2022-04-02T11:42:21Z</time>
      </trkpt>
      <trkpt lat="47.28536" lon="-1.6608">
        <ele>110</ele>
        <time>2022-04-02T11:42:23Z</time>
      </trkpt>
      <trkpt lat="47.28546" lon="-1.66073">
        <ele>110</ele>
        <time>2022-04-02T11:42:25Z</time>
      </trkpt>
      <trkpt lat="47.28557" lon="-1.66067">
        <ele>110</ele>
        <time>2022-04-02T11:42:27Z</time>
      </trkpt>
      <trkpt lat="47.28568" lon="-1.66064">
        <ele>110</ele>
        <time>2022-04-02T11:42:29Z</time>
      </trkpt>
      <trkpt lat="47.2858" lon="-1.66061">
        <ele>109</ele>
        <time>2022-04-02T11:42:31Z</time>
      </trkpt>
      <trkpt lat="47.28591" lon="-1.66058">
        <ele>109</ele>
        <time>2022-04-02T11:42:33Z</time>
      </trkpt>
      <trkpt lat="47.28603" lon="-1.66056">
        <ele>108</ele>
        <time>2022-04-02T11:42:35Z</time>
      </trkpt>
      <trkpt lat="47.28615" lon="-1.66054">
        <ele>108</ele>
        <time>2022-04-02T11:42:37Z</time>
      </trkpt>
      <trkpt lat="47.28627" lon="-1.66051">
        <ele>108</ele>
        <time>2022-04-02T11:42:39Z</time>
      </trkpt>
      <trkpt lat="47.28638" lon="-1.66049">
        <ele>108</ele>
        <time>2022-04-02T11:42:41Z</time>
      </trkpt>
      <trkpt lat="47.28649" lon="-1.66046">
        <ele>108</ele>
        <time>2022-04-02T11:42:43Z</time>
      </trkpt>
      <trkpt lat="47.2866" lon="-1.66044">
        <ele>108</ele>
        <time>2022-04-02T11:42:45Z</time>
      </trkpt>
      <trkpt lat="47.28671" lon="-1.6604">
        <ele>108</ele>
        <time>2022-04-02T11:42:47Z</time>
      </trkpt>
      <trkpt lat="47.28681" lon="-1.66035">
        <ele>108</ele>
        <time>2022-04-02T11:42:49Z</time>
      </trkpt>
      <trkpt lat="47.28692" lon="-1.66031">
        <ele>109</ele>
        <time>2022-04-02T11:42:51Z</time>
      </trkpt>
      <trkpt lat="47.28703" lon="-1.66026">
        <ele>109</ele>
        <time>2022-04-02T11:42:53Z</time>
      </trkpt>
      <trkpt lat="47.28712" lon="-1.66019">
        <ele>108</ele>
        <time>2022-04-02T11:42:55Z</time>
      </trkpt>
      <trkpt lat="47.28723" lon="-1.66012">
        <ele>108</ele>
        <time>2022-04-02T11:42:57Z</time>
      </trkpt>
      <trkpt lat="47.28733" lon="-1.66004">
        <ele>107</ele>
        <time>2022-04-02T11:42:59Z</time>
      </trkpt>
      <trkpt lat="47.28743" lon="-1.65995">
        <ele>107</ele>
        <time>2022-04-02T11:43:01Z</time>
      </trkpt>
      <trkpt lat="47.28753" lon="-1.65986">
        <ele>107</ele>
        <time>2022-04-02T11:43:03Z</time>
      </trkpt>
      <trkpt lat="47.28763" lon="-1.65976">
        <ele>107</ele>
        <time>2022-04-02T11:43:05Z</time>
      </trkpt>
      <trkpt lat="47.28772" lon="-1.65966">
        <ele>107</ele>
        <time>2022-04-02T11:43:07Z</time>
      </trkpt>
      <trkpt lat="47.28782" lon="-1.65956">
        <ele>107</ele>
        <time>2022-04-02T11:43:09Z</time>
      </trkpt>
      <trkpt lat="47.28791" lon="-1.65945">
        <ele>107</ele>
        <time>2022-04-02T11:43:11Z</time>
      </trkpt>
      <trkpt lat="47.288" lon="-1.65932">
        <ele>107</ele>
        <time>2022-04-02T11:43:13Z</time>
      </trkpt>
      <trkpt lat="47.28806" lon="-1.65919">
        <ele>108</ele>
        <time>2022-04-02T11:43:15Z</time>
      </trkpt>
      <trkpt lat="47.28811" lon="-1.65904">
        <ele>108</ele>
        <time>2022-04-02T11:43:17Z</time>
      </trkpt>
      <trkpt lat="47.28816" lon="-1.65889">
        <ele>108</ele>
        <time>2022-04-02T11:43:19Z</time>
      </trkpt>
      <trkpt lat="47.28821" lon="-1.65874">
        <ele>108</ele>
        <time>2022-04-02T11:43:21Z</time>
      </trkpt>
      <trkpt lat="47.28825" lon="-1.6586">
        <ele>108</ele>
        <time>2022-04-02T11:43:23Z</time>
      </trkpt>
      <trkpt lat="47.28829" lon="-1.65846">
        <ele>108</ele>
        <time>2022-04-02T11:43:25Z</time>
      </trkpt>
      <trkpt lat="47.28834" lon="-1.65833">
        <ele>108</ele>
        <time>2022-04-02T11:43:27Z</time>
      </trkpt>
      <trkpt lat="47.2884" lon="-1.65821">
        <ele>108</ele>
        <time>2022-04-02T11:43:29Z</time>
      </trkpt>
      <trkpt lat="47.28848" lon="-1.6581">
        <ele>108</ele>
        <time>2022-04-02T11:43:31Z</time>
      </trkpt>
      <trkpt lat="47.28856" lon="-1.658">
        <ele>109</ele>
        <time>2022-04-02T11:43:33Z</time>
      </trkpt>
      <trkpt lat="47.28865" lon="-1.65791">
        <ele>109</ele>
        <time>2022-04-02T11:43:35Z</time>
      </trkpt>
      <trkpt lat="47.28873" lon="-1.65782">
        <ele>110</ele>
        <time>2022-04-02T11:43:37Z</time>
      </trkpt>
      <trkpt lat="47.28882" lon="-1.65773">
        <ele>110</ele>
        <time>2022-04-02T11:43:39Z</time>
      </trkpt>
      <trkpt lat="47.28891" lon="-1.65764">
        <ele>110</ele>
        <time>2022-04-02T11:43:41Z</time>
      </trkpt>
      <trkpt lat="47.289" lon="-1.65754">
        <ele>110</ele>
        <time>2022-04-02T11:43:43Z</time>
      </trkpt>
      <trkpt lat="47.28908" lon="-1.65745">
        <ele>110</ele>
        <time>2022-04-02T11:43:45Z</time>
      </trkpt>
      <trkpt lat="47.28917" lon="-1.65736">
        <ele>110</ele>
        <time>2022-04-02T11:43:47Z</time>
      </trkpt>
      <trkpt lat="47.28925" lon="-1.65727">
        <ele>110</ele>
        <time>2022-04-02T11:43:49Z</time>
      </trkpt>
      <trkpt lat="47.28933" lon="-1.65718">
        <ele>110</ele>
        <time>2022-04-02T11:43:51Z</time>
      </trkpt>
      <trkpt lat="47.28941" lon="-1.65709">
        <ele>110</ele>
        <time>2022-04-02T11:43:53Z</time>
      </trkpt>
      <trkpt lat="47.28947" lon="-1.65699">
        <ele>110</ele>
        <time>2022-04-02T11:43:55Z</time>
      </trkpt>
      <trkpt lat="47.28953" lon="-1.65684">
        <ele>110</ele>
        <time>2022-04-02T11:43:58Z</time>
      </trkpt>
      <trkpt lat="47.28962" lon="-1.65669">
        <ele>110</ele>
        <time>2022-04-02T11:44:02Z</time>
      </trkpt>
      <trkpt lat="47.28971" lon="-1.65662">
        <ele>111</ele>
        <time>2022-04-02T11:44:04Z</time>
      </trkpt>
      <trkpt lat="47.28981" lon="-1.65658">
        <ele>111</ele>
        <time>2022-04-02T11:44:06Z</time>
      </trkpt>
      <trkpt lat="47.28991" lon="-1.65652">
        <ele>111</ele>
        <time>2022-04-02T11:44:08Z</time>
      </trkpt>
      <trkpt lat="47.29" lon="-1.65645">
        <ele>111</ele>
        <time>2022-04-02T11:44:10Z</time>
      </trkpt>
      <trkpt lat="47.29009" lon="-1.65636">
        <ele>110</ele>
        <time>2022-04-02T11:44:12Z</time>
      </trkpt>
      <trkpt lat="47.29018" lon="-1.65627">
        <ele>110</ele>
        <time>2022-04-02T11:44:14Z</time>
      </trkpt>
      <trkpt lat="47.29027" lon="-1.65617">
        <ele>111</ele>
        <time>2022-04-02T11:44:16Z</time>
      </trkpt>
      <trkpt lat="47.29035" lon="-1.65608">
        <ele>111</ele>
        <time>2022-04-02T11:44:18Z</time>
      </trkpt>
      <trkpt lat="47.29044" lon="-1.65599">
        <ele>111</ele>
        <time>2022-04-02T11:44:20Z</time>
      </trkpt>
      <trkpt lat="47.29052" lon="-1.65589">
        <ele>111</ele>
        <time>2022-04-02T11:44:22Z</time>
      </trkpt>
      <trkpt lat="47.29061" lon="-1.6558">
        <ele>111</ele>
        <time>2022-04-02T11:44:24Z</time>
      </trkpt>
      <trkpt lat="47.29069" lon="-1.65572">
        <ele>111</ele>
        <time>2022-04-02T11:44:26Z</time>
      </trkpt>
      <trkpt lat="47.29078" lon="-1.65562">
        <ele>111</ele>
        <time>2022-04-02T11:44:28Z</time>
      </trkpt>
      <trkpt lat="47.29086" lon="-1.65552">
        <ele>111</ele>
        <time>2022-04-02T11:44:30Z</time>
      </trkpt>
      <trkpt lat="47.29095" lon="-1.65542">
        <ele>110</ele>
        <time>2022-04-02T11:44:32Z</time>
      </trkpt>
      <trkpt lat="47.29105" lon="-1.65532">
        <ele>110</ele>
        <time>2022-04-02T11:44:34Z</time>
      </trkpt>
      <trkpt lat="47.29114" lon="-1.65522">
        <ele>110</ele>
        <time>2022-04-02T11:44:36Z</time>
      </trkpt>
      <trkpt lat="47.29124" lon="-1.65513">
        <ele>110</ele>
        <time>2022-04-02T11:44:38Z</time>
      </trkpt>
      <trkpt lat="47.29134" lon="-1.65502">
        <ele>110</ele>
        <time>2022-04-02T11:44:40Z</time>
      </trkpt>
      <trkpt lat="47.29143" lon="-1.65492">
        <ele>109</ele>
        <time>2022-04-02T11:44:42Z</time>
      </trkpt>
      <trkpt lat="47.29153" lon="-1.65481">
        <ele>109</ele>
        <time>2022-04-02T11:44:44Z</time>
      </trkpt>
      <trkpt lat="47.29163" lon="-1.65471">
        <ele>109</ele>
        <time>2022-04-02T11:44:46Z</time>
      </trkpt>
      <trkpt lat="47.29173" lon="-1.6546">
        <ele>109</ele>
        <time>2022-04-02T11:44:48Z</time>
      </trkpt>
      <trkpt lat="47.29183" lon="-1.6545">
        <ele>108</ele>
        <time>2022-04-02T11:44:50Z</time>
      </trkpt>
      <trkpt lat="47.29193" lon="-1.65439">
        <ele>108</ele>
        <time>2022-04-02T11:44:52Z</time>
      </trkpt>
      <trkpt lat="47.29203" lon="-1.65429">
        <ele>108</ele>
        <time>2022-04-02T11:44:54Z</time>
      </trkpt>
      <trkpt lat="47.29212" lon="-1.65418">
        <ele>108</ele>
        <time>2022-04-02T11:44:56Z</time>
      </trkpt>
      <trkpt lat="47.29221" lon="-1.65406">
        <ele>107</ele>
        <time>2022-04-02T11:44:58Z</time>
      </trkpt>
      <trkpt lat="47.2923" lon="-1.65395">
        <ele>107</ele>
        <time>2022-04-02T11:45:00Z</time>
      </trkpt>
      <trkpt lat="47.29238" lon="-1.65382">
        <ele>107</ele>
        <time>2022-04-02T11:45:02Z</time>
      </trkpt>
      <trkpt lat="47.29246" lon="-1.65368">
        <ele>107</ele>
        <time>2022-04-02T11:45:04Z</time>
      </trkpt>
      <trkpt lat="47.29253" lon="-1.65352">
        <ele>107</ele>
        <time>2022-04-02T11:45:06Z</time>
      </trkpt>
      <trkpt lat="47.29258" lon="-1.65337">
        <ele>108</ele>
        <time>2022-04-02T11:45:08Z</time>
      </trkpt>
      <trkpt lat="47.29264" lon="-1.65322">
        <ele>108</ele>
        <time>2022-04-02T11:45:10Z</time>
      </trkpt>
      <trkpt lat="47.29268" lon="-1.65306">
        <ele>108</ele>
        <time>2022-04-02T11:45:12Z</time>
      </trkpt>
      <trkpt lat="47.29273" lon="-1.6529">
        <ele>109</ele>
        <time>2022-04-02T11:45:14Z</time>
      </trkpt>
      <trkpt lat="47.29277" lon="-1.65275">
        <ele>109</ele>
        <time>2022-04-02T11:45:16Z</time>
      </trkpt>
      <trkpt lat="47.29282" lon="-1.6526">
        <ele>109</ele>
        <time>2022-04-02T11:45:18Z</time>
      </trkpt>
      <trkpt lat="47.29286" lon="-1.65245">
        <ele>109</ele>
        <time>2022-04-02T11:45:20Z</time>
      </trkpt>
      <trkpt lat="47.2929" lon="-1.6523">
        <ele>109</ele>
        <time>2022-04-02T11:45:22Z</time>
      </trkpt>
      <trkpt lat="47.29295" lon="-1.65215">
        <ele>109</ele>
        <time>2022-04-02T11:45:24Z</time>
      </trkpt>
      <trkpt lat="47.29299" lon="-1.65201">
        <ele>110</ele>
        <time>2022-04-02T11:45:26Z</time>
      </trkpt>
      <trkpt lat="47.29303" lon="-1.65186">
        <ele>110</ele>
        <time>2022-04-02T11:45:28Z</time>
      </trkpt>
      <trkpt lat="47.29307" lon="-1.65171">
        <ele>110</ele>
        <time>2022-04-02T11:45:30Z</time>
      </trkpt>
      <trkpt lat="47.29312" lon="-1.65156">
        <ele>110</ele>
        <time>2022-04-02T11:45:32Z</time>
      </trkpt>
      <trkpt lat="47.29316" lon="-1.65142">
        <ele>110</ele>
        <time>2022-04-02T11:45:34Z</time>
      </trkpt>
      <trkpt lat="47.2932" lon="-1.65127">
        <ele>110</ele>
        <time>2022-04-02T11:45:36Z</time>
      </trkpt>
      <trkpt lat="47.29324" lon="-1.65112">
        <ele>110</ele>
        <time>2022-04-02T11:45:38Z</time>
      </trkpt>
      <trkpt lat="47.29329" lon="-1.65098">
        <ele>110</ele>
        <time>2022-04-02T11:45:40Z</time>
      </trkpt>
      <trkpt lat="47.29333" lon="-1.65084">
        <ele>110</ele>
        <time>2022-04-02T11:45:42Z</time>
      </trkpt>
      <trkpt lat="47.29337" lon="-1.6507">
        <ele>110</ele>
        <time>2022-04-02T11:45:44Z</time>
      </trkpt>
      <trkpt lat="47.2934" lon="-1.65055">
        <ele>110</ele>
        <time>2022-04-02T11:45:46Z</time>
      </trkpt>
      <trkpt lat="47.29344" lon="-1.6504">
        <ele>110</ele>
        <time>2022-04-02T11:45:48Z</time>
      </trkpt>
      <trkpt lat="47.29347" lon="-1.65025">
        <ele>110</ele>
        <time>2022-04-02T11:45:50Z</time>
      </trkpt>
      <trkpt lat="47.2935" lon="-1.6501">
        <ele>110</ele>
        <time>2022-04-02T11:45:52Z</time>
      </trkpt>
      <trkpt lat="47.29352" lon="-1.64994">
        <ele>110</ele>
        <time>2022-04-02T11:45:54Z</time>
      </trkpt>
      <trkpt lat="47.29354" lon="-1.64978">
        <ele>110</ele>
        <time>2022-04-02T11:45:56Z</time>
      </trkpt>
      <trkpt lat="47.29357" lon="-1.64955">
        <ele>110</ele>
        <time>2022-04-02T11:45:59Z</time>
      </trkpt>
      <trkpt lat="47.29359" lon="-1.6494">
        <ele>110</ele>
        <time>2022-04-02T11:46:01Z</time>
      </trkpt>
      <trkpt lat="47.29361" lon="-1.64924">
        <ele>110</ele>
        <time>2022-04-02T11:46:03Z</time>
      </trkpt>
      <trkpt lat="47.29363" lon="-1.64909">
        <ele>110</ele>
        <time>2022-04-02T11:46:05Z</time>
      </trkpt>
      <trkpt lat="47.29365" lon="-1.64886">
        <ele>111</ele>
        <time>2022-04-02T11:46:08Z</time>
      </trkpt>
      <trkpt lat="47.29367" lon="-1.6487">
        <ele>111</ele>
        <time>2022-04-02T11:46:10Z</time>
      </trkpt>
      <trkpt lat="47.29369" lon="-1.64855">
        <ele>110</ele>
        <time>2022-04-02T11:46:12Z</time>
      </trkpt>
      <trkpt lat="47.29371" lon="-1.64838">
        <ele>110</ele>
        <time>2022-04-02T11:46:14Z</time>
      </trkpt>
      <trkpt lat="47.29373" lon="-1.64822">
        <ele>110</ele>
        <time>2022-04-02T11:46:16Z</time>
      </trkpt>
      <trkpt lat="47.29375" lon="-1.64806">
        <ele>110</ele>
        <time>2022-04-02T11:46:18Z</time>
      </trkpt>
      <trkpt lat="47.29377" lon="-1.6479">
        <ele>110</ele>
        <time>2022-04-02T11:46:20Z</time>
      </trkpt>
      <trkpt lat="47.29379" lon="-1.64773">
        <ele>111</ele>
        <time>2022-04-02T11:46:22Z</time>
      </trkpt>
      <trkpt lat="47.29381" lon="-1.64756">
        <ele>111</ele>
        <time>2022-04-02T11:46:24Z</time>
      </trkpt>
      <trkpt lat="47.29383" lon="-1.64739">
        <ele>111</ele>
        <time>2022-04-02T11:46:26Z</time>
      </trkpt>
      <trkpt lat="47.29385" lon="-1.64723">
        <ele>111</ele>
        <time>2022-04-02T11:46:28Z</time>
      </trkpt>
      <trkpt lat="47.29387" lon="-1.64706">
        <ele>110</ele>
        <time>2022-04-02T11:46:30Z</time>
      </trkpt>
      <trkpt lat="47.29389" lon="-1.64691">
        <ele>110</ele>
        <time>2022-04-02T11:46:32Z</time>
      </trkpt>
      <trkpt lat="47.29392" lon="-1.64675">
        <ele>110</ele>
        <time>2022-04-02T11:46:34Z</time>
      </trkpt>
      <trkpt lat="47.29394" lon="-1.64659">
        <ele>110</ele>
        <time>2022-04-02T11:46:36Z</time>
      </trkpt>
      <trkpt lat="47.29397" lon="-1.64642">
        <ele>111</ele>
        <time>2022-04-02T11:46:38Z</time>
      </trkpt>
      <trkpt lat="47.294" lon="-1.64625">
        <ele>110</ele>
        <time>2022-04-02T11:46:40Z</time>
      </trkpt>
      <trkpt lat="47.29402" lon="-1.64609">
        <ele>110</ele>
        <time>2022-04-02T11:46:42Z</time>
      </trkpt>
      <trkpt lat="47.29405" lon="-1.64593">
        <ele>110</ele>
        <time>2022-04-02T11:46:44Z</time>
      </trkpt>
      <trkpt lat="47.29408" lon="-1.64577">
        <ele>110</ele>
        <time>2022-04-02T11:46:46Z</time>
      </trkpt>
      <trkpt lat="47.29411" lon="-1.64561">
        <ele>110</ele>
        <time>2022-04-02T11:46:48Z</time>
      </trkpt>
      <trkpt lat="47.29414" lon="-1.64544">
        <ele>109</ele>
        <time>2022-04-02T11:46:50Z</time>
      </trkpt>
      <trkpt lat="47.29418" lon="-1.64527">
        <ele>109</ele>
        <time>2022-04-02T11:46:52Z</time>
      </trkpt>
      <trkpt lat="47.29421" lon="-1.6451">
        <ele>109</ele>
        <time>2022-04-02T11:46:54Z</time>
      </trkpt>
      <trkpt lat="47.29424" lon="-1.64493">
        <ele>110</ele>
        <time>2022-04-02T11:46:56Z</time>
      </trkpt>
      <trkpt lat="47.29427" lon="-1.64476">
        <ele>109</ele>
        <time>2022-04-02T11:46:58Z</time>
      </trkpt>
      <trkpt lat="47.29431" lon="-1.64458">
        <ele>108</ele>
        <time>2022-04-02T11:47:00Z</time>
      </trkpt>
      <trkpt lat="47.29437" lon="-1.64442">
        <ele>108</ele>
        <time>2022-04-02T11:47:02Z</time>
      </trkpt>
      <trkpt lat="47.29443" lon="-1.64427">
        <ele>108</ele>
        <time>2022-04-02T11:47:04Z</time>
      </trkpt>
      <trkpt lat="47.2945" lon="-1.64412">
        <ele>108</ele>
        <time>2022-04-02T11:47:06Z</time>
      </trkpt>
      <trkpt lat="47.29458" lon="-1.64396">
        <ele>108</ele>
        <time>2022-04-02T11:47:08Z</time>
      </trkpt>
      <trkpt lat="47.29465" lon="-1.6438">
        <ele>108</ele>
        <time>2022-04-02T11:47:10Z</time>
      </trkpt>
      <trkpt lat="47.29472" lon="-1.64364">
        <ele>107</ele>
        <time>2022-04-02T11:47:12Z</time>
      </trkpt>
      <trkpt lat="47.29479" lon="-1.64347">
        <ele>107</ele>
        <time>2022-04-02T11:47:14Z</time>
      </trkpt>
      <trkpt lat="47.29485" lon="-1.6433">
        <ele>106</ele>
        <time>2022-04-02T11:47:16Z</time>
      </trkpt>
      <trkpt lat="47.29491" lon="-1.64312">
        <ele>106</ele>
        <time>2022-04-02T11:47:18Z</time>
      </trkpt>
      <trkpt lat="47.29495" lon="-1.64295">
        <ele>106</ele>
        <time>2022-04-02T11:47:20Z</time>
      </trkpt>
      <trkpt lat="47.29499" lon="-1.64276">
        <ele>106</ele>
        <time>2022-04-02T11:47:22Z</time>
      </trkpt>
      <trkpt lat="47.29502" lon="-1.64258">
        <ele>105</ele>
        <time>2022-04-02T11:47:24Z</time>
      </trkpt>
      <trkpt lat="47.29503" lon="-1.6424">
        <ele>105</ele>
        <time>2022-04-02T11:47:26Z</time>
      </trkpt>
      <trkpt lat="47.29505" lon="-1.64221">
        <ele>105</ele>
        <time>2022-04-02T11:47:28Z</time>
      </trkpt>
      <trkpt lat="47.29506" lon="-1.64202">
        <ele>105</ele>
        <time>2022-04-02T11:47:30Z</time>
      </trkpt>
      <trkpt lat="47.29506" lon="-1.64183">
        <ele>105</ele>
        <time>2022-04-02T11:47:32Z</time>
      </trkpt>
      <trkpt lat="47.29508" lon="-1.64164">
        <ele>105</ele>
        <time>2022-04-02T11:47:34Z</time>
      </trkpt>
      <trkpt lat="47.29509" lon="-1.64144">
        <ele>104</ele>
        <time>2022-04-02T11:47:36Z</time>
      </trkpt>
      <trkpt lat="47.29509" lon="-1.64125">
        <ele>104</ele>
        <time>2022-04-02T11:47:38Z</time>
      </trkpt>
      <trkpt lat="47.2951" lon="-1.64106">
        <ele>104</ele>
        <time>2022-04-02T11:47:40Z</time>
      </trkpt>
      <trkpt lat="47.29511" lon="-1.64086">
        <ele>104</ele>
        <time>2022-04-02T11:47:42Z</time>
      </trkpt>
      <trkpt lat="47.29511" lon="-1.64066">
        <ele>103</ele>
        <time>2022-04-02T11:47:44Z</time>
      </trkpt>
      <trkpt lat="47.29512" lon="-1.64046">
        <ele>103</ele>
        <time>2022-04-02T11:47:46Z</time>
      </trkpt>
      <trkpt lat="47.29513" lon="-1.64027">
        <ele>103</ele>
        <time>2022-04-02T11:47:48Z</time>
      </trkpt>
      <trkpt lat="47.29514" lon="-1.64007">
        <ele>102</ele>
        <time>2022-04-02T11:47:50Z</time>
      </trkpt>
      <trkpt lat="47.29515" lon="-1.63987">
        <ele>102</ele>
        <time>2022-04-02T11:47:52Z</time>
      </trkpt>
      <trkpt lat="47.29517" lon="-1.63967">
        <ele>101</ele>
        <time>2022-04-02T11:47:54Z</time>
      </trkpt>
      <trkpt lat="47.29519" lon="-1.63946">
        <ele>101</ele>
        <time>2022-04-02T11:47:56Z</time>
      </trkpt>
      <trkpt lat="47.29522" lon="-1.63926">
        <ele>100</ele>
        <time>2022-04-02T11:47:58Z</time>
      </trkpt>
      <trkpt lat="47.29526" lon="-1.63906">
        <ele>99</ele>
        <time>2022-04-02T11:48:00Z</time>
      </trkpt>
      <trkpt lat="47.29531" lon="-1.63887">
        <ele>99</ele>
        <time>2022-04-02T11:48:02Z</time>
      </trkpt>
      <trkpt lat="47.29535" lon="-1.63868">
        <ele>98</ele>
        <time>2022-04-02T11:48:04Z</time>
      </trkpt>
      <trkpt lat="47.29541" lon="-1.63849">
        <ele>97</ele>
        <time>2022-04-02T11:48:06Z</time>
      </trkpt>
      <trkpt lat="47.29546" lon="-1.6383">
        <ele>97</ele>
        <time>2022-04-02T11:48:08Z</time>
      </trkpt>
      <trkpt lat="47.29551" lon="-1.63811">
        <ele>96</ele>
        <time>2022-04-02T11:48:10Z</time>
      </trkpt>
      <trkpt lat="47.29556" lon="-1.63791">
        <ele>96</ele>
        <time>2022-04-02T11:48:12Z</time>
      </trkpt>
      <trkpt lat="47.29562" lon="-1.63772">
        <ele>95</ele>
        <time>2022-04-02T11:48:14Z</time>
      </trkpt>
      <trkpt lat="47.29567" lon="-1.63753">
        <ele>94</ele>
        <time>2022-04-02T11:48:16Z</time>
      </trkpt>
      <trkpt lat="47.29572" lon="-1.63733">
        <ele>94</ele>
        <time>2022-04-02T11:48:18Z</time>
      </trkpt>
      <trkpt lat="47.29577" lon="-1.63713">
        <ele>93</ele>
        <time>2022-04-02T11:48:20Z</time>
      </trkpt>
      <trkpt lat="47.29582" lon="-1.63693">
        <ele>92</ele>
        <time>2022-04-02T11:48:22Z</time>
      </trkpt>
      <trkpt lat="47.29588" lon="-1.63673">
        <ele>92</ele>
        <time>2022-04-02T11:48:24Z</time>
      </trkpt>
      <trkpt lat="47.29593" lon="-1.63655">
        <ele>92</ele>
        <time>2022-04-02T11:48:26Z</time>
      </trkpt>
      <trkpt lat="47.29598" lon="-1.63637">
        <ele>91</ele>
        <time>2022-04-02T11:48:28Z</time>
      </trkpt>
      <trkpt lat="47.29604" lon="-1.63619">
        <ele>91</ele>
        <time>2022-04-02T11:48:30Z</time>
      </trkpt>
      <trkpt lat="47.2961" lon="-1.63604">
        <ele>91</ele>
        <time>2022-04-02T11:48:32Z</time>
      </trkpt>
      <trkpt lat="47.29618" lon="-1.63591">
        <ele>91</ele>
        <time>2022-04-02T11:48:34Z</time>
      </trkpt>
      <trkpt lat="47.29625" lon="-1.6358">
        <ele>92</ele>
        <time>2022-04-02T11:48:36Z</time>
      </trkpt>
      <trkpt lat="47.29632" lon="-1.6357">
        <ele>92</ele>
        <time>2022-04-02T11:48:38Z</time>
      </trkpt>
      <trkpt lat="47.29639" lon="-1.6356">
        <ele>93</ele>
        <time>2022-04-02T11:48:40Z</time>
      </trkpt>
      <trkpt lat="47.29646" lon="-1.63549">
        <ele>93</ele>
        <time>2022-04-02T11:48:42Z</time>
      </trkpt>
      <trkpt lat="47.29653" lon="-1.63538">
        <ele>94</ele>
        <time>2022-04-02T11:48:44Z</time>
      </trkpt>
      <trkpt lat="47.2966" lon="-1.63528">
        <ele>94</ele>
        <time>2022-04-02T11:48:46Z</time>
      </trkpt>
      <trkpt lat="47.29667" lon="-1.63518">
        <ele>95</ele>
        <time>2022-04-02T11:48:48Z</time>
      </trkpt>
      <trkpt lat="47.29674" lon="-1.63508">
        <ele>96</ele>
        <time>2022-04-02T11:48:50Z</time>
      </trkpt>
      <trkpt lat="47.2968" lon="-1.63498">
        <ele>97</ele>
        <time>2022-04-02T11:48:52Z</time>
      </trkpt>
      <trkpt lat="47.29687" lon="-1.63487">
        <ele>97</ele>
        <time>2022-04-02T11:48:54Z</time>
      </trkpt>
      <trkpt lat="47.29694" lon="-1.63477">
        <ele>97</ele>
        <time>2022-04-02T11:48:56Z</time>
      </trkpt>
      <trkpt lat="47.297" lon="-1.63467">
        <ele>98</ele>
        <time>2022-04-02T11:48:58Z</time>
      </trkpt>
      <trkpt lat="47.29706" lon="-1.63455">
        <ele>98</ele>
        <time>2022-04-02T11:49:00Z</time>
      </trkpt>
      <trkpt lat="47.29713" lon="-1.63444">
        <ele>98</ele>
        <time>2022-04-02T11:49:02Z</time>
      </trkpt>
      <trkpt lat="47.29719" lon="-1.63433">
        <ele>98</ele>
        <time>2022-04-02T11:49:04Z</time>
      </trkpt>
      <trkpt lat="47.29725" lon="-1.63422">
        <ele>98</ele>
        <time>2022-04-02T11:49:06Z</time>
      </trkpt>
      <trkpt lat="47.29731" lon="-1.63411">
        <ele>98</ele>
        <time>2022-04-02T11:49:08Z</time>
      </trkpt>
      <trkpt lat="47.29737" lon="-1.63399">
        <ele>99</ele>
        <time>2022-04-02T11:49:10Z</time>
      </trkpt>
      <trkpt lat="47.29743" lon="-1.63388">
        <ele>99</ele>
        <time>2022-04-02T11:49:12Z</time>
      </trkpt>
      <trkpt lat="47.2975" lon="-1.63377">
        <ele>99</ele>
        <time>2022-04-02T11:49:14Z</time>
      </trkpt>
      <trkpt lat="47.29756" lon="-1.63366">
        <ele>99</ele>
        <time>2022-04-02T11:49:16Z</time>
      </trkpt>
      <trkpt lat="47.29762" lon="-1.63354">
        <ele>99</ele>
        <time>2022-04-02T11:49:18Z</time>
      </trkpt>
      <trkpt lat="47.29768" lon="-1.63343">
        <ele>99</ele>
        <time>2022-04-02T11:49:20Z</time>
      </trkpt>
      <trkpt lat="47.29774" lon="-1.63332">
        <ele>99</ele>
        <time>2022-04-02T11:49:22Z</time>
      </trkpt>
      <trkpt lat="47.2978" lon="-1.63321">
        <ele>99</ele>
        <time>2022-04-02T11:49:24Z</time>
      </trkpt>
      <trkpt lat="47.29787" lon="-1.63309">
        <ele>100</ele>
        <time>2022-04-02T11:49:26Z</time>
      </trkpt>
      <trkpt lat="47.29793" lon="-1.63298">
        <ele>100</ele>
        <time>2022-04-02T11:49:28Z</time>
      </trkpt>
      <trkpt lat="47.29799" lon="-1.63287">
        <ele>100</ele>
        <time>2022-04-02T11:49:30Z</time>
      </trkpt>
      <trkpt lat="47.29805" lon="-1.63275">
        <ele>100</ele>
        <time>2022-04-02T11:49:32Z</time>
      </trkpt>
      <trkpt lat="47.29811" lon="-1.63264">
        <ele>101</ele>
        <time>2022-04-02T11:49:34Z</time>
      </trkpt>
      <trkpt lat="47.29818" lon="-1.63252">
        <ele>101</ele>
        <time>2022-04-02T11:49:36Z</time>
      </trkpt>
      <trkpt lat="47.29824" lon="-1.6324">
        <ele>102</ele>
        <time>2022-04-02T11:49:38Z</time>
      </trkpt>
      <trkpt lat="47.2983" lon="-1.63229">
        <ele>102</ele>
        <time>2022-04-02T11:49:40Z</time>
      </trkpt>
      <trkpt lat="47.29837" lon="-1.63217">
        <ele>102</ele>
        <time>2022-04-02T11:49:42Z</time>
      </trkpt>
      <trkpt lat="47.29843" lon="-1.63205">
        <ele>103</ele>
        <time>2022-04-02T11:49:44Z</time>
      </trkpt>
      <trkpt lat="47.2985" lon="-1.63194">
        <ele>103</ele>
        <time>2022-04-02T11:49:46Z</time>
      </trkpt>
      <trkpt lat="47.29857" lon="-1.63183">
        <ele>103</ele>
        <time>2022-04-02T11:49:48Z</time>
      </trkpt>
      <trkpt lat="47.29863" lon="-1.63173">
        <ele>103</ele>
        <time>2022-04-02T11:49:50Z</time>
      </trkpt>
      <trkpt lat="47.2987" lon="-1.63162">
        <ele>104</ele>
        <time>2022-04-02T11:49:52Z</time>
      </trkpt>
      <trkpt lat="47.29877" lon="-1.63152">
        <ele>104</ele>
        <time>2022-04-02T11:49:54Z</time>
      </trkpt>
      <trkpt lat="47.29883" lon="-1.63142">
        <ele>105</ele>
        <time>2022-04-02T11:49:56Z</time>
      </trkpt>
      <trkpt lat="47.29889" lon="-1.63132">
        <ele>105</ele>
        <time>2022-04-02T11:49:58Z</time>
      </trkpt>
      <trkpt lat="47.29896" lon="-1.63122">
        <ele>105</ele>
        <time>2022-04-02T11:50:00Z</time>
      </trkpt>
      <trkpt lat="47.29903" lon="-1.63113">
        <ele>105</ele>
        <time>2022-04-02T11:50:02Z</time>
      </trkpt>
      <trkpt lat="47.29912" lon="-1.63099">
        <ele>105</ele>
        <time>2022-04-02T11:50:05Z</time>
      </trkpt>
      <trkpt lat="47.29922" lon="-1.63085">
        <ele>106</ele>
        <time>2022-04-02T11:50:08Z</time>
      </trkpt>
      <trkpt lat="47.29928" lon="-1.63076">
        <ele>106</ele>
        <time>2022-04-02T11:50:10Z</time>
      </trkpt>
      <trkpt lat="47.29935" lon="-1.63066">
        <ele>106</ele>
        <time>2022-04-02T11:50:12Z</time>
      </trkpt>
      <trkpt lat="47.29942" lon="-1.63056">
        <ele>106</ele>
        <time>2022-04-02T11:50:14Z</time>
      </trkpt>
      <trkpt lat="47.29948" lon="-1.63047">
        <ele>106</ele>
        <time>2022-04-02T11:50:16Z</time>
      </trkpt>
      <trkpt lat="47.29955" lon="-1.63037">
        <ele>106</ele>
        <time>2022-04-02T11:50:18Z</time>
      </trkpt>
      <trkpt lat="47.29962" lon="-1.63028">
        <ele>106</ele>
        <time>2022-04-02T11:50:20Z</time>
      </trkpt>
      <trkpt lat="47.29968" lon="-1.63018">
        <ele>106</ele>
        <time>2022-04-02T11:50:22Z</time>
      </trkpt>
      <trkpt lat="47.29975" lon="-1.63009">
        <ele>106</ele>
        <time>2022-04-02T11:50:24Z</time>
      </trkpt>
      <trkpt lat="47.29982" lon="-1.63">
        <ele>106</ele>
        <time>2022-04-02T11:50:26Z</time>
      </trkpt>
      <trkpt lat="47.29992" lon="-1.62987">
        <ele>107</ele>
        <time>2022-04-02T11:50:29Z</time>
      </trkpt>
      <trkpt lat="47.29998" lon="-1.62978">
        <ele>107</ele>
        <time>2022-04-02T11:50:31Z</time>
      </trkpt>
      <trkpt lat="47.30008" lon="-1.62964">
        <ele>107</ele>
        <time>2022-04-02T11:50:34Z</time>
      </trkpt>
      <trkpt lat="47.30019" lon="-1.62951">
        <ele>108</ele>
        <time>2022-04-02T11:50:37Z</time>
      </trkpt>
      <trkpt lat="47.30026" lon="-1.62943">
        <ele>108</ele>
        <time>2022-04-02T11:50:39Z</time>
      </trkpt>
      <trkpt lat="47.30034" lon="-1.62934">
        <ele>108</ele>
        <time>2022-04-02T11:50:41Z</time>
      </trkpt>
      <trkpt lat="47.30041" lon="-1.62926">
        <ele>108</ele>
        <time>2022-04-02T11:50:43Z</time>
      </trkpt>
      <trkpt lat="47.30049" lon="-1.62917">
        <ele>108</ele>
        <time>2022-04-02T11:50:45Z</time>
      </trkpt>
      <trkpt lat="47.30057" lon="-1.62909">
        <ele>108</ele>
        <time>2022-04-02T11:50:47Z</time>
      </trkpt>
      <trkpt lat="47.30064" lon="-1.62901">
        <ele>109</ele>
        <time>2022-04-02T11:50:49Z</time>
      </trkpt>
      <trkpt lat="47.30072" lon="-1.62892">
        <ele>109</ele>
        <time>2022-04-02T11:50:51Z</time>
      </trkpt>
      <trkpt lat="47.3008" lon="-1.62885">
        <ele>109</ele>
        <time>2022-04-02T11:50:53Z</time>
      </trkpt>
      <trkpt lat="47.30087" lon="-1.62877">
        <ele>109</ele>
        <time>2022-04-02T11:50:55Z</time>
      </trkpt>
      <trkpt lat="47.30098" lon="-1.62866">
        <ele>110</ele>
        <time>2022-04-02T11:50:58Z</time>
      </trkpt>
      <trkpt lat="47.30106" lon="-1.62858">
        <ele>110</ele>
        <time>2022-04-02T11:51:00Z</time>
      </trkpt>
      <trkpt lat="47.30113" lon="-1.62849">
        <ele>111</ele>
        <time>2022-04-02T11:51:02Z</time>
      </trkpt>
      <trkpt lat="47.30121" lon="-1.62841">
        <ele>111</ele>
        <time>2022-04-02T11:51:04Z</time>
      </trkpt>
      <trkpt lat="47.3013" lon="-1.62833">
        <ele>110</ele>
        <time>2022-04-02T11:51:06Z</time>
      </trkpt>
      <trkpt lat="47.30138" lon="-1.62824">
        <ele>110</ele>
        <time>2022-04-02T11:51:08Z</time>
      </trkpt>
      <trkpt lat="47.30146" lon="-1.62816">
        <ele>110</ele>
        <time>2022-04-02T11:51:10Z</time>
      </trkpt>
      <trkpt lat="47.30154" lon="-1.62807">
        <ele>110</ele>
        <time>2022-04-02T11:51:12Z</time>
      </trkpt>
      <trkpt lat="47.30162" lon="-1.62798">
        <ele>110</ele>
        <time>2022-04-02T11:51:14Z</time>
      </trkpt>
      <trkpt lat="47.3017" lon="-1.62789">
        <ele>109</ele>
        <time>2022-04-02T11:51:16Z</time>
      </trkpt>
      <trkpt lat="47.30178" lon="-1.6278">
        <ele>109</ele>
        <time>2022-04-02T11:51:18Z</time>
      </trkpt>
      <trkpt lat="47.30187" lon="-1.62771">
        <ele>109</ele>
        <time>2022-04-02T11:51:20Z</time>
      </trkpt>
      <trkpt lat="47.30196" lon="-1.62761">
        <ele>109</ele>
        <time>2022-04-02T11:51:22Z</time>
      </trkpt>
      <trkpt lat="47.30205" lon="-1.62752">
        <ele>109</ele>
        <time>2022-04-02T11:51:24Z</time>
      </trkpt>
      <trkpt lat="47.30214" lon="-1.62742">
        <ele>108</ele>
        <time>2022-04-02T11:51:26Z</time>
      </trkpt>
      <trkpt lat="47.30224" lon="-1.62731">
        <ele>108</ele>
        <time>2022-04-02T11:51:28Z</time>
      </trkpt>
      <trkpt lat="47.30233" lon="-1.6272">
        <ele>108</ele>
        <time>2022-04-02T11:51:30Z</time>
      </trkpt>
      <trkpt lat="47.30242" lon="-1.62709">
        <ele>107</ele>
        <time>2022-04-02T11:51:32Z</time>
      </trkpt>
      <trkpt lat="47.30249" lon="-1.62697">
        <ele>107</ele>
        <time>2022-04-02T11:51:34Z</time>
      </trkpt>
      <trkpt lat="47.30257" lon="-1.62685">
        <ele>107</ele>
        <time>2022-04-02T11:51:36Z</time>
      </trkpt>
      <trkpt lat="47.30265" lon="-1.62672">
        <ele>107</ele>
        <time>2022-04-02T11:51:38Z</time>
      </trkpt>
      <trkpt lat="47.30272" lon="-1.62659">
        <ele>107</ele>
        <time>2022-04-02T11:51:40Z</time>
      </trkpt>
      <trkpt lat="47.30278" lon="-1.62646">
        <ele>107</ele>
        <time>2022-04-02T11:51:42Z</time>
      </trkpt>
      <trkpt lat="47.30284" lon="-1.62632">
        <ele>107</ele>
        <time>2022-04-02T11:51:44Z</time>
      </trkpt>
      <trkpt lat="47.3029" lon="-1.62618">
        <ele>107</ele>
        <time>2022-04-02T11:51:46Z</time>
      </trkpt>
      <trkpt lat="47.30296" lon="-1.62603">
        <ele>107</ele>
        <time>2022-04-02T11:51:48Z</time>
      </trkpt>
      <trkpt lat="47.30302" lon="-1.62589">
        <ele>106</ele>
        <time>2022-04-02T11:51:50Z</time>
      </trkpt>
      <trkpt lat="47.30308" lon="-1.62574">
        <ele>106</ele>
        <time>2022-04-02T11:51:52Z</time>
      </trkpt>
      <trkpt lat="47.30314" lon="-1.62559">
        <ele>106</ele>
        <time>2022-04-02T11:51:54Z</time>
      </trkpt>
      <trkpt lat="47.3032" lon="-1.62544">
        <ele>106</ele>
        <time>2022-04-02T11:51:56Z</time>
      </trkpt>
      <trkpt lat="47.30325" lon="-1.62529">
        <ele>106</ele>
        <time>2022-04-02T11:51:58Z</time>
      </trkpt>
      <trkpt lat="47.3033" lon="-1.62514">
        <ele>106</ele>
        <time>2022-04-02T11:52:00Z</time>
      </trkpt>
      <trkpt lat="47.30335" lon="-1.62498">
        <ele>105</ele>
        <time>2022-04-02T11:52:02Z</time>
      </trkpt>
      <trkpt lat="47.30339" lon="-1.62481">
        <ele>105</ele>
        <time>2022-04-02T11:52:04Z</time>
      </trkpt>
      <trkpt lat="47.30342" lon="-1.62464">
        <ele>105</ele>
        <time>2022-04-02T11:52:06Z</time>
      </trkpt>
      <trkpt lat="47.30345" lon="-1.62447">
        <ele>105</ele>
        <time>2022-04-02T11:52:08Z</time>
      </trkpt>
      <trkpt lat="47.30348" lon="-1.6243">
        <ele>105</ele>
        <time>2022-04-02T11:52:10Z</time>
      </trkpt>
      <trkpt lat="47.30352" lon="-1.62413">
        <ele>105</ele>
        <time>2022-04-02T11:52:12Z</time>
      </trkpt>
      <trkpt lat="47.30356" lon="-1.62398">
        <ele>104</ele>
        <time>2022-04-02T11:52:14Z</time>
      </trkpt>
      <trkpt lat="47.3036" lon="-1.62382">
        <ele>104</ele>
        <time>2022-04-02T11:52:16Z</time>
      </trkpt>
      <trkpt lat="47.30364" lon="-1.62366">
        <ele>104</ele>
        <time>2022-04-02T11:52:18Z</time>
      </trkpt>
      <trkpt lat="47.30368" lon="-1.6235">
        <ele>104</ele>
        <time>2022-04-02T11:52:20Z</time>
      </trkpt>
      <trkpt lat="47.30373" lon="-1.62333">
        <ele>104</ele>
        <time>2022-04-02T11:52:22Z</time>
      </trkpt>
      <trkpt lat="47.30378" lon="-1.62319">
        <ele>104</ele>
        <time>2022-04-02T11:52:24Z</time>
      </trkpt>
      <trkpt lat="47.30386" lon="-1.62306">
        <ele>104</ele>
        <time>2022-04-02T11:52:26Z</time>
      </trkpt>
      <trkpt lat="47.30395" lon="-1.62297">
        <ele>104</ele>
        <time>2022-04-02T11:52:28Z</time>
      </trkpt>
      <trkpt lat="47.30406" lon="-1.62291">
        <ele>104</ele>
        <time>2022-04-02T11:52:30Z</time>
      </trkpt>
      <trkpt lat="47.30416" lon="-1.62284">
        <ele>104</ele>
        <time>2022-04-02T11:52:32Z</time>
      </trkpt>
      <trkpt lat="47.30427" lon="-1.62279">
        <ele>104</ele>
        <time>2022-04-02T11:52:34Z</time>
      </trkpt>
      <trkpt lat="47.30437" lon="-1.62273">
        <ele>104</ele>
        <time>2022-04-02T11:52:36Z</time>
      </trkpt>
      <trkpt lat="47.30448" lon="-1.62265">
        <ele>104</ele>
        <time>2022-04-02T11:52:38Z</time>
      </trkpt>
      <trkpt lat="47.30457" lon="-1.62256">
        <ele>104</ele>
        <time>2022-04-02T11:52:40Z</time>
      </trkpt>
      <trkpt lat="47.30464" lon="-1.62244">
        <ele>104</ele>
        <time>2022-04-02T11:52:42Z</time>
      </trkpt>
      <trkpt lat="47.30471" lon="-1.62231">
        <ele>104</ele>
        <time>2022-04-02T11:52:44Z</time>
      </trkpt>
      <trkpt lat="47.30477" lon="-1.62217">
        <ele>104</ele>
        <time>2022-04-02T11:52:46Z</time>
      </trkpt>
      <trkpt lat="47.30483" lon="-1.62203">
        <ele>104</ele>
        <time>2022-04-02T11:52:48Z</time>
      </trkpt>
      <trkpt lat="47.30489" lon="-1.62189">
        <ele>104</ele>
        <time>2022-04-02T11:52:50Z</time>
      </trkpt>
      <trkpt lat="47.30495" lon="-1.62175">
        <ele>104</ele>
        <time>2022-04-02T11:52:52Z</time>
      </trkpt>
      <trkpt lat="47.30501" lon="-1.62161">
        <ele>104</ele>
        <time>2022-04-02T11:52:54Z</time>
      </trkpt>
      <trkpt lat="47.30508" lon="-1.62146">
        <ele>104</ele>
        <time>2022-04-02T11:52:56Z</time>
      </trkpt>
      <trkpt lat="47.30514" lon="-1.62132">
        <ele>104</ele>
        <time>2022-04-02T11:52:58Z</time>
      </trkpt>
      <trkpt lat="47.3052" lon="-1.62118">
        <ele>104</ele>
        <time>2022-04-02T11:53:00Z</time>
      </trkpt>
      <trkpt lat="47.30526" lon="-1.62104">
        <ele>104</ele>
        <time>2022-04-02T11:53:02Z</time>
      </trkpt>
      <trkpt lat="47.30532" lon="-1.62091">
        <ele>104</ele>
        <time>2022-04-02T11:53:04Z</time>
      </trkpt>
      <trkpt lat="47.30538" lon="-1.62077">
        <ele>104</ele>
        <time>2022-04-02T11:53:06Z</time>
      </trkpt>
      <trkpt lat="47.30545" lon="-1.62064">
        <ele>105</ele>
        <time>2022-04-02T11:53:08Z</time>
      </trkpt>
      <trkpt lat="47.30552" lon="-1.62053">
        <ele>105</ele>
        <time>2022-04-02T11:53:10Z</time>
      </trkpt>
      <trkpt lat="47.3056" lon="-1.62042">
        <ele>105</ele>
        <time>2022-04-02T11:53:12Z</time>
      </trkpt>
      <trkpt lat="47.30569" lon="-1.62032">
        <ele>105</ele>
        <time>2022-04-02T11:53:14Z</time>
      </trkpt>
      <trkpt lat="47.30578" lon="-1.62023">
        <ele>105</ele>
        <time>2022-04-02T11:53:16Z</time>
      </trkpt>
      <trkpt lat="47.30587" lon="-1.62013">
        <ele>105</ele>
        <time>2022-04-02T11:53:18Z</time>
      </trkpt>
      <trkpt lat="47.30596" lon="-1.62003">
        <ele>105</ele>
        <time>2022-04-02T11:53:20Z</time>
      </trkpt>
      <trkpt lat="47.30605" lon="-1.61993">
        <ele>105</ele>
        <time>2022-04-02T11:53:22Z</time>
      </trkpt>
      <trkpt lat="47.30614" lon="-1.61983">
        <ele>105</ele>
        <time>2022-04-02T11:53:24Z</time>
      </trkpt>
      <trkpt lat="47.30623" lon="-1.61973">
        <ele>105</ele>
        <time>2022-04-02T11:53:26Z</time>
      </trkpt>
      <trkpt lat="47.30632" lon="-1.61964">
        <ele>105</ele>
        <time>2022-04-02T11:53:28Z</time>
      </trkpt>
      <trkpt lat="47.30641" lon="-1.61954">
        <ele>105</ele>
        <time>2022-04-02T11:53:30Z</time>
      </trkpt>
      <trkpt lat="47.30649" lon="-1.61945">
        <ele>105</ele>
        <time>2022-04-02T11:53:32Z</time>
      </trkpt>
      <trkpt lat="47.30658" lon="-1.61935">
        <ele>106</ele>
        <time>2022-04-02T11:53:34Z</time>
      </trkpt>
      <trkpt lat="47.30668" lon="-1.61926">
        <ele>106</ele>
        <time>2022-04-02T11:53:36Z</time>
      </trkpt>
      <trkpt lat="47.30677" lon="-1.61917">
        <ele>106</ele>
        <time>2022-04-02T11:53:38Z</time>
      </trkpt>
      <trkpt lat="47.30685" lon="-1.61907">
        <ele>106</ele>
        <time>2022-04-02T11:53:40Z</time>
      </trkpt>
      <trkpt lat="47.30695" lon="-1.61897">
        <ele>106</ele>
        <time>2022-04-02T11:53:42Z</time>
      </trkpt>
      <trkpt lat="47.30704" lon="-1.61887">
        <ele>106</ele>
        <time>2022-04-02T11:53:44Z</time>
      </trkpt>
      <trkpt lat="47.30713" lon="-1.61877">
        <ele>105</ele>
        <time>2022-04-02T11:53:46Z</time>
      </trkpt>
      <trkpt lat="47.30722" lon="-1.61867">
        <ele>105</ele>
        <time>2022-04-02T11:53:48Z</time>
      </trkpt>
      <trkpt lat="47.3073" lon="-1.61858">
        <ele>105</ele>
        <time>2022-04-02T11:53:50Z</time>
      </trkpt>
      <trkpt lat="47.30739" lon="-1.61849">
        <ele>105</ele>
        <time>2022-04-02T11:53:52Z</time>
      </trkpt>
      <trkpt lat="47.30746" lon="-1.61839">
        <ele>105</ele>
        <time>2022-04-02T11:53:54Z</time>
      </trkpt>
      <trkpt lat="47.30753" lon="-1.61828">
        <ele>105</ele>
        <time>2022-04-02T11:53:56Z</time>
      </trkpt>
      <trkpt lat="47.30764" lon="-1.61825">
        <ele>105</ele>
        <time>2022-04-02T11:53:58Z</time>
      </trkpt>
      <trkpt lat="47.30776" lon="-1.61828">
        <ele>105</ele>
        <time>2022-04-02T11:54:00Z</time>
      </trkpt>
      <trkpt lat="47.30788" lon="-1.61831">
        <ele>105</ele>
        <time>2022-04-02T11:54:02Z</time>
      </trkpt>
      <trkpt lat="47.30801" lon="-1.61832">
        <ele>104</ele>
        <time>2022-04-02T11:54:04Z</time>
      </trkpt>
      <trkpt lat="47.30814" lon="-1.61834">
        <ele>104</ele>
        <time>2022-04-02T11:54:06Z</time>
      </trkpt>
      <trkpt lat="47.30828" lon="-1.61836">
        <ele>103</ele>
        <time>2022-04-02T11:54:08Z</time>
      </trkpt>
      <trkpt lat="47.30842" lon="-1.61837">
        <ele>102</ele>
        <time>2022-04-02T11:54:10Z</time>
      </trkpt>
      <trkpt lat="47.30856" lon="-1.61838">
        <ele>101</ele>
        <time>2022-04-02T11:54:12Z</time>
      </trkpt>
      <trkpt lat="47.30871" lon="-1.61838">
        <ele>100</ele>
        <time>2022-04-02T11:54:14Z</time>
      </trkpt>
      <trkpt lat="47.30885" lon="-1.61837">
        <ele>99</ele>
        <time>2022-04-02T11:54:16Z</time>
      </trkpt>
      <trkpt lat="47.30897" lon="-1.61834">
        <ele>98</ele>
        <time>2022-04-02T11:54:18Z</time>
      </trkpt>
      <trkpt lat="47.30905" lon="-1.61816">
        <ele>98</ele>
        <time>2022-04-02T11:54:20Z</time>
      </trkpt>
      <trkpt lat="47.30908" lon="-1.61794">
        <ele>98</ele>
        <time>2022-04-02T11:54:22Z</time>
      </trkpt>
      <trkpt lat="47.30907" lon="-1.61772">
        <ele>97</ele>
        <time>2022-04-02T11:54:24Z</time>
      </trkpt>
      <trkpt lat="47.30905" lon="-1.61751">
        <ele>97</ele>
        <time>2022-04-02T11:54:26Z</time>
      </trkpt>
      <trkpt lat="47.30904" lon="-1.61731">
        <ele>96</ele>
        <time>2022-04-02T11:54:28Z</time>
      </trkpt>
      <trkpt lat="47.30906" lon="-1.61711">
        <ele>96</ele>
        <time>2022-04-02T11:54:30Z</time>
      </trkpt>
      <trkpt lat="47.30909" lon="-1.61691">
        <ele>95</ele>
        <time>2022-04-02T11:54:32Z</time>
      </trkpt>
      <trkpt lat="47.30911" lon="-1.61669">
        <ele>94</ele>
        <time>2022-04-02T11:54:34Z</time>
      </trkpt>
      <trkpt lat="47.30912" lon="-1.61649">
        <ele>93</ele>
        <time>2022-04-02T11:54:36Z</time>
      </trkpt>
      <trkpt lat="47.30909" lon="-1.61629">
        <ele>93</ele>
        <time>2022-04-02T11:54:38Z</time>
      </trkpt>
      <trkpt lat="47.30904" lon="-1.61611">
        <ele>93</ele>
        <time>2022-04-02T11:54:40Z</time>
      </trkpt>
      <trkpt lat="47.309" lon="-1.61594">
        <ele>93</ele>
        <time>2022-04-02T11:54:42Z</time>
      </trkpt>
      <trkpt lat="47.30896" lon="-1.61576">
        <ele>92</ele>
        <time>2022-04-02T11:54:44Z</time>
      </trkpt>
      <trkpt lat="47.30891" lon="-1.61558">
        <ele>92</ele>
        <time>2022-04-02T11:54:46Z</time>
      </trkpt>
      <trkpt lat="47.30886" lon="-1.61539">
        <ele>91</ele>
        <time>2022-04-02T11:54:48Z</time>
      </trkpt>
      <trkpt lat="47.30881" lon="-1.61521">
        <ele>91</ele>
        <time>2022-04-02T11:54:50Z</time>
      </trkpt>
      <trkpt lat="47.30876" lon="-1.61503">
        <ele>91</ele>
        <time>2022-04-02T11:54:52Z</time>
      </trkpt>
      <trkpt lat="47.30872" lon="-1.61485">
        <ele>91</ele>
        <time>2022-04-02T11:54:54Z</time>
      </trkpt>
      <trkpt lat="47.30866" lon="-1.61468">
        <ele>91</ele>
        <time>2022-04-02T11:54:56Z</time>
      </trkpt>
      <trkpt lat="47.3086" lon="-1.6145">
        <ele>90</ele>
        <time>2022-04-02T11:54:58Z</time>
      </trkpt>
      <trkpt lat="47.30853" lon="-1.61434">
        <ele>89</ele>
        <time>2022-04-02T11:55:00Z</time>
      </trkpt>
      <trkpt lat="47.30845" lon="-1.61417">
        <ele>90</ele>
        <time>2022-04-02T11:55:02Z</time>
      </trkpt>
      <trkpt lat="47.3084" lon="-1.61399">
        <ele>89</ele>
        <time>2022-04-02T11:55:04Z</time>
      </trkpt>
      <trkpt lat="47.30836" lon="-1.61381">
        <ele>89</ele>
        <time>2022-04-02T11:55:06Z</time>
      </trkpt>
      <trkpt lat="47.30833" lon="-1.61361">
        <ele>89</ele>
        <time>2022-04-02T11:55:08Z</time>
      </trkpt>
      <trkpt lat="47.3083" lon="-1.61342">
        <ele>89</ele>
        <time>2022-04-02T11:55:10Z</time>
      </trkpt>
      <trkpt lat="47.30826" lon="-1.61322">
        <ele>88</ele>
        <time>2022-04-02T11:55:12Z</time>
      </trkpt>
      <trkpt lat="47.30822" lon="-1.61303">
        <ele>88</ele>
        <time>2022-04-02T11:55:14Z</time>
      </trkpt>
      <trkpt lat="47.30816" lon="-1.61285">
        <ele>88</ele>
        <time>2022-04-02T11:55:16Z</time>
      </trkpt>
      <trkpt lat="47.30809" lon="-1.61267">
        <ele>88</ele>
        <time>2022-04-02T11:55:18Z</time>
      </trkpt>
      <trkpt lat="47.30805" lon="-1.61247">
        <ele>87</ele>
        <time>2022-04-02T11:55:20Z</time>
      </trkpt>
      <trkpt lat="47.30803" lon="-1.61224">
        <ele>86</ele>
        <time>2022-04-02T11:55:22Z</time>
      </trkpt>
      <trkpt lat="47.30802" lon="-1.612">
        <ele>85</ele>
        <time>2022-04-02T11:55:24Z</time>
      </trkpt>
      <trkpt lat="47.30802" lon="-1.61174">
        <ele>83</ele>
        <time>2022-04-02T11:55:26Z</time>
      </trkpt>
      <trkpt lat="47.30802" lon="-1.61148">
        <ele>82</ele>
        <time>2022-04-02T11:55:28Z</time>
      </trkpt>
      <trkpt lat="47.30802" lon="-1.61122">
        <ele>80</ele>
        <time>2022-04-02T11:55:30Z</time>
      </trkpt>
      <trkpt lat="47.30803" lon="-1.61097">
        <ele>79</ele>
        <time>2022-04-02T11:55:32Z</time>
      </trkpt>
      <trkpt lat="47.30803" lon="-1.61072">
        <ele>78</ele>
        <time>2022-04-02T11:55:34Z</time>
      </trkpt>
      <trkpt lat="47.30804" lon="-1.61047">
        <ele>78</ele>
        <time>2022-04-02T11:55:36Z</time>
      </trkpt>
      <trkpt lat="47.30804" lon="-1.61022">
        <ele>77</ele>
        <time>2022-04-02T11:55:38Z</time>
      </trkpt>
      <trkpt lat="47.30804" lon="-1.60997">
        <ele>77</ele>
        <time>2022-04-02T11:55:40Z</time>
      </trkpt>
      <trkpt lat="47.30804" lon="-1.60973">
        <ele>76</ele>
        <time>2022-04-02T11:55:42Z</time>
      </trkpt>
      <trkpt lat="47.30804" lon="-1.6095">
        <ele>76</ele>
        <time>2022-04-02T11:55:44Z</time>
      </trkpt>
      <trkpt lat="47.30804" lon="-1.60929">
        <ele>76</ele>
        <time>2022-04-02T11:55:46Z</time>
      </trkpt>
      <trkpt lat="47.30805" lon="-1.60909">
        <ele>76</ele>
        <time>2022-04-02T11:55:48Z</time>
      </trkpt>
      <trkpt lat="47.30805" lon="-1.60891">
        <ele>77</ele>
        <time>2022-04-02T11:55:50Z</time>
      </trkpt>
      <trkpt lat="47.30806" lon="-1.6087">
        <ele>78</ele>
        <time>2022-04-02T11:55:53Z</time>
      </trkpt>
      <trkpt lat="47.30806" lon="-1.60856">
        <ele>78</ele>
        <time>2022-04-02T11:55:55Z</time>
      </trkpt>
      <trkpt lat="47.30806" lon="-1.60836">
        <ele>79</ele>
        <time>2022-04-02T11:55:58Z</time>
      </trkpt>
      <trkpt lat="47.30805" lon="-1.60815">
        <ele>80</ele>
        <time>2022-04-02T11:56:01Z</time>
      </trkpt>
      <trkpt lat="47.30803" lon="-1.60802">
        <ele>80</ele>
        <time>2022-04-02T11:56:03Z</time>
      </trkpt>
      <trkpt lat="47.30798" lon="-1.60782">
        <ele>81</ele>
        <time>2022-04-02T11:56:06Z</time>
      </trkpt>
      <trkpt lat="47.30795" lon="-1.6077">
        <ele>81</ele>
        <time>2022-04-02T11:56:08Z</time>
      </trkpt>
      <trkpt lat="47.30788" lon="-1.60752">
        <ele>82</ele>
        <time>2022-04-02T11:56:11Z</time>
      </trkpt>
      <trkpt lat="47.30782" lon="-1.60741">
        <ele>83</ele>
        <time>2022-04-02T11:56:13Z</time>
      </trkpt>
      <trkpt lat="47.30772" lon="-1.60728">
        <ele>84</ele>
        <time>2022-04-02T11:56:16Z</time>
      </trkpt>
      <trkpt lat="47.30764" lon="-1.6072">
        <ele>85</ele>
        <time>2022-04-02T11:56:18Z</time>
      </trkpt>
      <trkpt lat="47.30757" lon="-1.60711">
        <ele>85</ele>
        <time>2022-04-02T11:56:20Z</time>
      </trkpt>
      <trkpt lat="47.30751" lon="-1.60701">
        <ele>86</ele>
        <time>2022-04-02T11:56:22Z</time>
      </trkpt>
      <trkpt lat="47.30745" lon="-1.6069">
        <ele>86</ele>
        <time>2022-04-02T11:56:24Z</time>
      </trkpt>
      <trkpt lat="47.30742" lon="-1.60678">
        <ele>87</ele>
        <time>2022-04-02T11:56:26Z</time>
      </trkpt>
      <trkpt lat="47.3074" lon="-1.60662">
        <ele>86</ele>
        <time>2022-04-02T11:56:28Z</time>
      </trkpt>
      <trkpt lat="47.30742" lon="-1.60645">
        <ele>84</ele>
        <time>2022-04-02T11:56:30Z</time>
      </trkpt>
      <trkpt lat="47.30748" lon="-1.60626">
        <ele>83</ele>
        <time>2022-04-02T11:56:32Z</time>
      </trkpt>
      <trkpt lat="47.30757" lon="-1.60608">
        <ele>82</ele>
        <time>2022-04-02T11:56:34Z</time>
      </trkpt>
      <trkpt lat="47.30765" lon="-1.6059">
        <ele>82</ele>
        <time>2022-04-02T11:56:36Z</time>
      </trkpt>
      <trkpt lat="47.30772" lon="-1.60572">
        <ele>82</ele>
        <time>2022-04-02T11:56:38Z</time>
      </trkpt>
      <trkpt lat="47.30775" lon="-1.60556">
        <ele>83</ele>
        <time>2022-04-02T11:56:40Z</time>
      </trkpt>
      <trkpt lat="47.30777" lon="-1.60541">
        <ele>83</ele>
        <time>2022-04-02T11:56:42Z</time>
      </trkpt>
      <trkpt lat="47.30777" lon="-1.60527">
        <ele>84</ele>
        <time>2022-04-02T11:56:44Z</time>
      </trkpt>
      <trkpt lat="47.30776" lon="-1.60514">
        <ele>84</ele>
        <time>2022-04-02T11:56:46Z</time>
      </trkpt>
      <trkpt lat="47.30775" lon="-1.60501">
        <ele>85</ele>
        <time>2022-04-02T11:56:48Z</time>
      </trkpt>
      <trkpt lat="47.30773" lon="-1.60481">
        <ele>85</ele>
        <time>2022-04-02T11:56:51Z</time>
      </trkpt>
      <trkpt lat="47.30772" lon="-1.60463">
        <ele>86</ele>
        <time>2022-04-02T11:56:54Z</time>
      </trkpt>
      <trkpt lat="47.30768" lon="-1.60447">
        <ele>87</ele>
        <time>2022-04-02T11:56:57Z</time>
      </trkpt>
      <trkpt lat="47.30766" lon="-1.60432">
        <ele>88</ele>
        <time>2022-04-02T11:57:00Z</time>
      </trkpt>
      <trkpt lat="47.30762" lon="-1.60416">
        <ele>89</ele>
        <time>2022-04-02T11:57:03Z</time>
      </trkpt>
      <trkpt lat="47.30759" lon="-1.60401">
        <ele>90</ele>
        <time>2022-04-02T11:57:06Z</time>
      </trkpt>
      <trkpt lat="47.30756" lon="-1.60386">
        <ele>91</ele>
        <time>2022-04-02T11:57:09Z</time>
      </trkpt>
      <trkpt lat="47.30752" lon="-1.60371">
        <ele>92</ele>
        <time>2022-04-02T11:57:12Z</time>
      </trkpt>
      <trkpt lat="47.30749" lon="-1.60355">
        <ele>93</ele>
        <time>2022-04-02T11:57:15Z</time>
      </trkpt>
      <trkpt lat="47.30746" lon="-1.60339">
        <ele>94</ele>
        <time>2022-04-02T11:57:18Z</time>
      </trkpt>
      <trkpt lat="47.30742" lon="-1.60323">
        <ele>95</ele>
        <time>2022-04-02T11:57:21Z</time>
      </trkpt>
      <trkpt lat="47.30739" lon="-1.60306">
        <ele>95</ele>
        <time>2022-04-02T11:57:24Z</time>
      </trkpt>
      <trkpt lat="47.30736" lon="-1.60289">
        <ele>96</ele>
        <time>2022-04-02T11:57:27Z</time>
      </trkpt>
      <trkpt lat="47.30734" lon="-1.60272">
        <ele>96</ele>
        <time>2022-04-02T11:57:30Z</time>
      </trkpt>
      <trkpt lat="47.30732" lon="-1.60257">
        <ele>97</ele>
        <time>2022-04-02T11:57:33Z</time>
      </trkpt>
      <trkpt lat="47.30726" lon="-1.60244">
        <ele>97</ele>
        <time>2022-04-02T11:57:37Z</time>
      </trkpt>
      <trkpt lat="47.30714" lon="-1.60246">
        <ele>98</ele>
        <time>2022-04-02T11:57:41Z</time>
      </trkpt>
      <trkpt lat="47.30701" lon="-1.60248">
        <ele>99</ele>
        <time>2022-04-02T11:57:44Z</time>
      </trkpt>
      <trkpt lat="47.30692" lon="-1.60241">
        <ele>99</ele>
        <time>2022-04-02T11:57:46Z</time>
      </trkpt>
      <trkpt lat="47.30685" lon="-1.6023">
        <ele>99</ele>
        <time>2022-04-02T11:57:48Z</time>
      </trkpt>
      <trkpt lat="47.30675" lon="-1.60218">
        <ele>100</ele>
        <time>2022-04-02T11:57:51Z</time>
      </trkpt>
      <trkpt lat="47.30668" lon="-1.60209">
        <ele>101</ele>
        <time>2022-04-02T11:57:53Z</time>
      </trkpt>
      <trkpt lat="47.30659" lon="-1.60202">
        <ele>101</ele>
        <time>2022-04-02T11:57:55Z</time>
      </trkpt>
      <trkpt lat="47.30652" lon="-1.60193">
        <ele>101</ele>
        <time>2022-04-02T11:57:57Z</time>
      </trkpt>
      <trkpt lat="47.30645" lon="-1.60184">
        <ele>101</ele>
        <time>2022-04-02T11:57:59Z</time>
      </trkpt>
      <trkpt lat="47.30637" lon="-1.60173">
        <ele>102</ele>
        <time>2022-04-02T11:58:01Z</time>
      </trkpt>
      <trkpt lat="47.30631" lon="-1.60161">
        <ele>102</ele>
        <time>2022-04-02T11:58:03Z</time>
      </trkpt>
      <trkpt lat="47.30624" lon="-1.60148">
        <ele>102</ele>
        <time>2022-04-02T11:58:05Z</time>
      </trkpt>
      <trkpt lat="47.30619" lon="-1.60134">
        <ele>102</ele>
        <time>2022-04-02T11:58:07Z</time>
      </trkpt>
      <trkpt lat="47.30614" lon="-1.6012">
        <ele>102</ele>
        <time>2022-04-02T11:58:09Z</time>
      </trkpt>
      <trkpt lat="47.30609" lon="-1.60106">
        <ele>102</ele>
        <time>2022-04-02T11:58:11Z</time>
      </trkpt>
      <trkpt lat="47.30605" lon="-1.60093">
        <ele>103</ele>
        <time>2022-04-02T11:58:13Z</time>
      </trkpt>
      <trkpt lat="47.306" lon="-1.60079">
        <ele>102</ele>
        <time>2022-04-02T11:58:15Z</time>
      </trkpt>
      <trkpt lat="47.30594" lon="-1.60065">
        <ele>102</ele>
        <time>2022-04-02T11:58:17Z</time>
      </trkpt>
      <trkpt lat="47.30588" lon="-1.60052">
        <ele>103</ele>
        <time>2022-04-02T11:58:19Z</time>
      </trkpt>
      <trkpt lat="47.30581" lon="-1.60039">
        <ele>103</ele>
        <time>2022-04-02T11:58:21Z</time>
      </trkpt>
      <trkpt lat="47.30573" lon="-1.60028">
        <ele>103</ele>
        <time>2022-04-02T11:58:23Z</time>
      </trkpt>
      <trkpt lat="47.30563" lon="-1.60018">
        <ele>102</ele>
        <time>2022-04-02T11:58:25Z</time>
      </trkpt>
      <trkpt lat="47.30553" lon="-1.60011">
        <ele>102</ele>
        <time>2022-04-02T11:58:27Z</time>
      </trkpt>
      <trkpt lat="47.30542" lon="-1.60008">
        <ele>102</ele>
        <time>2022-04-02T11:58:29Z</time>
      </trkpt>
      <trkpt lat="47.30531" lon="-1.60008">
        <ele>102</ele>
        <time>2022-04-02T11:58:31Z</time>
      </trkpt>
      <trkpt lat="47.3052" lon="-1.60009">
        <ele>102</ele>
        <time>2022-04-02T11:58:33Z</time>
      </trkpt>
      <trkpt lat="47.30509" lon="-1.6001">
        <ele>103</ele>
        <time>2022-04-02T11:58:35Z</time>
      </trkpt>
      <trkpt lat="47.30499" lon="-1.60011">
        <ele>103</ele>
        <time>2022-04-02T11:58:37Z</time>
      </trkpt>
      <trkpt lat="47.30489" lon="-1.60013">
        <ele>104</ele>
        <time>2022-04-02T11:58:39Z</time>
      </trkpt>
      <trkpt lat="47.30479" lon="-1.60014">
        <ele>104</ele>
        <time>2022-04-02T11:58:41Z</time>
      </trkpt>
      <trkpt lat="47.30468" lon="-1.60015">
        <ele>105</ele>
        <time>2022-04-02T11:58:43Z</time>
      </trkpt>
      <trkpt lat="47.30458" lon="-1.60016">
        <ele>105</ele>
        <time>2022-04-02T11:58:45Z</time>
      </trkpt>
      <trkpt lat="47.30447" lon="-1.60017">
        <ele>105</ele>
        <time>2022-04-02T11:58:47Z</time>
      </trkpt>
      <trkpt lat="47.30437" lon="-1.60012">
        <ele>105</ele>
        <time>2022-04-02T11:58:49Z</time>
      </trkpt>
      <trkpt lat="47.3043" lon="-1.60001">
        <ele>105</ele>
        <time>2022-04-02T11:58:51Z</time>
      </trkpt>
      <trkpt lat="47.30423" lon="-1.59987">
        <ele>105</ele>
        <time>2022-04-02T11:58:53Z</time>
      </trkpt>
      <trkpt lat="47.30417" lon="-1.59972">
        <ele>105</ele>
        <time>2022-04-02T11:58:55Z</time>
      </trkpt>
      <trkpt lat="47.30411" lon="-1.59956">
        <ele>105</ele>
        <time>2022-04-02T11:58:57Z</time>
      </trkpt>
      <trkpt lat="47.30407" lon="-1.59938">
        <ele>105</ele>
        <time>2022-04-02T11:58:59Z</time>
      </trkpt>
      <trkpt lat="47.30403" lon="-1.59918">
        <ele>105</ele>
        <time>2022-04-02T11:59:01Z</time>
      </trkpt>
      <trkpt lat="47.304" lon="-1.59897">
        <ele>105</ele>
        <time>2022-04-02T11:59:03Z</time>
      </trkpt>
      <trkpt lat="47.30395" lon="-1.59877">
        <ele>105</ele>
        <time>2022-04-02T11:59:05Z</time>
      </trkpt>
      <trkpt lat="47.30386" lon="-1.59861">
        <ele>104</ele>
        <time>2022-04-02T11:59:07Z</time>
      </trkpt>
      <trkpt lat="47.30373" lon="-1.5985">
        <ele>104</ele>
        <time>2022-04-02T11:59:09Z</time>
      </trkpt>
      <trkpt lat="47.30359" lon="-1.5984">
        <ele>103</ele>
        <time>2022-04-02T11:59:11Z</time>
      </trkpt>
      <trkpt lat="47.30345" lon="-1.59825">
        <ele>101</ele>
        <time>2022-04-02T11:59:13Z</time>
      </trkpt>
      <trkpt lat="47.30334" lon="-1.59807">
        <ele>100</ele>
        <time>2022-04-02T11:59:15Z</time>
      </trkpt>
      <trkpt lat="47.30323" lon="-1.59788">
        <ele>98</ele>
        <time>2022-04-02T11:59:17Z</time>
      </trkpt>
      <trkpt lat="47.30311" lon="-1.5977">
        <ele>97</ele>
        <time>2022-04-02T11:59:19Z</time>
      </trkpt>
      <trkpt lat="47.30297" lon="-1.59753">
        <ele>97</ele>
        <time>2022-04-02T11:59:21Z</time>
      </trkpt>
      <trkpt lat="47.30282" lon="-1.59737">
        <ele>97</ele>
        <time>2022-04-02T11:59:23Z</time>
      </trkpt>
      <trkpt lat="47.30275" lon="-1.59729">
        <ele>96</ele>
        <time>2022-04-02T11:59:24Z</time>
      </trkpt>
      <trkpt lat="47.30267" lon="-1.59719">
        <ele>96</ele>
        <time>2022-04-02T11:59:25Z</time>
      </trkpt>
      <trkpt lat="47.3026" lon="-1.5971">
        <ele>96</ele>
        <time>2022-04-02T11:59:26Z</time>
      </trkpt>
      <trkpt lat="47.30255" lon="-1.59699">
        <ele>96</ele>
        <time>2022-04-02T11:59:27Z</time>
      </trkpt>
      <trkpt lat="47.30249" lon="-1.59678">
        <ele>98</ele>
        <time>2022-04-02T11:59:29Z</time>
      </trkpt>
      <trkpt lat="47.30246" lon="-1.59659">
        <ele>99</ele>
        <time>2022-04-02T11:59:31Z</time>
      </trkpt>
      <trkpt lat="47.30244" lon="-1.5964">
        <ele>98</ele>
        <time>2022-04-02T11:59:33Z</time>
      </trkpt>
      <trkpt lat="47.30242" lon="-1.59622">
        <ele>98</ele>
        <time>2022-04-02T11:59:35Z</time>
      </trkpt>
      <trkpt lat="47.30238" lon="-1.59603">
        <ele>97</ele>
        <time>2022-04-02T11:59:37Z</time>
      </trkpt>
      <trkpt lat="47.30233" lon="-1.59583">
        <ele>95</ele>
        <time>2022-04-02T11:59:39Z</time>
      </trkpt>
      <trkpt lat="47.30227" lon="-1.59562">
        <ele>94</ele>
        <time>2022-04-02T11:59:41Z</time>
      </trkpt>
      <trkpt lat="47.30219" lon="-1.59541">
        <ele>93</ele>
        <time>2022-04-02T11:59:43Z</time>
      </trkpt>
      <trkpt lat="47.30213" lon="-1.5952">
        <ele>92</ele>
        <time>2022-04-02T11:59:45Z</time>
      </trkpt>
      <trkpt lat="47.30206" lon="-1.59499">
        <ele>91</ele>
        <time>2022-04-02T11:59:47Z</time>
      </trkpt>
      <trkpt lat="47.302" lon="-1.5948">
        <ele>91</ele>
        <time>2022-04-02T11:59:49Z</time>
      </trkpt>
      <trkpt lat="47.30195" lon="-1.59463">
        <ele>92</ele>
        <time>2022-04-02T11:59:51Z</time>
      </trkpt>
      <trkpt lat="47.3019" lon="-1.59446">
        <ele>93</ele>
        <time>2022-04-02T11:59:53Z</time>
      </trkpt>
      <trkpt lat="47.30184" lon="-1.59429">
        <ele>93</ele>
        <time>2022-04-02T11:59:55Z</time>
      </trkpt>
      <trkpt lat="47.30179" lon="-1.59413">
        <ele>94</ele>
        <time>2022-04-02T11:59:57Z</time>
      </trkpt>
      <trkpt lat="47.30173" lon="-1.59396">
        <ele>93</ele>
        <time>2022-04-02T11:59:59Z</time>
      </trkpt>
      <trkpt lat="47.30167" lon="-1.59378">
        <ele>92</ele>
        <time>2022-04-02T12:00:01Z</time>
      </trkpt>
      <trkpt lat="47.30161" lon="-1.59361">
        <ele>91</ele>
        <time>2022-04-02T12:00:03Z</time>
      </trkpt>
      <trkpt lat="47.30155" lon="-1.59342">
        <ele>90</ele>
        <time>2022-04-02T12:00:05Z</time>
      </trkpt>
      <trkpt lat="47.30149" lon="-1.59321">
        <ele>90</ele>
        <time>2022-04-02T12:00:07Z</time>
      </trkpt>
      <trkpt lat="47.30144" lon="-1.59301">
        <ele>90</ele>
        <time>2022-04-02T12:00:09Z</time>
      </trkpt>
      <trkpt lat="47.30139" lon="-1.59282">
        <ele>90</ele>
        <time>2022-04-02T12:00:11Z</time>
      </trkpt>
      <trkpt lat="47.30134" lon="-1.59263">
        <ele>91</ele>
        <time>2022-04-02T12:00:13Z</time>
      </trkpt>
      <trkpt lat="47.30129" lon="-1.59245">
        <ele>92</ele>
        <time>2022-04-02T12:00:15Z</time>
      </trkpt>
      <trkpt lat="47.30123" lon="-1.59228">
        <ele>92</ele>
        <time>2022-04-02T12:00:17Z</time>
      </trkpt>
      <trkpt lat="47.30116" lon="-1.59213">
        <ele>92</ele>
        <time>2022-04-02T12:00:19Z</time>
      </trkpt>
      <trkpt lat="47.30109" lon="-1.59198">
        <ele>92</ele>
        <time>2022-04-02T12:00:21Z</time>
      </trkpt>
      <trkpt lat="47.30101" lon="-1.59182">
        <ele>92</ele>
        <time>2022-04-02T12:00:23Z</time>
      </trkpt>
      <trkpt lat="47.30093" lon="-1.59167">
        <ele>93</ele>
        <time>2022-04-02T12:00:25Z</time>
      </trkpt>
      <trkpt lat="47.30084" lon="-1.59156">
        <ele>94</ele>
        <time>2022-04-02T12:00:27Z</time>
      </trkpt>
      <trkpt lat="47.30075" lon="-1.59148">
        <ele>95</ele>
        <time>2022-04-02T12:00:29Z</time>
      </trkpt>
      <trkpt lat="47.30068" lon="-1.59137">
        <ele>95</ele>
        <time>2022-04-02T12:00:31Z</time>
      </trkpt>
      <trkpt lat="47.30064" lon="-1.59119">
        <ele>95</ele>
        <time>2022-04-02T12:00:33Z</time>
      </trkpt>
      <trkpt lat="47.30058" lon="-1.59102">
        <ele>95</ele>
        <time>2022-04-02T12:00:35Z</time>
      </trkpt>
      <trkpt lat="47.3005" lon="-1.59086">
        <ele>94</ele>
        <time>2022-04-02T12:00:37Z</time>
      </trkpt>
      <trkpt lat="47.30043" lon="-1.5907">
        <ele>94</ele>
        <time>2022-04-02T12:00:39Z</time>
      </trkpt>
      <trkpt lat="47.30035" lon="-1.59053">
        <ele>94</ele>
        <time>2022-04-02T12:00:41Z</time>
      </trkpt>
      <trkpt lat="47.30028" lon="-1.59037">
        <ele>94</ele>
        <time>2022-04-02T12:00:43Z</time>
      </trkpt>
      <trkpt lat="47.3002" lon="-1.5902">
        <ele>94</ele>
        <time>2022-04-02T12:00:45Z</time>
      </trkpt>
      <trkpt lat="47.30012" lon="-1.59003">
        <ele>94</ele>
        <time>2022-04-02T12:00:47Z</time>
      </trkpt>
      <trkpt lat="47.30004" lon="-1.58986">
        <ele>94</ele>
        <time>2022-04-02T12:00:49Z</time>
      </trkpt>
      <trkpt lat="47.29996" lon="-1.5897">
        <ele>94</ele>
        <time>2022-04-02T12:00:51Z</time>
      </trkpt>
      <trkpt lat="47.29988" lon="-1.58953">
        <ele>94</ele>
        <time>2022-04-02T12:00:53Z</time>
      </trkpt>
      <trkpt lat="47.29982" lon="-1.58935">
        <ele>93</ele>
        <time>2022-04-02T12:00:55Z</time>
      </trkpt>
      <trkpt lat="47.29976" lon="-1.58916">
        <ele>93</ele>
        <time>2022-04-02T12:00:57Z</time>
      </trkpt>
      <trkpt lat="47.29973" lon="-1.58896">
        <ele>93</ele>
        <time>2022-04-02T12:00:59Z</time>
      </trkpt>
      <trkpt lat="47.29974" lon="-1.58873">
        <ele>91</ele>
        <time>2022-04-02T12:01:01Z</time>
      </trkpt>
      <trkpt lat="47.29975" lon="-1.58849">
        <ele>90</ele>
        <time>2022-04-02T12:01:03Z</time>
      </trkpt>
      <trkpt lat="47.29976" lon="-1.58825">
        <ele>89</ele>
        <time>2022-04-02T12:01:05Z</time>
      </trkpt>
      <trkpt lat="47.29978" lon="-1.588">
        <ele>87</ele>
        <time>2022-04-02T12:01:07Z</time>
      </trkpt>
      <trkpt lat="47.29978" lon="-1.58775">
        <ele>86</ele>
        <time>2022-04-02T12:01:09Z</time>
      </trkpt>
      <trkpt lat="47.29976" lon="-1.5875">
        <ele>85</ele>
        <time>2022-04-02T12:01:11Z</time>
      </trkpt>
      <trkpt lat="47.29973" lon="-1.58725">
        <ele>85</ele>
        <time>2022-04-02T12:01:13Z</time>
      </trkpt>
      <trkpt lat="47.29969" lon="-1.58701">
        <ele>85</ele>
        <time>2022-04-02T12:01:15Z</time>
      </trkpt>
      <trkpt lat="47.29964" lon="-1.58678">
        <ele>85</ele>
        <time>2022-04-02T12:01:17Z</time>
      </trkpt>
      <trkpt lat="47.2996" lon="-1.58654">
        <ele>84</ele>
        <time>2022-04-02T12:01:19Z</time>
      </trkpt>
      <trkpt lat="47.29956" lon="-1.58631">
        <ele>83</ele>
        <time>2022-04-02T12:01:21Z</time>
      </trkpt>
      <trkpt lat="47.29952" lon="-1.58609">
        <ele>82</ele>
        <time>2022-04-02T12:01:23Z</time>
      </trkpt>
      <trkpt lat="47.29948" lon="-1.58587">
        <ele>82</ele>
        <time>2022-04-02T12:01:25Z</time>
      </trkpt>
      <trkpt lat="47.29944" lon="-1.58565">
        <ele>81</ele>
        <time>2022-04-02T12:01:27Z</time>
      </trkpt>
      <trkpt lat="47.2994" lon="-1.58544">
        <ele>81</ele>
        <time>2022-04-02T12:01:29Z</time>
      </trkpt>
      <trkpt lat="47.29936" lon="-1.58524">
        <ele>81</ele>
        <time>2022-04-02T12:01:31Z</time>
      </trkpt>
      <trkpt lat="47.29932" lon="-1.58503">
        <ele>80</ele>
        <time>2022-04-02T12:01:33Z</time>
      </trkpt>
      <trkpt lat="47.2993" lon="-1.5848">
        <ele>80</ele>
        <time>2022-04-02T12:01:35Z</time>
      </trkpt>
      <trkpt lat="47.29928" lon="-1.58457">
        <ele>80</ele>
        <time>2022-04-02T12:01:37Z</time>
      </trkpt>
      <trkpt lat="47.29926" lon="-1.58434">
        <ele>79</ele>
        <time>2022-04-02T12:01:39Z</time>
      </trkpt>
      <trkpt lat="47.29924" lon="-1.5841">
        <ele>79</ele>
        <time>2022-04-02T12:01:41Z</time>
      </trkpt>
      <trkpt lat="47.29922" lon="-1.58386">
        <ele>79</ele>
        <time>2022-04-02T12:01:43Z</time>
      </trkpt>
      <trkpt lat="47.2992" lon="-1.58363">
        <ele>78</ele>
        <time>2022-04-02T12:01:45Z</time>
      </trkpt>
      <trkpt lat="47.29918" lon="-1.5834">
        <ele>78</ele>
        <time>2022-04-02T12:01:47Z</time>
      </trkpt>
      <trkpt lat="47.29917" lon="-1.58316">
        <ele>78</ele>
        <time>2022-04-02T12:01:49Z</time>
      </trkpt>
      <trkpt lat="47.29915" lon="-1.58292">
        <ele>78</ele>
        <time>2022-04-02T12:01:51Z</time>
      </trkpt>
      <trkpt lat="47.29913" lon="-1.58269">
        <ele>78</ele>
        <time>2022-04-02T12:01:53Z</time>
      </trkpt>
      <trkpt lat="47.29911" lon="-1.58245">
        <ele>77</ele>
        <time>2022-04-02T12:01:55Z</time>
      </trkpt>
      <trkpt lat="47.29909" lon="-1.58222">
        <ele>78</ele>
        <time>2022-04-02T12:01:57Z</time>
      </trkpt>
      <trkpt lat="47.29907" lon="-1.582">
        <ele>78</ele>
        <time>2022-04-02T12:01:59Z</time>
      </trkpt>
      <trkpt lat="47.29905" lon="-1.58178">
        <ele>77</ele>
        <time>2022-04-02T12:02:01Z</time>
      </trkpt>
      <trkpt lat="47.29903" lon="-1.58156">
        <ele>77</ele>
        <time>2022-04-02T12:02:03Z</time>
      </trkpt>
      <trkpt lat="47.29901" lon="-1.58134">
        <ele>77</ele>
        <time>2022-04-02T12:02:05Z</time>
      </trkpt>
      <trkpt lat="47.29899" lon="-1.58113">
        <ele>77</ele>
        <time>2022-04-02T12:02:07Z</time>
      </trkpt>
      <trkpt lat="47.29897" lon="-1.58092">
        <ele>78</ele>
        <time>2022-04-02T12:02:09Z</time>
      </trkpt>
      <trkpt lat="47.29895" lon="-1.58071">
        <ele>79</ele>
        <time>2022-04-02T12:02:11Z</time>
      </trkpt>
      <trkpt lat="47.29893" lon="-1.5805">
        <ele>79</ele>
        <time>2022-04-02T12:02:13Z</time>
      </trkpt>
      <trkpt lat="47.2989" lon="-1.58031">
        <ele>80</ele>
        <time>2022-04-02T12:02:15Z</time>
      </trkpt>
      <trkpt lat="47.29888" lon="-1.58009">
        <ele>80</ele>
        <time>2022-04-02T12:02:17Z</time>
      </trkpt>
      <trkpt lat="47.29887" lon="-1.57987">
        <ele>79</ele>
        <time>2022-04-02T12:02:19Z</time>
      </trkpt>
      <trkpt lat="47.29886" lon="-1.57966">
        <ele>79</ele>
        <time>2022-04-02T12:02:21Z</time>
      </trkpt>
      <trkpt lat="47.2989" lon="-1.57945">
        <ele>78</ele>
        <time>2022-04-02T12:02:23Z</time>
      </trkpt>
      <trkpt lat="47.29897" lon="-1.57928">
        <ele>78</ele>
        <time>2022-04-02T12:02:25Z</time>
      </trkpt>
      <trkpt lat="47.29904" lon="-1.57913">
        <ele>78</ele>
        <time>2022-04-02T12:02:27Z</time>
      </trkpt>
      <trkpt lat="47.29909" lon="-1.57894">
        <ele>79</ele>
        <time>2022-04-02T12:02:29Z</time>
      </trkpt>
      <trkpt lat="47.29913" lon="-1.57876">
        <ele>79</ele>
        <time>2022-04-02T12:02:31Z</time>
      </trkpt>
      <trkpt lat="47.29916" lon="-1.57858">
        <ele>79</ele>
        <time>2022-04-02T12:02:33Z</time>
      </trkpt>
      <trkpt lat="47.2992" lon="-1.5784">
        <ele>79</ele>
        <time>2022-04-02T12:02:35Z</time>
      </trkpt>
      <trkpt lat="47.29924" lon="-1.57823">
        <ele>79</ele>
        <time>2022-04-02T12:02:37Z</time>
      </trkpt>
      <trkpt lat="47.29928" lon="-1.57805">
        <ele>78</ele>
        <time>2022-04-02T12:02:39Z</time>
      </trkpt>
      <trkpt lat="47.29932" lon="-1.57787">
        <ele>78</ele>
        <time>2022-04-02T12:02:41Z</time>
      </trkpt>
      <trkpt lat="47.29936" lon="-1.57769">
        <ele>78</ele>
        <time>2022-04-02T12:02:43Z</time>
      </trkpt>
      <trkpt lat="47.29936" lon="-1.57749">
        <ele>78</ele>
        <time>2022-04-02T12:02:45Z</time>
      </trkpt>
      <trkpt lat="47.29932" lon="-1.57731">
        <ele>78</ele>
        <time>2022-04-02T12:02:47Z</time>
      </trkpt>
      <trkpt lat="47.29926" lon="-1.57716">
        <ele>78</ele>
        <time>2022-04-02T12:02:49Z</time>
      </trkpt>
      <trkpt lat="47.29918" lon="-1.57701">
        <ele>78</ele>
        <time>2022-04-02T12:02:51Z</time>
      </trkpt>
      <trkpt lat="47.29909" lon="-1.57688">
        <ele>78</ele>
        <time>2022-04-02T12:02:53Z</time>
      </trkpt>
      <trkpt lat="47.299" lon="-1.57674">
        <ele>78</ele>
        <time>2022-04-02T12:02:55Z</time>
      </trkpt>
      <trkpt lat="47.29891" lon="-1.57661">
        <ele>78</ele>
        <time>2022-04-02T12:02:57Z</time>
      </trkpt>
      <trkpt lat="47.29882" lon="-1.57647">
        <ele>78</ele>
        <time>2022-04-02T12:02:59Z</time>
      </trkpt>
      <trkpt lat="47.29873" lon="-1.57634">
        <ele>78</ele>
        <time>2022-04-02T12:03:01Z</time>
      </trkpt>
      <trkpt lat="47.29864" lon="-1.5762">
        <ele>78</ele>
        <time>2022-04-02T12:03:03Z</time>
      </trkpt>
      <trkpt lat="47.29855" lon="-1.57606">
        <ele>79</ele>
        <time>2022-04-02T12:03:05Z</time>
      </trkpt>
      <trkpt lat="47.29846" lon="-1.57593">
        <ele>79</ele>
        <time>2022-04-02T12:03:07Z</time>
      </trkpt>
      <trkpt lat="47.29837" lon="-1.57579">
        <ele>79</ele>
        <time>2022-04-02T12:03:09Z</time>
      </trkpt>
      <trkpt lat="47.29827" lon="-1.57564">
        <ele>79</ele>
        <time>2022-04-02T12:03:11Z</time>
      </trkpt>
      <trkpt lat="47.29818" lon="-1.5755">
        <ele>79</ele>
        <time>2022-04-02T12:03:13Z</time>
      </trkpt>
      <trkpt lat="47.29808" lon="-1.57536">
        <ele>79</ele>
        <time>2022-04-02T12:03:15Z</time>
      </trkpt>
      <trkpt lat="47.29799" lon="-1.57522">
        <ele>79</ele>
        <time>2022-04-02T12:03:17Z</time>
      </trkpt>
      <trkpt lat="47.2979" lon="-1.57507">
        <ele>80</ele>
        <time>2022-04-02T12:03:19Z</time>
      </trkpt>
      <trkpt lat="47.2978" lon="-1.57492">
        <ele>80</ele>
        <time>2022-04-02T12:03:21Z</time>
      </trkpt>
      <trkpt lat="47.29772" lon="-1.57476">
        <ele>80</ele>
        <time>2022-04-02T12:03:23Z</time>
      </trkpt>
      <trkpt lat="47.29767" lon="-1.57458">
        <ele>80</ele>
        <time>2022-04-02T12:03:25Z</time>
      </trkpt>
      <trkpt lat="47.29768" lon="-1.57438">
        <ele>80</ele>
        <time>2022-04-02T12:03:27Z</time>
      </trkpt>
      <trkpt lat="47.29772" lon="-1.5742">
        <ele>80</ele>
        <time>2022-04-02T12:03:29Z</time>
      </trkpt>
      <trkpt lat="47.29778" lon="-1.57403">
        <ele>79</ele>
        <time>2022-04-02T12:03:31Z</time>
      </trkpt>
      <trkpt lat="47.29786" lon="-1.57388">
        <ele>79</ele>
        <time>2022-04-02T12:03:33Z</time>
      </trkpt>
      <trkpt lat="47.29794" lon="-1.57372">
        <ele>78</ele>
        <time>2022-04-02T12:03:35Z</time>
      </trkpt>
      <trkpt lat="47.29803" lon="-1.57357">
        <ele>78</ele>
        <time>2022-04-02T12:03:37Z</time>
      </trkpt>
      <trkpt lat="47.29811" lon="-1.57341">
        <ele>78</ele>
        <time>2022-04-02T12:03:39Z</time>
      </trkpt>
      <trkpt lat="47.2982" lon="-1.57327">
        <ele>78</ele>
        <time>2022-04-02T12:03:41Z</time>
      </trkpt>
      <trkpt lat="47.29829" lon="-1.57311">
        <ele>78</ele>
        <time>2022-04-02T12:03:43Z</time>
      </trkpt>
      <trkpt lat="47.29838" lon="-1.57295">
        <ele>76</ele>
        <time>2022-04-02T12:03:45Z</time>
      </trkpt>
      <trkpt lat="47.29848" lon="-1.57279">
        <ele>76</ele>
        <time>2022-04-02T12:03:47Z</time>
      </trkpt>
      <trkpt lat="47.29857" lon="-1.57262">
        <ele>75</ele>
        <time>2022-04-02T12:03:49Z</time>
      </trkpt>
      <trkpt lat="47.29868" lon="-1.57242">
        <ele>74</ele>
        <time>2022-04-02T12:03:51Z</time>
      </trkpt>
      <trkpt lat="47.29874" lon="-1.57232">
        <ele>74</ele>
        <time>2022-04-02T12:03:52Z</time>
      </trkpt>
      <trkpt lat="47.29882" lon="-1.57209">
        <ele>72</ele>
        <time>2022-04-02T12:03:54Z</time>
      </trkpt>
      <trkpt lat="47.29884" lon="-1.57184">
        <ele>70</ele>
        <time>2022-04-02T12:03:56Z</time>
      </trkpt>
      <trkpt lat="47.29883" lon="-1.57171">
        <ele>69</ele>
        <time>2022-04-02T12:03:57Z</time>
      </trkpt>
      <trkpt lat="47.2988" lon="-1.57158">
        <ele>69</ele>
        <time>2022-04-02T12:03:58Z</time>
      </trkpt>
      <trkpt lat="47.29872" lon="-1.57135">
        <ele>67</ele>
        <time>2022-04-02T12:04:00Z</time>
      </trkpt>
      <trkpt lat="47.29864" lon="-1.57111">
        <ele>66</ele>
        <time>2022-04-02T12:04:02Z</time>
      </trkpt>
      <trkpt lat="47.2986" lon="-1.57099">
        <ele>66</ele>
        <time>2022-04-02T12:04:03Z</time>
      </trkpt>
      <trkpt lat="47.29856" lon="-1.57086">
        <ele>65</ele>
        <time>2022-04-02T12:04:04Z</time>
      </trkpt>
      <trkpt lat="47.29851" lon="-1.57074">
        <ele>64</ele>
        <time>2022-04-02T12:04:05Z</time>
      </trkpt>
      <trkpt lat="47.29847" lon="-1.57061">
        <ele>64</ele>
        <time>2022-04-02T12:04:06Z</time>
      </trkpt>
      <trkpt lat="47.29842" lon="-1.57048">
        <ele>63</ele>
        <time>2022-04-02T12:04:07Z</time>
      </trkpt>
      <trkpt lat="47.29838" lon="-1.57034">
        <ele>63</ele>
        <time>2022-04-02T12:04:08Z</time>
      </trkpt>
      <trkpt lat="47.29834" lon="-1.57021">
        <ele>62</ele>
        <time>2022-04-02T12:04:09Z</time>
      </trkpt>
      <trkpt lat="47.29831" lon="-1.57007">
        <ele>62</ele>
        <time>2022-04-02T12:04:10Z</time>
      </trkpt>
      <trkpt lat="47.29828" lon="-1.56992">
        <ele>61</ele>
        <time>2022-04-02T12:04:11Z</time>
      </trkpt>
      <trkpt lat="47.29828" lon="-1.56977">
        <ele>61</ele>
        <time>2022-04-02T12:04:12Z</time>
      </trkpt>
      <trkpt lat="47.29828" lon="-1.56961">
        <ele>60</ele>
        <time>2022-04-02T12:04:13Z</time>
      </trkpt>
      <trkpt lat="47.29829" lon="-1.56945">
        <ele>59</ele>
        <time>2022-04-02T12:04:14Z</time>
      </trkpt>
      <trkpt lat="47.29828" lon="-1.56928">
        <ele>58</ele>
        <time>2022-04-02T12:04:15Z</time>
      </trkpt>
      <trkpt lat="47.29825" lon="-1.56913">
        <ele>58</ele>
        <time>2022-04-02T12:04:16Z</time>
      </trkpt>
      <trkpt lat="47.2982" lon="-1.569">
        <ele>59</ele>
        <time>2022-04-02T12:04:17Z</time>
      </trkpt>
      <trkpt lat="47.29814" lon="-1.56888">
        <ele>59</ele>
        <time>2022-04-02T12:04:18Z</time>
      </trkpt>
      <trkpt lat="47.29808" lon="-1.56875">
        <ele>59</ele>
        <time>2022-04-02T12:04:19Z</time>
      </trkpt>
      <trkpt lat="47.29804" lon="-1.56862">
        <ele>58</ele>
        <time>2022-04-02T12:04:20Z</time>
      </trkpt>
      <trkpt lat="47.29801" lon="-1.56849">
        <ele>57</ele>
        <time>2022-04-02T12:04:21Z</time>
      </trkpt>
      <trkpt lat="47.298" lon="-1.56836">
        <ele>58</ele>
        <time>2022-04-02T12:04:22Z</time>
      </trkpt>
      <trkpt lat="47.29806" lon="-1.56816">
        <ele>58</ele>
        <time>2022-04-02T12:04:24Z</time>
      </trkpt>
      <trkpt lat="47.29818" lon="-1.56805">
        <ele>59</ele>
        <time>2022-04-02T12:04:26Z</time>
      </trkpt>
      <trkpt lat="47.29829" lon="-1.56798">
        <ele>59</ele>
        <time>2022-04-02T12:04:28Z</time>
      </trkpt>
      <trkpt lat="47.2984" lon="-1.56792">
        <ele>59</ele>
        <time>2022-04-02T12:04:30Z</time>
      </trkpt>
      <trkpt lat="47.29849" lon="-1.56788">
        <ele>60</ele>
        <time>2022-04-02T12:04:32Z</time>
      </trkpt>
      <trkpt lat="47.29862" lon="-1.56784">
        <ele>61</ele>
        <time>2022-04-02T12:04:35Z</time>
      </trkpt>
      <trkpt lat="47.29871" lon="-1.56781">
        <ele>63</ele>
        <time>2022-04-02T12:04:37Z</time>
      </trkpt>
      <trkpt lat="47.29882" lon="-1.56774">
        <ele>65</ele>
        <time>2022-04-02T12:04:40Z</time>
      </trkpt>
      <trkpt lat="47.29893" lon="-1.56767">
        <ele>67</ele>
        <time>2022-04-02T12:04:43Z</time>
      </trkpt>
      <trkpt lat="47.29903" lon="-1.56758">
        <ele>68</ele>
        <time>2022-04-02T12:04:46Z</time>
      </trkpt>
      <trkpt lat="47.29911" lon="-1.56748">
        <ele>68</ele>
        <time>2022-04-02T12:04:48Z</time>
      </trkpt>
      <trkpt lat="47.29918" lon="-1.56735">
        <ele>68</ele>
        <time>2022-04-02T12:04:50Z</time>
      </trkpt>
      <trkpt lat="47.29922" lon="-1.56722">
        <ele>67</ele>
        <time>2022-04-02T12:04:52Z</time>
      </trkpt>
      <trkpt lat="47.29923" lon="-1.56703">
        <ele>67</ele>
        <time>2022-04-02T12:04:55Z</time>
      </trkpt>
      <trkpt lat="47.29918" lon="-1.56685">
        <ele>69</ele>
        <time>2022-04-02T12:04:58Z</time>
      </trkpt>
      <trkpt lat="47.2991" lon="-1.5667">
        <ele>69</ele>
        <time>2022-04-02T12:05:01Z</time>
      </trkpt>
      <trkpt lat="47.29902" lon="-1.56654">
        <ele>70</ele>
        <time>2022-04-02T12:05:04Z</time>
      </trkpt>
      <trkpt lat="47.29896" lon="-1.56644">
        <ele>70</ele>
        <time>2022-04-02T12:05:06Z</time>
      </trkpt>
      <trkpt lat="47.29891" lon="-1.56632">
        <ele>71</ele>
        <time>2022-04-02T12:05:08Z</time>
      </trkpt>
      <trkpt lat="47.29883" lon="-1.56618">
        <ele>71</ele>
        <time>2022-04-02T12:05:11Z</time>
      </trkpt>
      <trkpt lat="47.29876" lon="-1.56603">
        <ele>72</ele>
        <time>2022-04-02T12:05:14Z</time>
      </trkpt>
      <trkpt lat="47.29868" lon="-1.56588">
        <ele>73</ele>
        <time>2022-04-02T12:05:17Z</time>
      </trkpt>
      <trkpt lat="47.2986" lon="-1.56573">
        <ele>73</ele>
        <time>2022-04-02T12:05:20Z</time>
      </trkpt>
      <trkpt lat="47.29852" lon="-1.56557">
        <ele>73</ele>
        <time>2022-04-02T12:05:23Z</time>
      </trkpt>
      <trkpt lat="47.29846" lon="-1.56547">
        <ele>73</ele>
        <time>2022-04-02T12:05:25Z</time>
      </trkpt>
      <trkpt lat="47.29838" lon="-1.56532">
        <ele>73</ele>
        <time>2022-04-02T12:05:28Z</time>
      </trkpt>
      <trkpt lat="47.2983" lon="-1.56517">
        <ele>74</ele>
        <time>2022-04-02T12:05:31Z</time>
      </trkpt>
      <trkpt lat="47.29822" lon="-1.56502">
        <ele>74</ele>
        <time>2022-04-02T12:05:34Z</time>
      </trkpt>
      <trkpt lat="47.29815" lon="-1.56486">
        <ele>75</ele>
        <time>2022-04-02T12:05:37Z</time>
      </trkpt>
      <trkpt lat="47.29811" lon="-1.56474">
        <ele>75</ele>
        <time>2022-04-02T12:05:39Z</time>
      </trkpt>
      <trkpt lat="47.29809" lon="-1.56461">
        <ele>76</ele>
        <time>2022-04-02T12:05:41Z</time>
      </trkpt>
      <trkpt lat="47.29807" lon="-1.56441">
        <ele>76</ele>
        <time>2022-04-02T12:05:44Z</time>
      </trkpt>
      <trkpt lat="47.29809" lon="-1.56428">
        <ele>77</ele>
        <time>2022-04-02T12:05:46Z</time>
      </trkpt>
      <trkpt lat="47.29812" lon="-1.56415">
        <ele>77</ele>
        <time>2022-04-02T12:05:48Z</time>
      </trkpt>
      <trkpt lat="47.29816" lon="-1.56403">
        <ele>78</ele>
        <time>2022-04-02T12:05:50Z</time>
      </trkpt>
      <trkpt lat="47.29821" lon="-1.56391">
        <ele>78</ele>
        <time>2022-04-02T12:05:52Z</time>
      </trkpt>
      <trkpt lat="47.29826" lon="-1.5638">
        <ele>78</ele>
        <time>2022-04-02T12:05:54Z</time>
      </trkpt>
      <trkpt lat="47.29832" lon="-1.5637">
        <ele>78</ele>
        <time>2022-04-02T12:05:56Z</time>
      </trkpt>
      <trkpt lat="47.29837" lon="-1.56359">
        <ele>78</ele>
        <time>2022-04-02T12:05:58Z</time>
      </trkpt>
      <trkpt lat="47.29845" lon="-1.56344">
        <ele>78</ele>
        <time>2022-04-02T12:06:01Z</time>
      </trkpt>
      <trkpt lat="47.29853" lon="-1.56328">
        <ele>79</ele>
        <time>2022-04-02T12:06:04Z</time>
      </trkpt>
      <trkpt lat="47.29861" lon="-1.56312">
        <ele>79</ele>
        <time>2022-04-02T12:06:07Z</time>
      </trkpt>
      <trkpt lat="47.29869" lon="-1.56297">
        <ele>79</ele>
        <time>2022-04-02T12:06:10Z</time>
      </trkpt>
      <trkpt lat="47.29874" lon="-1.56286">
        <ele>79</ele>
        <time>2022-04-02T12:06:12Z</time>
      </trkpt>
      <trkpt lat="47.2988" lon="-1.56274">
        <ele>79</ele>
        <time>2022-04-02T12:06:14Z</time>
      </trkpt>
      <trkpt lat="47.29885" lon="-1.56263">
        <ele>79</ele>
        <time>2022-04-02T12:06:16Z</time>
      </trkpt>
      <trkpt lat="47.29891" lon="-1.56252">
        <ele>79</ele>
        <time>2022-04-02T12:06:18Z</time>
      </trkpt>
      <trkpt lat="47.29897" lon="-1.56239">
        <ele>79</ele>
        <time>2022-04-02T12:06:20Z</time>
      </trkpt>
      <trkpt lat="47.29903" lon="-1.56226">
        <ele>79</ele>
        <time>2022-04-02T12:06:22Z</time>
      </trkpt>
      <trkpt lat="47.2991" lon="-1.56212">
        <ele>79</ele>
        <time>2022-04-02T12:06:24Z</time>
      </trkpt>
      <trkpt lat="47.29916" lon="-1.56197">
        <ele>78</ele>
        <time>2022-04-02T12:06:26Z</time>
      </trkpt>
      <trkpt lat="47.29921" lon="-1.56181">
        <ele>78</ele>
        <time>2022-04-02T12:06:28Z</time>
      </trkpt>
      <trkpt lat="47.29925" lon="-1.56164">
        <ele>78</ele>
        <time>2022-04-02T12:06:30Z</time>
      </trkpt>
      <trkpt lat="47.29929" lon="-1.56146">
        <ele>78</ele>
        <time>2022-04-02T12:06:32Z</time>
      </trkpt>
      <trkpt lat="47.29932" lon="-1.56127">
        <ele>77</ele>
        <time>2022-04-02T12:06:34Z</time>
      </trkpt>
      <trkpt lat="47.29934" lon="-1.56108">
        <ele>77</ele>
        <time>2022-04-02T12:06:36Z</time>
      </trkpt>
      <trkpt lat="47.29936" lon="-1.56089">
        <ele>77</ele>
        <time>2022-04-02T12:06:38Z</time>
      </trkpt>
      <trkpt lat="47.29937" lon="-1.5607">
        <ele>76</ele>
        <time>2022-04-02T12:06:40Z</time>
      </trkpt>
      <trkpt lat="47.29937" lon="-1.56051">
        <ele>76</ele>
        <time>2022-04-02T12:06:42Z</time>
      </trkpt>
      <trkpt lat="47.29938" lon="-1.56032">
        <ele>76</ele>
        <time>2022-04-02T12:06:44Z</time>
      </trkpt>
      <trkpt lat="47.2994" lon="-1.56013">
        <ele>76</ele>
        <time>2022-04-02T12:06:46Z</time>
      </trkpt>
      <trkpt lat="47.29941" lon="-1.55995">
        <ele>76</ele>
        <time>2022-04-02T12:06:48Z</time>
      </trkpt>
      <trkpt lat="47.29942" lon="-1.55977">
        <ele>76</ele>
        <time>2022-04-02T12:06:50Z</time>
      </trkpt>
      <trkpt lat="47.29943" lon="-1.55959">
        <ele>76</ele>
        <time>2022-04-02T12:06:52Z</time>
      </trkpt>
      <trkpt lat="47.29944" lon="-1.5594">
        <ele>76</ele>
        <time>2022-04-02T12:06:54Z</time>
      </trkpt>
      <trkpt lat="47.29944" lon="-1.55921">
        <ele>76</ele>
        <time>2022-04-02T12:06:56Z</time>
      </trkpt>
      <trkpt lat="47.29946" lon="-1.55903">
        <ele>76</ele>
        <time>2022-04-02T12:06:58Z</time>
      </trkpt>
      <trkpt lat="47.29947" lon="-1.55884">
        <ele>77</ele>
        <time>2022-04-02T12:07:00Z</time>
      </trkpt>
      <trkpt lat="47.2995" lon="-1.55865">
        <ele>77</ele>
        <time>2022-04-02T12:07:02Z</time>
      </trkpt>
      <trkpt lat="47.29952" lon="-1.55845">
        <ele>77</ele>
        <time>2022-04-02T12:07:04Z</time>
      </trkpt>
      <trkpt lat="47.29954" lon="-1.55826">
        <ele>76</ele>
        <time>2022-04-02T12:07:06Z</time>
      </trkpt>
      <trkpt lat="47.29957" lon="-1.55808">
        <ele>76</ele>
        <time>2022-04-02T12:07:08Z</time>
      </trkpt>
      <trkpt lat="47.2996" lon="-1.55789">
        <ele>76</ele>
        <time>2022-04-02T12:07:10Z</time>
      </trkpt>
      <trkpt lat="47.29963" lon="-1.5577">
        <ele>76</ele>
        <time>2022-04-02T12:07:12Z</time>
      </trkpt>
      <trkpt lat="47.29967" lon="-1.55751">
        <ele>76</ele>
        <time>2022-04-02T12:07:14Z</time>
      </trkpt>
      <trkpt lat="47.29972" lon="-1.55733">
        <ele>75</ele>
        <time>2022-04-02T12:07:16Z</time>
      </trkpt>
      <trkpt lat="47.29977" lon="-1.55714">
        <ele>75</ele>
        <time>2022-04-02T12:07:18Z</time>
      </trkpt>
      <trkpt lat="47.29981" lon="-1.55695">
        <ele>75</ele>
        <time>2022-04-02T12:07:20Z</time>
      </trkpt>
      <trkpt lat="47.29984" lon="-1.55676">
        <ele>75</ele>
        <time>2022-04-02T12:07:22Z</time>
      </trkpt>
      <trkpt lat="47.29988" lon="-1.55657">
        <ele>75</ele>
        <time>2022-04-02T12:07:24Z</time>
      </trkpt>
      <trkpt lat="47.29992" lon="-1.55638">
        <ele>74</ele>
        <time>2022-04-02T12:07:26Z</time>
      </trkpt>
      <trkpt lat="47.29995" lon="-1.5562">
        <ele>74</ele>
        <time>2022-04-02T12:07:28Z</time>
      </trkpt>
      <trkpt lat="47.29994" lon="-1.55604">
        <ele>74</ele>
        <time>2022-04-02T12:07:30Z</time>
      </trkpt>
      <trkpt lat="47.29995" lon="-1.55588">
        <ele>74</ele>
        <time>2022-04-02T12:07:32Z</time>
      </trkpt>
      <trkpt lat="47.29997" lon="-1.55571">
        <ele>73</ele>
        <time>2022-04-02T12:07:34Z</time>
      </trkpt>
      <trkpt lat="47.29999" lon="-1.55553">
        <ele>74</ele>
        <time>2022-04-02T12:07:36Z</time>
      </trkpt>
      <trkpt lat="47.3" lon="-1.55533">
        <ele>74</ele>
        <time>2022-04-02T12:07:38Z</time>
      </trkpt>
      <trkpt lat="47.3" lon="-1.55514">
        <ele>74</ele>
        <time>2022-04-02T12:07:40Z</time>
      </trkpt>
      <trkpt lat="47.29999" lon="-1.55494">
        <ele>73</ele>
        <time>2022-04-02T12:07:42Z</time>
      </trkpt>
      <trkpt lat="47.29997" lon="-1.55475">
        <ele>73</ele>
        <time>2022-04-02T12:07:44Z</time>
      </trkpt>
      <trkpt lat="47.29996" lon="-1.55454">
        <ele>73</ele>
        <time>2022-04-02T12:07:46Z</time>
      </trkpt>
      <trkpt lat="47.29995" lon="-1.55434">
        <ele>72</ele>
        <time>2022-04-02T12:07:48Z</time>
      </trkpt>
      <trkpt lat="47.29993" lon="-1.55413">
        <ele>72</ele>
        <time>2022-04-02T12:07:50Z</time>
      </trkpt>
      <trkpt lat="47.29991" lon="-1.55392">
        <ele>72</ele>
        <time>2022-04-02T12:07:52Z</time>
      </trkpt>
      <trkpt lat="47.29989" lon="-1.5537">
        <ele>71</ele>
        <time>2022-04-02T12:07:54Z</time>
      </trkpt>
      <trkpt lat="47.29985" lon="-1.55349">
        <ele>71</ele>
        <time>2022-04-02T12:07:56Z</time>
      </trkpt>
      <trkpt lat="47.29978" lon="-1.55331">
        <ele>70</ele>
        <time>2022-04-02T12:07:58Z</time>
      </trkpt>
      <trkpt lat="47.29965" lon="-1.55319">
        <ele>70</ele>
        <time>2022-04-02T12:08:00Z</time>
      </trkpt>
      <trkpt lat="47.29954" lon="-1.55307">
        <ele>70</ele>
        <time>2022-04-02T12:08:02Z</time>
      </trkpt>
      <trkpt lat="47.29946" lon="-1.5529">
        <ele>70</ele>
        <time>2022-04-02T12:08:04Z</time>
      </trkpt>
      <trkpt lat="47.29941" lon="-1.5527">
        <ele>69</ele>
        <time>2022-04-02T12:08:06Z</time>
      </trkpt>
      <trkpt lat="47.29935" lon="-1.55251">
        <ele>69</ele>
        <time>2022-04-02T12:08:08Z</time>
      </trkpt>
      <trkpt lat="47.2993" lon="-1.55233">
        <ele>70</ele>
        <time>2022-04-02T12:08:10Z</time>
      </trkpt>
      <trkpt lat="47.29925" lon="-1.55215">
        <ele>70</ele>
        <time>2022-04-02T12:08:12Z</time>
      </trkpt>
      <trkpt lat="47.2992" lon="-1.55198">
        <ele>70</ele>
        <time>2022-04-02T12:08:14Z</time>
      </trkpt>
      <trkpt lat="47.29915" lon="-1.5518">
        <ele>70</ele>
        <time>2022-04-02T12:08:16Z</time>
      </trkpt>
      <trkpt lat="47.29911" lon="-1.55163">
        <ele>71</ele>
        <time>2022-04-02T12:08:18Z</time>
      </trkpt>
      <trkpt lat="47.29907" lon="-1.55144">
        <ele>71</ele>
        <time>2022-04-02T12:08:20Z</time>
      </trkpt>
      <trkpt lat="47.29904" lon="-1.55126">
        <ele>71</ele>
        <time>2022-04-02T12:08:22Z</time>
      </trkpt>
      <trkpt lat="47.29903" lon="-1.55108">
        <ele>71</ele>
        <time>2022-04-02T12:08:24Z</time>
      </trkpt>
      <trkpt lat="47.29903" lon="-1.55091">
        <ele>72</ele>
        <time>2022-04-02T12:08:26Z</time>
      </trkpt>
      <trkpt lat="47.29904" lon="-1.55074">
        <ele>73</ele>
        <time>2022-04-02T12:08:28Z</time>
      </trkpt>
      <trkpt lat="47.29906" lon="-1.55059">
        <ele>73</ele>
        <time>2022-04-02T12:08:30Z</time>
      </trkpt>
      <trkpt lat="47.29906" lon="-1.55045">
        <ele>73</ele>
        <time>2022-04-02T12:08:32Z</time>
      </trkpt>
      <trkpt lat="47.29905" lon="-1.55031">
        <ele>73</ele>
        <time>2022-04-02T12:08:34Z</time>
      </trkpt>
      <trkpt lat="47.29911" lon="-1.5502">
        <ele>73</ele>
        <time>2022-04-02T12:08:36Z</time>
      </trkpt>
      <trkpt lat="47.29915" lon="-1.55003">
        <ele>74</ele>
        <time>2022-04-02T12:08:39Z</time>
      </trkpt>
      <trkpt lat="47.29911" lon="-1.5499">
        <ele>74</ele>
        <time>2022-04-02T12:08:41Z</time>
      </trkpt>
      <trkpt lat="47.29909" lon="-1.54977">
        <ele>74</ele>
        <time>2022-04-02T12:08:43Z</time>
      </trkpt>
      <trkpt lat="47.29912" lon="-1.5496">
        <ele>73</ele>
        <time>2022-04-02T12:08:46Z</time>
      </trkpt>
      <trkpt lat="47.29906" lon="-1.54949">
        <ele>73</ele>
        <time>2022-04-02T12:08:48Z</time>
      </trkpt>
      <trkpt lat="47.299" lon="-1.54936">
        <ele>73</ele>
        <time>2022-04-02T12:08:50Z</time>
      </trkpt>
      <trkpt lat="47.29895" lon="-1.54923">
        <ele>74</ele>
        <time>2022-04-02T12:08:52Z</time>
      </trkpt>
      <trkpt lat="47.2989" lon="-1.54908">
        <ele>73</ele>
        <time>2022-04-02T12:08:54Z</time>
      </trkpt>
      <trkpt lat="47.29885" lon="-1.54892">
        <ele>73</ele>
        <time>2022-04-02T12:08:56Z</time>
      </trkpt>
      <trkpt lat="47.29881" lon="-1.54876">
        <ele>72</ele>
        <time>2022-04-02T12:08:59Z</time>
      </trkpt>
      <trkpt lat="47.29868" lon="-1.54881">
        <ele>72</ele>
        <time>2022-04-02T12:09:02Z</time>
      </trkpt>
      <trkpt lat="47.29857" lon="-1.54882">
        <ele>71</ele>
        <time>2022-04-02T12:09:04Z</time>
      </trkpt>
      <trkpt lat="47.29844" lon="-1.54878">
        <ele>71</ele>
        <time>2022-04-02T12:09:06Z</time>
      </trkpt>
      <trkpt lat="47.29836" lon="-1.54865">
        <ele>71</ele>
        <time>2022-04-02T12:09:08Z</time>
      </trkpt>
      <trkpt lat="47.29832" lon="-1.54851">
        <ele>70</ele>
        <time>2022-04-02T12:09:10Z</time>
      </trkpt>
      <trkpt lat="47.29825" lon="-1.5484">
        <ele>70</ele>
        <time>2022-04-02T12:09:13Z</time>
      </trkpt>
      <trkpt lat="47.29815" lon="-1.54843">
        <ele>70</ele>
        <time>2022-04-02T12:09:15Z</time>
      </trkpt>
      <trkpt lat="47.29803" lon="-1.54845">
        <ele>70</ele>
        <time>2022-04-02T12:09:17Z</time>
      </trkpt>
      <trkpt lat="47.29792" lon="-1.5484">
        <ele>69</ele>
        <time>2022-04-02T12:09:19Z</time>
      </trkpt>
      <trkpt lat="47.29779" lon="-1.54838">
        <ele>70</ele>
        <time>2022-04-02T12:09:21Z</time>
      </trkpt>
      <trkpt lat="47.29767" lon="-1.54842">
        <ele>70</ele>
        <time>2022-04-02T12:09:23Z</time>
      </trkpt>
      <trkpt lat="47.29755" lon="-1.54845">
        <ele>70</ele>
        <time>2022-04-02T12:09:25Z</time>
      </trkpt>
      <trkpt lat="47.29744" lon="-1.54847">
        <ele>70</ele>
        <time>2022-04-02T12:09:27Z</time>
      </trkpt>
      <trkpt lat="47.29733" lon="-1.5485">
        <ele>71</ele>
        <time>2022-04-02T12:09:29Z</time>
      </trkpt>
      <trkpt lat="47.29724" lon="-1.54852">
        <ele>71</ele>
        <time>2022-04-02T12:09:32Z</time>
      </trkpt>
      <trkpt lat="47.29711" lon="-1.54857">
        <ele>71</ele>
        <time>2022-04-02T12:09:35Z</time>
      </trkpt>
      <trkpt lat="47.297" lon="-1.54856">
        <ele>70</ele>
        <time>2022-04-02T12:09:37Z</time>
      </trkpt>
      <trkpt lat="47.29688" lon="-1.54859">
        <ele>70</ele>
        <time>2022-04-02T12:09:39Z</time>
      </trkpt>
      <trkpt lat="47.29676" lon="-1.54862">
        <ele>70</ele>
        <time>2022-04-02T12:09:41Z</time>
      </trkpt>
      <trkpt lat="47.29663" lon="-1.54866">
        <ele>70</ele>
        <time>2022-04-02T12:09:43Z</time>
      </trkpt>
      <trkpt lat="47.2965" lon="-1.54868">
        <ele>70</ele>
        <time>2022-04-02T12:09:45Z</time>
      </trkpt>
      <trkpt lat="47.29638" lon="-1.5487">
        <ele>70</ele>
        <time>2022-04-02T12:09:47Z</time>
      </trkpt>
      <trkpt lat="47.29626" lon="-1.54872">
        <ele>70</ele>
        <time>2022-04-02T12:09:49Z</time>
      </trkpt>
      <trkpt lat="47.29614" lon="-1.54875">
        <ele>71</ele>
        <time>2022-04-02T12:09:51Z</time>
      </trkpt>
      <trkpt lat="47.29603" lon="-1.54881">
        <ele>71</ele>
        <time>2022-04-02T12:09:53Z</time>
      </trkpt>
      <trkpt lat="47.29592" lon="-1.54885">
        <ele>71</ele>
        <time>2022-04-02T12:09:55Z</time>
      </trkpt>
      <trkpt lat="47.29578" lon="-1.54887">
        <ele>71</ele>
        <time>2022-04-02T12:09:57Z</time>
      </trkpt>
      <trkpt lat="47.29564" lon="-1.54888">
        <ele>71</ele>
        <time>2022-04-02T12:09:59Z</time>
      </trkpt>
      <trkpt lat="47.29553" lon="-1.54889">
        <ele>71</ele>
        <time>2022-04-02T12:10:01Z</time>
      </trkpt>
      <trkpt lat="47.29542" lon="-1.54888">
        <ele>72</ele>
        <time>2022-04-02T12:10:03Z</time>
      </trkpt>
      <trkpt lat="47.2953" lon="-1.54889">
        <ele>72</ele>
        <time>2022-04-02T12:10:05Z</time>
      </trkpt>
      <trkpt lat="47.29518" lon="-1.54889">
        <ele>72</ele>
        <time>2022-04-02T12:10:07Z</time>
      </trkpt>
      <trkpt lat="47.29507" lon="-1.5489">
        <ele>72</ele>
        <time>2022-04-02T12:10:09Z</time>
      </trkpt>
      <trkpt lat="47.29495" lon="-1.54891">
        <ele>72</ele>
        <time>2022-04-02T12:10:11Z</time>
      </trkpt>
      <trkpt lat="47.29484" lon="-1.54892">
        <ele>72</ele>
        <time>2022-04-02T12:10:13Z</time>
      </trkpt>
      <trkpt lat="47.29472" lon="-1.54891">
        <ele>72</ele>
        <time>2022-04-02T12:10:15Z</time>
      </trkpt>
      <trkpt lat="47.29462" lon="-1.54888">
        <ele>73</ele>
        <time>2022-04-02T12:10:17Z</time>
      </trkpt>
      <trkpt lat="47.29451" lon="-1.54888">
        <ele>73</ele>
        <time>2022-04-02T12:10:19Z</time>
      </trkpt>
      <trkpt lat="47.2944" lon="-1.54889">
        <ele>73</ele>
        <time>2022-04-02T12:10:21Z</time>
      </trkpt>
      <trkpt lat="47.29429" lon="-1.5489">
        <ele>73</ele>
        <time>2022-04-02T12:10:23Z</time>
      </trkpt>
      <trkpt lat="47.29418" lon="-1.5489">
        <ele>74</ele>
        <time>2022-04-02T12:10:25Z</time>
      </trkpt>
      <trkpt lat="47.29407" lon="-1.54891">
        <ele>74</ele>
        <time>2022-04-02T12:10:27Z</time>
      </trkpt>
      <trkpt lat="47.29396" lon="-1.54891">
        <ele>74</ele>
        <time>2022-04-02T12:10:29Z</time>
      </trkpt>
      <trkpt lat="47.29384" lon="-1.54892">
        <ele>74</ele>
        <time>2022-04-02T12:10:31Z</time>
      </trkpt>
      <trkpt lat="47.29373" lon="-1.54892">
        <ele>74</ele>
        <time>2022-04-02T12:10:33Z</time>
      </trkpt>
      <trkpt lat="47.29362" lon="-1.54893">
        <ele>74</ele>
        <time>2022-04-02T12:10:35Z</time>
      </trkpt>
      <trkpt lat="47.29352" lon="-1.54897">
        <ele>75</ele>
        <time>2022-04-02T12:10:37Z</time>
      </trkpt>
      <trkpt lat="47.29345" lon="-1.54906">
        <ele>75</ele>
        <time>2022-04-02T12:10:39Z</time>
      </trkpt>
      <trkpt lat="47.29337" lon="-1.54914">
        <ele>75</ele>
        <time>2022-04-02T12:10:41Z</time>
      </trkpt>
      <trkpt lat="47.29325" lon="-1.54916">
        <ele>75</ele>
        <time>2022-04-02T12:10:43Z</time>
      </trkpt>
      <trkpt lat="47.29314" lon="-1.54918">
        <ele>75</ele>
        <time>2022-04-02T12:10:45Z</time>
      </trkpt>
      <trkpt lat="47.29302" lon="-1.54919">
        <ele>75</ele>
        <time>2022-04-02T12:10:47Z</time>
      </trkpt>
      <trkpt lat="47.2929" lon="-1.54918">
        <ele>75</ele>
        <time>2022-04-02T12:10:49Z</time>
      </trkpt>
      <trkpt lat="47.29276" lon="-1.54918">
        <ele>75</ele>
        <time>2022-04-02T12:10:51Z</time>
      </trkpt>
      <trkpt lat="47.29263" lon="-1.54919">
        <ele>75</ele>
        <time>2022-04-02T12:10:53Z</time>
      </trkpt>
      <trkpt lat="47.29249" lon="-1.54921">
        <ele>75</ele>
        <time>2022-04-02T12:10:55Z</time>
      </trkpt>
      <trkpt lat="47.29236" lon="-1.54915">
        <ele>75</ele>
        <time>2022-04-02T12:10:57Z</time>
      </trkpt>
      <trkpt lat="47.29226" lon="-1.54906">
        <ele>75</ele>
        <time>2022-04-02T12:10:59Z</time>
      </trkpt>
      <trkpt lat="47.29214" lon="-1.54904">
        <ele>75</ele>
        <time>2022-04-02T12:11:01Z</time>
      </trkpt>
      <trkpt lat="47.29199" lon="-1.54905">
        <ele>76</ele>
        <time>2022-04-02T12:11:03Z</time>
      </trkpt>
      <trkpt lat="47.29183" lon="-1.54906">
        <ele>77</ele>
        <time>2022-04-02T12:11:05Z</time>
      </trkpt>
      <trkpt lat="47.29167" lon="-1.54908">
        <ele>78</ele>
        <time>2022-04-02T12:11:07Z</time>
      </trkpt>
      <trkpt lat="47.29151" lon="-1.5491">
        <ele>79</ele>
        <time>2022-04-02T12:11:09Z</time>
      </trkpt>
      <trkpt lat="47.29136" lon="-1.5491">
        <ele>80</ele>
        <time>2022-04-02T12:11:11Z</time>
      </trkpt>
      <trkpt lat="47.2912" lon="-1.5491">
        <ele>81</ele>
        <time>2022-04-02T12:11:13Z</time>
      </trkpt>
      <trkpt lat="47.29104" lon="-1.5491">
        <ele>81</ele>
        <time>2022-04-02T12:11:15Z</time>
      </trkpt>
      <trkpt lat="47.29088" lon="-1.54911">
        <ele>82</ele>
        <time>2022-04-02T12:11:17Z</time>
      </trkpt>
      <trkpt lat="47.29075" lon="-1.54911">
        <ele>83</ele>
        <time>2022-04-02T12:11:19Z</time>
      </trkpt>
      <trkpt lat="47.29059" lon="-1.54912">
        <ele>82</ele>
        <time>2022-04-02T12:11:21Z</time>
      </trkpt>
      <trkpt lat="47.29044" lon="-1.54915">
        <ele>79</ele>
        <time>2022-04-02T12:11:23Z</time>
      </trkpt>
      <trkpt lat="47.29038" lon="-1.54925">
        <ele>77</ele>
        <time>2022-04-02T12:11:25Z</time>
      </trkpt>
      <trkpt lat="47.29024" lon="-1.54931">
        <ele>75</ele>
        <time>2022-04-02T12:11:28Z</time>
      </trkpt>
      <trkpt lat="47.29011" lon="-1.54936">
        <ele>73</ele>
        <time>2022-04-02T12:11:30Z</time>
      </trkpt>
      <trkpt lat="47.28998" lon="-1.5494">
        <ele>72</ele>
        <time>2022-04-02T12:11:32Z</time>
      </trkpt>
      <trkpt lat="47.28986" lon="-1.54933">
        <ele>71</ele>
        <time>2022-04-02T12:11:34Z</time>
      </trkpt>
      <trkpt lat="47.28975" lon="-1.54928">
        <ele>72</ele>
        <time>2022-04-02T12:11:36Z</time>
      </trkpt>
      <trkpt lat="47.28965" lon="-1.54925">
        <ele>72</ele>
        <time>2022-04-02T12:11:38Z</time>
      </trkpt>
      <trkpt lat="47.28953" lon="-1.54924">
        <ele>73</ele>
        <time>2022-04-02T12:11:40Z</time>
      </trkpt>
      <trkpt lat="47.28941" lon="-1.54924">
        <ele>73</ele>
        <time>2022-04-02T12:11:42Z</time>
      </trkpt>
      <trkpt lat="47.28928" lon="-1.54925">
        <ele>74</ele>
        <time>2022-04-02T12:11:44Z</time>
      </trkpt>
      <trkpt lat="47.28915" lon="-1.54927">
        <ele>74</ele>
        <time>2022-04-02T12:11:46Z</time>
      </trkpt>
      <trkpt lat="47.28901" lon="-1.5493">
        <ele>73</ele>
        <time>2022-04-02T12:11:48Z</time>
      </trkpt>
      <trkpt lat="47.28887" lon="-1.54932">
        <ele>74</ele>
        <time>2022-04-02T12:11:50Z</time>
      </trkpt>
      <trkpt lat="47.28874" lon="-1.54935">
        <ele>73</ele>
        <time>2022-04-02T12:11:52Z</time>
      </trkpt>
      <trkpt lat="47.28861" lon="-1.54937">
        <ele>73</ele>
        <time>2022-04-02T12:11:54Z</time>
      </trkpt>
      <trkpt lat="47.28849" lon="-1.5494">
        <ele>73</ele>
        <time>2022-04-02T12:11:56Z</time>
      </trkpt>
      <trkpt lat="47.28837" lon="-1.54942">
        <ele>73</ele>
        <time>2022-04-02T12:11:58Z</time>
      </trkpt>
      <trkpt lat="47.28825" lon="-1.54943">
        <ele>72</ele>
        <time>2022-04-02T12:12:00Z</time>
      </trkpt>
      <trkpt lat="47.28811" lon="-1.54945">
        <ele>72</ele>
        <time>2022-04-02T12:12:02Z</time>
      </trkpt>
      <trkpt lat="47.28798" lon="-1.54947">
        <ele>72</ele>
        <time>2022-04-02T12:12:04Z</time>
      </trkpt>
      <trkpt lat="47.28785" lon="-1.5495">
        <ele>72</ele>
        <time>2022-04-02T12:12:06Z</time>
      </trkpt>
      <trkpt lat="47.28772" lon="-1.54952">
        <ele>72</ele>
        <time>2022-04-02T12:12:08Z</time>
      </trkpt>
      <trkpt lat="47.2876" lon="-1.54953">
        <ele>73</ele>
        <time>2022-04-02T12:12:10Z</time>
      </trkpt>
      <trkpt lat="47.28748" lon="-1.54955">
        <ele>73</ele>
        <time>2022-04-02T12:12:12Z</time>
      </trkpt>
      <trkpt lat="47.28736" lon="-1.54957">
        <ele>73</ele>
        <time>2022-04-02T12:12:14Z</time>
      </trkpt>
      <trkpt lat="47.28724" lon="-1.54958">
        <ele>73</ele>
        <time>2022-04-02T12:12:16Z</time>
      </trkpt>
      <trkpt lat="47.2871" lon="-1.5496">
        <ele>73</ele>
        <time>2022-04-02T12:12:18Z</time>
      </trkpt>
      <trkpt lat="47.28696" lon="-1.54962">
        <ele>72</ele>
        <time>2022-04-02T12:12:20Z</time>
      </trkpt>
      <trkpt lat="47.28682" lon="-1.54964">
        <ele>72</ele>
        <time>2022-04-02T12:12:22Z</time>
      </trkpt>
      <trkpt lat="47.28667" lon="-1.54966">
        <ele>71</ele>
        <time>2022-04-02T12:12:24Z</time>
      </trkpt>
      <trkpt lat="47.28653" lon="-1.54968">
        <ele>71</ele>
        <time>2022-04-02T12:12:26Z</time>
      </trkpt>
      <trkpt lat="47.28639" lon="-1.5497">
        <ele>71</ele>
        <time>2022-04-02T12:12:28Z</time>
      </trkpt>
      <trkpt lat="47.28626" lon="-1.54971">
        <ele>71</ele>
        <time>2022-04-02T12:12:30Z</time>
      </trkpt>
      <trkpt lat="47.28613" lon="-1.54974">
        <ele>72</ele>
        <time>2022-04-02T12:12:32Z</time>
      </trkpt>
      <trkpt lat="47.28601" lon="-1.54977">
        <ele>71</ele>
        <time>2022-04-02T12:12:34Z</time>
      </trkpt>
      <trkpt lat="47.28593" lon="-1.54986">
        <ele>71</ele>
        <time>2022-04-02T12:12:36Z</time>
      </trkpt>
      <trkpt lat="47.28587" lon="-1.54998">
        <ele>71</ele>
        <time>2022-04-02T12:12:38Z</time>
      </trkpt>
      <trkpt lat="47.28581" lon="-1.55009">
        <ele>71</ele>
        <time>2022-04-02T12:12:40Z</time>
      </trkpt>
      <trkpt lat="47.28574" lon="-1.55025">
        <ele>71</ele>
        <time>2022-04-02T12:12:43Z</time>
      </trkpt>
      <trkpt lat="47.28568" lon="-1.55035">
        <ele>70</ele>
        <time>2022-04-02T12:12:45Z</time>
      </trkpt>
      <trkpt lat="47.28559" lon="-1.55043">
        <ele>70</ele>
        <time>2022-04-02T12:12:47Z</time>
      </trkpt>
      <trkpt lat="47.28548" lon="-1.55045">
        <ele>69</ele>
        <time>2022-04-02T12:12:49Z</time>
      </trkpt>
      <trkpt lat="47.28539" lon="-1.55034">
        <ele>69</ele>
        <time>2022-04-02T12:12:51Z</time>
      </trkpt>
      <trkpt lat="47.28532" lon="-1.55023">
        <ele>70</ele>
        <time>2022-04-02T12:12:53Z</time>
      </trkpt>
      <trkpt lat="47.28523" lon="-1.55012">
        <ele>70</ele>
        <time>2022-04-02T12:12:55Z</time>
      </trkpt>
      <trkpt lat="47.28517" lon="-1.54996">
        <ele>69</ele>
        <time>2022-04-02T12:12:57Z</time>
      </trkpt>
      <trkpt lat="47.28509" lon="-1.54984">
        <ele>69</ele>
        <time>2022-04-02T12:12:59Z</time>
      </trkpt>
      <trkpt lat="47.28497" lon="-1.54982">
        <ele>68</ele>
        <time>2022-04-02T12:13:01Z</time>
      </trkpt>
      <trkpt lat="47.28484" lon="-1.54983">
        <ele>68</ele>
        <time>2022-04-02T12:13:03Z</time>
      </trkpt>
      <trkpt lat="47.28472" lon="-1.54984">
        <ele>68</ele>
        <time>2022-04-02T12:13:05Z</time>
      </trkpt>
      <trkpt lat="47.2846" lon="-1.54983">
        <ele>68</ele>
        <time>2022-04-02T12:13:07Z</time>
      </trkpt>
      <trkpt lat="47.28448" lon="-1.54984">
        <ele>69</ele>
        <time>2022-04-02T12:13:09Z</time>
      </trkpt>
      <trkpt lat="47.28436" lon="-1.54984">
        <ele>69</ele>
        <time>2022-04-02T12:13:11Z</time>
      </trkpt>
      <trkpt lat="47.28424" lon="-1.54983">
        <ele>69</ele>
        <time>2022-04-02T12:13:13Z</time>
      </trkpt>
      <trkpt lat="47.28411" lon="-1.54981">
        <ele>69</ele>
        <time>2022-04-02T12:13:15Z</time>
      </trkpt>
      <trkpt lat="47.284" lon="-1.5498">
        <ele>69</ele>
        <time>2022-04-02T12:13:17Z</time>
      </trkpt>
      <trkpt lat="47.28388" lon="-1.54979">
        <ele>69</ele>
        <time>2022-04-02T12:13:19Z</time>
      </trkpt>
      <trkpt lat="47.28376" lon="-1.54977">
        <ele>70</ele>
        <time>2022-04-02T12:13:21Z</time>
      </trkpt>
      <trkpt lat="47.28363" lon="-1.54976">
        <ele>70</ele>
        <time>2022-04-02T12:13:23Z</time>
      </trkpt>
      <trkpt lat="47.28352" lon="-1.54975">
        <ele>70</ele>
        <time>2022-04-02T12:13:25Z</time>
      </trkpt>
      <trkpt lat="47.2834" lon="-1.54974">
        <ele>70</ele>
        <time>2022-04-02T12:13:27Z</time>
      </trkpt>
      <trkpt lat="47.28328" lon="-1.54973">
        <ele>70</ele>
        <time>2022-04-02T12:13:29Z</time>
      </trkpt>
      <trkpt lat="47.28316" lon="-1.54975">
        <ele>69</ele>
        <time>2022-04-02T12:13:31Z</time>
      </trkpt>
      <trkpt lat="47.28307" lon="-1.54981">
        <ele>69</ele>
        <time>2022-04-02T12:13:33Z</time>
      </trkpt>
      <trkpt lat="47.28298" lon="-1.54987">
        <ele>70</ele>
        <time>2022-04-02T12:13:35Z</time>
      </trkpt>
      <trkpt lat="47.28286" lon="-1.54983">
        <ele>70</ele>
        <time>2022-04-02T12:13:37Z</time>
      </trkpt>
      <trkpt lat="47.28275" lon="-1.54976">
        <ele>70</ele>
        <time>2022-04-02T12:13:39Z</time>
      </trkpt>
      <trkpt lat="47.28262" lon="-1.54971">
        <ele>70</ele>
        <time>2022-04-02T12:13:41Z</time>
      </trkpt>
      <trkpt lat="47.28249" lon="-1.54969">
        <ele>70</ele>
        <time>2022-04-02T12:13:43Z</time>
      </trkpt>
      <trkpt lat="47.28235" lon="-1.54968">
        <ele>70</ele>
        <time>2022-04-02T12:13:45Z</time>
      </trkpt>
      <trkpt lat="47.28223" lon="-1.54966">
        <ele>70</ele>
        <time>2022-04-02T12:13:47Z</time>
      </trkpt>
      <trkpt lat="47.2821" lon="-1.54964">
        <ele>70</ele>
        <time>2022-04-02T12:13:49Z</time>
      </trkpt>
      <trkpt lat="47.28197" lon="-1.54961">
        <ele>70</ele>
        <time>2022-04-02T12:13:51Z</time>
      </trkpt>
      <trkpt lat="47.28184" lon="-1.54959">
        <ele>70</ele>
        <time>2022-04-02T12:13:53Z</time>
      </trkpt>
      <trkpt lat="47.28171" lon="-1.54957">
        <ele>70</ele>
        <time>2022-04-02T12:13:55Z</time>
      </trkpt>
      <trkpt lat="47.28158" lon="-1.54953">
        <ele>70</ele>
        <time>2022-04-02T12:13:57Z</time>
      </trkpt>
      <trkpt lat="47.28145" lon="-1.5495">
        <ele>70</ele>
        <time>2022-04-02T12:13:59Z</time>
      </trkpt>
      <trkpt lat="47.28132" lon="-1.54946">
        <ele>70</ele>
        <time>2022-04-02T12:14:01Z</time>
      </trkpt>
      <trkpt lat="47.28119" lon="-1.54942">
        <ele>70</ele>
        <time>2022-04-02T12:14:03Z</time>
      </trkpt>
      <trkpt lat="47.28106" lon="-1.54938">
        <ele>70</ele>
        <time>2022-04-02T12:14:05Z</time>
      </trkpt>
      <trkpt lat="47.28093" lon="-1.54934">
        <ele>70</ele>
        <time>2022-04-02T12:14:07Z</time>
      </trkpt>
      <trkpt lat="47.28081" lon="-1.5493">
        <ele>70</ele>
        <time>2022-04-02T12:14:09Z</time>
      </trkpt>
      <trkpt lat="47.28068" lon="-1.54926">
        <ele>70</ele>
        <time>2022-04-02T12:14:11Z</time>
      </trkpt>
      <trkpt lat="47.28056" lon="-1.54922">
        <ele>70</ele>
        <time>2022-04-02T12:14:13Z</time>
      </trkpt>
      <trkpt lat="47.28043" lon="-1.54918">
        <ele>70</ele>
        <time>2022-04-02T12:14:15Z</time>
      </trkpt>
      <trkpt lat="47.28031" lon="-1.54914">
        <ele>70</ele>
        <time>2022-04-02T12:14:17Z</time>
      </trkpt>
      <trkpt lat="47.28019" lon="-1.54911">
        <ele>70</ele>
        <time>2022-04-02T12:14:19Z</time>
      </trkpt>
      <trkpt lat="47.28007" lon="-1.54907">
        <ele>70</ele>
        <time>2022-04-02T12:14:21Z</time>
      </trkpt>
      <trkpt lat="47.27995" lon="-1.54904">
        <ele>70</ele>
        <time>2022-04-02T12:14:23Z</time>
      </trkpt>
      <trkpt lat="47.27983" lon="-1.549">
        <ele>71</ele>
        <time>2022-04-02T12:14:25Z</time>
      </trkpt>
      <trkpt lat="47.27972" lon="-1.54896">
        <ele>71</ele>
        <time>2022-04-02T12:14:27Z</time>
      </trkpt>
      <trkpt lat="47.2796" lon="-1.54893">
        <ele>71</ele>
        <time>2022-04-02T12:14:29Z</time>
      </trkpt>
      <trkpt lat="47.27948" lon="-1.54889">
        <ele>72</ele>
        <time>2022-04-02T12:14:31Z</time>
      </trkpt>
      <trkpt lat="47.27936" lon="-1.54886">
        <ele>72</ele>
        <time>2022-04-02T12:14:33Z</time>
      </trkpt>
      <trkpt lat="47.27925" lon="-1.54883">
        <ele>73</ele>
        <time>2022-04-02T12:14:35Z</time>
      </trkpt>
      <trkpt lat="47.27913" lon="-1.54879">
        <ele>73</ele>
        <time>2022-04-02T12:14:37Z</time>
      </trkpt>
      <trkpt lat="47.27901" lon="-1.54876">
        <ele>73</ele>
        <time>2022-04-02T12:14:39Z</time>
      </trkpt>
      <trkpt lat="47.2789" lon="-1.54873">
        <ele>73</ele>
        <time>2022-04-02T12:14:41Z</time>
      </trkpt>
      <trkpt lat="47.27879" lon="-1.5487">
        <ele>74</ele>
        <time>2022-04-02T12:14:43Z</time>
      </trkpt>
      <trkpt lat="47.27868" lon="-1.54867">
        <ele>75</ele>
        <time>2022-04-02T12:14:45Z</time>
      </trkpt>
      <trkpt lat="47.27857" lon="-1.54864">
        <ele>75</ele>
        <time>2022-04-02T12:14:47Z</time>
      </trkpt>
      <trkpt lat="47.27846" lon="-1.5486">
        <ele>76</ele>
        <time>2022-04-02T12:14:49Z</time>
      </trkpt>
      <trkpt lat="47.27835" lon="-1.54857">
        <ele>76</ele>
        <time>2022-04-02T12:14:51Z</time>
      </trkpt>
      <trkpt lat="47.27823" lon="-1.54853">
        <ele>77</ele>
        <time>2022-04-02T12:14:53Z</time>
      </trkpt>
      <trkpt lat="47.27811" lon="-1.5485">
        <ele>77</ele>
        <time>2022-04-02T12:14:55Z</time>
      </trkpt>
      <trkpt lat="47.278" lon="-1.54847">
        <ele>78</ele>
        <time>2022-04-02T12:14:57Z</time>
      </trkpt>
      <trkpt lat="47.27789" lon="-1.54844">
        <ele>78</ele>
        <time>2022-04-02T12:14:59Z</time>
      </trkpt>
      <trkpt lat="47.27778" lon="-1.5484">
        <ele>79</ele>
        <time>2022-04-02T12:15:01Z</time>
      </trkpt>
      <trkpt lat="47.27767" lon="-1.54837">
        <ele>80</ele>
        <time>2022-04-02T12:15:03Z</time>
      </trkpt>
      <trkpt lat="47.27756" lon="-1.54834">
        <ele>80</ele>
        <time>2022-04-02T12:15:05Z</time>
      </trkpt>
      <trkpt lat="47.27745" lon="-1.54831">
        <ele>80</ele>
        <time>2022-04-02T12:15:07Z</time>
      </trkpt>
      <trkpt lat="47.27735" lon="-1.54828">
        <ele>81</ele>
        <time>2022-04-02T12:15:09Z</time>
      </trkpt>
      <trkpt lat="47.27725" lon="-1.54824">
        <ele>81</ele>
        <time>2022-04-02T12:15:11Z</time>
      </trkpt>
      <trkpt lat="47.27715" lon="-1.54822">
        <ele>81</ele>
        <time>2022-04-02T12:15:13Z</time>
      </trkpt>
      <trkpt lat="47.27705" lon="-1.54819">
        <ele>82</ele>
        <time>2022-04-02T12:15:15Z</time>
      </trkpt>
      <trkpt lat="47.27694" lon="-1.54818">
        <ele>82</ele>
        <time>2022-04-02T12:15:17Z</time>
      </trkpt>
      <trkpt lat="47.27683" lon="-1.54815">
        <ele>83</ele>
        <time>2022-04-02T12:15:19Z</time>
      </trkpt>
      <trkpt lat="47.27673" lon="-1.54813">
        <ele>83</ele>
        <time>2022-04-02T12:15:21Z</time>
      </trkpt>
      <trkpt lat="47.27663" lon="-1.54812">
        <ele>83</ele>
        <time>2022-04-02T12:15:23Z</time>
      </trkpt>
      <trkpt lat="47.27654" lon="-1.54813">
        <ele>84</ele>
        <time>2022-04-02T12:15:25Z</time>
      </trkpt>
      <trkpt lat="47.27642" lon="-1.54818">
        <ele>84</ele>
        <time>2022-04-02T12:15:28Z</time>
      </trkpt>
      <trkpt lat="47.27631" lon="-1.54825">
        <ele>85</ele>
        <time>2022-04-02T12:15:32Z</time>
      </trkpt>
      <trkpt lat="47.27622" lon="-1.54828">
        <ele>85</ele>
        <time>2022-04-02T12:15:34Z</time>
      </trkpt>
      <trkpt lat="47.27611" lon="-1.54827">
        <ele>84</ele>
        <time>2022-04-02T12:15:36Z</time>
      </trkpt>
      <trkpt lat="47.27603" lon="-1.54821">
        <ele>84</ele>
        <time>2022-04-02T12:15:38Z</time>
      </trkpt>
      <trkpt lat="47.27594" lon="-1.54813">
        <ele>84</ele>
        <time>2022-04-02T12:15:40Z</time>
      </trkpt>
      <trkpt lat="47.27588" lon="-1.54797">
        <ele>84</ele>
        <time>2022-04-02T12:15:42Z</time>
      </trkpt>
      <trkpt lat="47.27581" lon="-1.54782">
        <ele>84</ele>
        <time>2022-04-02T12:15:44Z</time>
      </trkpt>
      <trkpt lat="47.27571" lon="-1.54773">
        <ele>84</ele>
        <time>2022-04-02T12:15:46Z</time>
      </trkpt>
      <trkpt lat="47.27558" lon="-1.54769">
        <ele>84</ele>
        <time>2022-04-02T12:15:48Z</time>
      </trkpt>
      <trkpt lat="47.27546" lon="-1.54766">
        <ele>83</ele>
        <time>2022-04-02T12:15:50Z</time>
      </trkpt>
      <trkpt lat="47.27534" lon="-1.54762">
        <ele>83</ele>
        <time>2022-04-02T12:15:52Z</time>
      </trkpt>
      <trkpt lat="47.27521" lon="-1.54758">
        <ele>82</ele>
        <time>2022-04-02T12:15:54Z</time>
      </trkpt>
      <trkpt lat="47.27509" lon="-1.54755">
        <ele>82</ele>
        <time>2022-04-02T12:15:56Z</time>
      </trkpt>
      <trkpt lat="47.27496" lon="-1.54751">
        <ele>82</ele>
        <time>2022-04-02T12:15:58Z</time>
      </trkpt>
      <trkpt lat="47.27482" lon="-1.54748">
        <ele>81</ele>
        <time>2022-04-02T12:16:00Z</time>
      </trkpt>
      <trkpt lat="47.27468" lon="-1.54748">
        <ele>80</ele>
        <time>2022-04-02T12:16:02Z</time>
      </trkpt>
      <trkpt lat="47.27455" lon="-1.5475">
        <ele>80</ele>
        <time>2022-04-02T12:16:04Z</time>
      </trkpt>
      <trkpt lat="47.27444" lon="-1.54758">
        <ele>79</ele>
        <time>2022-04-02T12:16:06Z</time>
      </trkpt>
      <trkpt lat="47.27433" lon="-1.5477">
        <ele>79</ele>
        <time>2022-04-02T12:16:08Z</time>
      </trkpt>
      <trkpt lat="47.2742" lon="-1.54776">
        <ele>78</ele>
        <time>2022-04-02T12:16:10Z</time>
      </trkpt>
      <trkpt lat="47.27406" lon="-1.54773">
        <ele>77</ele>
        <time>2022-04-02T12:16:12Z</time>
      </trkpt>
      <trkpt lat="47.27394" lon="-1.54761">
        <ele>78</ele>
        <time>2022-04-02T12:16:14Z</time>
      </trkpt>
      <trkpt lat="47.27383" lon="-1.54746">
        <ele>77</ele>
        <time>2022-04-02T12:16:16Z</time>
      </trkpt>
      <trkpt lat="47.27372" lon="-1.54731">
        <ele>77</ele>
        <time>2022-04-02T12:16:18Z</time>
      </trkpt>
      <trkpt lat="47.27361" lon="-1.54718">
        <ele>77</ele>
        <time>2022-04-02T12:16:20Z</time>
      </trkpt>
      <trkpt lat="47.27346" lon="-1.54711">
        <ele>76</ele>
        <time>2022-04-02T12:16:22Z</time>
      </trkpt>
      <trkpt lat="47.27324" lon="-1.54702">
        <ele>74</ele>
        <time>2022-04-02T12:16:25Z</time>
      </trkpt>
      <trkpt lat="47.27309" lon="-1.54697">
        <ele>74</ele>
        <time>2022-04-02T12:16:27Z</time>
      </trkpt>
      <trkpt lat="47.27294" lon="-1.54692">
        <ele>74</ele>
        <time>2022-04-02T12:16:29Z</time>
      </trkpt>
      <trkpt lat="47.2728" lon="-1.54689">
        <ele>74</ele>
        <time>2022-04-02T12:16:31Z</time>
      </trkpt>
      <trkpt lat="47.2726" lon="-1.54683">
        <ele>74</ele>
        <time>2022-04-02T12:16:34Z</time>
      </trkpt>
      <trkpt lat="47.27246" lon="-1.54681">
        <ele>74</ele>
        <time>2022-04-02T12:16:36Z</time>
      </trkpt>
      <trkpt lat="47.27232" lon="-1.54678">
        <ele>74</ele>
        <time>2022-04-02T12:16:38Z</time>
      </trkpt>
      <trkpt lat="47.27219" lon="-1.54673">
        <ele>74</ele>
        <time>2022-04-02T12:16:40Z</time>
      </trkpt>
      <trkpt lat="47.27207" lon="-1.54667">
        <ele>74</ele>
        <time>2022-04-02T12:16:42Z</time>
      </trkpt>
      <trkpt lat="47.27193" lon="-1.54663">
        <ele>74</ele>
        <time>2022-04-02T12:16:44Z</time>
      </trkpt>
      <trkpt lat="47.2718" lon="-1.54659">
        <ele>74</ele>
        <time>2022-04-02T12:16:46Z</time>
      </trkpt>
      <trkpt lat="47.27167" lon="-1.54655">
        <ele>75</ele>
        <time>2022-04-02T12:16:48Z</time>
      </trkpt>
      <trkpt lat="47.27155" lon="-1.54652">
        <ele>75</ele>
        <time>2022-04-02T12:16:50Z</time>
      </trkpt>
      <trkpt lat="47.27142" lon="-1.54649">
        <ele>76</ele>
        <time>2022-04-02T12:16:52Z</time>
      </trkpt>
      <trkpt lat="47.27129" lon="-1.54645">
        <ele>75</ele>
        <time>2022-04-02T12:16:54Z</time>
      </trkpt>
      <trkpt lat="47.27116" lon="-1.54642">
        <ele>76</ele>
        <time>2022-04-02T12:16:56Z</time>
      </trkpt>
      <trkpt lat="47.27102" lon="-1.54638">
        <ele>75</ele>
        <time>2022-04-02T12:16:58Z</time>
      </trkpt>
      <trkpt lat="47.2709" lon="-1.54634">
        <ele>75</ele>
        <time>2022-04-02T12:17:00Z</time>
      </trkpt>
      <trkpt lat="47.27077" lon="-1.5463">
        <ele>75</ele>
        <time>2022-04-02T12:17:02Z</time>
      </trkpt>
      <trkpt lat="47.27064" lon="-1.54626">
        <ele>74</ele>
        <time>2022-04-02T12:17:04Z</time>
      </trkpt>
      <trkpt lat="47.27051" lon="-1.54623">
        <ele>74</ele>
        <time>2022-04-02T12:17:06Z</time>
      </trkpt>
      <trkpt lat="47.27038" lon="-1.5462">
        <ele>75</ele>
        <time>2022-04-02T12:17:08Z</time>
      </trkpt>
      <trkpt lat="47.27024" lon="-1.54618">
        <ele>74</ele>
        <time>2022-04-02T12:17:10Z</time>
      </trkpt>
      <trkpt lat="47.27011" lon="-1.54617">
        <ele>74</ele>
        <time>2022-04-02T12:17:12Z</time>
      </trkpt>
      <trkpt lat="47.26999" lon="-1.54617">
        <ele>75</ele>
        <time>2022-04-02T12:17:14Z</time>
      </trkpt>
      <trkpt lat="47.26987" lon="-1.54618">
        <ele>75</ele>
        <time>2022-04-02T12:17:16Z</time>
      </trkpt>
      <trkpt lat="47.26976" lon="-1.54619">
        <ele>76</ele>
        <time>2022-04-02T12:17:18Z</time>
      </trkpt>
      <trkpt lat="47.26964" lon="-1.5462">
        <ele>77</ele>
        <time>2022-04-02T12:17:20Z</time>
      </trkpt>
      <trkpt lat="47.26951" lon="-1.54621">
        <ele>77</ele>
        <time>2022-04-02T12:17:22Z</time>
      </trkpt>
      <trkpt lat="47.26938" lon="-1.54622">
        <ele>78</ele>
        <time>2022-04-02T12:17:24Z</time>
      </trkpt>
      <trkpt lat="47.26927" lon="-1.54624">
        <ele>79</ele>
        <time>2022-04-02T12:17:26Z</time>
      </trkpt>
      <trkpt lat="47.26914" lon="-1.54625">
        <ele>80</ele>
        <time>2022-04-02T12:17:28Z</time>
      </trkpt>
      <trkpt lat="47.26899" lon="-1.54624">
        <ele>80</ele>
        <time>2022-04-02T12:17:30Z</time>
      </trkpt>
      <trkpt lat="47.26884" lon="-1.5462">
        <ele>79</ele>
        <time>2022-04-02T12:17:32Z</time>
      </trkpt>
      <trkpt lat="47.2687" lon="-1.54614">
        <ele>80</ele>
        <time>2022-04-02T12:17:34Z</time>
      </trkpt>
      <trkpt lat="47.26855" lon="-1.54607">
        <ele>79</ele>
        <time>2022-04-02T12:17:36Z</time>
      </trkpt>
      <trkpt lat="47.26841" lon="-1.54604">
        <ele>78</ele>
        <time>2022-04-02T12:17:38Z</time>
      </trkpt>
      <trkpt lat="47.26828" lon="-1.54604">
        <ele>77</ele>
        <time>2022-04-02T12:17:40Z</time>
      </trkpt>
      <trkpt lat="47.26815" lon="-1.54603">
        <ele>77</ele>
        <time>2022-04-02T12:17:42Z</time>
      </trkpt>
      <trkpt lat="47.26802" lon="-1.54601">
        <ele>77</ele>
        <time>2022-04-02T12:17:44Z</time>
      </trkpt>
      <trkpt lat="47.26788" lon="-1.54601">
        <ele>76</ele>
        <time>2022-04-02T12:17:46Z</time>
      </trkpt>
      <trkpt lat="47.26774" lon="-1.54602">
        <ele>76</ele>
        <time>2022-04-02T12:17:48Z</time>
      </trkpt>
      <trkpt lat="47.26761" lon="-1.54602">
        <ele>76</ele>
        <time>2022-04-02T12:17:50Z</time>
      </trkpt>
      <trkpt lat="47.26747" lon="-1.54602">
        <ele>76</ele>
        <time>2022-04-02T12:17:52Z</time>
      </trkpt>
      <trkpt lat="47.26733" lon="-1.54602">
        <ele>76</ele>
        <time>2022-04-02T12:17:54Z</time>
      </trkpt>
      <trkpt lat="47.26721" lon="-1.54603">
        <ele>76</ele>
        <time>2022-04-02T12:17:56Z</time>
      </trkpt>
      <trkpt lat="47.26708" lon="-1.54605">
        <ele>76</ele>
        <time>2022-04-02T12:17:58Z</time>
      </trkpt>
      <trkpt lat="47.26695" lon="-1.54606">
        <ele>76</ele>
        <time>2022-04-02T12:18:00Z</time>
      </trkpt>
      <trkpt lat="47.26681" lon="-1.54609">
        <ele>75</ele>
        <time>2022-04-02T12:18:02Z</time>
      </trkpt>
      <trkpt lat="47.26667" lon="-1.54612">
        <ele>75</ele>
        <time>2022-04-02T12:18:04Z</time>
      </trkpt>
      <trkpt lat="47.26653" lon="-1.54614">
        <ele>74</ele>
        <time>2022-04-02T12:18:06Z</time>
      </trkpt>
      <trkpt lat="47.26637" lon="-1.54618">
        <ele>73</ele>
        <time>2022-04-02T12:18:08Z</time>
      </trkpt>
      <trkpt lat="47.26622" lon="-1.54623">
        <ele>72</ele>
        <time>2022-04-02T12:18:10Z</time>
      </trkpt>
      <trkpt lat="47.26606" lon="-1.54628">
        <ele>71</ele>
        <time>2022-04-02T12:18:12Z</time>
      </trkpt>
      <trkpt lat="47.2659" lon="-1.54635">
        <ele>70</ele>
        <time>2022-04-02T12:18:14Z</time>
      </trkpt>
      <trkpt lat="47.26574" lon="-1.54641">
        <ele>69</ele>
        <time>2022-04-02T12:18:16Z</time>
      </trkpt>
      <trkpt lat="47.26558" lon="-1.54648">
        <ele>68</ele>
        <time>2022-04-02T12:18:18Z</time>
      </trkpt>
      <trkpt lat="47.26542" lon="-1.54655">
        <ele>67</ele>
        <time>2022-04-02T12:18:20Z</time>
      </trkpt>
      <trkpt lat="47.26527" lon="-1.54663">
        <ele>66</ele>
        <time>2022-04-02T12:18:22Z</time>
      </trkpt>
      <trkpt lat="47.2651" lon="-1.54672">
        <ele>65</ele>
        <time>2022-04-02T12:18:24Z</time>
      </trkpt>
      <trkpt lat="47.26494" lon="-1.54682">
        <ele>64</ele>
        <time>2022-04-02T12:18:26Z</time>
      </trkpt>
      <trkpt lat="47.26478" lon="-1.54692">
        <ele>62</ele>
        <time>2022-04-02T12:18:28Z</time>
      </trkpt>
      <trkpt lat="47.26462" lon="-1.54703">
        <ele>61</ele>
        <time>2022-04-02T12:18:30Z</time>
      </trkpt>
      <trkpt lat="47.26447" lon="-1.54715">
        <ele>60</ele>
        <time>2022-04-02T12:18:32Z</time>
      </trkpt>
      <trkpt lat="47.26439" lon="-1.54721">
        <ele>60</ele>
        <time>2022-04-02T12:18:33Z</time>
      </trkpt>
      <trkpt lat="47.26431" lon="-1.54729">
        <ele>59</ele>
        <time>2022-04-02T12:18:34Z</time>
      </trkpt>
      <trkpt lat="47.26423" lon="-1.54737">
        <ele>58</ele>
        <time>2022-04-02T12:18:35Z</time>
      </trkpt>
      <trkpt lat="47.26409" lon="-1.54753">
        <ele>58</ele>
        <time>2022-04-02T12:18:37Z</time>
      </trkpt>
      <trkpt lat="47.26395" lon="-1.54769">
        <ele>57</ele>
        <time>2022-04-02T12:18:39Z</time>
      </trkpt>
      <trkpt lat="47.26381" lon="-1.54786">
        <ele>56</ele>
        <time>2022-04-02T12:18:41Z</time>
      </trkpt>
      <trkpt lat="47.26367" lon="-1.54801">
        <ele>55</ele>
        <time>2022-04-02T12:18:43Z</time>
      </trkpt>
      <trkpt lat="47.26355" lon="-1.54819">
        <ele>54</ele>
        <time>2022-04-02T12:18:45Z</time>
      </trkpt>
      <trkpt lat="47.26348" lon="-1.5484">
        <ele>54</ele>
        <time>2022-04-02T12:18:47Z</time>
      </trkpt>
      <trkpt lat="47.26342" lon="-1.54857">
        <ele>54</ele>
        <time>2022-04-02T12:18:49Z</time>
      </trkpt>
      <trkpt lat="47.26332" lon="-1.54866">
        <ele>53</ele>
        <time>2022-04-02T12:18:52Z</time>
      </trkpt>
      <trkpt lat="47.26321" lon="-1.54867">
        <ele>53</ele>
        <time>2022-04-02T12:18:54Z</time>
      </trkpt>
      <trkpt lat="47.2631" lon="-1.54874">
        <ele>53</ele>
        <time>2022-04-02T12:18:56Z</time>
      </trkpt>
      <trkpt lat="47.263" lon="-1.54884">
        <ele>53</ele>
        <time>2022-04-02T12:18:58Z</time>
      </trkpt>
      <trkpt lat="47.2629" lon="-1.54896">
        <ele>53</ele>
        <time>2022-04-02T12:19:00Z</time>
      </trkpt>
      <trkpt lat="47.26279" lon="-1.5491">
        <ele>53</ele>
        <time>2022-04-02T12:19:02Z</time>
      </trkpt>
      <trkpt lat="47.26268" lon="-1.54923">
        <ele>52</ele>
        <time>2022-04-02T12:19:04Z</time>
      </trkpt>
      <trkpt lat="47.26258" lon="-1.54938">
        <ele>52</ele>
        <time>2022-04-02T12:19:06Z</time>
      </trkpt>
      <trkpt lat="47.26248" lon="-1.54953">
        <ele>52</ele>
        <time>2022-04-02T12:19:08Z</time>
      </trkpt>
      <trkpt lat="47.26239" lon="-1.54968">
        <ele>51</ele>
        <time>2022-04-02T12:19:10Z</time>
      </trkpt>
      <trkpt lat="47.2623" lon="-1.54984">
        <ele>51</ele>
        <time>2022-04-02T12:19:12Z</time>
      </trkpt>
      <trkpt lat="47.26221" lon="-1.55">
        <ele>51</ele>
        <time>2022-04-02T12:19:14Z</time>
      </trkpt>
      <trkpt lat="47.26213" lon="-1.55016">
        <ele>51</ele>
        <time>2022-04-02T12:19:16Z</time>
      </trkpt>
      <trkpt lat="47.26205" lon="-1.55033">
        <ele>51</ele>
        <time>2022-04-02T12:19:18Z</time>
      </trkpt>
      <trkpt lat="47.26196" lon="-1.5505">
        <ele>51</ele>
        <time>2022-04-02T12:19:20Z</time>
      </trkpt>
      <trkpt lat="47.26188" lon="-1.55067">
        <ele>50</ele>
        <time>2022-04-02T12:19:22Z</time>
      </trkpt>
      <trkpt lat="47.26179" lon="-1.55085">
        <ele>50</ele>
        <time>2022-04-02T12:19:24Z</time>
      </trkpt>
      <trkpt lat="47.26171" lon="-1.55102">
        <ele>49</ele>
        <time>2022-04-02T12:19:26Z</time>
      </trkpt>
      <trkpt lat="47.26164" lon="-1.55119">
        <ele>49</ele>
        <time>2022-04-02T12:19:28Z</time>
      </trkpt>
      <trkpt lat="47.26157" lon="-1.55138">
        <ele>48</ele>
        <time>2022-04-02T12:19:30Z</time>
      </trkpt>
      <trkpt lat="47.2615" lon="-1.55155">
        <ele>48</ele>
        <time>2022-04-02T12:19:32Z</time>
      </trkpt>
      <trkpt lat="47.26144" lon="-1.55174">
        <ele>47</ele>
        <time>2022-04-02T12:19:34Z</time>
      </trkpt>
      <trkpt lat="47.26138" lon="-1.55192">
        <ele>47</ele>
        <time>2022-04-02T12:19:36Z</time>
      </trkpt>
      <trkpt lat="47.26131" lon="-1.55211">
        <ele>47</ele>
        <time>2022-04-02T12:19:38Z</time>
      </trkpt>
      <trkpt lat="47.26126" lon="-1.55229">
        <ele>47</ele>
        <time>2022-04-02T12:19:40Z</time>
      </trkpt>
      <trkpt lat="47.26121" lon="-1.55248">
        <ele>46</ele>
        <time>2022-04-02T12:19:42Z</time>
      </trkpt>
      <trkpt lat="47.26116" lon="-1.55266">
        <ele>47</ele>
        <time>2022-04-02T12:19:44Z</time>
      </trkpt>
      <trkpt lat="47.26112" lon="-1.55283">
        <ele>46</ele>
        <time>2022-04-02T12:19:46Z</time>
      </trkpt>
      <trkpt lat="47.26107" lon="-1.553">
        <ele>47</ele>
        <time>2022-04-02T12:19:48Z</time>
      </trkpt>
      <trkpt lat="47.26098" lon="-1.55312">
        <ele>48</ele>
        <time>2022-04-02T12:19:50Z</time>
      </trkpt>
      <trkpt lat="47.2609" lon="-1.55328">
        <ele>48</ele>
        <time>2022-04-02T12:19:52Z</time>
      </trkpt>
      <trkpt lat="47.26083" lon="-1.55345">
        <ele>48</ele>
        <time>2022-04-02T12:19:54Z</time>
      </trkpt>
      <trkpt lat="47.26075" lon="-1.55363">
        <ele>48</ele>
        <time>2022-04-02T12:19:56Z</time>
      </trkpt>
      <trkpt lat="47.26067" lon="-1.55379">
        <ele>49</ele>
        <time>2022-04-02T12:19:58Z</time>
      </trkpt>
      <trkpt lat="47.26059" lon="-1.55396">
        <ele>49</ele>
        <time>2022-04-02T12:20:00Z</time>
      </trkpt>
      <trkpt lat="47.26052" lon="-1.55415">
        <ele>49</ele>
        <time>2022-04-02T12:20:02Z</time>
      </trkpt>
      <trkpt lat="47.26047" lon="-1.55433">
        <ele>49</ele>
        <time>2022-04-02T12:20:04Z</time>
      </trkpt>
      <trkpt lat="47.26042" lon="-1.55452">
        <ele>49</ele>
        <time>2022-04-02T12:20:06Z</time>
      </trkpt>
      <trkpt lat="47.26037" lon="-1.55471">
        <ele>49</ele>
        <time>2022-04-02T12:20:08Z</time>
      </trkpt>
      <trkpt lat="47.26032" lon="-1.55489">
        <ele>49</ele>
        <time>2022-04-02T12:20:10Z</time>
      </trkpt>
      <trkpt lat="47.26026" lon="-1.55507">
        <ele>48</ele>
        <time>2022-04-02T12:20:12Z</time>
      </trkpt>
      <trkpt lat="47.2602" lon="-1.55524">
        <ele>48</ele>
        <time>2022-04-02T12:20:14Z</time>
      </trkpt>
      <trkpt lat="47.26015" lon="-1.5554">
        <ele>49</ele>
        <time>2022-04-02T12:20:16Z</time>
      </trkpt>
      <trkpt lat="47.26009" lon="-1.55557">
        <ele>49</ele>
        <time>2022-04-02T12:20:18Z</time>
      </trkpt>
      <trkpt lat="47.26005" lon="-1.55573">
        <ele>49</ele>
        <time>2022-04-02T12:20:20Z</time>
      </trkpt>
      <trkpt lat="47.26001" lon="-1.55589">
        <ele>49</ele>
        <time>2022-04-02T12:20:22Z</time>
      </trkpt>
      <trkpt lat="47.26004" lon="-1.55607">
        <ele>50</ele>
        <time>2022-04-02T12:20:25Z</time>
      </trkpt>
      <trkpt lat="47.26011" lon="-1.55622">
        <ele>50</ele>
        <time>2022-04-02T12:20:28Z</time>
      </trkpt>
      <trkpt lat="47.26019" lon="-1.5563">
        <ele>51</ele>
        <time>2022-04-02T12:20:30Z</time>
      </trkpt>
      <trkpt lat="47.26027" lon="-1.55639">
        <ele>52</ele>
        <time>2022-04-02T12:20:32Z</time>
      </trkpt>
      <trkpt lat="47.26035" lon="-1.55647">
        <ele>52</ele>
        <time>2022-04-02T12:20:34Z</time>
      </trkpt>
      <trkpt lat="47.26036" lon="-1.5566">
        <ele>52</ele>
        <time>2022-04-02T12:20:36Z</time>
      </trkpt>
      <trkpt lat="47.26039" lon="-1.55676">
        <ele>53</ele>
        <time>2022-04-02T12:20:38Z</time>
      </trkpt>
      <trkpt lat="47.26039" lon="-1.55693">
        <ele>52</ele>
        <time>2022-04-02T12:20:40Z</time>
      </trkpt>
      <trkpt lat="47.26037" lon="-1.55709">
        <ele>52</ele>
        <time>2022-04-02T12:20:42Z</time>
      </trkpt>
      <trkpt lat="47.26032" lon="-1.55725">
        <ele>52</ele>
        <time>2022-04-02T12:20:44Z</time>
      </trkpt>
      <trkpt lat="47.26023" lon="-1.55738">
        <ele>53</ele>
        <time>2022-04-02T12:20:46Z</time>
      </trkpt>
      <trkpt lat="47.26014" lon="-1.55748">
        <ele>53</ele>
        <time>2022-04-02T12:20:48Z</time>
      </trkpt>
      <trkpt lat="47.26003" lon="-1.55756">
        <ele>53</ele>
        <time>2022-04-02T12:20:50Z</time>
      </trkpt>
      <trkpt lat="47.25995" lon="-1.55765">
        <ele>53</ele>
        <time>2022-04-02T12:20:52Z</time>
      </trkpt>
      <trkpt lat="47.25981" lon="-1.55763">
        <ele>53</ele>
        <time>2022-04-02T12:20:55Z</time>
      </trkpt>
      <trkpt lat="47.25971" lon="-1.55757">
        <ele>53</ele>
        <time>2022-04-02T12:20:57Z</time>
      </trkpt>
      <trkpt lat="47.25963" lon="-1.55746">
        <ele>54</ele>
        <time>2022-04-02T12:20:59Z</time>
      </trkpt>
      <trkpt lat="47.25952" lon="-1.55742">
        <ele>54</ele>
        <time>2022-04-02T12:21:01Z</time>
      </trkpt>
      <trkpt lat="47.2594" lon="-1.55741">
        <ele>54</ele>
        <time>2022-04-02T12:21:03Z</time>
      </trkpt>
      <trkpt lat="47.25928" lon="-1.55739">
        <ele>54</ele>
        <time>2022-04-02T12:21:05Z</time>
      </trkpt>
      <trkpt lat="47.25915" lon="-1.55738">
        <ele>54</ele>
        <time>2022-04-02T12:21:07Z</time>
      </trkpt>
      <trkpt lat="47.25901" lon="-1.55737">
        <ele>53</ele>
        <time>2022-04-02T12:21:09Z</time>
      </trkpt>
      <trkpt lat="47.25887" lon="-1.55736">
        <ele>52</ele>
        <time>2022-04-02T12:21:11Z</time>
      </trkpt>
      <trkpt lat="47.25872" lon="-1.55734">
        <ele>52</ele>
        <time>2022-04-02T12:21:13Z</time>
      </trkpt>
      <trkpt lat="47.25858" lon="-1.55733">
        <ele>52</ele>
        <time>2022-04-02T12:21:15Z</time>
      </trkpt>
      <trkpt lat="47.25846" lon="-1.55731">
        <ele>53</ele>
        <time>2022-04-02T12:21:17Z</time>
      </trkpt>
      <trkpt lat="47.25834" lon="-1.55729">
        <ele>54</ele>
        <time>2022-04-02T12:21:19Z</time>
      </trkpt>
      <trkpt lat="47.25822" lon="-1.55726">
        <ele>55</ele>
        <time>2022-04-02T12:21:21Z</time>
      </trkpt>
      <trkpt lat="47.2581" lon="-1.55721">
        <ele>56</ele>
        <time>2022-04-02T12:21:23Z</time>
      </trkpt>
      <trkpt lat="47.25799" lon="-1.55715">
        <ele>56</ele>
        <time>2022-04-02T12:21:25Z</time>
      </trkpt>
      <trkpt lat="47.25788" lon="-1.55711">
        <ele>57</ele>
        <time>2022-04-02T12:21:27Z</time>
      </trkpt>
      <trkpt lat="47.25779" lon="-1.55707">
        <ele>58</ele>
        <time>2022-04-02T12:21:29Z</time>
      </trkpt>
      <trkpt lat="47.2577" lon="-1.55702">
        <ele>58</ele>
        <time>2022-04-02T12:21:32Z</time>
      </trkpt>
      <trkpt lat="47.25762" lon="-1.55694">
        <ele>59</ele>
        <time>2022-04-02T12:21:38Z</time>
      </trkpt>
      <trkpt lat="47.25762" lon="-1.55677">
        <ele>60</ele>
        <time>2022-04-02T12:21:44Z</time>
      </trkpt>
      <trkpt lat="47.25765" lon="-1.55663">
        <ele>60</ele>
        <time>2022-04-02T12:21:46Z</time>
      </trkpt>
      <trkpt lat="47.25767" lon="-1.55647">
        <ele>60</ele>
        <time>2022-04-02T12:21:48Z</time>
      </trkpt>
      <trkpt lat="47.25768" lon="-1.5563">
        <ele>59</ele>
        <time>2022-04-02T12:21:50Z</time>
      </trkpt>
      <trkpt lat="47.25769" lon="-1.55611">
        <ele>58</ele>
        <time>2022-04-02T12:21:52Z</time>
      </trkpt>
      <trkpt lat="47.25769" lon="-1.55592">
        <ele>57</ele>
        <time>2022-04-02T12:21:54Z</time>
      </trkpt>
      <trkpt lat="47.25769" lon="-1.55576">
        <ele>56</ele>
        <time>2022-04-02T12:21:56Z</time>
      </trkpt>
      <trkpt lat="47.25764" lon="-1.55563">
        <ele>56</ele>
        <time>2022-04-02T12:21:59Z</time>
      </trkpt>
      <trkpt lat="47.25756" lon="-1.55551">
        <ele>55</ele>
        <time>2022-04-02T12:22:03Z</time>
      </trkpt>
      <trkpt lat="47.25751" lon="-1.55539">
        <ele>56</ele>
        <time>2022-04-02T12:22:06Z</time>
      </trkpt>
      <trkpt lat="47.25746" lon="-1.55526">
        <ele>56</ele>
        <time>2022-04-02T12:22:09Z</time>
      </trkpt>
      <trkpt lat="47.25741" lon="-1.55513">
        <ele>56</ele>
        <time>2022-04-02T12:22:12Z</time>
      </trkpt>
      <trkpt lat="47.25734" lon="-1.55502">
        <ele>57</ele>
        <time>2022-04-02T12:22:15Z</time>
      </trkpt>
      <trkpt lat="47.25726" lon="-1.55495">
        <ele>58</ele>
        <time>2022-04-02T12:22:27Z</time>
      </trkpt>
      <trkpt lat="47.25736" lon="-1.55499">
        <ele>56</ele>
        <time>2022-04-02T12:24:08Z</time>
      </trkpt>
      <trkpt lat="47.25743" lon="-1.55514">
        <ele>58</ele>
        <time>2022-04-02T12:24:11Z</time>
      </trkpt>
      <trkpt lat="47.2575" lon="-1.55526">
        <ele>58</ele>
        <time>2022-04-02T12:24:13Z</time>
      </trkpt>
      <trkpt lat="47.25755" lon="-1.55542">
        <ele>57</ele>
        <time>2022-04-02T12:24:16Z</time>
      </trkpt>
      <trkpt lat="47.25762" lon="-1.55552">
        <ele>57</ele>
        <time>2022-04-02T12:24:20Z</time>
      </trkpt>
      <trkpt lat="47.25769" lon="-1.5554">
        <ele>56</ele>
        <time>2022-04-02T12:24:23Z</time>
      </trkpt>
      <trkpt lat="47.25775" lon="-1.55527">
        <ele>56</ele>
        <time>2022-04-02T12:24:25Z</time>
      </trkpt>
      <trkpt lat="47.25781" lon="-1.55512">
        <ele>55</ele>
        <time>2022-04-02T12:24:27Z</time>
      </trkpt>
      <trkpt lat="47.25781" lon="-1.55496">
        <ele>54</ele>
        <time>2022-04-02T12:24:29Z</time>
      </trkpt>
      <trkpt lat="47.25775" lon="-1.55481">
        <ele>53</ele>
        <time>2022-04-02T12:24:31Z</time>
      </trkpt>
      <trkpt lat="47.25768" lon="-1.55464">
        <ele>52</ele>
        <time>2022-04-02T12:24:33Z</time>
      </trkpt>
      <trkpt lat="47.25765" lon="-1.55443">
        <ele>51</ele>
        <time>2022-04-02T12:24:35Z</time>
      </trkpt>
      <trkpt lat="47.25764" lon="-1.55422">
        <ele>50</ele>
        <time>2022-04-02T12:24:37Z</time>
      </trkpt>
      <trkpt lat="47.25763" lon="-1.55401">
        <ele>51</ele>
        <time>2022-04-02T12:24:39Z</time>
      </trkpt>
      <trkpt lat="47.25763" lon="-1.55381">
        <ele>50</ele>
        <time>2022-04-02T12:24:41Z</time>
      </trkpt>
      <trkpt lat="47.25761" lon="-1.55361">
        <ele>50</ele>
        <time>2022-04-02T12:24:43Z</time>
      </trkpt>
      <trkpt lat="47.2576" lon="-1.55341">
        <ele>50</ele>
        <time>2022-04-02T12:24:45Z</time>
      </trkpt>
      <trkpt lat="47.2576" lon="-1.55322">
        <ele>51</ele>
        <time>2022-04-02T12:24:47Z</time>
      </trkpt>
      <trkpt lat="47.25759" lon="-1.55302">
        <ele>50</ele>
        <time>2022-04-02T12:24:49Z</time>
      </trkpt>
      <trkpt lat="47.25758" lon="-1.55282">
        <ele>50</ele>
        <time>2022-04-02T12:24:51Z</time>
      </trkpt>
      <trkpt lat="47.25755" lon="-1.55262">
        <ele>50</ele>
        <time>2022-04-02T12:24:53Z</time>
      </trkpt>
      <trkpt lat="47.25753" lon="-1.55243">
        <ele>50</ele>
        <time>2022-04-02T12:24:55Z</time>
      </trkpt>
      <trkpt lat="47.25751" lon="-1.55223">
        <ele>50</ele>
        <time>2022-04-02T12:24:57Z</time>
      </trkpt>
      <trkpt lat="47.25748" lon="-1.55204">
        <ele>50</ele>
        <time>2022-04-02T12:24:59Z</time>
      </trkpt>
      <trkpt lat="47.25746" lon="-1.55184">
        <ele>50</ele>
        <time>2022-04-02T12:25:01Z</time>
      </trkpt>
      <trkpt lat="47.25744" lon="-1.55164">
        <ele>50</ele>
        <time>2022-04-02T12:25:03Z</time>
      </trkpt>
      <trkpt lat="47.25741" lon="-1.55144">
        <ele>50</ele>
        <time>2022-04-02T12:25:05Z</time>
      </trkpt>
      <trkpt lat="47.25738" lon="-1.55124">
        <ele>50</ele>
        <time>2022-04-02T12:25:07Z</time>
      </trkpt>
      <trkpt lat="47.25736" lon="-1.55104">
        <ele>50</ele>
        <time>2022-04-02T12:25:09Z</time>
      </trkpt>
      <trkpt lat="47.25734" lon="-1.55084">
        <ele>50</ele>
        <time>2022-04-02T12:25:11Z</time>
      </trkpt>
      <trkpt lat="47.25731" lon="-1.55064">
        <ele>50</ele>
        <time>2022-04-02T12:25:13Z</time>
      </trkpt>
      <trkpt lat="47.25729" lon="-1.55044">
        <ele>50</ele>
        <time>2022-04-02T12:25:15Z</time>
      </trkpt>
      <trkpt lat="47.25727" lon="-1.55024">
        <ele>50</ele>
        <time>2022-04-02T12:25:17Z</time>
      </trkpt>
      <trkpt lat="47.25725" lon="-1.55004">
        <ele>50</ele>
        <time>2022-04-02T12:25:19Z</time>
      </trkpt>
      <trkpt lat="47.25723" lon="-1.54985">
        <ele>50</ele>
        <time>2022-04-02T12:25:21Z</time>
      </trkpt>
      <trkpt lat="47.25721" lon="-1.54966">
        <ele>50</ele>
        <time>2022-04-02T12:25:23Z</time>
      </trkpt>
      <trkpt lat="47.25719" lon="-1.54947">
        <ele>49</ele>
        <time>2022-04-02T12:25:25Z</time>
      </trkpt>
      <trkpt lat="47.25717" lon="-1.54928">
        <ele>49</ele>
        <time>2022-04-02T12:25:27Z</time>
      </trkpt>
      <trkpt lat="47.25715" lon="-1.54909">
        <ele>49</ele>
        <time>2022-04-02T12:25:29Z</time>
      </trkpt>
      <trkpt lat="47.25713" lon="-1.54891">
        <ele>49</ele>
        <time>2022-04-02T12:25:31Z</time>
      </trkpt>
      <trkpt lat="47.25711" lon="-1.54873">
        <ele>49</ele>
        <time>2022-04-02T12:25:33Z</time>
      </trkpt>
      <trkpt lat="47.25709" lon="-1.54856">
        <ele>50</ele>
        <time>2022-04-02T12:25:35Z</time>
      </trkpt>
      <trkpt lat="47.25708" lon="-1.54839">
        <ele>50</ele>
        <time>2022-04-02T12:25:37Z</time>
      </trkpt>
      <trkpt lat="47.25707" lon="-1.54823">
        <ele>51</ele>
        <time>2022-04-02T12:25:39Z</time>
      </trkpt>
      <trkpt lat="47.25706" lon="-1.54808">
        <ele>51</ele>
        <time>2022-04-02T12:25:41Z</time>
      </trkpt>
      <trkpt lat="47.25705" lon="-1.54793">
        <ele>51</ele>
        <time>2022-04-02T12:25:43Z</time>
      </trkpt>
      <trkpt lat="47.25704" lon="-1.54779">
        <ele>52</ele>
        <time>2022-04-02T12:25:45Z</time>
      </trkpt>
      <trkpt lat="47.25702" lon="-1.54766">
        <ele>53</ele>
        <time>2022-04-02T12:25:47Z</time>
      </trkpt>
      <trkpt lat="47.25701" lon="-1.54752">
        <ele>54</ele>
        <time>2022-04-02T12:25:49Z</time>
      </trkpt>
      <trkpt lat="47.257" lon="-1.54738">
        <ele>55</ele>
        <time>2022-04-02T12:25:51Z</time>
      </trkpt>
      <trkpt lat="47.257" lon="-1.54723">
        <ele>55</ele>
        <time>2022-04-02T12:25:53Z</time>
      </trkpt>
      <trkpt lat="47.25699" lon="-1.54709">
        <ele>56</ele>
        <time>2022-04-02T12:25:55Z</time>
      </trkpt>
      <trkpt lat="47.25698" lon="-1.54695">
        <ele>56</ele>
        <time>2022-04-02T12:25:57Z</time>
      </trkpt>
      <trkpt lat="47.25697" lon="-1.54681">
        <ele>56</ele>
        <time>2022-04-02T12:25:59Z</time>
      </trkpt>
      <trkpt lat="47.25694" lon="-1.54668">
        <ele>56</ele>
        <time>2022-04-02T12:26:01Z</time>
      </trkpt>
      <trkpt lat="47.25688" lon="-1.54656">
        <ele>57</ele>
        <time>2022-04-02T12:26:03Z</time>
      </trkpt>
      <trkpt lat="47.25683" lon="-1.54644">
        <ele>57</ele>
        <time>2022-04-02T12:26:05Z</time>
      </trkpt>
      <trkpt lat="47.25679" lon="-1.54632">
        <ele>58</ele>
        <time>2022-04-02T12:26:07Z</time>
      </trkpt>
      <trkpt lat="47.25676" lon="-1.54618">
        <ele>58</ele>
        <time>2022-04-02T12:26:09Z</time>
      </trkpt>
      <trkpt lat="47.25673" lon="-1.54604">
        <ele>59</ele>
        <time>2022-04-02T12:26:11Z</time>
      </trkpt>
      <trkpt lat="47.25671" lon="-1.54589">
        <ele>59</ele>
        <time>2022-04-02T12:26:13Z</time>
      </trkpt>
      <trkpt lat="47.2567" lon="-1.54574">
        <ele>59</ele>
        <time>2022-04-02T12:26:15Z</time>
      </trkpt>
      <trkpt lat="47.25668" lon="-1.54559">
        <ele>60</ele>
        <time>2022-04-02T12:26:17Z</time>
      </trkpt>
      <trkpt lat="47.25667" lon="-1.54543">
        <ele>60</ele>
        <time>2022-04-02T12:26:19Z</time>
      </trkpt>
      <trkpt lat="47.25667" lon="-1.54527">
        <ele>60</ele>
        <time>2022-04-02T12:26:21Z</time>
      </trkpt>
      <trkpt lat="47.2567" lon="-1.54512">
        <ele>60</ele>
        <time>2022-04-02T12:26:23Z</time>
      </trkpt>
      <trkpt lat="47.25673" lon="-1.54498">
        <ele>60</ele>
        <time>2022-04-02T12:26:25Z</time>
      </trkpt>
      <trkpt lat="47.25677" lon="-1.54484">
        <ele>60</ele>
        <time>2022-04-02T12:26:27Z</time>
      </trkpt>
      <trkpt lat="47.25679" lon="-1.54469">
        <ele>60</ele>
        <time>2022-04-02T12:26:29Z</time>
      </trkpt>
      <trkpt lat="47.25678" lon="-1.54453">
        <ele>60</ele>
        <time>2022-04-02T12:26:31Z</time>
      </trkpt>
      <trkpt lat="47.25677" lon="-1.54437">
        <ele>60</ele>
        <time>2022-04-02T12:26:33Z</time>
      </trkpt>
      <trkpt lat="47.25676" lon="-1.54421">
        <ele>61</ele>
        <time>2022-04-02T12:26:35Z</time>
      </trkpt>
      <trkpt lat="47.25675" lon="-1.54404">
        <ele>60</ele>
        <time>2022-04-02T12:26:37Z</time>
      </trkpt>
      <trkpt lat="47.25675" lon="-1.54388">
        <ele>60</ele>
        <time>2022-04-02T12:26:39Z</time>
      </trkpt>
      <trkpt lat="47.25673" lon="-1.54371">
        <ele>60</ele>
        <time>2022-04-02T12:26:41Z</time>
      </trkpt>
      <trkpt lat="47.25672" lon="-1.54355">
        <ele>60</ele>
        <time>2022-04-02T12:26:43Z</time>
      </trkpt>
      <trkpt lat="47.25672" lon="-1.54338">
        <ele>60</ele>
        <time>2022-04-02T12:26:45Z</time>
      </trkpt>
      <trkpt lat="47.2567" lon="-1.54321">
        <ele>60</ele>
        <time>2022-04-02T12:26:47Z</time>
      </trkpt>
      <trkpt lat="47.25669" lon="-1.54303">
        <ele>60</ele>
        <time>2022-04-02T12:26:49Z</time>
      </trkpt>
      <trkpt lat="47.25668" lon="-1.54286">
        <ele>60</ele>
        <time>2022-04-02T12:26:51Z</time>
      </trkpt>
      <trkpt lat="47.25666" lon="-1.5426">
        <ele>60</ele>
        <time>2022-04-02T12:26:54Z</time>
      </trkpt>
      <trkpt lat="47.25664" lon="-1.54234">
        <ele>60</ele>
        <time>2022-04-02T12:26:57Z</time>
      </trkpt>
      <trkpt lat="47.25662" lon="-1.54217">
        <ele>61</ele>
        <time>2022-04-02T12:26:59Z</time>
      </trkpt>
      <trkpt lat="47.25661" lon="-1.542">
        <ele>61</ele>
        <time>2022-04-02T12:27:01Z</time>
      </trkpt>
      <trkpt lat="47.2566" lon="-1.54181">
        <ele>61</ele>
        <time>2022-04-02T12:27:03Z</time>
      </trkpt>
      <trkpt lat="47.25658" lon="-1.54163">
        <ele>61</ele>
        <time>2022-04-02T12:27:05Z</time>
      </trkpt>
      <trkpt lat="47.25656" lon="-1.54144">
        <ele>62</ele>
        <time>2022-04-02T12:27:07Z</time>
      </trkpt>
      <trkpt lat="47.25652" lon="-1.54128">
        <ele>62</ele>
        <time>2022-04-02T12:27:09Z</time>
      </trkpt>
      <trkpt lat="47.25648" lon="-1.54114">
        <ele>62</ele>
        <time>2022-04-02T12:27:11Z</time>
      </trkpt>
      <trkpt lat="47.25642" lon="-1.54101">
        <ele>63</ele>
        <time>2022-04-02T12:27:13Z</time>
      </trkpt>
      <trkpt lat="47.25636" lon="-1.5409">
        <ele>65</ele>
        <time>2022-04-02T12:27:15Z</time>
      </trkpt>
      <trkpt lat="47.25629" lon="-1.54079">
        <ele>65</ele>
        <time>2022-04-02T12:27:17Z</time>
      </trkpt>
      <trkpt lat="47.25622" lon="-1.54067">
        <ele>66</ele>
        <time>2022-04-02T12:27:19Z</time>
      </trkpt>
      <trkpt lat="47.25617" lon="-1.54052">
        <ele>66</ele>
        <time>2022-04-02T12:27:21Z</time>
      </trkpt>
      <trkpt lat="47.25612" lon="-1.54038">
        <ele>66</ele>
        <time>2022-04-02T12:27:23Z</time>
      </trkpt>
      <trkpt lat="47.25608" lon="-1.54022">
        <ele>66</ele>
        <time>2022-04-02T12:27:25Z</time>
      </trkpt>
      <trkpt lat="47.25604" lon="-1.54006">
        <ele>66</ele>
        <time>2022-04-02T12:27:27Z</time>
      </trkpt>
      <trkpt lat="47.256" lon="-1.5399">
        <ele>66</ele>
        <time>2022-04-02T12:27:29Z</time>
      </trkpt>
      <trkpt lat="47.25596" lon="-1.53975">
        <ele>66</ele>
        <time>2022-04-02T12:27:31Z</time>
      </trkpt>
      <trkpt lat="47.25591" lon="-1.53959">
        <ele>66</ele>
        <time>2022-04-02T12:27:33Z</time>
      </trkpt>
      <trkpt lat="47.25587" lon="-1.53943">
        <ele>66</ele>
        <time>2022-04-02T12:27:35Z</time>
      </trkpt>
      <trkpt lat="47.25582" lon="-1.53927">
        <ele>66</ele>
        <time>2022-04-02T12:27:37Z</time>
      </trkpt>
      <trkpt lat="47.25577" lon="-1.5391">
        <ele>66</ele>
        <time>2022-04-02T12:27:39Z</time>
      </trkpt>
      <trkpt lat="47.25573" lon="-1.53894">
        <ele>66</ele>
        <time>2022-04-02T12:27:41Z</time>
      </trkpt>
      <trkpt lat="47.25569" lon="-1.53877">
        <ele>66</ele>
        <time>2022-04-02T12:27:43Z</time>
      </trkpt>
      <trkpt lat="47.25564" lon="-1.53862">
        <ele>65</ele>
        <time>2022-04-02T12:27:45Z</time>
      </trkpt>
      <trkpt lat="47.2556" lon="-1.53846">
        <ele>66</ele>
        <time>2022-04-02T12:27:47Z</time>
      </trkpt>
      <trkpt lat="47.25556" lon="-1.5383">
        <ele>66</ele>
        <time>2022-04-02T12:27:49Z</time>
      </trkpt>
      <trkpt lat="47.25551" lon="-1.53815">
        <ele>66</ele>
        <time>2022-04-02T12:27:51Z</time>
      </trkpt>
      <trkpt lat="47.25547" lon="-1.53799">
        <ele>66</ele>
        <time>2022-04-02T12:27:53Z</time>
      </trkpt>
      <trkpt lat="47.25543" lon="-1.53782">
        <ele>66</ele>
        <time>2022-04-02T12:27:55Z</time>
      </trkpt>
      <trkpt lat="47.25538" lon="-1.53766">
        <ele>66</ele>
        <time>2022-04-02T12:27:57Z</time>
      </trkpt>
      <trkpt lat="47.25534" lon="-1.53751">
        <ele>66</ele>
        <time>2022-04-02T12:27:59Z</time>
      </trkpt>
      <trkpt lat="47.2553" lon="-1.53734">
        <ele>66</ele>
        <time>2022-04-02T12:28:01Z</time>
      </trkpt>
      <trkpt lat="47.25525" lon="-1.53719">
        <ele>66</ele>
        <time>2022-04-02T12:28:03Z</time>
      </trkpt>
      <trkpt lat="47.2552" lon="-1.53704">
        <ele>66</ele>
        <time>2022-04-02T12:28:05Z</time>
      </trkpt>
      <trkpt lat="47.25517" lon="-1.53688">
        <ele>65</ele>
        <time>2022-04-02T12:28:07Z</time>
      </trkpt>
      <trkpt lat="47.25515" lon="-1.53669">
        <ele>65</ele>
        <time>2022-04-02T12:28:09Z</time>
      </trkpt>
      <trkpt lat="47.25515" lon="-1.53648">
        <ele>64</ele>
        <time>2022-04-02T12:28:11Z</time>
      </trkpt>
      <trkpt lat="47.25516" lon="-1.53626">
        <ele>63</ele>
        <time>2022-04-02T12:28:13Z</time>
      </trkpt>
      <trkpt lat="47.25517" lon="-1.53605">
        <ele>63</ele>
        <time>2022-04-02T12:28:15Z</time>
      </trkpt>
      <trkpt lat="47.25516" lon="-1.53586">
        <ele>63</ele>
        <time>2022-04-02T12:28:17Z</time>
      </trkpt>
      <trkpt lat="47.25513" lon="-1.53568">
        <ele>63</ele>
        <time>2022-04-02T12:28:19Z</time>
      </trkpt>
      <trkpt lat="47.2551" lon="-1.5355">
        <ele>63</ele>
        <time>2022-04-02T12:28:21Z</time>
      </trkpt>
      <trkpt lat="47.25509" lon="-1.53531">
        <ele>63</ele>
        <time>2022-04-02T12:28:23Z</time>
      </trkpt>
      <trkpt lat="47.25507" lon="-1.53512">
        <ele>64</ele>
        <time>2022-04-02T12:28:25Z</time>
      </trkpt>
      <trkpt lat="47.25505" lon="-1.53493">
        <ele>64</ele>
        <time>2022-04-02T12:28:27Z</time>
      </trkpt>
      <trkpt lat="47.25503" lon="-1.53475">
        <ele>64</ele>
        <time>2022-04-02T12:28:29Z</time>
      </trkpt>
      <trkpt lat="47.25502" lon="-1.53457">
        <ele>64</ele>
        <time>2022-04-02T12:28:31Z</time>
      </trkpt>
      <trkpt lat="47.255" lon="-1.53439">
        <ele>65</ele>
        <time>2022-04-02T12:28:33Z</time>
      </trkpt>
      <trkpt lat="47.255" lon="-1.53422">
        <ele>65</ele>
        <time>2022-04-02T12:28:35Z</time>
      </trkpt>
      <trkpt lat="47.25498" lon="-1.53404">
        <ele>65</ele>
        <time>2022-04-02T12:28:37Z</time>
      </trkpt>
      <trkpt lat="47.25496" lon="-1.53387">
        <ele>65</ele>
        <time>2022-04-02T12:28:39Z</time>
      </trkpt>
      <trkpt lat="47.25494" lon="-1.53371">
        <ele>66</ele>
        <time>2022-04-02T12:28:41Z</time>
      </trkpt>
      <trkpt lat="47.25492" lon="-1.53355">
        <ele>66</ele>
        <time>2022-04-02T12:28:43Z</time>
      </trkpt>
      <trkpt lat="47.2549" lon="-1.53338">
        <ele>67</ele>
        <time>2022-04-02T12:28:45Z</time>
      </trkpt>
      <trkpt lat="47.25489" lon="-1.53321">
        <ele>67</ele>
        <time>2022-04-02T12:28:47Z</time>
      </trkpt>
      <trkpt lat="47.25487" lon="-1.53304">
        <ele>67</ele>
        <time>2022-04-02T12:28:49Z</time>
      </trkpt>
      <trkpt lat="47.25485" lon="-1.53289">
        <ele>68</ele>
        <time>2022-04-02T12:28:51Z</time>
      </trkpt>
      <trkpt lat="47.25484" lon="-1.53272">
        <ele>68</ele>
        <time>2022-04-02T12:28:53Z</time>
      </trkpt>
      <trkpt lat="47.25481" lon="-1.53256">
        <ele>68</ele>
        <time>2022-04-02T12:28:55Z</time>
      </trkpt>
      <trkpt lat="47.2548" lon="-1.53239">
        <ele>68</ele>
        <time>2022-04-02T12:28:57Z</time>
      </trkpt>
      <trkpt lat="47.25478" lon="-1.53223">
        <ele>68</ele>
        <time>2022-04-02T12:28:59Z</time>
      </trkpt>
      <trkpt lat="47.25477" lon="-1.53206">
        <ele>69</ele>
        <time>2022-04-02T12:29:01Z</time>
      </trkpt>
      <trkpt lat="47.25476" lon="-1.5319">
        <ele>69</ele>
        <time>2022-04-02T12:29:03Z</time>
      </trkpt>
      <trkpt lat="47.25475" lon="-1.53174">
        <ele>70</ele>
        <time>2022-04-02T12:29:05Z</time>
      </trkpt>
      <trkpt lat="47.25475" lon="-1.53158">
        <ele>70</ele>
        <time>2022-04-02T12:29:07Z</time>
      </trkpt>
      <trkpt lat="47.25475" lon="-1.53143">
        <ele>70</ele>
        <time>2022-04-02T12:29:09Z</time>
      </trkpt>
      <trkpt lat="47.25475" lon="-1.53127">
        <ele>70</ele>
        <time>2022-04-02T12:29:11Z</time>
      </trkpt>
      <trkpt lat="47.25475" lon="-1.53111">
        <ele>70</ele>
        <time>2022-04-02T12:29:13Z</time>
      </trkpt>
      <trkpt lat="47.25475" lon="-1.53095">
        <ele>69</ele>
        <time>2022-04-02T12:29:15Z</time>
      </trkpt>
      <trkpt lat="47.25474" lon="-1.5308">
        <ele>69</ele>
        <time>2022-04-02T12:29:17Z</time>
      </trkpt>
      <trkpt lat="47.25469" lon="-1.53067">
        <ele>69</ele>
        <time>2022-04-02T12:29:19Z</time>
      </trkpt>
      <trkpt lat="47.25467" lon="-1.53052">
        <ele>69</ele>
        <time>2022-04-02T12:29:21Z</time>
      </trkpt>
      <trkpt lat="47.25466" lon="-1.53037">
        <ele>69</ele>
        <time>2022-04-02T12:29:23Z</time>
      </trkpt>
      <trkpt lat="47.25467" lon="-1.53024">
        <ele>69</ele>
        <time>2022-04-02T12:29:25Z</time>
      </trkpt>
      <trkpt lat="47.25461" lon="-1.5301">
        <ele>69</ele>
        <time>2022-04-02T12:29:28Z</time>
      </trkpt>
      <trkpt lat="47.25451" lon="-1.53007">
        <ele>69</ele>
        <time>2022-04-02T12:29:30Z</time>
      </trkpt>
      <trkpt lat="47.2544" lon="-1.53004">
        <ele>69</ele>
        <time>2022-04-02T12:29:32Z</time>
      </trkpt>
      <trkpt lat="47.2543" lon="-1.53002">
        <ele>68</ele>
        <time>2022-04-02T12:29:34Z</time>
      </trkpt>
      <trkpt lat="47.25419" lon="-1.52996">
        <ele>68</ele>
        <time>2022-04-02T12:29:36Z</time>
      </trkpt>
      <trkpt lat="47.25407" lon="-1.52989">
        <ele>68</ele>
        <time>2022-04-02T12:29:38Z</time>
      </trkpt>
      <trkpt lat="47.25393" lon="-1.52988">
        <ele>68</ele>
        <time>2022-04-02T12:29:40Z</time>
      </trkpt>
      <trkpt lat="47.25378" lon="-1.52986">
        <ele>69</ele>
        <time>2022-04-02T12:29:42Z</time>
      </trkpt>
      <trkpt lat="47.25364" lon="-1.52984">
        <ele>69</ele>
        <time>2022-04-02T12:29:44Z</time>
      </trkpt>
      <trkpt lat="47.25351" lon="-1.52979">
        <ele>69</ele>
        <time>2022-04-02T12:29:46Z</time>
      </trkpt>
      <trkpt lat="47.25339" lon="-1.52976">
        <ele>69</ele>
        <time>2022-04-02T12:29:48Z</time>
      </trkpt>
      <trkpt lat="47.25329" lon="-1.52969">
        <ele>69</ele>
        <time>2022-04-02T12:29:50Z</time>
      </trkpt>
      <trkpt lat="47.25321" lon="-1.52963">
        <ele>70</ele>
        <time>2022-04-02T12:29:52Z</time>
      </trkpt>
      <trkpt lat="47.25316" lon="-1.52947">
        <ele>70</ele>
        <time>2022-04-02T12:29:55Z</time>
      </trkpt>
      <trkpt lat="47.2531" lon="-1.52935">
        <ele>70</ele>
        <time>2022-04-02T12:29:57Z</time>
      </trkpt>
      <trkpt lat="47.25303" lon="-1.52921">
        <ele>70</ele>
        <time>2022-04-02T12:29:59Z</time>
      </trkpt>
      <trkpt lat="47.25296" lon="-1.52904">
        <ele>70</ele>
        <time>2022-04-02T12:30:01Z</time>
      </trkpt>
      <trkpt lat="47.25289" lon="-1.52887">
        <ele>70</ele>
        <time>2022-04-02T12:30:03Z</time>
      </trkpt>
      <trkpt lat="47.25283" lon="-1.52871">
        <ele>70</ele>
        <time>2022-04-02T12:30:05Z</time>
      </trkpt>
      <trkpt lat="47.25275" lon="-1.52856">
        <ele>70</ele>
        <time>2022-04-02T12:30:07Z</time>
      </trkpt>
      <trkpt lat="47.25268" lon="-1.5284">
        <ele>71</ele>
        <time>2022-04-02T12:30:09Z</time>
      </trkpt>
      <trkpt lat="47.25261" lon="-1.52824">
        <ele>71</ele>
        <time>2022-04-02T12:30:11Z</time>
      </trkpt>
      <trkpt lat="47.25253" lon="-1.52808">
        <ele>71</ele>
        <time>2022-04-02T12:30:13Z</time>
      </trkpt>
      <trkpt lat="47.25244" lon="-1.52793">
        <ele>71</ele>
        <time>2022-04-02T12:30:15Z</time>
      </trkpt>
      <trkpt lat="47.25236" lon="-1.52777">
        <ele>71</ele>
        <time>2022-04-02T12:30:17Z</time>
      </trkpt>
      <trkpt lat="47.25228" lon="-1.52761">
        <ele>71</ele>
        <time>2022-04-02T12:30:19Z</time>
      </trkpt>
      <trkpt lat="47.25219" lon="-1.52746">
        <ele>71</ele>
        <time>2022-04-02T12:30:21Z</time>
      </trkpt>
      <trkpt lat="47.25211" lon="-1.52731">
        <ele>71</ele>
        <time>2022-04-02T12:30:23Z</time>
      </trkpt>
      <trkpt lat="47.25203" lon="-1.52716">
        <ele>71</ele>
        <time>2022-04-02T12:30:25Z</time>
      </trkpt>
      <trkpt lat="47.25194" lon="-1.52702">
        <ele>71</ele>
        <time>2022-04-02T12:30:27Z</time>
      </trkpt>
      <trkpt lat="47.25186" lon="-1.52688">
        <ele>71</ele>
        <time>2022-04-02T12:30:29Z</time>
      </trkpt>
      <trkpt lat="47.25177" lon="-1.52673">
        <ele>71</ele>
        <time>2022-04-02T12:30:31Z</time>
      </trkpt>
      <trkpt lat="47.25169" lon="-1.52659">
        <ele>71</ele>
        <time>2022-04-02T12:30:33Z</time>
      </trkpt>
      <trkpt lat="47.2516" lon="-1.52645">
        <ele>71</ele>
        <time>2022-04-02T12:30:35Z</time>
      </trkpt>
      <trkpt lat="47.25151" lon="-1.5263">
        <ele>71</ele>
        <time>2022-04-02T12:30:37Z</time>
      </trkpt>
      <trkpt lat="47.25143" lon="-1.52616">
        <ele>71</ele>
        <time>2022-04-02T12:30:39Z</time>
      </trkpt>
      <trkpt lat="47.25134" lon="-1.52602">
        <ele>71</ele>
        <time>2022-04-02T12:30:41Z</time>
      </trkpt>
      <trkpt lat="47.25126" lon="-1.52588">
        <ele>72</ele>
        <time>2022-04-02T12:30:43Z</time>
      </trkpt>
      <trkpt lat="47.25117" lon="-1.52574">
        <ele>72</ele>
        <time>2022-04-02T12:30:45Z</time>
      </trkpt>
      <trkpt lat="47.25108" lon="-1.5256">
        <ele>73</ele>
        <time>2022-04-02T12:30:47Z</time>
      </trkpt>
      <trkpt lat="47.251" lon="-1.52546">
        <ele>72</ele>
        <time>2022-04-02T12:30:49Z</time>
      </trkpt>
      <trkpt lat="47.25091" lon="-1.52532">
        <ele>72</ele>
        <time>2022-04-02T12:30:51Z</time>
      </trkpt>
      <trkpt lat="47.25084" lon="-1.52519">
        <ele>72</ele>
        <time>2022-04-02T12:30:53Z</time>
      </trkpt>
      <trkpt lat="47.25077" lon="-1.52507">
        <ele>72</ele>
        <time>2022-04-02T12:30:55Z</time>
      </trkpt>
      <trkpt lat="47.25069" lon="-1.52499">
        <ele>71</ele>
        <time>2022-04-02T12:30:57Z</time>
      </trkpt>
      <trkpt lat="47.25064" lon="-1.52486">
        <ele>71</ele>
        <time>2022-04-02T12:30:59Z</time>
      </trkpt>
      <trkpt lat="47.25056" lon="-1.52473">
        <ele>71</ele>
        <time>2022-04-02T12:31:01Z</time>
      </trkpt>
      <trkpt lat="47.25049" lon="-1.52465">
        <ele>71</ele>
        <time>2022-04-02T12:31:03Z</time>
      </trkpt>
      <trkpt lat="47.25042" lon="-1.52451">
        <ele>71</ele>
        <time>2022-04-02T12:31:06Z</time>
      </trkpt>
      <trkpt lat="47.25033" lon="-1.52438">
        <ele>71</ele>
        <time>2022-04-02T12:31:08Z</time>
      </trkpt>
      <trkpt lat="47.25025" lon="-1.52424">
        <ele>70</ele>
        <time>2022-04-02T12:31:10Z</time>
      </trkpt>
      <trkpt lat="47.25016" lon="-1.52409">
        <ele>70</ele>
        <time>2022-04-02T12:31:12Z</time>
      </trkpt>
      <trkpt lat="47.25007" lon="-1.52394">
        <ele>70</ele>
        <time>2022-04-02T12:31:14Z</time>
      </trkpt>
      <trkpt lat="47.24997" lon="-1.5238">
        <ele>70</ele>
        <time>2022-04-02T12:31:16Z</time>
      </trkpt>
      <trkpt lat="47.2499" lon="-1.52366">
        <ele>69</ele>
        <time>2022-04-02T12:31:18Z</time>
      </trkpt>
      <trkpt lat="47.24982" lon="-1.52351">
        <ele>69</ele>
        <time>2022-04-02T12:31:20Z</time>
      </trkpt>
      <trkpt lat="47.24973" lon="-1.52336">
        <ele>69</ele>
        <time>2022-04-02T12:31:22Z</time>
      </trkpt>
      <trkpt lat="47.24964" lon="-1.52321">
        <ele>69</ele>
        <time>2022-04-02T12:31:24Z</time>
      </trkpt>
      <trkpt lat="47.24955" lon="-1.52306">
        <ele>69</ele>
        <time>2022-04-02T12:31:26Z</time>
      </trkpt>
      <trkpt lat="47.24947" lon="-1.52291">
        <ele>69</ele>
        <time>2022-04-02T12:31:28Z</time>
      </trkpt>
      <trkpt lat="47.24938" lon="-1.52277">
        <ele>69</ele>
        <time>2022-04-02T12:31:30Z</time>
      </trkpt>
      <trkpt lat="47.24929" lon="-1.52263">
        <ele>69</ele>
        <time>2022-04-02T12:31:32Z</time>
      </trkpt>
      <trkpt lat="47.2492" lon="-1.52249">
        <ele>69</ele>
        <time>2022-04-02T12:31:34Z</time>
      </trkpt>
      <trkpt lat="47.24911" lon="-1.52233">
        <ele>69</ele>
        <time>2022-04-02T12:31:36Z</time>
      </trkpt>
      <trkpt lat="47.24902" lon="-1.52218">
        <ele>69</ele>
        <time>2022-04-02T12:31:38Z</time>
      </trkpt>
      <trkpt lat="47.24892" lon="-1.52204">
        <ele>69</ele>
        <time>2022-04-02T12:31:40Z</time>
      </trkpt>
      <trkpt lat="47.24883" lon="-1.52189">
        <ele>69</ele>
        <time>2022-04-02T12:31:42Z</time>
      </trkpt>
      <trkpt lat="47.24875" lon="-1.52172">
        <ele>68</ele>
        <time>2022-04-02T12:31:44Z</time>
      </trkpt>
      <trkpt lat="47.24871" lon="-1.52152">
        <ele>68</ele>
        <time>2022-04-02T12:31:46Z</time>
      </trkpt>
      <trkpt lat="47.24866" lon="-1.52136">
        <ele>68</ele>
        <time>2022-04-02T12:31:48Z</time>
      </trkpt>
      <trkpt lat="47.24859" lon="-1.52122">
        <ele>68</ele>
        <time>2022-04-02T12:31:50Z</time>
      </trkpt>
      <trkpt lat="47.24854" lon="-1.52104">
        <ele>68</ele>
        <time>2022-04-02T12:31:52Z</time>
      </trkpt>
      <trkpt lat="47.24843" lon="-1.52092">
        <ele>68</ele>
        <time>2022-04-02T12:31:54Z</time>
      </trkpt>
      <trkpt lat="47.24829" lon="-1.52081">
        <ele>68</ele>
        <time>2022-04-02T12:31:56Z</time>
      </trkpt>
      <trkpt lat="47.24816" lon="-1.52066">
        <ele>68</ele>
        <time>2022-04-02T12:31:58Z</time>
      </trkpt>
      <trkpt lat="47.24804" lon="-1.5205">
        <ele>68</ele>
        <time>2022-04-02T12:32:00Z</time>
      </trkpt>
      <trkpt lat="47.24791" lon="-1.52035">
        <ele>67</ele>
        <time>2022-04-02T12:32:02Z</time>
      </trkpt>
      <trkpt lat="47.24777" lon="-1.5202">
        <ele>67</ele>
        <time>2022-04-02T12:32:04Z</time>
      </trkpt>
      <trkpt lat="47.24763" lon="-1.52005">
        <ele>67</ele>
        <time>2022-04-02T12:32:06Z</time>
      </trkpt>
      <trkpt lat="47.2475" lon="-1.5199">
        <ele>66</ele>
        <time>2022-04-02T12:32:08Z</time>
      </trkpt>
      <trkpt lat="47.24737" lon="-1.51975">
        <ele>66</ele>
        <time>2022-04-02T12:32:10Z</time>
      </trkpt>
      <trkpt lat="47.24724" lon="-1.5196">
        <ele>66</ele>
        <time>2022-04-02T12:32:12Z</time>
      </trkpt>
      <trkpt lat="47.2471" lon="-1.51948">
        <ele>66</ele>
        <time>2022-04-02T12:32:14Z</time>
      </trkpt>
      <trkpt lat="47.24697" lon="-1.51936">
        <ele>66</ele>
        <time>2022-04-02T12:32:16Z</time>
      </trkpt>
      <trkpt lat="47.24682" lon="-1.51924">
        <ele>65</ele>
        <time>2022-04-02T12:32:18Z</time>
      </trkpt>
      <trkpt lat="47.24668" lon="-1.51912">
        <ele>65</ele>
        <time>2022-04-02T12:32:20Z</time>
      </trkpt>
      <trkpt lat="47.24654" lon="-1.51901">
        <ele>64</ele>
        <time>2022-04-02T12:32:22Z</time>
      </trkpt>
      <trkpt lat="47.24637" lon="-1.51894">
        <ele>63</ele>
        <time>2022-04-02T12:32:24Z</time>
      </trkpt>
      <trkpt lat="47.2462" lon="-1.51887">
        <ele>63</ele>
        <time>2022-04-02T12:32:26Z</time>
      </trkpt>
      <trkpt lat="47.24604" lon="-1.5188">
        <ele>63</ele>
        <time>2022-04-02T12:32:28Z</time>
      </trkpt>
      <trkpt lat="47.24588" lon="-1.51872">
        <ele>63</ele>
        <time>2022-04-02T12:32:30Z</time>
      </trkpt>
      <trkpt lat="47.24572" lon="-1.51865">
        <ele>62</ele>
        <time>2022-04-02T12:32:32Z</time>
      </trkpt>
      <trkpt lat="47.24556" lon="-1.51857">
        <ele>62</ele>
        <time>2022-04-02T12:32:34Z</time>
      </trkpt>
      <trkpt lat="47.2454" lon="-1.51849">
        <ele>62</ele>
        <time>2022-04-02T12:32:36Z</time>
      </trkpt>
      <trkpt lat="47.24524" lon="-1.51841">
        <ele>62</ele>
        <time>2022-04-02T12:32:38Z</time>
      </trkpt>
      <trkpt lat="47.24515" lon="-1.51838">
        <ele>62</ele>
        <time>2022-04-02T12:32:39Z</time>
      </trkpt>
      <trkpt lat="47.24498" lon="-1.51831">
        <ele>62</ele>
        <time>2022-04-02T12:32:41Z</time>
      </trkpt>
      <trkpt lat="47.24482" lon="-1.51824">
        <ele>61</ele>
        <time>2022-04-02T12:32:43Z</time>
      </trkpt>
      <trkpt lat="47.24465" lon="-1.51818">
        <ele>60</ele>
        <time>2022-04-02T12:32:45Z</time>
      </trkpt>
      <trkpt lat="47.24449" lon="-1.51811">
        <ele>60</ele>
        <time>2022-04-02T12:32:47Z</time>
      </trkpt>
      <trkpt lat="47.24433" lon="-1.51804">
        <ele>60</ele>
        <time>2022-04-02T12:32:49Z</time>
      </trkpt>
      <trkpt lat="47.24418" lon="-1.51794">
        <ele>60</ele>
        <time>2022-04-02T12:32:51Z</time>
      </trkpt>
      <trkpt lat="47.24404" lon="-1.51785">
        <ele>60</ele>
        <time>2022-04-02T12:32:53Z</time>
      </trkpt>
      <trkpt lat="47.24389" lon="-1.51775">
        <ele>60</ele>
        <time>2022-04-02T12:32:55Z</time>
      </trkpt>
      <trkpt lat="47.24375" lon="-1.51766">
        <ele>59</ele>
        <time>2022-04-02T12:32:57Z</time>
      </trkpt>
      <trkpt lat="47.2436" lon="-1.51758">
        <ele>59</ele>
        <time>2022-04-02T12:32:59Z</time>
      </trkpt>
      <trkpt lat="47.24345" lon="-1.51753">
        <ele>59</ele>
        <time>2022-04-02T12:33:01Z</time>
      </trkpt>
      <trkpt lat="47.24331" lon="-1.51753">
        <ele>59</ele>
        <time>2022-04-02T12:33:03Z</time>
      </trkpt>
      <trkpt lat="47.24317" lon="-1.51745">
        <ele>58</ele>
        <time>2022-04-02T12:33:05Z</time>
      </trkpt>
      <trkpt lat="47.24307" lon="-1.51727">
        <ele>58</ele>
        <time>2022-04-02T12:33:07Z</time>
      </trkpt>
      <trkpt lat="47.24295" lon="-1.5171">
        <ele>57</ele>
        <time>2022-04-02T12:33:09Z</time>
      </trkpt>
      <trkpt lat="47.24284" lon="-1.51694">
        <ele>57</ele>
        <time>2022-04-02T12:33:11Z</time>
      </trkpt>
      <trkpt lat="47.24273" lon="-1.51677">
        <ele>57</ele>
        <time>2022-04-02T12:33:13Z</time>
      </trkpt>
      <trkpt lat="47.24263" lon="-1.5166">
        <ele>57</ele>
        <time>2022-04-02T12:33:15Z</time>
      </trkpt>
      <trkpt lat="47.24252" lon="-1.51644">
        <ele>57</ele>
        <time>2022-04-02T12:33:17Z</time>
      </trkpt>
      <trkpt lat="47.24241" lon="-1.51629">
        <ele>57</ele>
        <time>2022-04-02T12:33:19Z</time>
      </trkpt>
      <trkpt lat="47.24231" lon="-1.51613">
        <ele>57</ele>
        <time>2022-04-02T12:33:21Z</time>
      </trkpt>
      <trkpt lat="47.24221" lon="-1.51597">
        <ele>57</ele>
        <time>2022-04-02T12:33:23Z</time>
      </trkpt>
      <trkpt lat="47.2421" lon="-1.51581">
        <ele>58</ele>
        <time>2022-04-02T12:33:25Z</time>
      </trkpt>
      <trkpt lat="47.24199" lon="-1.51564">
        <ele>58</ele>
        <time>2022-04-02T12:33:27Z</time>
      </trkpt>
      <trkpt lat="47.24188" lon="-1.51546">
        <ele>58</ele>
        <time>2022-04-02T12:33:29Z</time>
      </trkpt>
      <trkpt lat="47.24178" lon="-1.51529">
        <ele>59</ele>
        <time>2022-04-02T12:33:31Z</time>
      </trkpt>
      <trkpt lat="47.24167" lon="-1.51512">
        <ele>59</ele>
        <time>2022-04-02T12:33:33Z</time>
      </trkpt>
      <trkpt lat="47.24156" lon="-1.51495">
        <ele>59</ele>
        <time>2022-04-02T12:33:35Z</time>
      </trkpt>
      <trkpt lat="47.24146" lon="-1.51479">
        <ele>58</ele>
        <time>2022-04-02T12:33:37Z</time>
      </trkpt>
      <trkpt lat="47.24136" lon="-1.51462">
        <ele>58</ele>
        <time>2022-04-02T12:33:39Z</time>
      </trkpt>
      <trkpt lat="47.24126" lon="-1.51446">
        <ele>58</ele>
        <time>2022-04-02T12:33:41Z</time>
      </trkpt>
      <trkpt lat="47.24116" lon="-1.51429">
        <ele>59</ele>
        <time>2022-04-02T12:33:43Z</time>
      </trkpt>
      <trkpt lat="47.24106" lon="-1.51411">
        <ele>59</ele>
        <time>2022-04-02T12:33:45Z</time>
      </trkpt>
      <trkpt lat="47.24097" lon="-1.51393">
        <ele>59</ele>
        <time>2022-04-02T12:33:47Z</time>
      </trkpt>
      <trkpt lat="47.24087" lon="-1.51375">
        <ele>59</ele>
        <time>2022-04-02T12:33:49Z</time>
      </trkpt>
      <trkpt lat="47.24077" lon="-1.51358">
        <ele>59</ele>
        <time>2022-04-02T12:33:51Z</time>
      </trkpt>
      <trkpt lat="47.24068" lon="-1.5134">
        <ele>59</ele>
        <time>2022-04-02T12:33:53Z</time>
      </trkpt>
      <trkpt lat="47.24058" lon="-1.51323">
        <ele>59</ele>
        <time>2022-04-02T12:33:55Z</time>
      </trkpt>
      <trkpt lat="47.24049" lon="-1.51305">
        <ele>59</ele>
        <time>2022-04-02T12:33:57Z</time>
      </trkpt>
      <trkpt lat="47.2404" lon="-1.51288">
        <ele>59</ele>
        <time>2022-04-02T12:33:59Z</time>
      </trkpt>
      <trkpt lat="47.24032" lon="-1.51271">
        <ele>59</ele>
        <time>2022-04-02T12:34:01Z</time>
      </trkpt>
      <trkpt lat="47.24022" lon="-1.51255">
        <ele>58</ele>
        <time>2022-04-02T12:34:03Z</time>
      </trkpt>
      <trkpt lat="47.24014" lon="-1.51238">
        <ele>59</ele>
        <time>2022-04-02T12:34:05Z</time>
      </trkpt>
      <trkpt lat="47.24006" lon="-1.51221">
        <ele>58</ele>
        <time>2022-04-02T12:34:07Z</time>
      </trkpt>
      <trkpt lat="47.23997" lon="-1.51205">
        <ele>58</ele>
        <time>2022-04-02T12:34:09Z</time>
      </trkpt>
      <trkpt lat="47.2399" lon="-1.51186">
        <ele>58</ele>
        <time>2022-04-02T12:34:11Z</time>
      </trkpt>
      <trkpt lat="47.23982" lon="-1.51168">
        <ele>57</ele>
        <time>2022-04-02T12:34:13Z</time>
      </trkpt>
      <trkpt lat="47.23974" lon="-1.5115">
        <ele>58</ele>
        <time>2022-04-02T12:34:15Z</time>
      </trkpt>
      <trkpt lat="47.23966" lon="-1.51132">
        <ele>58</ele>
        <time>2022-04-02T12:34:17Z</time>
      </trkpt>
      <trkpt lat="47.23959" lon="-1.51114">
        <ele>58</ele>
        <time>2022-04-02T12:34:19Z</time>
      </trkpt>
      <trkpt lat="47.23953" lon="-1.51095">
        <ele>58</ele>
        <time>2022-04-02T12:34:21Z</time>
      </trkpt>
      <trkpt lat="47.23947" lon="-1.51077">
        <ele>59</ele>
        <time>2022-04-02T12:34:23Z</time>
      </trkpt>
      <trkpt lat="47.23941" lon="-1.51059">
        <ele>59</ele>
        <time>2022-04-02T12:34:25Z</time>
      </trkpt>
      <trkpt lat="47.23936" lon="-1.5104">
        <ele>58</ele>
        <time>2022-04-02T12:34:27Z</time>
      </trkpt>
      <trkpt lat="47.23929" lon="-1.51021">
        <ele>58</ele>
        <time>2022-04-02T12:34:29Z</time>
      </trkpt>
      <trkpt lat="47.23923" lon="-1.51001">
        <ele>58</ele>
        <time>2022-04-02T12:34:31Z</time>
      </trkpt>
      <trkpt lat="47.23917" lon="-1.50982">
        <ele>58</ele>
        <time>2022-04-02T12:34:33Z</time>
      </trkpt>
      <trkpt lat="47.23911" lon="-1.50963">
        <ele>57</ele>
        <time>2022-04-02T12:34:35Z</time>
      </trkpt>
      <trkpt lat="47.23905" lon="-1.50945">
        <ele>57</ele>
        <time>2022-04-02T12:34:37Z</time>
      </trkpt>
      <trkpt lat="47.23898" lon="-1.50927">
        <ele>57</ele>
        <time>2022-04-02T12:34:39Z</time>
      </trkpt>
      <trkpt lat="47.2389" lon="-1.5091">
        <ele>57</ele>
        <time>2022-04-02T12:34:41Z</time>
      </trkpt>
      <trkpt lat="47.23883" lon="-1.50891">
        <ele>57</ele>
        <time>2022-04-02T12:34:43Z</time>
      </trkpt>
      <trkpt lat="47.23877" lon="-1.50873">
        <ele>57</ele>
        <time>2022-04-02T12:34:45Z</time>
      </trkpt>
      <trkpt lat="47.23869" lon="-1.50855">
        <ele>56</ele>
        <time>2022-04-02T12:34:47Z</time>
      </trkpt>
      <trkpt lat="47.23862" lon="-1.50837">
        <ele>56</ele>
        <time>2022-04-02T12:34:49Z</time>
      </trkpt>
      <trkpt lat="47.23855" lon="-1.50818">
        <ele>55</ele>
        <time>2022-04-02T12:34:51Z</time>
      </trkpt>
      <trkpt lat="47.23848" lon="-1.508">
        <ele>55</ele>
        <time>2022-04-02T12:34:53Z</time>
      </trkpt>
      <trkpt lat="47.23841" lon="-1.50783">
        <ele>54</ele>
        <time>2022-04-02T12:34:55Z</time>
      </trkpt>
      <trkpt lat="47.23833" lon="-1.50766">
        <ele>54</ele>
        <time>2022-04-02T12:34:57Z</time>
      </trkpt>
      <trkpt lat="47.23821" lon="-1.50759">
        <ele>54</ele>
        <time>2022-04-02T12:34:59Z</time>
      </trkpt>
      <trkpt lat="47.23808" lon="-1.50765">
        <ele>54</ele>
        <time>2022-04-02T12:35:01Z</time>
      </trkpt>
      <trkpt lat="47.23794" lon="-1.5077">
        <ele>54</ele>
        <time>2022-04-02T12:35:03Z</time>
      </trkpt>
      <trkpt lat="47.23781" lon="-1.50774">
        <ele>53</ele>
        <time>2022-04-02T12:35:05Z</time>
      </trkpt>
      <trkpt lat="47.23768" lon="-1.50778">
        <ele>53</ele>
        <time>2022-04-02T12:35:07Z</time>
      </trkpt>
      <trkpt lat="47.23754" lon="-1.50781">
        <ele>53</ele>
        <time>2022-04-02T12:35:09Z</time>
      </trkpt>
      <trkpt lat="47.23739" lon="-1.50783">
        <ele>54</ele>
        <time>2022-04-02T12:35:11Z</time>
      </trkpt>
      <trkpt lat="47.23724" lon="-1.50787">
        <ele>54</ele>
        <time>2022-04-02T12:35:13Z</time>
      </trkpt>
      <trkpt lat="47.23709" lon="-1.50791">
        <ele>54</ele>
        <time>2022-04-02T12:35:15Z</time>
      </trkpt>
      <trkpt lat="47.23694" lon="-1.50795">
        <ele>54</ele>
        <time>2022-04-02T12:35:17Z</time>
      </trkpt>
      <trkpt lat="47.23678" lon="-1.508">
        <ele>55</ele>
        <time>2022-04-02T12:35:19Z</time>
      </trkpt>
      <trkpt lat="47.23663" lon="-1.50804">
        <ele>55</ele>
        <time>2022-04-02T12:35:21Z</time>
      </trkpt>
      <trkpt lat="47.23649" lon="-1.50807">
        <ele>55</ele>
        <time>2022-04-02T12:35:23Z</time>
      </trkpt>
      <trkpt lat="47.23636" lon="-1.50812">
        <ele>56</ele>
        <time>2022-04-02T12:35:25Z</time>
      </trkpt>
      <trkpt lat="47.23623" lon="-1.50819">
        <ele>56</ele>
        <time>2022-04-02T12:35:27Z</time>
      </trkpt>
      <trkpt lat="47.2361" lon="-1.50827">
        <ele>56</ele>
        <time>2022-04-02T12:35:29Z</time>
      </trkpt>
      <trkpt lat="47.23596" lon="-1.50836">
        <ele>56</ele>
        <time>2022-04-02T12:35:31Z</time>
      </trkpt>
      <trkpt lat="47.23583" lon="-1.50846">
        <ele>56</ele>
        <time>2022-04-02T12:35:33Z</time>
      </trkpt>
      <trkpt lat="47.2357" lon="-1.50857">
        <ele>56</ele>
        <time>2022-04-02T12:35:35Z</time>
      </trkpt>
      <trkpt lat="47.23556" lon="-1.50867">
        <ele>56</ele>
        <time>2022-04-02T12:35:37Z</time>
      </trkpt>
      <trkpt lat="47.23542" lon="-1.50875">
        <ele>56</ele>
        <time>2022-04-02T12:35:39Z</time>
      </trkpt>
      <trkpt lat="47.23529" lon="-1.50885">
        <ele>57</ele>
        <time>2022-04-02T12:35:41Z</time>
      </trkpt>
      <trkpt lat="47.23517" lon="-1.50895">
        <ele>57</ele>
        <time>2022-04-02T12:35:43Z</time>
      </trkpt>
      <trkpt lat="47.23504" lon="-1.50905">
        <ele>57</ele>
        <time>2022-04-02T12:35:45Z</time>
      </trkpt>
      <trkpt lat="47.23491" lon="-1.50913">
        <ele>57</ele>
        <time>2022-04-02T12:35:47Z</time>
      </trkpt>
      <trkpt lat="47.23479" lon="-1.50922">
        <ele>56</ele>
        <time>2022-04-02T12:35:49Z</time>
      </trkpt>
      <trkpt lat="47.23466" lon="-1.50933">
        <ele>56</ele>
        <time>2022-04-02T12:35:51Z</time>
      </trkpt>
      <trkpt lat="47.23453" lon="-1.50943">
        <ele>56</ele>
        <time>2022-04-02T12:35:53Z</time>
      </trkpt>
      <trkpt lat="47.2344" lon="-1.50953">
        <ele>57</ele>
        <time>2022-04-02T12:35:55Z</time>
      </trkpt>
      <trkpt lat="47.23428" lon="-1.50963">
        <ele>57</ele>
        <time>2022-04-02T12:35:57Z</time>
      </trkpt>
      <trkpt lat="47.23415" lon="-1.50972">
        <ele>57</ele>
        <time>2022-04-02T12:35:59Z</time>
      </trkpt>
      <trkpt lat="47.23403" lon="-1.50982">
        <ele>57</ele>
        <time>2022-04-02T12:36:01Z</time>
      </trkpt>
      <trkpt lat="47.23392" lon="-1.50995">
        <ele>57</ele>
        <time>2022-04-02T12:36:03Z</time>
      </trkpt>
      <trkpt lat="47.23383" lon="-1.5101">
        <ele>57</ele>
        <time>2022-04-02T12:36:05Z</time>
      </trkpt>
      <trkpt lat="47.23375" lon="-1.51027">
        <ele>57</ele>
        <time>2022-04-02T12:36:07Z</time>
      </trkpt>
      <trkpt lat="47.23369" lon="-1.51044">
        <ele>58</ele>
        <time>2022-04-02T12:36:09Z</time>
      </trkpt>
      <trkpt lat="47.23362" lon="-1.51062">
        <ele>58</ele>
        <time>2022-04-02T12:36:11Z</time>
      </trkpt>
      <trkpt lat="47.23356" lon="-1.51079">
        <ele>57</ele>
        <time>2022-04-02T12:36:13Z</time>
      </trkpt>
      <trkpt lat="47.2335" lon="-1.51095">
        <ele>58</ele>
        <time>2022-04-02T12:36:15Z</time>
      </trkpt>
      <trkpt lat="47.23343" lon="-1.5111">
        <ele>58</ele>
        <time>2022-04-02T12:36:17Z</time>
      </trkpt>
      <trkpt lat="47.23336" lon="-1.51126">
        <ele>59</ele>
        <time>2022-04-02T12:36:19Z</time>
      </trkpt>
      <trkpt lat="47.2333" lon="-1.51141">
        <ele>59</ele>
        <time>2022-04-02T12:36:21Z</time>
      </trkpt>
      <trkpt lat="47.23323" lon="-1.51156">
        <ele>59</ele>
        <time>2022-04-02T12:36:23Z</time>
      </trkpt>
      <trkpt lat="47.23317" lon="-1.51171">
        <ele>59</ele>
        <time>2022-04-02T12:36:25Z</time>
      </trkpt>
      <trkpt lat="47.23311" lon="-1.51187">
        <ele>59</ele>
        <time>2022-04-02T12:36:27Z</time>
      </trkpt>
      <trkpt lat="47.23306" lon="-1.51203">
        <ele>59</ele>
        <time>2022-04-02T12:36:29Z</time>
      </trkpt>
      <trkpt lat="47.233" lon="-1.51219">
        <ele>60</ele>
        <time>2022-04-02T12:36:31Z</time>
      </trkpt>
      <trkpt lat="47.23293" lon="-1.51235">
        <ele>59</ele>
        <time>2022-04-02T12:36:33Z</time>
      </trkpt>
      <trkpt lat="47.23286" lon="-1.51249">
        <ele>59</ele>
        <time>2022-04-02T12:36:35Z</time>
      </trkpt>
      <trkpt lat="47.23279" lon="-1.51265">
        <ele>59</ele>
        <time>2022-04-02T12:36:37Z</time>
      </trkpt>
      <trkpt lat="47.23273" lon="-1.5128">
        <ele>58</ele>
        <time>2022-04-02T12:36:39Z</time>
      </trkpt>
      <trkpt lat="47.23267" lon="-1.51296">
        <ele>58</ele>
        <time>2022-04-02T12:36:41Z</time>
      </trkpt>
      <trkpt lat="47.2326" lon="-1.51311">
        <ele>58</ele>
        <time>2022-04-02T12:36:43Z</time>
      </trkpt>
      <trkpt lat="47.23253" lon="-1.51327">
        <ele>57</ele>
        <time>2022-04-02T12:36:45Z</time>
      </trkpt>
      <trkpt lat="47.23247" lon="-1.51342">
        <ele>57</ele>
        <time>2022-04-02T12:36:47Z</time>
      </trkpt>
      <trkpt lat="47.23239" lon="-1.51367">
        <ele>58</ele>
        <time>2022-04-02T12:36:50Z</time>
      </trkpt>
      <trkpt lat="47.23235" lon="-1.51385">
        <ele>57</ele>
        <time>2022-04-02T12:36:52Z</time>
      </trkpt>
      <trkpt lat="47.2323" lon="-1.51403">
        <ele>57</ele>
        <time>2022-04-02T12:36:54Z</time>
      </trkpt>
      <trkpt lat="47.23226" lon="-1.51421">
        <ele>56</ele>
        <time>2022-04-02T12:36:56Z</time>
      </trkpt>
      <trkpt lat="47.23222" lon="-1.51439">
        <ele>56</ele>
        <time>2022-04-02T12:36:58Z</time>
      </trkpt>
      <trkpt lat="47.23218" lon="-1.51457">
        <ele>56</ele>
        <time>2022-04-02T12:37:00Z</time>
      </trkpt>
      <trkpt lat="47.23214" lon="-1.51476">
        <ele>56</ele>
        <time>2022-04-02T12:37:02Z</time>
      </trkpt>
      <trkpt lat="47.23211" lon="-1.51495">
        <ele>56</ele>
        <time>2022-04-02T12:37:04Z</time>
      </trkpt>
      <trkpt lat="47.23209" lon="-1.51514">
        <ele>56</ele>
        <time>2022-04-02T12:37:06Z</time>
      </trkpt>
      <trkpt lat="47.23208" lon="-1.51533">
        <ele>56</ele>
        <time>2022-04-02T12:37:08Z</time>
      </trkpt>
      <trkpt lat="47.23207" lon="-1.51552">
        <ele>56</ele>
        <time>2022-04-02T12:37:10Z</time>
      </trkpt>
      <trkpt lat="47.23206" lon="-1.51571">
        <ele>56</ele>
        <time>2022-04-02T12:37:12Z</time>
      </trkpt>
      <trkpt lat="47.23205" lon="-1.51589">
        <ele>56</ele>
        <time>2022-04-02T12:37:14Z</time>
      </trkpt>
      <trkpt lat="47.23204" lon="-1.51606">
        <ele>56</ele>
        <time>2022-04-02T12:37:16Z</time>
      </trkpt>
      <trkpt lat="47.23202" lon="-1.51624">
        <ele>56</ele>
        <time>2022-04-02T12:37:18Z</time>
      </trkpt>
      <trkpt lat="47.23201" lon="-1.51643">
        <ele>56</ele>
        <time>2022-04-02T12:37:20Z</time>
      </trkpt>
      <trkpt lat="47.23199" lon="-1.51662">
        <ele>56</ele>
        <time>2022-04-02T12:37:22Z</time>
      </trkpt>
      <trkpt lat="47.23198" lon="-1.51683">
        <ele>56</ele>
        <time>2022-04-02T12:37:24Z</time>
      </trkpt>
      <trkpt lat="47.23197" lon="-1.51704">
        <ele>55</ele>
        <time>2022-04-02T12:37:26Z</time>
      </trkpt>
      <trkpt lat="47.23196" lon="-1.51724">
        <ele>55</ele>
        <time>2022-04-02T12:37:28Z</time>
      </trkpt>
      <trkpt lat="47.23195" lon="-1.51745">
        <ele>55</ele>
        <time>2022-04-02T12:37:30Z</time>
      </trkpt>
      <trkpt lat="47.23194" lon="-1.51765">
        <ele>55</ele>
        <time>2022-04-02T12:37:32Z</time>
      </trkpt>
      <trkpt lat="47.23193" lon="-1.51784">
        <ele>55</ele>
        <time>2022-04-02T12:37:34Z</time>
      </trkpt>
      <trkpt lat="47.23192" lon="-1.51804">
        <ele>55</ele>
        <time>2022-04-02T12:37:36Z</time>
      </trkpt>
      <trkpt lat="47.23191" lon="-1.51825">
        <ele>54</ele>
        <time>2022-04-02T12:37:38Z</time>
      </trkpt>
      <trkpt lat="47.23192" lon="-1.51844">
        <ele>53</ele>
        <time>2022-04-02T12:37:40Z</time>
      </trkpt>
      <trkpt lat="47.23193" lon="-1.51864">
        <ele>53</ele>
        <time>2022-04-02T12:37:42Z</time>
      </trkpt>
      <trkpt lat="47.23194" lon="-1.51884">
        <ele>52</ele>
        <time>2022-04-02T12:37:44Z</time>
      </trkpt>
      <trkpt lat="47.23195" lon="-1.51904">
        <ele>52</ele>
        <time>2022-04-02T12:37:46Z</time>
      </trkpt>
      <trkpt lat="47.23196" lon="-1.51924">
        <ele>52</ele>
        <time>2022-04-02T12:37:48Z</time>
      </trkpt>
      <trkpt lat="47.23197" lon="-1.51943">
        <ele>51</ele>
        <time>2022-04-02T12:37:50Z</time>
      </trkpt>
      <trkpt lat="47.232" lon="-1.51962">
        <ele>51</ele>
        <time>2022-04-02T12:37:52Z</time>
      </trkpt>
      <trkpt lat="47.23204" lon="-1.51981">
        <ele>51</ele>
        <time>2022-04-02T12:37:54Z</time>
      </trkpt>
      <trkpt lat="47.23211" lon="-1.51998">
        <ele>50</ele>
        <time>2022-04-02T12:37:56Z</time>
      </trkpt>
      <trkpt lat="47.23218" lon="-1.52014">
        <ele>50</ele>
        <time>2022-04-02T12:37:58Z</time>
      </trkpt>
      <trkpt lat="47.23226" lon="-1.52029">
        <ele>50</ele>
        <time>2022-04-02T12:38:00Z</time>
      </trkpt>
      <trkpt lat="47.23233" lon="-1.52044">
        <ele>50</ele>
        <time>2022-04-02T12:38:02Z</time>
      </trkpt>
      <trkpt lat="47.23241" lon="-1.5206">
        <ele>49</ele>
        <time>2022-04-02T12:38:04Z</time>
      </trkpt>
      <trkpt lat="47.23248" lon="-1.52076">
        <ele>49</ele>
        <time>2022-04-02T12:38:06Z</time>
      </trkpt>
      <trkpt lat="47.23256" lon="-1.5209">
        <ele>49</ele>
        <time>2022-04-02T12:38:08Z</time>
      </trkpt>
      <trkpt lat="47.23263" lon="-1.52102">
        <ele>49</ele>
        <time>2022-04-02T12:38:10Z</time>
      </trkpt>
      <trkpt lat="47.2327" lon="-1.52114">
        <ele>48</ele>
        <time>2022-04-02T12:38:12Z</time>
      </trkpt>
      <trkpt lat="47.23276" lon="-1.52124">
        <ele>48</ele>
        <time>2022-04-02T12:38:14Z</time>
      </trkpt>
      <trkpt lat="47.23284" lon="-1.52137">
        <ele>48</ele>
        <time>2022-04-02T12:38:17Z</time>
      </trkpt>
      <trkpt lat="47.2329" lon="-1.52149">
        <ele>49</ele>
        <time>2022-04-02T12:38:22Z</time>
      </trkpt>
      <trkpt lat="47.23294" lon="-1.52166">
        <ele>50</ele>
        <time>2022-04-02T12:38:33Z</time>
      </trkpt>
      <trkpt lat="47.23291" lon="-1.52184">
        <ele>49</ele>
        <time>2022-04-02T12:38:36Z</time>
      </trkpt>
      <trkpt lat="47.23282" lon="-1.52192">
        <ele>50</ele>
        <time>2022-04-02T12:38:38Z</time>
      </trkpt>
      <trkpt lat="47.2327" lon="-1.52199">
        <ele>50</ele>
        <time>2022-04-02T12:38:40Z</time>
      </trkpt>
      <trkpt lat="47.23256" lon="-1.52206">
        <ele>51</ele>
        <time>2022-04-02T12:38:42Z</time>
      </trkpt>
      <trkpt lat="47.23243" lon="-1.52215">
        <ele>51</ele>
        <time>2022-04-02T12:38:44Z</time>
      </trkpt>
      <trkpt lat="47.23229" lon="-1.52223">
        <ele>51</ele>
        <time>2022-04-02T12:38:46Z</time>
      </trkpt>
      <trkpt lat="47.23215" lon="-1.5223">
        <ele>51</ele>
        <time>2022-04-02T12:38:48Z</time>
      </trkpt>
      <trkpt lat="47.23202" lon="-1.52238">
        <ele>51</ele>
        <time>2022-04-02T12:38:50Z</time>
      </trkpt>
      <trkpt lat="47.23188" lon="-1.52245">
        <ele>52</ele>
        <time>2022-04-02T12:38:52Z</time>
      </trkpt>
      <trkpt lat="47.23173" lon="-1.52254">
        <ele>51</ele>
        <time>2022-04-02T12:38:54Z</time>
      </trkpt>
      <trkpt lat="47.2316" lon="-1.52264">
        <ele>51</ele>
        <time>2022-04-02T12:38:56Z</time>
      </trkpt>
      <trkpt lat="47.23147" lon="-1.52275">
        <ele>51</ele>
        <time>2022-04-02T12:38:58Z</time>
      </trkpt>
      <trkpt lat="47.23134" lon="-1.52285">
        <ele>51</ele>
        <time>2022-04-02T12:39:00Z</time>
      </trkpt>
      <trkpt lat="47.23121" lon="-1.52295">
        <ele>50</ele>
        <time>2022-04-02T12:39:02Z</time>
      </trkpt>
      <trkpt lat="47.23108" lon="-1.52304">
        <ele>50</ele>
        <time>2022-04-02T12:39:04Z</time>
      </trkpt>
      <trkpt lat="47.23095" lon="-1.52313">
        <ele>50</ele>
        <time>2022-04-02T12:39:06Z</time>
      </trkpt>
      <trkpt lat="47.23084" lon="-1.52324">
        <ele>50</ele>
        <time>2022-04-02T12:39:08Z</time>
      </trkpt>
      <trkpt lat="47.23073" lon="-1.52338">
        <ele>50</ele>
        <time>2022-04-02T12:39:10Z</time>
      </trkpt>
      <trkpt lat="47.23061" lon="-1.52352">
        <ele>50</ele>
        <time>2022-04-02T12:39:12Z</time>
      </trkpt>
      <trkpt lat="47.2305" lon="-1.52366">
        <ele>50</ele>
        <time>2022-04-02T12:39:14Z</time>
      </trkpt>
      <trkpt lat="47.23038" lon="-1.52381">
        <ele>50</ele>
        <time>2022-04-02T12:39:16Z</time>
      </trkpt>
      <trkpt lat="47.23028" lon="-1.52396">
        <ele>50</ele>
        <time>2022-04-02T12:39:18Z</time>
      </trkpt>
      <trkpt lat="47.23016" lon="-1.52409">
        <ele>49</ele>
        <time>2022-04-02T12:39:20Z</time>
      </trkpt>
      <trkpt lat="47.23004" lon="-1.52423">
        <ele>49</ele>
        <time>2022-04-02T12:39:22Z</time>
      </trkpt>
      <trkpt lat="47.22993" lon="-1.52437">
        <ele>50</ele>
        <time>2022-04-02T12:39:24Z</time>
      </trkpt>
      <trkpt lat="47.22981" lon="-1.52451">
        <ele>50</ele>
        <time>2022-04-02T12:39:26Z</time>
      </trkpt>
      <trkpt lat="47.2297" lon="-1.52465">
        <ele>51</ele>
        <time>2022-04-02T12:39:28Z</time>
      </trkpt>
      <trkpt lat="47.22958" lon="-1.5248">
        <ele>50</ele>
        <time>2022-04-02T12:39:30Z</time>
      </trkpt>
      <trkpt lat="47.22947" lon="-1.52493">
        <ele>51</ele>
        <time>2022-04-02T12:39:32Z</time>
      </trkpt>
      <trkpt lat="47.22935" lon="-1.52508">
        <ele>51</ele>
        <time>2022-04-02T12:39:34Z</time>
      </trkpt>
      <trkpt lat="47.22924" lon="-1.52522">
        <ele>51</ele>
        <time>2022-04-02T12:39:36Z</time>
      </trkpt>
      <trkpt lat="47.22914" lon="-1.52536">
        <ele>51</ele>
        <time>2022-04-02T12:39:38Z</time>
      </trkpt>
      <trkpt lat="47.22904" lon="-1.52549">
        <ele>51</ele>
        <time>2022-04-02T12:39:40Z</time>
      </trkpt>
      <trkpt lat="47.22896" lon="-1.52563">
        <ele>51</ele>
        <time>2022-04-02T12:39:42Z</time>
      </trkpt>
      <trkpt lat="47.22887" lon="-1.52575">
        <ele>50</ele>
        <time>2022-04-02T12:39:44Z</time>
      </trkpt>
      <trkpt lat="47.22879" lon="-1.52587">
        <ele>50</ele>
        <time>2022-04-02T12:39:46Z</time>
      </trkpt>
      <trkpt lat="47.22872" lon="-1.52597">
        <ele>50</ele>
        <time>2022-04-02T12:39:48Z</time>
      </trkpt>
      <trkpt lat="47.22865" lon="-1.52607">
        <ele>49</ele>
        <time>2022-04-02T12:39:51Z</time>
      </trkpt>
      <trkpt lat="47.22859" lon="-1.52617">
        <ele>49</ele>
        <time>2022-04-02T12:39:56Z</time>
      </trkpt>
      <trkpt lat="47.22852" lon="-1.52632">
        <ele>50</ele>
        <time>2022-04-02T12:39:59Z</time>
      </trkpt>
      <trkpt lat="47.22843" lon="-1.52642">
        <ele>50</ele>
        <time>2022-04-02T12:40:01Z</time>
      </trkpt>
      <trkpt lat="47.22833" lon="-1.52655">
        <ele>50</ele>
        <time>2022-04-02T12:40:03Z</time>
      </trkpt>
      <trkpt lat="47.22824" lon="-1.52669">
        <ele>50</ele>
        <time>2022-04-02T12:40:05Z</time>
      </trkpt>
      <trkpt lat="47.22814" lon="-1.52683">
        <ele>50</ele>
        <time>2022-04-02T12:40:07Z</time>
      </trkpt>
      <trkpt lat="47.22804" lon="-1.52697">
        <ele>49</ele>
        <time>2022-04-02T12:40:09Z</time>
      </trkpt>
      <trkpt lat="47.22793" lon="-1.52712">
        <ele>49</ele>
        <time>2022-04-02T12:40:11Z</time>
      </trkpt>
      <trkpt lat="47.22784" lon="-1.52727">
        <ele>49</ele>
        <time>2022-04-02T12:40:13Z</time>
      </trkpt>
      <trkpt lat="47.22774" lon="-1.52742">
        <ele>49</ele>
        <time>2022-04-02T12:40:15Z</time>
      </trkpt>
      <trkpt lat="47.22764" lon="-1.52756">
        <ele>49</ele>
        <time>2022-04-02T12:40:17Z</time>
      </trkpt>
      <trkpt lat="47.22754" lon="-1.52771">
        <ele>49</ele>
        <time>2022-04-02T12:40:19Z</time>
      </trkpt>
      <trkpt lat="47.22744" lon="-1.52784">
        <ele>48</ele>
        <time>2022-04-02T12:40:21Z</time>
      </trkpt>
      <trkpt lat="47.22733" lon="-1.52798">
        <ele>48</ele>
        <time>2022-04-02T12:40:23Z</time>
      </trkpt>
      <trkpt lat="47.22723" lon="-1.52812">
        <ele>48</ele>
        <time>2022-04-02T12:40:25Z</time>
      </trkpt>
      <trkpt lat="47.22712" lon="-1.52826">
        <ele>48</ele>
        <time>2022-04-02T12:40:27Z</time>
      </trkpt>
      <trkpt lat="47.22701" lon="-1.52837">
        <ele>48</ele>
        <time>2022-04-02T12:40:29Z</time>
      </trkpt>
      <trkpt lat="47.22689" lon="-1.52845">
        <ele>49</ele>
        <time>2022-04-02T12:40:31Z</time>
      </trkpt>
      <trkpt lat="47.22676" lon="-1.52854">
        <ele>49</ele>
        <time>2022-04-02T12:40:33Z</time>
      </trkpt>
      <trkpt lat="47.22665" lon="-1.52865">
        <ele>49</ele>
        <time>2022-04-02T12:40:35Z</time>
      </trkpt>
      <trkpt lat="47.22653" lon="-1.52876">
        <ele>49</ele>
        <time>2022-04-02T12:40:37Z</time>
      </trkpt>
      <trkpt lat="47.22641" lon="-1.52887">
        <ele>49</ele>
        <time>2022-04-02T12:40:39Z</time>
      </trkpt>
      <trkpt lat="47.22629" lon="-1.52894">
        <ele>50</ele>
        <time>2022-04-02T12:40:41Z</time>
      </trkpt>
      <trkpt lat="47.22616" lon="-1.529">
        <ele>50</ele>
        <time>2022-04-02T12:40:43Z</time>
      </trkpt>
      <trkpt lat="47.22603" lon="-1.52906">
        <ele>50</ele>
        <time>2022-04-02T12:40:45Z</time>
      </trkpt>
      <trkpt lat="47.22589" lon="-1.5291">
        <ele>50</ele>
        <time>2022-04-02T12:40:47Z</time>
      </trkpt>
      <trkpt lat="47.22576" lon="-1.52916">
        <ele>49</ele>
        <time>2022-04-02T12:40:49Z</time>
      </trkpt>
      <trkpt lat="47.22563" lon="-1.52923">
        <ele>49</ele>
        <time>2022-04-02T12:40:51Z</time>
      </trkpt>
      <trkpt lat="47.22549" lon="-1.5293">
        <ele>49</ele>
        <time>2022-04-02T12:40:53Z</time>
      </trkpt>
      <trkpt lat="47.22536" lon="-1.52937">
        <ele>49</ele>
        <time>2022-04-02T12:40:55Z</time>
      </trkpt>
      <trkpt lat="47.22522" lon="-1.52946">
        <ele>49</ele>
        <time>2022-04-02T12:40:57Z</time>
      </trkpt>
      <trkpt lat="47.22508" lon="-1.52952">
        <ele>49</ele>
        <time>2022-04-02T12:40:59Z</time>
      </trkpt>
      <trkpt lat="47.22495" lon="-1.52958">
        <ele>48</ele>
        <time>2022-04-02T12:41:01Z</time>
      </trkpt>
      <trkpt lat="47.22481" lon="-1.52963">
        <ele>49</ele>
        <time>2022-04-02T12:41:03Z</time>
      </trkpt>
      <trkpt lat="47.22469" lon="-1.52968">
        <ele>49</ele>
        <time>2022-04-02T12:41:05Z</time>
      </trkpt>
      <trkpt lat="47.22457" lon="-1.52974">
        <ele>49</ele>
        <time>2022-04-02T12:41:07Z</time>
      </trkpt>
      <trkpt lat="47.22444" lon="-1.5298">
        <ele>49</ele>
        <time>2022-04-02T12:41:09Z</time>
      </trkpt>
      <trkpt lat="47.22432" lon="-1.52985">
        <ele>50</ele>
        <time>2022-04-02T12:41:11Z</time>
      </trkpt>
      <trkpt lat="47.22419" lon="-1.52992">
        <ele>50</ele>
        <time>2022-04-02T12:41:13Z</time>
      </trkpt>
      <trkpt lat="47.22406" lon="-1.52998">
        <ele>51</ele>
        <time>2022-04-02T12:41:15Z</time>
      </trkpt>
      <trkpt lat="47.22392" lon="-1.53003">
        <ele>52</ele>
        <time>2022-04-02T12:41:17Z</time>
      </trkpt>
      <trkpt lat="47.2238" lon="-1.5301">
        <ele>52</ele>
        <time>2022-04-02T12:41:19Z</time>
      </trkpt>
      <trkpt lat="47.22367" lon="-1.53016">
        <ele>51</ele>
        <time>2022-04-02T12:41:21Z</time>
      </trkpt>
      <trkpt lat="47.22353" lon="-1.53023">
        <ele>51</ele>
        <time>2022-04-02T12:41:23Z</time>
      </trkpt>
      <trkpt lat="47.2234" lon="-1.53029">
        <ele>51</ele>
        <time>2022-04-02T12:41:25Z</time>
      </trkpt>
      <trkpt lat="47.22327" lon="-1.53037">
        <ele>50</ele>
        <time>2022-04-02T12:41:27Z</time>
      </trkpt>
      <trkpt lat="47.22314" lon="-1.53042">
        <ele>50</ele>
        <time>2022-04-02T12:41:29Z</time>
      </trkpt>
      <trkpt lat="47.22301" lon="-1.53047">
        <ele>50</ele>
        <time>2022-04-02T12:41:31Z</time>
      </trkpt>
      <trkpt lat="47.22288" lon="-1.53053">
        <ele>50</ele>
        <time>2022-04-02T12:41:33Z</time>
      </trkpt>
      <trkpt lat="47.22275" lon="-1.53059">
        <ele>50</ele>
        <time>2022-04-02T12:41:35Z</time>
      </trkpt>
      <trkpt lat="47.22263" lon="-1.53065">
        <ele>50</ele>
        <time>2022-04-02T12:41:37Z</time>
      </trkpt>
      <trkpt lat="47.22253" lon="-1.5307">
        <ele>51</ele>
        <time>2022-04-02T12:41:40Z</time>
      </trkpt>
      <trkpt lat="47.22243" lon="-1.53073">
        <ele>53</ele>
        <time>2022-04-02T12:41:51Z</time>
      </trkpt>
      <trkpt lat="47.22235" lon="-1.53078">
        <ele>53</ele>
        <time>2022-04-02T12:41:53Z</time>
      </trkpt>
      <trkpt lat="47.22224" lon="-1.53083">
        <ele>53</ele>
        <time>2022-04-02T12:41:55Z</time>
      </trkpt>
      <trkpt lat="47.22211" lon="-1.53091">
        <ele>52</ele>
        <time>2022-04-02T12:41:57Z</time>
      </trkpt>
      <trkpt lat="47.22201" lon="-1.53096">
        <ele>52</ele>
        <time>2022-04-02T12:41:59Z</time>
      </trkpt>
      <trkpt lat="47.22192" lon="-1.531">
        <ele>52</ele>
        <time>2022-04-02T12:42:02Z</time>
      </trkpt>
      <trkpt lat="47.22183" lon="-1.53105">
        <ele>53</ele>
        <time>2022-04-02T12:42:12Z</time>
      </trkpt>
      <trkpt lat="47.22173" lon="-1.5311">
        <ele>53</ele>
        <time>2022-04-02T12:42:14Z</time>
      </trkpt>
      <trkpt lat="47.22162" lon="-1.53116">
        <ele>53</ele>
        <time>2022-04-02T12:42:16Z</time>
      </trkpt>
      <trkpt lat="47.22149" lon="-1.53122">
        <ele>53</ele>
        <time>2022-04-02T12:42:18Z</time>
      </trkpt>
      <trkpt lat="47.22134" lon="-1.53128">
        <ele>53</ele>
        <time>2022-04-02T12:42:20Z</time>
      </trkpt>
      <trkpt lat="47.2212" lon="-1.53134">
        <ele>54</ele>
        <time>2022-04-02T12:42:22Z</time>
      </trkpt>
      <trkpt lat="47.22107" lon="-1.5314">
        <ele>54</ele>
        <time>2022-04-02T12:42:24Z</time>
      </trkpt>
      <trkpt lat="47.22094" lon="-1.53146">
        <ele>54</ele>
        <time>2022-04-02T12:42:26Z</time>
      </trkpt>
      <trkpt lat="47.22082" lon="-1.53152">
        <ele>54</ele>
        <time>2022-04-02T12:42:28Z</time>
      </trkpt>
      <trkpt lat="47.22071" lon="-1.53157">
        <ele>54</ele>
        <time>2022-04-02T12:42:30Z</time>
      </trkpt>
      <trkpt lat="47.22061" lon="-1.53162">
        <ele>54</ele>
        <time>2022-04-02T12:42:32Z</time>
      </trkpt>
      <trkpt lat="47.22051" lon="-1.53166">
        <ele>53</ele>
        <time>2022-04-02T12:42:34Z</time>
      </trkpt>
      <trkpt lat="47.22042" lon="-1.53171">
        <ele>53</ele>
        <time>2022-04-02T12:42:36Z</time>
      </trkpt>
      <trkpt lat="47.2203" lon="-1.53177">
        <ele>53</ele>
        <time>2022-04-02T12:42:39Z</time>
      </trkpt>
      <trkpt lat="47.2202" lon="-1.53181">
        <ele>53</ele>
        <time>2022-04-02T12:42:41Z</time>
      </trkpt>
      <trkpt lat="47.22008" lon="-1.53187">
        <ele>54</ele>
        <time>2022-04-02T12:42:43Z</time>
      </trkpt>
      <trkpt lat="47.21997" lon="-1.53198">
        <ele>54</ele>
        <time>2022-04-02T12:42:45Z</time>
      </trkpt>
      <trkpt lat="47.21988" lon="-1.5321">
        <ele>53</ele>
        <time>2022-04-02T12:42:47Z</time>
      </trkpt>
      <trkpt lat="47.21976" lon="-1.53214">
        <ele>52</ele>
        <time>2022-04-02T12:42:49Z</time>
      </trkpt>
      <trkpt lat="47.21967" lon="-1.53217">
        <ele>51</ele>
        <time>2022-04-02T12:42:52Z</time>
      </trkpt>
      <trkpt lat="47.21956" lon="-1.53222">
        <ele>50</ele>
        <time>2022-04-02T12:42:55Z</time>
      </trkpt>
      <trkpt lat="47.21946" lon="-1.53225">
        <ele>50</ele>
        <time>2022-04-02T12:42:57Z</time>
      </trkpt>
      <trkpt lat="47.21935" lon="-1.53232">
        <ele>49</ele>
        <time>2022-04-02T12:43:00Z</time>
      </trkpt>
      <trkpt lat="47.21904" lon="-1.53229">
        <ele>51</ele>
        <time>2022-04-02T12:43:04Z</time>
      </trkpt>
      <trkpt lat="47.21899" lon="-1.53218">
        <ele>45</ele>
        <time>2022-04-02T12:43:06Z</time>
      </trkpt>
      <trkpt lat="47.21891" lon="-1.53208">
        <ele>48</ele>
        <time>2022-04-02T12:43:07Z</time>
      </trkpt>
      <trkpt lat="47.21876" lon="-1.53205">
        <ele>57</ele>
        <time>2022-04-02T12:43:09Z</time>
      </trkpt>
      <trkpt lat="47.2186" lon="-1.53203">
        <ele>55</ele>
        <time>2022-04-02T12:43:11Z</time>
      </trkpt>
      <trkpt lat="47.21845" lon="-1.53197">
        <ele>54</ele>
        <time>2022-04-02T12:43:13Z</time>
      </trkpt>
      <trkpt lat="47.21833" lon="-1.53191">
        <ele>53</ele>
        <time>2022-04-02T12:43:15Z</time>
      </trkpt>
      <trkpt lat="47.2182" lon="-1.53186">
        <ele>52</ele>
        <time>2022-04-02T12:43:17Z</time>
      </trkpt>
      <trkpt lat="47.21807" lon="-1.53181">
        <ele>51</ele>
        <time>2022-04-02T12:43:19Z</time>
      </trkpt>
      <trkpt lat="47.21794" lon="-1.53175">
        <ele>50</ele>
        <time>2022-04-02T12:43:21Z</time>
      </trkpt>
      <trkpt lat="47.21782" lon="-1.53169">
        <ele>49</ele>
        <time>2022-04-02T12:43:23Z</time>
      </trkpt>
      <trkpt lat="47.2177" lon="-1.53165">
        <ele>49</ele>
        <time>2022-04-02T12:43:25Z</time>
      </trkpt>
      <trkpt lat="47.2176" lon="-1.53162">
        <ele>50</ele>
        <time>2022-04-02T12:43:27Z</time>
      </trkpt>
      <trkpt lat="47.21749" lon="-1.53166">
        <ele>51</ele>
        <time>2022-04-02T12:43:30Z</time>
      </trkpt>
      <trkpt lat="47.21738" lon="-1.53158">
        <ele>51</ele>
        <time>2022-04-02T12:43:35Z</time>
      </trkpt>
      <trkpt lat="47.21728" lon="-1.5315">
        <ele>51</ele>
        <time>2022-04-02T12:43:37Z</time>
      </trkpt>
      <trkpt lat="47.21716" lon="-1.53144">
        <ele>51</ele>
        <time>2022-04-02T12:43:39Z</time>
      </trkpt>
      <trkpt lat="47.21705" lon="-1.53141">
        <ele>50</ele>
        <time>2022-04-02T12:43:41Z</time>
      </trkpt>
      <trkpt lat="47.21692" lon="-1.53136">
        <ele>51</ele>
        <time>2022-04-02T12:43:43Z</time>
      </trkpt>
      <trkpt lat="47.21678" lon="-1.5313">
        <ele>50</ele>
        <time>2022-04-02T12:43:45Z</time>
      </trkpt>
      <trkpt lat="47.21664" lon="-1.53124">
        <ele>50</ele>
        <time>2022-04-02T12:43:47Z</time>
      </trkpt>
      <trkpt lat="47.2165" lon="-1.53119">
        <ele>50</ele>
        <time>2022-04-02T12:43:49Z</time>
      </trkpt>
      <trkpt lat="47.21637" lon="-1.53113">
        <ele>49</ele>
        <time>2022-04-02T12:43:51Z</time>
      </trkpt>
      <trkpt lat="47.21623" lon="-1.53108">
        <ele>49</ele>
        <time>2022-04-02T12:43:53Z</time>
      </trkpt>
      <trkpt lat="47.21611" lon="-1.53102">
        <ele>49</ele>
        <time>2022-04-02T12:43:55Z</time>
      </trkpt>
      <trkpt lat="47.21598" lon="-1.53093">
        <ele>49</ele>
        <time>2022-04-02T12:43:57Z</time>
      </trkpt>
      <trkpt lat="47.21585" lon="-1.53087">
        <ele>48</ele>
        <time>2022-04-02T12:43:59Z</time>
      </trkpt>
      <trkpt lat="47.21572" lon="-1.53081">
        <ele>49</ele>
        <time>2022-04-02T12:44:01Z</time>
      </trkpt>
      <trkpt lat="47.2156" lon="-1.53075">
        <ele>49</ele>
        <time>2022-04-02T12:44:03Z</time>
      </trkpt>
      <trkpt lat="47.21549" lon="-1.53066">
        <ele>49</ele>
        <time>2022-04-02T12:44:05Z</time>
      </trkpt>
      <trkpt lat="47.21539" lon="-1.53056">
        <ele>49</ele>
        <time>2022-04-02T12:44:07Z</time>
      </trkpt>
      <trkpt lat="47.21528" lon="-1.53053">
        <ele>49</ele>
        <time>2022-04-02T12:44:09Z</time>
      </trkpt>
      <trkpt lat="47.21513" lon="-1.53056">
        <ele>50</ele>
        <time>2022-04-02T12:44:11Z</time>
      </trkpt>
      <trkpt lat="47.21498" lon="-1.53049">
        <ele>50</ele>
        <time>2022-04-02T12:44:13Z</time>
      </trkpt>
      <trkpt lat="47.21486" lon="-1.5304">
        <ele>51</ele>
        <time>2022-04-02T12:44:15Z</time>
      </trkpt>
      <trkpt lat="47.21473" lon="-1.53031">
        <ele>52</ele>
        <time>2022-04-02T12:44:17Z</time>
      </trkpt>
      <trkpt lat="47.2146" lon="-1.53022">
        <ele>53</ele>
        <time>2022-04-02T12:44:19Z</time>
      </trkpt>
      <trkpt lat="47.21447" lon="-1.53014">
        <ele>54</ele>
        <time>2022-04-02T12:44:21Z</time>
      </trkpt>
      <trkpt lat="47.21434" lon="-1.53006">
        <ele>54</ele>
        <time>2022-04-02T12:44:23Z</time>
      </trkpt>
      <trkpt lat="47.21422" lon="-1.52999">
        <ele>54</ele>
        <time>2022-04-02T12:44:25Z</time>
      </trkpt>
      <trkpt lat="47.21411" lon="-1.52992">
        <ele>54</ele>
        <time>2022-04-02T12:44:27Z</time>
      </trkpt>
      <trkpt lat="47.214" lon="-1.52987">
        <ele>53</ele>
        <time>2022-04-02T12:44:29Z</time>
      </trkpt>
      <trkpt lat="47.2139" lon="-1.52983">
        <ele>53</ele>
        <time>2022-04-02T12:44:31Z</time>
      </trkpt>
      <trkpt lat="47.2138" lon="-1.52978">
        <ele>53</ele>
        <time>2022-04-02T12:44:33Z</time>
      </trkpt>
      <trkpt lat="47.21368" lon="-1.52979">
        <ele>53</ele>
        <time>2022-04-02T12:44:35Z</time>
      </trkpt>
      <trkpt lat="47.21356" lon="-1.52977">
        <ele>53</ele>
        <time>2022-04-02T12:44:37Z</time>
      </trkpt>
      <trkpt lat="47.21345" lon="-1.52964">
        <ele>52</ele>
        <time>2022-04-02T12:44:39Z</time>
      </trkpt>
      <trkpt lat="47.21335" lon="-1.52955">
        <ele>52</ele>
        <time>2022-04-02T12:44:41Z</time>
      </trkpt>
      <trkpt lat="47.21323" lon="-1.52952">
        <ele>52</ele>
        <time>2022-04-02T12:44:43Z</time>
      </trkpt>
      <trkpt lat="47.21312" lon="-1.52949">
        <ele>52</ele>
        <time>2022-04-02T12:44:45Z</time>
      </trkpt>
      <trkpt lat="47.21301" lon="-1.52945">
        <ele>52</ele>
        <time>2022-04-02T12:44:47Z</time>
      </trkpt>
      <trkpt lat="47.21289" lon="-1.52942">
        <ele>53</ele>
        <time>2022-04-02T12:44:49Z</time>
      </trkpt>
      <trkpt lat="47.21277" lon="-1.52938">
        <ele>54</ele>
        <time>2022-04-02T12:44:51Z</time>
      </trkpt>
      <trkpt lat="47.21266" lon="-1.52935">
        <ele>54</ele>
        <time>2022-04-02T12:44:53Z</time>
      </trkpt>
      <trkpt lat="47.21253" lon="-1.52931">
        <ele>54</ele>
        <time>2022-04-02T12:44:55Z</time>
      </trkpt>
      <trkpt lat="47.21241" lon="-1.52928">
        <ele>54</ele>
        <time>2022-04-02T12:44:57Z</time>
      </trkpt>
      <trkpt lat="47.21229" lon="-1.52924">
        <ele>54</ele>
        <time>2022-04-02T12:44:59Z</time>
      </trkpt>
      <trkpt lat="47.21217" lon="-1.52921">
        <ele>54</ele>
        <time>2022-04-02T12:45:01Z</time>
      </trkpt>
      <trkpt lat="47.21204" lon="-1.52918">
        <ele>54</ele>
        <time>2022-04-02T12:45:03Z</time>
      </trkpt>
      <trkpt lat="47.21192" lon="-1.52915">
        <ele>54</ele>
        <time>2022-04-02T12:45:05Z</time>
      </trkpt>
      <trkpt lat="47.21179" lon="-1.52911">
        <ele>53</ele>
        <time>2022-04-02T12:45:07Z</time>
      </trkpt>
      <trkpt lat="47.21166" lon="-1.52908">
        <ele>52</ele>
        <time>2022-04-02T12:45:09Z</time>
      </trkpt>
      <trkpt lat="47.21153" lon="-1.52904">
        <ele>52</ele>
        <time>2022-04-02T12:45:11Z</time>
      </trkpt>
      <trkpt lat="47.21139" lon="-1.529">
        <ele>51</ele>
        <time>2022-04-02T12:45:13Z</time>
      </trkpt>
      <trkpt lat="47.21125" lon="-1.52896">
        <ele>51</ele>
        <time>2022-04-02T12:45:15Z</time>
      </trkpt>
      <trkpt lat="47.21112" lon="-1.5289">
        <ele>51</ele>
        <time>2022-04-02T12:45:17Z</time>
      </trkpt>
      <trkpt lat="47.21101" lon="-1.52878">
        <ele>50</ele>
        <time>2022-04-02T12:45:19Z</time>
      </trkpt>
      <trkpt lat="47.21091" lon="-1.52866">
        <ele>51</ele>
        <time>2022-04-02T12:45:21Z</time>
      </trkpt>
      <trkpt lat="47.21082" lon="-1.52855">
        <ele>51</ele>
        <time>2022-04-02T12:45:23Z</time>
      </trkpt>
      <trkpt lat="47.2107" lon="-1.52851">
        <ele>51</ele>
        <time>2022-04-02T12:45:25Z</time>
      </trkpt>
      <trkpt lat="47.21058" lon="-1.52862">
        <ele>52</ele>
        <time>2022-04-02T12:45:27Z</time>
      </trkpt>
      <trkpt lat="47.21045" lon="-1.52875">
        <ele>52</ele>
        <time>2022-04-02T12:45:29Z</time>
      </trkpt>
      <trkpt lat="47.21034" lon="-1.52886">
        <ele>51</ele>
        <time>2022-04-02T12:45:31Z</time>
      </trkpt>
      <trkpt lat="47.21022" lon="-1.52897">
        <ele>51</ele>
        <time>2022-04-02T12:45:33Z</time>
      </trkpt>
      <trkpt lat="47.2101" lon="-1.52908">
        <ele>51</ele>
        <time>2022-04-02T12:45:35Z</time>
      </trkpt>
      <trkpt lat="47.20998" lon="-1.52919">
        <ele>50</ele>
        <time>2022-04-02T12:45:37Z</time>
      </trkpt>
      <trkpt lat="47.20987" lon="-1.52931">
        <ele>50</ele>
        <time>2022-04-02T12:45:39Z</time>
      </trkpt>
      <trkpt lat="47.20975" lon="-1.52943">
        <ele>50</ele>
        <time>2022-04-02T12:45:41Z</time>
      </trkpt>
      <trkpt lat="47.20964" lon="-1.52953">
        <ele>50</ele>
        <time>2022-04-02T12:45:43Z</time>
      </trkpt>
      <trkpt lat="47.20953" lon="-1.52964">
        <ele>50</ele>
        <time>2022-04-02T12:45:45Z</time>
      </trkpt>
      <trkpt lat="47.20942" lon="-1.52975">
        <ele>50</ele>
        <time>2022-04-02T12:45:47Z</time>
      </trkpt>
      <trkpt lat="47.20931" lon="-1.52986">
        <ele>50</ele>
        <time>2022-04-02T12:45:49Z</time>
      </trkpt>
      <trkpt lat="47.2092" lon="-1.52997">
        <ele>50</ele>
        <time>2022-04-02T12:45:51Z</time>
      </trkpt>
      <trkpt lat="47.20909" lon="-1.53008">
        <ele>49</ele>
        <time>2022-04-02T12:45:53Z</time>
      </trkpt>
      <trkpt lat="47.20898" lon="-1.53018">
        <ele>50</ele>
        <time>2022-04-02T12:45:55Z</time>
      </trkpt>
      <trkpt lat="47.20888" lon="-1.53029">
        <ele>50</ele>
        <time>2022-04-02T12:45:57Z</time>
      </trkpt>
      <trkpt lat="47.20878" lon="-1.53041">
        <ele>50</ele>
        <time>2022-04-02T12:45:59Z</time>
      </trkpt>
      <trkpt lat="47.20871" lon="-1.53056">
        <ele>50</ele>
        <time>2022-04-02T12:46:01Z</time>
      </trkpt>
      <trkpt lat="47.20868" lon="-1.53073">
        <ele>50</ele>
        <time>2022-04-02T12:46:03Z</time>
      </trkpt>
      <trkpt lat="47.20858" lon="-1.53078">
        <ele>49</ele>
        <time>2022-04-02T12:46:05Z</time>
      </trkpt>
      <trkpt lat="47.20845" lon="-1.5307">
        <ele>49</ele>
        <time>2022-04-02T12:46:07Z</time>
      </trkpt>
      <trkpt lat="47.20834" lon="-1.53061">
        <ele>49</ele>
        <time>2022-04-02T12:46:09Z</time>
      </trkpt>
      <trkpt lat="47.20822" lon="-1.53052">
        <ele>49</ele>
        <time>2022-04-02T12:46:11Z</time>
      </trkpt>
      <trkpt lat="47.20809" lon="-1.53048">
        <ele>49</ele>
        <time>2022-04-02T12:46:13Z</time>
      </trkpt>
      <trkpt lat="47.20795" lon="-1.53043">
        <ele>49</ele>
        <time>2022-04-02T12:46:15Z</time>
      </trkpt>
      <trkpt lat="47.20784" lon="-1.53031">
        <ele>50</ele>
        <time>2022-04-02T12:46:17Z</time>
      </trkpt>
      <trkpt lat="47.20775" lon="-1.53014">
        <ele>50</ele>
        <time>2022-04-02T12:46:19Z</time>
      </trkpt>
      <trkpt lat="47.20764" lon="-1.52999">
        <ele>50</ele>
        <time>2022-04-02T12:46:21Z</time>
      </trkpt>
      <trkpt lat="47.20752" lon="-1.52987">
        <ele>50</ele>
        <time>2022-04-02T12:46:23Z</time>
      </trkpt>
      <trkpt lat="47.2074" lon="-1.52977">
        <ele>50</ele>
        <time>2022-04-02T12:46:25Z</time>
      </trkpt>
      <trkpt lat="47.20729" lon="-1.52967">
        <ele>50</ele>
        <time>2022-04-02T12:46:27Z</time>
      </trkpt>
      <trkpt lat="47.20717" lon="-1.52958">
        <ele>50</ele>
        <time>2022-04-02T12:46:29Z</time>
      </trkpt>
      <trkpt lat="47.20704" lon="-1.52949">
        <ele>50</ele>
        <time>2022-04-02T12:46:31Z</time>
      </trkpt>
      <trkpt lat="47.20692" lon="-1.52938">
        <ele>51</ele>
        <time>2022-04-02T12:46:33Z</time>
      </trkpt>
      <trkpt lat="47.20681" lon="-1.52928">
        <ele>51</ele>
        <time>2022-04-02T12:46:35Z</time>
      </trkpt>
      <trkpt lat="47.2067" lon="-1.52918">
        <ele>51</ele>
        <time>2022-04-02T12:46:37Z</time>
      </trkpt>
      <trkpt lat="47.20658" lon="-1.52908">
        <ele>52</ele>
        <time>2022-04-02T12:46:39Z</time>
      </trkpt>
      <trkpt lat="47.20646" lon="-1.52899">
        <ele>52</ele>
        <time>2022-04-02T12:46:41Z</time>
      </trkpt>
      <trkpt lat="47.20634" lon="-1.52889">
        <ele>52</ele>
        <time>2022-04-02T12:46:43Z</time>
      </trkpt>
      <trkpt lat="47.20623" lon="-1.52882">
        <ele>51</ele>
        <time>2022-04-02T12:46:45Z</time>
      </trkpt>
      <trkpt lat="47.20611" lon="-1.52874">
        <ele>51</ele>
        <time>2022-04-02T12:46:47Z</time>
      </trkpt>
      <trkpt lat="47.206" lon="-1.52852">
        <ele>50</ele>
        <time>2022-04-02T12:46:50Z</time>
      </trkpt>
      <trkpt lat="47.20604" lon="-1.52833">
        <ele>50</ele>
        <time>2022-04-02T12:46:52Z</time>
      </trkpt>
      <trkpt lat="47.2061" lon="-1.52816">
        <ele>50</ele>
        <time>2022-04-02T12:46:54Z</time>
      </trkpt>
      <trkpt lat="47.20618" lon="-1.52801">
        <ele>50</ele>
        <time>2022-04-02T12:46:56Z</time>
      </trkpt>
      <trkpt lat="47.20625" lon="-1.52786">
        <ele>50</ele>
        <time>2022-04-02T12:46:58Z</time>
      </trkpt>
      <trkpt lat="47.20634" lon="-1.52771">
        <ele>50</ele>
        <time>2022-04-02T12:47:00Z</time>
      </trkpt>
      <trkpt lat="47.20642" lon="-1.52755">
        <ele>50</ele>
        <time>2022-04-02T12:47:02Z</time>
      </trkpt>
      <trkpt lat="47.2065" lon="-1.52739">
        <ele>50</ele>
        <time>2022-04-02T12:47:04Z</time>
      </trkpt>
      <trkpt lat="47.20658" lon="-1.52724">
        <ele>50</ele>
        <time>2022-04-02T12:47:06Z</time>
      </trkpt>
      <trkpt lat="47.20665" lon="-1.52709">
        <ele>50</ele>
        <time>2022-04-02T12:47:08Z</time>
      </trkpt>
      <trkpt lat="47.20672" lon="-1.52694">
        <ele>50</ele>
        <time>2022-04-02T12:47:10Z</time>
      </trkpt>
      <trkpt lat="47.20672" lon="-1.52678">
        <ele>50</ele>
        <time>2022-04-02T12:47:12Z</time>
      </trkpt>
      <trkpt lat="47.20666" lon="-1.52663">
        <ele>50</ele>
        <time>2022-04-02T12:47:14Z</time>
      </trkpt>
      <trkpt lat="47.20657" lon="-1.52649">
        <ele>51</ele>
        <time>2022-04-02T12:47:16Z</time>
      </trkpt>
      <trkpt lat="47.20649" lon="-1.52636">
        <ele>51</ele>
        <time>2022-04-02T12:47:18Z</time>
      </trkpt>
      <trkpt lat="47.20641" lon="-1.52622">
        <ele>51</ele>
        <time>2022-04-02T12:47:20Z</time>
      </trkpt>
      <trkpt lat="47.20633" lon="-1.52608">
        <ele>51</ele>
        <time>2022-04-02T12:47:22Z</time>
      </trkpt>
      <trkpt lat="47.20625" lon="-1.52595">
        <ele>52</ele>
        <time>2022-04-02T12:47:24Z</time>
      </trkpt>
      <trkpt lat="47.20617" lon="-1.52581">
        <ele>52</ele>
        <time>2022-04-02T12:47:26Z</time>
      </trkpt>
      <trkpt lat="47.20609" lon="-1.52568">
        <ele>53</ele>
        <time>2022-04-02T12:47:28Z</time>
      </trkpt>
      <trkpt lat="47.20601" lon="-1.52555">
        <ele>53</ele>
        <time>2022-04-02T12:47:30Z</time>
      </trkpt>
      <trkpt lat="47.20593" lon="-1.52542">
        <ele>53</ele>
        <time>2022-04-02T12:47:32Z</time>
      </trkpt>
      <trkpt lat="47.20585" lon="-1.52528">
        <ele>53</ele>
        <time>2022-04-02T12:47:34Z</time>
      </trkpt>
      <trkpt lat="47.20577" lon="-1.52516">
        <ele>54</ele>
        <time>2022-04-02T12:47:36Z</time>
      </trkpt>
      <trkpt lat="47.20569" lon="-1.52503">
        <ele>54</ele>
        <time>2022-04-02T12:47:38Z</time>
      </trkpt>
      <trkpt lat="47.20561" lon="-1.5249">
        <ele>53</ele>
        <time>2022-04-02T12:47:40Z</time>
      </trkpt>
      <trkpt lat="47.20554" lon="-1.52477">
        <ele>53</ele>
        <time>2022-04-02T12:47:42Z</time>
      </trkpt>
      <trkpt lat="47.20546" lon="-1.52464">
        <ele>53</ele>
        <time>2022-04-02T12:47:44Z</time>
      </trkpt>
      <trkpt lat="47.20537" lon="-1.52451">
        <ele>53</ele>
        <time>2022-04-02T12:47:46Z</time>
      </trkpt>
      <trkpt lat="47.2053" lon="-1.52438">
        <ele>52</ele>
        <time>2022-04-02T12:47:48Z</time>
      </trkpt>
      <trkpt lat="47.20521" lon="-1.52423">
        <ele>52</ele>
        <time>2022-04-02T12:47:50Z</time>
      </trkpt>
      <trkpt lat="47.20512" lon="-1.52409">
        <ele>51</ele>
        <time>2022-04-02T12:47:52Z</time>
      </trkpt>
      <trkpt lat="47.20503" lon="-1.52394">
        <ele>51</ele>
        <time>2022-04-02T12:47:54Z</time>
      </trkpt>
      <trkpt lat="47.20496" lon="-1.52381">
        <ele>50</ele>
        <time>2022-04-02T12:47:56Z</time>
      </trkpt>
      <trkpt lat="47.20487" lon="-1.52385">
        <ele>50</ele>
        <time>2022-04-02T12:47:59Z</time>
      </trkpt>
      <trkpt lat="47.20481" lon="-1.52398">
        <ele>50</ele>
        <time>2022-04-02T12:48:01Z</time>
      </trkpt>
      <trkpt lat="47.20475" lon="-1.52415">
        <ele>49</ele>
        <time>2022-04-02T12:48:03Z</time>
      </trkpt>
      <trkpt lat="47.20469" lon="-1.52432">
        <ele>49</ele>
        <time>2022-04-02T12:48:05Z</time>
      </trkpt>
      <trkpt lat="47.20464" lon="-1.52451">
        <ele>48</ele>
        <time>2022-04-02T12:48:07Z</time>
      </trkpt>
      <trkpt lat="47.2046" lon="-1.5247">
        <ele>48</ele>
        <time>2022-04-02T12:48:09Z</time>
      </trkpt>
      <trkpt lat="47.20454" lon="-1.52489">
        <ele>48</ele>
        <time>2022-04-02T12:48:11Z</time>
      </trkpt>
      <trkpt lat="47.20448" lon="-1.52506">
        <ele>48</ele>
        <time>2022-04-02T12:48:13Z</time>
      </trkpt>
      <trkpt lat="47.20441" lon="-1.52525">
        <ele>47</ele>
        <time>2022-04-02T12:48:15Z</time>
      </trkpt>
      <trkpt lat="47.20434" lon="-1.52544">
        <ele>47</ele>
        <time>2022-04-02T12:48:17Z</time>
      </trkpt>
      <trkpt lat="47.20427" lon="-1.52564">
        <ele>47</ele>
        <time>2022-04-02T12:48:19Z</time>
      </trkpt>
      <trkpt lat="47.20421" lon="-1.52583">
        <ele>47</ele>
        <time>2022-04-02T12:48:21Z</time>
      </trkpt>
      <trkpt lat="47.20416" lon="-1.52603">
        <ele>47</ele>
        <time>2022-04-02T12:48:23Z</time>
      </trkpt>
      <trkpt lat="47.20411" lon="-1.52621">
        <ele>47</ele>
        <time>2022-04-02T12:48:25Z</time>
      </trkpt>
      <trkpt lat="47.20405" lon="-1.52639">
        <ele>47</ele>
        <time>2022-04-02T12:48:27Z</time>
      </trkpt>
      <trkpt lat="47.20397" lon="-1.52656">
        <ele>47</ele>
        <time>2022-04-02T12:48:29Z</time>
      </trkpt>
      <trkpt lat="47.2039" lon="-1.52673">
        <ele>47</ele>
        <time>2022-04-02T12:48:31Z</time>
      </trkpt>
      <trkpt lat="47.20382" lon="-1.5269">
        <ele>47</ele>
        <time>2022-04-02T12:48:33Z</time>
      </trkpt>
      <trkpt lat="47.20373" lon="-1.52705">
        <ele>47</ele>
        <time>2022-04-02T12:48:35Z</time>
      </trkpt>
      <trkpt lat="47.20365" lon="-1.5272">
        <ele>47</ele>
        <time>2022-04-02T12:48:37Z</time>
      </trkpt>
      <trkpt lat="47.20357" lon="-1.52736">
        <ele>47</ele>
        <time>2022-04-02T12:48:39Z</time>
      </trkpt>
      <trkpt lat="47.20349" lon="-1.52751">
        <ele>47</ele>
        <time>2022-04-02T12:48:41Z</time>
      </trkpt>
      <trkpt lat="47.20341" lon="-1.52767">
        <ele>47</ele>
        <time>2022-04-02T12:48:43Z</time>
      </trkpt>
      <trkpt lat="47.20334" lon="-1.52783">
        <ele>47</ele>
        <time>2022-04-02T12:48:45Z</time>
      </trkpt>
      <trkpt lat="47.20326" lon="-1.52799">
        <ele>47</ele>
        <time>2022-04-02T12:48:47Z</time>
      </trkpt>
      <trkpt lat="47.20318" lon="-1.52816">
        <ele>47</ele>
        <time>2022-04-02T12:48:49Z</time>
      </trkpt>
      <trkpt lat="47.2031" lon="-1.52832">
        <ele>48</ele>
        <time>2022-04-02T12:48:51Z</time>
      </trkpt>
      <trkpt lat="47.20302" lon="-1.52849">
        <ele>48</ele>
        <time>2022-04-02T12:48:53Z</time>
      </trkpt>
      <trkpt lat="47.20295" lon="-1.52866">
        <ele>48</ele>
        <time>2022-04-02T12:48:55Z</time>
      </trkpt>
      <trkpt lat="47.20288" lon="-1.52883">
        <ele>48</ele>
        <time>2022-04-02T12:48:57Z</time>
      </trkpt>
      <trkpt lat="47.20282" lon="-1.529">
        <ele>48</ele>
        <time>2022-04-02T12:48:59Z</time>
      </trkpt>
      <trkpt lat="47.20275" lon="-1.52917">
        <ele>48</ele>
        <time>2022-04-02T12:49:01Z</time>
      </trkpt>
      <trkpt lat="47.20268" lon="-1.52932">
        <ele>48</ele>
        <time>2022-04-02T12:49:03Z</time>
      </trkpt>
      <trkpt lat="47.2026" lon="-1.52947">
        <ele>48</ele>
        <time>2022-04-02T12:49:05Z</time>
      </trkpt>
      <trkpt lat="47.20252" lon="-1.52961">
        <ele>48</ele>
        <time>2022-04-02T12:49:07Z</time>
      </trkpt>
      <trkpt lat="47.20243" lon="-1.52976">
        <ele>48</ele>
        <time>2022-04-02T12:49:09Z</time>
      </trkpt>
      <trkpt lat="47.20235" lon="-1.52991">
        <ele>48</ele>
        <time>2022-04-02T12:49:11Z</time>
      </trkpt>
      <trkpt lat="47.20226" lon="-1.53005">
        <ele>48</ele>
        <time>2022-04-02T12:49:13Z</time>
      </trkpt>
      <trkpt lat="47.20217" lon="-1.53018">
        <ele>48</ele>
        <time>2022-04-02T12:49:15Z</time>
      </trkpt>
      <trkpt lat="47.20207" lon="-1.5303">
        <ele>48</ele>
        <time>2022-04-02T12:49:17Z</time>
      </trkpt>
      <trkpt lat="47.20196" lon="-1.53041">
        <ele>48</ele>
        <time>2022-04-02T12:49:19Z</time>
      </trkpt>
      <trkpt lat="47.20186" lon="-1.53054">
        <ele>48</ele>
        <time>2022-04-02T12:49:21Z</time>
      </trkpt>
      <trkpt lat="47.20178" lon="-1.53067">
        <ele>48</ele>
        <time>2022-04-02T12:49:23Z</time>
      </trkpt>
      <trkpt lat="47.20169" lon="-1.53081">
        <ele>48</ele>
        <time>2022-04-02T12:49:25Z</time>
      </trkpt>
      <trkpt lat="47.20161" lon="-1.53096">
        <ele>47</ele>
        <time>2022-04-02T12:49:27Z</time>
      </trkpt>
      <trkpt lat="47.20154" lon="-1.53112">
        <ele>48</ele>
        <time>2022-04-02T12:49:29Z</time>
      </trkpt>
      <trkpt lat="47.20148" lon="-1.53128">
        <ele>48</ele>
        <time>2022-04-02T12:49:31Z</time>
      </trkpt>
      <trkpt lat="47.2014" lon="-1.53143">
        <ele>48</ele>
        <time>2022-04-02T12:49:33Z</time>
      </trkpt>
      <trkpt lat="47.20134" lon="-1.53159">
        <ele>48</ele>
        <time>2022-04-02T12:49:35Z</time>
      </trkpt>
      <trkpt lat="47.20129" lon="-1.53175">
        <ele>48</ele>
        <time>2022-04-02T12:49:37Z</time>
      </trkpt>
      <trkpt lat="47.20124" lon="-1.53192">
        <ele>48</ele>
        <time>2022-04-02T12:49:39Z</time>
      </trkpt>
      <trkpt lat="47.20121" lon="-1.5321">
        <ele>48</ele>
        <time>2022-04-02T12:49:41Z</time>
      </trkpt>
      <trkpt lat="47.20116" lon="-1.53228">
        <ele>48</ele>
        <time>2022-04-02T12:49:43Z</time>
      </trkpt>
      <trkpt lat="47.20112" lon="-1.53246">
        <ele>48</ele>
        <time>2022-04-02T12:49:45Z</time>
      </trkpt>
      <trkpt lat="47.20107" lon="-1.53264">
        <ele>48</ele>
        <time>2022-04-02T12:49:47Z</time>
      </trkpt>
      <trkpt lat="47.20102" lon="-1.5328">
        <ele>48</ele>
        <time>2022-04-02T12:49:49Z</time>
      </trkpt>
      <trkpt lat="47.20097" lon="-1.53296">
        <ele>48</ele>
        <time>2022-04-02T12:49:51Z</time>
      </trkpt>
      <trkpt lat="47.2009" lon="-1.53312">
        <ele>48</ele>
        <time>2022-04-02T12:49:53Z</time>
      </trkpt>
      <trkpt lat="47.20083" lon="-1.53328">
        <ele>48</ele>
        <time>2022-04-02T12:49:55Z</time>
      </trkpt>
      <trkpt lat="47.20076" lon="-1.53343">
        <ele>49</ele>
        <time>2022-04-02T12:49:57Z</time>
      </trkpt>
      <trkpt lat="47.2007" lon="-1.53359">
        <ele>49</ele>
        <time>2022-04-02T12:49:59Z</time>
      </trkpt>
      <trkpt lat="47.20063" lon="-1.53375">
        <ele>49</ele>
        <time>2022-04-02T12:50:01Z</time>
      </trkpt>
      <trkpt lat="47.20057" lon="-1.53392">
        <ele>49</ele>
        <time>2022-04-02T12:50:03Z</time>
      </trkpt>
      <trkpt lat="47.20051" lon="-1.53408">
        <ele>48</ele>
        <time>2022-04-02T12:50:05Z</time>
      </trkpt>
      <trkpt lat="47.20044" lon="-1.53422">
        <ele>47</ele>
        <time>2022-04-02T12:50:07Z</time>
      </trkpt>
      <trkpt lat="47.20039" lon="-1.53438">
        <ele>47</ele>
        <time>2022-04-02T12:50:09Z</time>
      </trkpt>
      <trkpt lat="47.20033" lon="-1.53455">
        <ele>47</ele>
        <time>2022-04-02T12:50:11Z</time>
      </trkpt>
      <trkpt lat="47.20027" lon="-1.5347">
        <ele>47</ele>
        <time>2022-04-02T12:50:13Z</time>
      </trkpt>
      <trkpt lat="47.2002" lon="-1.53485">
        <ele>48</ele>
        <time>2022-04-02T12:50:15Z</time>
      </trkpt>
      <trkpt lat="47.20012" lon="-1.53498">
        <ele>48</ele>
        <time>2022-04-02T12:50:17Z</time>
      </trkpt>
      <trkpt lat="47.20002" lon="-1.5351">
        <ele>47</ele>
        <time>2022-04-02T12:50:19Z</time>
      </trkpt>
      <trkpt lat="47.19992" lon="-1.5352">
        <ele>47</ele>
        <time>2022-04-02T12:50:21Z</time>
      </trkpt>
      <trkpt lat="47.19984" lon="-1.53531">
        <ele>47</ele>
        <time>2022-04-02T12:50:23Z</time>
      </trkpt>
      <trkpt lat="47.19979" lon="-1.53546">
        <ele>47</ele>
        <time>2022-04-02T12:50:25Z</time>
      </trkpt>
      <trkpt lat="47.19974" lon="-1.53563">
        <ele>48</ele>
        <time>2022-04-02T12:50:27Z</time>
      </trkpt>
      <trkpt lat="47.19969" lon="-1.53582">
        <ele>49</ele>
        <time>2022-04-02T12:50:29Z</time>
      </trkpt>
      <trkpt lat="47.19965" lon="-1.536">
        <ele>49</ele>
        <time>2022-04-02T12:50:31Z</time>
      </trkpt>
      <trkpt lat="47.1996" lon="-1.53619">
        <ele>50</ele>
        <time>2022-04-02T12:50:33Z</time>
      </trkpt>
      <trkpt lat="47.19956" lon="-1.53638">
        <ele>50</ele>
        <time>2022-04-02T12:50:35Z</time>
      </trkpt>
      <trkpt lat="47.19951" lon="-1.53656">
        <ele>51</ele>
        <time>2022-04-02T12:50:37Z</time>
      </trkpt>
      <trkpt lat="47.19948" lon="-1.53674">
        <ele>51</ele>
        <time>2022-04-02T12:50:39Z</time>
      </trkpt>
      <trkpt lat="47.19944" lon="-1.53693">
        <ele>52</ele>
        <time>2022-04-02T12:50:41Z</time>
      </trkpt>
      <trkpt lat="47.1994" lon="-1.53711">
        <ele>52</ele>
        <time>2022-04-02T12:50:43Z</time>
      </trkpt>
      <trkpt lat="47.19936" lon="-1.53729">
        <ele>52</ele>
        <time>2022-04-02T12:50:45Z</time>
      </trkpt>
      <trkpt lat="47.19931" lon="-1.53745">
        <ele>53</ele>
        <time>2022-04-02T12:50:47Z</time>
      </trkpt>
      <trkpt lat="47.19926" lon="-1.53763">
        <ele>53</ele>
        <time>2022-04-02T12:50:49Z</time>
      </trkpt>
      <trkpt lat="47.19922" lon="-1.5378">
        <ele>53</ele>
        <time>2022-04-02T12:50:51Z</time>
      </trkpt>
      <trkpt lat="47.19918" lon="-1.53797">
        <ele>53</ele>
        <time>2022-04-02T12:50:53Z</time>
      </trkpt>
      <trkpt lat="47.19914" lon="-1.53814">
        <ele>54</ele>
        <time>2022-04-02T12:50:55Z</time>
      </trkpt>
      <trkpt lat="47.1991" lon="-1.53831">
        <ele>56</ele>
        <time>2022-04-02T12:50:57Z</time>
      </trkpt>
      <trkpt lat="47.19907" lon="-1.53849">
        <ele>56</ele>
        <time>2022-04-02T12:50:59Z</time>
      </trkpt>
      <trkpt lat="47.19903" lon="-1.53868">
        <ele>56</ele>
        <time>2022-04-02T12:51:01Z</time>
      </trkpt>
      <trkpt lat="47.19899" lon="-1.53887">
        <ele>56</ele>
        <time>2022-04-02T12:51:03Z</time>
      </trkpt>
      <trkpt lat="47.19894" lon="-1.53905">
        <ele>56</ele>
        <time>2022-04-02T12:51:05Z</time>
      </trkpt>
      <trkpt lat="47.19889" lon="-1.53923">
        <ele>56</ele>
        <time>2022-04-02T12:51:07Z</time>
      </trkpt>
      <trkpt lat="47.19884" lon="-1.53943">
        <ele>56</ele>
        <time>2022-04-02T12:51:09Z</time>
      </trkpt>
      <trkpt lat="47.1988" lon="-1.53961">
        <ele>56</ele>
        <time>2022-04-02T12:51:11Z</time>
      </trkpt>
      <trkpt lat="47.19875" lon="-1.53979">
        <ele>56</ele>
        <time>2022-04-02T12:51:13Z</time>
      </trkpt>
      <trkpt lat="47.19869" lon="-1.53996">
        <ele>56</ele>
        <time>2022-04-02T12:51:15Z</time>
      </trkpt>
      <trkpt lat="47.19864" lon="-1.54015">
        <ele>55</ele>
        <time>2022-04-02T12:51:17Z</time>
      </trkpt>
      <trkpt lat="47.19859" lon="-1.54033">
        <ele>55</ele>
        <time>2022-04-02T12:51:19Z</time>
      </trkpt>
      <trkpt lat="47.19854" lon="-1.54051">
        <ele>54</ele>
        <time>2022-04-02T12:51:21Z</time>
      </trkpt>
      <trkpt lat="47.19851" lon="-1.54069">
        <ele>53</ele>
        <time>2022-04-02T12:51:23Z</time>
      </trkpt>
      <trkpt lat="47.19846" lon="-1.54087">
        <ele>53</ele>
        <time>2022-04-02T12:51:25Z</time>
      </trkpt>
      <trkpt lat="47.1984" lon="-1.54104">
        <ele>53</ele>
        <time>2022-04-02T12:51:27Z</time>
      </trkpt>
      <trkpt lat="47.19833" lon="-1.54119">
        <ele>52</ele>
        <time>2022-04-02T12:51:29Z</time>
      </trkpt>
      <trkpt lat="47.19827" lon="-1.54135">
        <ele>51</ele>
        <time>2022-04-02T12:51:31Z</time>
      </trkpt>
      <trkpt lat="47.19821" lon="-1.54149">
        <ele>51</ele>
        <time>2022-04-02T12:51:33Z</time>
      </trkpt>
      <trkpt lat="47.19813" lon="-1.54164">
        <ele>51</ele>
        <time>2022-04-02T12:51:35Z</time>
      </trkpt>
      <trkpt lat="47.19805" lon="-1.54179">
        <ele>52</ele>
        <time>2022-04-02T12:51:37Z</time>
      </trkpt>
      <trkpt lat="47.19797" lon="-1.542">
        <ele>52</ele>
        <time>2022-04-02T12:51:39Z</time>
      </trkpt>
      <trkpt lat="47.19789" lon="-1.54224">
        <ele>51</ele>
        <time>2022-04-02T12:51:41Z</time>
      </trkpt>
      <trkpt lat="47.19784" lon="-1.54236">
        <ele>51</ele>
        <time>2022-04-02T12:51:42Z</time>
      </trkpt>
      <trkpt lat="47.19779" lon="-1.54247">
        <ele>51</ele>
        <time>2022-04-02T12:51:43Z</time>
      </trkpt>
      <trkpt lat="47.19773" lon="-1.54257">
        <ele>51</ele>
        <time>2022-04-02T12:51:44Z</time>
      </trkpt>
      <trkpt lat="47.19766" lon="-1.54266">
        <ele>50</ele>
        <time>2022-04-02T12:51:45Z</time>
      </trkpt>
      <trkpt lat="47.19759" lon="-1.54275">
        <ele>50</ele>
        <time>2022-04-02T12:51:46Z</time>
      </trkpt>
      <trkpt lat="47.19752" lon="-1.54283">
        <ele>50</ele>
        <time>2022-04-02T12:51:47Z</time>
      </trkpt>
      <trkpt lat="47.19745" lon="-1.54292">
        <ele>50</ele>
        <time>2022-04-02T12:51:48Z</time>
      </trkpt>
      <trkpt lat="47.1973" lon="-1.54306">
        <ele>49</ele>
        <time>2022-04-02T12:51:50Z</time>
      </trkpt>
      <trkpt lat="47.19713" lon="-1.54318">
        <ele>49</ele>
        <time>2022-04-02T12:51:52Z</time>
      </trkpt>
      <trkpt lat="47.19698" lon="-1.5433">
        <ele>49</ele>
        <time>2022-04-02T12:51:54Z</time>
      </trkpt>
      <trkpt lat="47.19682" lon="-1.54342">
        <ele>48</ele>
        <time>2022-04-02T12:51:56Z</time>
      </trkpt>
      <trkpt lat="47.19667" lon="-1.54354">
        <ele>48</ele>
        <time>2022-04-02T12:51:58Z</time>
      </trkpt>
      <trkpt lat="47.19653" lon="-1.54365">
        <ele>48</ele>
        <time>2022-04-02T12:52:00Z</time>
      </trkpt>
      <trkpt lat="47.19639" lon="-1.54376">
        <ele>49</ele>
        <time>2022-04-02T12:52:02Z</time>
      </trkpt>
      <trkpt lat="47.19626" lon="-1.54389">
        <ele>48</ele>
        <time>2022-04-02T12:52:04Z</time>
      </trkpt>
      <trkpt lat="47.19613" lon="-1.54402">
        <ele>48</ele>
        <time>2022-04-02T12:52:06Z</time>
      </trkpt>
      <trkpt lat="47.19601" lon="-1.54413">
        <ele>49</ele>
        <time>2022-04-02T12:52:08Z</time>
      </trkpt>
      <trkpt lat="47.19589" lon="-1.54425">
        <ele>49</ele>
        <time>2022-04-02T12:52:10Z</time>
      </trkpt>
      <trkpt lat="47.19577" lon="-1.54437">
        <ele>49</ele>
        <time>2022-04-02T12:52:12Z</time>
      </trkpt>
      <trkpt lat="47.19565" lon="-1.54449">
        <ele>49</ele>
        <time>2022-04-02T12:52:14Z</time>
      </trkpt>
      <trkpt lat="47.19554" lon="-1.54461">
        <ele>49</ele>
        <time>2022-04-02T12:52:16Z</time>
      </trkpt>
      <trkpt lat="47.19543" lon="-1.54472">
        <ele>49</ele>
        <time>2022-04-02T12:52:18Z</time>
      </trkpt>
      <trkpt lat="47.19531" lon="-1.54482">
        <ele>49</ele>
        <time>2022-04-02T12:52:20Z</time>
      </trkpt>
      <trkpt lat="47.1952" lon="-1.54493">
        <ele>49</ele>
        <time>2022-04-02T12:52:22Z</time>
      </trkpt>
      <trkpt lat="47.19509" lon="-1.54503">
        <ele>49</ele>
        <time>2022-04-02T12:52:24Z</time>
      </trkpt>
      <trkpt lat="47.19497" lon="-1.54512">
        <ele>49</ele>
        <time>2022-04-02T12:52:26Z</time>
      </trkpt>
      <trkpt lat="47.19485" lon="-1.54522">
        <ele>49</ele>
        <time>2022-04-02T12:52:28Z</time>
      </trkpt>
      <trkpt lat="47.19475" lon="-1.54536">
        <ele>48</ele>
        <time>2022-04-02T12:52:30Z</time>
      </trkpt>
      <trkpt lat="47.19469" lon="-1.54555">
        <ele>48</ele>
        <time>2022-04-02T12:52:32Z</time>
      </trkpt>
      <trkpt lat="47.19465" lon="-1.54574">
        <ele>48</ele>
        <time>2022-04-02T12:52:34Z</time>
      </trkpt>
      <trkpt lat="47.1947" lon="-1.54591">
        <ele>47</ele>
        <time>2022-04-02T12:52:36Z</time>
      </trkpt>
      <trkpt lat="47.19468" lon="-1.54612">
        <ele>47</ele>
        <time>2022-04-02T12:52:38Z</time>
      </trkpt>
      <trkpt lat="47.1946" lon="-1.54628">
        <ele>47</ele>
        <time>2022-04-02T12:52:40Z</time>
      </trkpt>
      <trkpt lat="47.19447" lon="-1.54636">
        <ele>48</ele>
        <time>2022-04-02T12:52:42Z</time>
      </trkpt>
      <trkpt lat="47.19438" lon="-1.54649">
        <ele>49</ele>
        <time>2022-04-02T12:52:44Z</time>
      </trkpt>
      <trkpt lat="47.19434" lon="-1.5467">
        <ele>49</ele>
        <time>2022-04-02T12:52:46Z</time>
      </trkpt>
      <trkpt lat="47.19429" lon="-1.54691">
        <ele>49</ele>
        <time>2022-04-02T12:52:48Z</time>
      </trkpt>
      <trkpt lat="47.19423" lon="-1.54712">
        <ele>49</ele>
        <time>2022-04-02T12:52:50Z</time>
      </trkpt>
      <trkpt lat="47.19417" lon="-1.54732">
        <ele>50</ele>
        <time>2022-04-02T12:52:52Z</time>
      </trkpt>
      <trkpt lat="47.19412" lon="-1.54752">
        <ele>50</ele>
        <time>2022-04-02T12:52:54Z</time>
      </trkpt>
      <trkpt lat="47.19407" lon="-1.5477">
        <ele>50</ele>
        <time>2022-04-02T12:52:56Z</time>
      </trkpt>
      <trkpt lat="47.19403" lon="-1.54788">
        <ele>51</ele>
        <time>2022-04-02T12:52:58Z</time>
      </trkpt>
      <trkpt lat="47.19398" lon="-1.54806">
        <ele>52</ele>
        <time>2022-04-02T12:53:00Z</time>
      </trkpt>
      <trkpt lat="47.19394" lon="-1.54825">
        <ele>53</ele>
        <time>2022-04-02T12:53:02Z</time>
      </trkpt>
      <trkpt lat="47.1939" lon="-1.54843">
        <ele>53</ele>
        <time>2022-04-02T12:53:04Z</time>
      </trkpt>
      <trkpt lat="47.19385" lon="-1.54861">
        <ele>53</ele>
        <time>2022-04-02T12:53:06Z</time>
      </trkpt>
      <trkpt lat="47.1938" lon="-1.54879">
        <ele>54</ele>
        <time>2022-04-02T12:53:08Z</time>
      </trkpt>
      <trkpt lat="47.19377" lon="-1.54897">
        <ele>54</ele>
        <time>2022-04-02T12:53:10Z</time>
      </trkpt>
      <trkpt lat="47.19372" lon="-1.54914">
        <ele>55</ele>
        <time>2022-04-02T12:53:12Z</time>
      </trkpt>
      <trkpt lat="47.19368" lon="-1.54931">
        <ele>55</ele>
        <time>2022-04-02T12:53:14Z</time>
      </trkpt>
      <trkpt lat="47.19364" lon="-1.54947">
        <ele>55</ele>
        <time>2022-04-02T12:53:16Z</time>
      </trkpt>
      <trkpt lat="47.1936" lon="-1.54963">
        <ele>55</ele>
        <time>2022-04-02T12:53:18Z</time>
      </trkpt>
      <trkpt lat="47.19356" lon="-1.5498">
        <ele>55</ele>
        <time>2022-04-02T12:53:20Z</time>
      </trkpt>
      <trkpt lat="47.19351" lon="-1.54998">
        <ele>54</ele>
        <time>2022-04-02T12:53:22Z</time>
      </trkpt>
      <trkpt lat="47.19347" lon="-1.55015">
        <ele>54</ele>
        <time>2022-04-02T12:53:24Z</time>
      </trkpt>
      <trkpt lat="47.19342" lon="-1.55034">
        <ele>54</ele>
        <time>2022-04-02T12:53:26Z</time>
      </trkpt>
      <trkpt lat="47.19338" lon="-1.55053">
        <ele>53</ele>
        <time>2022-04-02T12:53:28Z</time>
      </trkpt>
      <trkpt lat="47.19333" lon="-1.55072">
        <ele>52</ele>
        <time>2022-04-02T12:53:30Z</time>
      </trkpt>
      <trkpt lat="47.19328" lon="-1.55092">
        <ele>52</ele>
        <time>2022-04-02T12:53:32Z</time>
      </trkpt>
      <trkpt lat="47.19323" lon="-1.55112">
        <ele>52</ele>
        <time>2022-04-02T12:53:34Z</time>
      </trkpt>
      <trkpt lat="47.19317" lon="-1.55132">
        <ele>51</ele>
        <time>2022-04-02T12:53:36Z</time>
      </trkpt>
      <trkpt lat="47.19312" lon="-1.55153">
        <ele>50</ele>
        <time>2022-04-02T12:53:38Z</time>
      </trkpt>
      <trkpt lat="47.19307" lon="-1.55175">
        <ele>49</ele>
        <time>2022-04-02T12:53:40Z</time>
      </trkpt>
      <trkpt lat="47.19301" lon="-1.55196">
        <ele>49</ele>
        <time>2022-04-02T12:53:42Z</time>
      </trkpt>
      <trkpt lat="47.19297" lon="-1.55217">
        <ele>49</ele>
        <time>2022-04-02T12:53:44Z</time>
      </trkpt>
      <trkpt lat="47.19291" lon="-1.55238">
        <ele>48</ele>
        <time>2022-04-02T12:53:46Z</time>
      </trkpt>
      <trkpt lat="47.19286" lon="-1.55259">
        <ele>48</ele>
        <time>2022-04-02T12:53:48Z</time>
      </trkpt>
      <trkpt lat="47.19281" lon="-1.55279">
        <ele>48</ele>
        <time>2022-04-02T12:53:50Z</time>
      </trkpt>
      <trkpt lat="47.19277" lon="-1.553">
        <ele>48</ele>
        <time>2022-04-02T12:53:52Z</time>
      </trkpt>
      <trkpt lat="47.19273" lon="-1.5532">
        <ele>48</ele>
        <time>2022-04-02T12:53:54Z</time>
      </trkpt>
      <trkpt lat="47.19269" lon="-1.5534">
        <ele>48</ele>
        <time>2022-04-02T12:53:56Z</time>
      </trkpt>
      <trkpt lat="47.19264" lon="-1.5536">
        <ele>48</ele>
        <time>2022-04-02T12:53:58Z</time>
      </trkpt>
      <trkpt lat="47.19258" lon="-1.55379">
        <ele>48</ele>
        <time>2022-04-02T12:54:00Z</time>
      </trkpt>
      <trkpt lat="47.19252" lon="-1.55397">
        <ele>48</ele>
        <time>2022-04-02T12:54:02Z</time>
      </trkpt>
      <trkpt lat="47.19249" lon="-1.55415">
        <ele>48</ele>
        <time>2022-04-02T12:54:04Z</time>
      </trkpt>
      <trkpt lat="47.19253" lon="-1.55436">
        <ele>48</ele>
        <time>2022-04-02T12:54:06Z</time>
      </trkpt>
      <trkpt lat="47.19249" lon="-1.55456">
        <ele>48</ele>
        <time>2022-04-02T12:54:08Z</time>
      </trkpt>
      <trkpt lat="47.19242" lon="-1.55475">
        <ele>48</ele>
        <time>2022-04-02T12:54:10Z</time>
      </trkpt>
      <trkpt lat="47.19243" lon="-1.55497">
        <ele>48</ele>
        <time>2022-04-02T12:54:12Z</time>
      </trkpt>
      <trkpt lat="47.19243" lon="-1.55518">
        <ele>48</ele>
        <time>2022-04-02T12:54:14Z</time>
      </trkpt>
      <trkpt lat="47.19242" lon="-1.5554">
        <ele>48</ele>
        <time>2022-04-02T12:54:16Z</time>
      </trkpt>
      <trkpt lat="47.19241" lon="-1.55561">
        <ele>48</ele>
        <time>2022-04-02T12:54:18Z</time>
      </trkpt>
      <trkpt lat="47.19239" lon="-1.55582">
        <ele>48</ele>
        <time>2022-04-02T12:54:20Z</time>
      </trkpt>
      <trkpt lat="47.19237" lon="-1.55603">
        <ele>48</ele>
        <time>2022-04-02T12:54:22Z</time>
      </trkpt>
      <trkpt lat="47.19237" lon="-1.55625">
        <ele>48</ele>
        <time>2022-04-02T12:54:24Z</time>
      </trkpt>
      <trkpt lat="47.19236" lon="-1.55646">
        <ele>48</ele>
        <time>2022-04-02T12:54:26Z</time>
      </trkpt>
      <trkpt lat="47.19235" lon="-1.55666">
        <ele>49</ele>
        <time>2022-04-02T12:54:28Z</time>
      </trkpt>
      <trkpt lat="47.19235" lon="-1.55687">
        <ele>49</ele>
        <time>2022-04-02T12:54:30Z</time>
      </trkpt>
      <trkpt lat="47.19234" lon="-1.55707">
        <ele>49</ele>
        <time>2022-04-02T12:54:32Z</time>
      </trkpt>
      <trkpt lat="47.19234" lon="-1.55729">
        <ele>49</ele>
        <time>2022-04-02T12:54:34Z</time>
      </trkpt>
      <trkpt lat="47.19234" lon="-1.55749">
        <ele>49</ele>
        <time>2022-04-02T12:54:36Z</time>
      </trkpt>
      <trkpt lat="47.19234" lon="-1.5577">
        <ele>49</ele>
        <time>2022-04-02T12:54:38Z</time>
      </trkpt>
      <trkpt lat="47.19235" lon="-1.5579">
        <ele>49</ele>
        <time>2022-04-02T12:54:40Z</time>
      </trkpt>
      <trkpt lat="47.19235" lon="-1.5581">
        <ele>49</ele>
        <time>2022-04-02T12:54:42Z</time>
      </trkpt>
      <trkpt lat="47.19236" lon="-1.5583">
        <ele>49</ele>
        <time>2022-04-02T12:54:44Z</time>
      </trkpt>
      <trkpt lat="47.19237" lon="-1.5585">
        <ele>48</ele>
        <time>2022-04-02T12:54:46Z</time>
      </trkpt>
      <trkpt lat="47.19238" lon="-1.5587">
        <ele>48</ele>
        <time>2022-04-02T12:54:48Z</time>
      </trkpt>
      <trkpt lat="47.19239" lon="-1.5589">
        <ele>48</ele>
        <time>2022-04-02T12:54:50Z</time>
      </trkpt>
      <trkpt lat="47.1924" lon="-1.5591">
        <ele>48</ele>
        <time>2022-04-02T12:54:52Z</time>
      </trkpt>
      <trkpt lat="47.19241" lon="-1.5593">
        <ele>48</ele>
        <time>2022-04-02T12:54:54Z</time>
      </trkpt>
      <trkpt lat="47.19242" lon="-1.5595">
        <ele>48</ele>
        <time>2022-04-02T12:54:56Z</time>
      </trkpt>
      <trkpt lat="47.19244" lon="-1.5597">
        <ele>48</ele>
        <time>2022-04-02T12:54:58Z</time>
      </trkpt>
      <trkpt lat="47.19246" lon="-1.5599">
        <ele>48</ele>
        <time>2022-04-02T12:55:00Z</time>
      </trkpt>
      <trkpt lat="47.19248" lon="-1.5601">
        <ele>48</ele>
        <time>2022-04-02T12:55:02Z</time>
      </trkpt>
      <trkpt lat="47.1925" lon="-1.5603">
        <ele>48</ele>
        <time>2022-04-02T12:55:04Z</time>
      </trkpt>
      <trkpt lat="47.19253" lon="-1.5605">
        <ele>47</ele>
        <time>2022-04-02T12:55:06Z</time>
      </trkpt>
      <trkpt lat="47.19255" lon="-1.5607">
        <ele>47</ele>
        <time>2022-04-02T12:55:08Z</time>
      </trkpt>
      <trkpt lat="47.19256" lon="-1.5609">
        <ele>47</ele>
        <time>2022-04-02T12:55:10Z</time>
      </trkpt>
      <trkpt lat="47.19258" lon="-1.5611">
        <ele>47</ele>
        <time>2022-04-02T12:55:12Z</time>
      </trkpt>
      <trkpt lat="47.19259" lon="-1.5613">
        <ele>47</ele>
        <time>2022-04-02T12:55:14Z</time>
      </trkpt>
      <trkpt lat="47.19259" lon="-1.5615">
        <ele>47</ele>
        <time>2022-04-02T12:55:16Z</time>
      </trkpt>
      <trkpt lat="47.1926" lon="-1.5617">
        <ele>47</ele>
        <time>2022-04-02T12:55:18Z</time>
      </trkpt>
      <trkpt lat="47.19261" lon="-1.5619">
        <ele>47</ele>
        <time>2022-04-02T12:55:20Z</time>
      </trkpt>
      <trkpt lat="47.19263" lon="-1.56209">
        <ele>47</ele>
        <time>2022-04-02T12:55:22Z</time>
      </trkpt>
      <trkpt lat="47.19266" lon="-1.56227">
        <ele>47</ele>
        <time>2022-04-02T12:55:24Z</time>
      </trkpt>
      <trkpt lat="47.19271" lon="-1.56246">
        <ele>47</ele>
        <time>2022-04-02T12:55:26Z</time>
      </trkpt>
      <trkpt lat="47.19281" lon="-1.56261">
        <ele>47</ele>
        <time>2022-04-02T12:55:28Z</time>
      </trkpt>
      <trkpt lat="47.19287" lon="-1.56281">
        <ele>47</ele>
        <time>2022-04-02T12:55:30Z</time>
      </trkpt>
      <trkpt lat="47.19286" lon="-1.56303">
        <ele>47</ele>
        <time>2022-04-02T12:55:32Z</time>
      </trkpt>
      <trkpt lat="47.19279" lon="-1.56323">
        <ele>47</ele>
        <time>2022-04-02T12:55:34Z</time>
      </trkpt>
      <trkpt lat="47.19276" lon="-1.56344">
        <ele>47</ele>
        <time>2022-04-02T12:55:36Z</time>
      </trkpt>
      <trkpt lat="47.1928" lon="-1.56365">
        <ele>47</ele>
        <time>2022-04-02T12:55:38Z</time>
      </trkpt>
      <trkpt lat="47.19282" lon="-1.56388">
        <ele>47</ele>
        <time>2022-04-02T12:55:40Z</time>
      </trkpt>
      <trkpt lat="47.19285" lon="-1.56409">
        <ele>47</ele>
        <time>2022-04-02T12:55:42Z</time>
      </trkpt>
      <trkpt lat="47.19286" lon="-1.5643">
        <ele>47</ele>
        <time>2022-04-02T12:55:44Z</time>
      </trkpt>
      <trkpt lat="47.19288" lon="-1.56451">
        <ele>47</ele>
        <time>2022-04-02T12:55:46Z</time>
      </trkpt>
      <trkpt lat="47.1929" lon="-1.56472">
        <ele>47</ele>
        <time>2022-04-02T12:55:48Z</time>
      </trkpt>
      <trkpt lat="47.19292" lon="-1.56493">
        <ele>46</ele>
        <time>2022-04-02T12:55:50Z</time>
      </trkpt>
      <trkpt lat="47.19294" lon="-1.56513">
        <ele>46</ele>
        <time>2022-04-02T12:55:52Z</time>
      </trkpt>
      <trkpt lat="47.19296" lon="-1.56534">
        <ele>46</ele>
        <time>2022-04-02T12:55:54Z</time>
      </trkpt>
      <trkpt lat="47.19297" lon="-1.56554">
        <ele>46</ele>
        <time>2022-04-02T12:55:56Z</time>
      </trkpt>
      <trkpt lat="47.193" lon="-1.56574">
        <ele>46</ele>
        <time>2022-04-02T12:55:58Z</time>
      </trkpt>
      <trkpt lat="47.19302" lon="-1.56595">
        <ele>47</ele>
        <time>2022-04-02T12:56:00Z</time>
      </trkpt>
      <trkpt lat="47.19303" lon="-1.56616">
        <ele>47</ele>
        <time>2022-04-02T12:56:02Z</time>
      </trkpt>
      <trkpt lat="47.19305" lon="-1.56636">
        <ele>47</ele>
        <time>2022-04-02T12:56:04Z</time>
      </trkpt>
      <trkpt lat="47.19307" lon="-1.56657">
        <ele>47</ele>
        <time>2022-04-02T12:56:06Z</time>
      </trkpt>
      <trkpt lat="47.19309" lon="-1.56677">
        <ele>47</ele>
        <time>2022-04-02T12:56:08Z</time>
      </trkpt>
      <trkpt lat="47.19311" lon="-1.56698">
        <ele>47</ele>
        <time>2022-04-02T12:56:10Z</time>
      </trkpt>
      <trkpt lat="47.19313" lon="-1.5672">
        <ele>47</ele>
        <time>2022-04-02T12:56:12Z</time>
      </trkpt>
      <trkpt lat="47.19315" lon="-1.56741">
        <ele>47</ele>
        <time>2022-04-02T12:56:14Z</time>
      </trkpt>
      <trkpt lat="47.19317" lon="-1.56761">
        <ele>47</ele>
        <time>2022-04-02T12:56:16Z</time>
      </trkpt>
      <trkpt lat="47.19318" lon="-1.56782">
        <ele>47</ele>
        <time>2022-04-02T12:56:18Z</time>
      </trkpt>
      <trkpt lat="47.1932" lon="-1.56803">
        <ele>47</ele>
        <time>2022-04-02T12:56:20Z</time>
      </trkpt>
      <trkpt lat="47.19322" lon="-1.56824">
        <ele>47</ele>
        <time>2022-04-02T12:56:22Z</time>
      </trkpt>
      <trkpt lat="47.19324" lon="-1.56845">
        <ele>47</ele>
        <time>2022-04-02T12:56:24Z</time>
      </trkpt>
      <trkpt lat="47.19325" lon="-1.56866">
        <ele>47</ele>
        <time>2022-04-02T12:56:26Z</time>
      </trkpt>
      <trkpt lat="47.19325" lon="-1.56887">
        <ele>47</ele>
        <time>2022-04-02T12:56:28Z</time>
      </trkpt>
      <trkpt lat="47.19325" lon="-1.56908">
        <ele>47</ele>
        <time>2022-04-02T12:56:30Z</time>
      </trkpt>
      <trkpt lat="47.19325" lon="-1.56929">
        <ele>47</ele>
        <time>2022-04-02T12:56:32Z</time>
      </trkpt>
      <trkpt lat="47.19325" lon="-1.5695">
        <ele>47</ele>
        <time>2022-04-02T12:56:34Z</time>
      </trkpt>
      <trkpt lat="47.19322" lon="-1.56981">
        <ele>47</ele>
        <time>2022-04-02T12:56:37Z</time>
      </trkpt>
      <trkpt lat="47.1932" lon="-1.57002">
        <ele>48</ele>
        <time>2022-04-02T12:56:39Z</time>
      </trkpt>
      <trkpt lat="47.19319" lon="-1.57017">
        <ele>48</ele>
        <time>2022-04-02T12:56:41Z</time>
      </trkpt>
      <trkpt lat="47.1932" lon="-1.57032">
        <ele>48</ele>
        <time>2022-04-02T12:56:44Z</time>
      </trkpt>
      <trkpt lat="47.1933" lon="-1.57046">
        <ele>47</ele>
        <time>2022-04-02T12:56:47Z</time>
      </trkpt>
      <trkpt lat="47.19337" lon="-1.57058">
        <ele>48</ele>
        <time>2022-04-02T12:56:49Z</time>
      </trkpt>
      <trkpt lat="47.19328" lon="-1.57081">
        <ele>48</ele>
        <time>2022-04-02T12:56:52Z</time>
      </trkpt>
      <trkpt lat="47.19315" lon="-1.5709">
        <ele>48</ele>
        <time>2022-04-02T12:56:54Z</time>
      </trkpt>
      <trkpt lat="47.19309" lon="-1.57106">
        <ele>48</ele>
        <time>2022-04-02T12:56:56Z</time>
      </trkpt>
      <trkpt lat="47.19306" lon="-1.57127">
        <ele>48</ele>
        <time>2022-04-02T12:56:58Z</time>
      </trkpt>
      <trkpt lat="47.19304" lon="-1.57147">
        <ele>48</ele>
        <time>2022-04-02T12:57:00Z</time>
      </trkpt>
      <trkpt lat="47.19301" lon="-1.57167">
        <ele>48</ele>
        <time>2022-04-02T12:57:02Z</time>
      </trkpt>
      <trkpt lat="47.19299" lon="-1.57186">
        <ele>48</ele>
        <time>2022-04-02T12:57:04Z</time>
      </trkpt>
      <trkpt lat="47.19295" lon="-1.57206">
        <ele>48</ele>
        <time>2022-04-02T12:57:06Z</time>
      </trkpt>
      <trkpt lat="47.19291" lon="-1.57226">
        <ele>48</ele>
        <time>2022-04-02T12:57:08Z</time>
      </trkpt>
      <trkpt lat="47.19286" lon="-1.57245">
        <ele>48</ele>
        <time>2022-04-02T12:57:10Z</time>
      </trkpt>
      <trkpt lat="47.19281" lon="-1.57264">
        <ele>48</ele>
        <time>2022-04-02T12:57:12Z</time>
      </trkpt>
      <trkpt lat="47.19276" lon="-1.57283">
        <ele>48</ele>
        <time>2022-04-02T12:57:14Z</time>
      </trkpt>
      <trkpt lat="47.19271" lon="-1.57301">
        <ele>49</ele>
        <time>2022-04-02T12:57:16Z</time>
      </trkpt>
      <trkpt lat="47.19265" lon="-1.57319">
        <ele>49</ele>
        <time>2022-04-02T12:57:18Z</time>
      </trkpt>
      <trkpt lat="47.19259" lon="-1.57337">
        <ele>49</ele>
        <time>2022-04-02T12:57:20Z</time>
      </trkpt>
      <trkpt lat="47.19253" lon="-1.57355">
        <ele>49</ele>
        <time>2022-04-02T12:57:22Z</time>
      </trkpt>
      <trkpt lat="47.19246" lon="-1.57374">
        <ele>49</ele>
        <time>2022-04-02T12:57:24Z</time>
      </trkpt>
      <trkpt lat="47.1924" lon="-1.57392">
        <ele>48</ele>
        <time>2022-04-02T12:57:26Z</time>
      </trkpt>
      <trkpt lat="47.19234" lon="-1.5741">
        <ele>48</ele>
        <time>2022-04-02T12:57:28Z</time>
      </trkpt>
      <trkpt lat="47.19227" lon="-1.57428">
        <ele>48</ele>
        <time>2022-04-02T12:57:30Z</time>
      </trkpt>
      <trkpt lat="47.19221" lon="-1.57447">
        <ele>48</ele>
        <time>2022-04-02T12:57:32Z</time>
      </trkpt>
      <trkpt lat="47.19214" lon="-1.57465">
        <ele>48</ele>
        <time>2022-04-02T12:57:34Z</time>
      </trkpt>
      <trkpt lat="47.19208" lon="-1.57483">
        <ele>48</ele>
        <time>2022-04-02T12:57:36Z</time>
      </trkpt>
      <trkpt lat="47.19201" lon="-1.57501">
        <ele>48</ele>
        <time>2022-04-02T12:57:38Z</time>
      </trkpt>
      <trkpt lat="47.19194" lon="-1.5752">
        <ele>48</ele>
        <time>2022-04-02T12:57:40Z</time>
      </trkpt>
      <trkpt lat="47.19188" lon="-1.57538">
        <ele>48</ele>
        <time>2022-04-02T12:57:42Z</time>
      </trkpt>
      <trkpt lat="47.19182" lon="-1.57556">
        <ele>49</ele>
        <time>2022-04-02T12:57:44Z</time>
      </trkpt>
      <trkpt lat="47.19175" lon="-1.57573">
        <ele>49</ele>
        <time>2022-04-02T12:57:46Z</time>
      </trkpt>
      <trkpt lat="47.19169" lon="-1.5759">
        <ele>49</ele>
        <time>2022-04-02T12:57:48Z</time>
      </trkpt>
      <trkpt lat="47.19162" lon="-1.57608">
        <ele>49</ele>
        <time>2022-04-02T12:57:50Z</time>
      </trkpt>
      <trkpt lat="47.19156" lon="-1.57625">
        <ele>49</ele>
        <time>2022-04-02T12:57:52Z</time>
      </trkpt>
      <trkpt lat="47.1915" lon="-1.57643">
        <ele>49</ele>
        <time>2022-04-02T12:57:54Z</time>
      </trkpt>
      <trkpt lat="47.19144" lon="-1.57661">
        <ele>49</ele>
        <time>2022-04-02T12:57:56Z</time>
      </trkpt>
      <trkpt lat="47.19138" lon="-1.57679">
        <ele>49</ele>
        <time>2022-04-02T12:57:58Z</time>
      </trkpt>
      <trkpt lat="47.19131" lon="-1.57697">
        <ele>49</ele>
        <time>2022-04-02T12:58:00Z</time>
      </trkpt>
      <trkpt lat="47.19125" lon="-1.57714">
        <ele>49</ele>
        <time>2022-04-02T12:58:02Z</time>
      </trkpt>
      <trkpt lat="47.19119" lon="-1.57732">
        <ele>49</ele>
        <time>2022-04-02T12:58:04Z</time>
      </trkpt>
      <trkpt lat="47.19112" lon="-1.5775">
        <ele>49</ele>
        <time>2022-04-02T12:58:06Z</time>
      </trkpt>
      <trkpt lat="47.19106" lon="-1.57769">
        <ele>49</ele>
        <time>2022-04-02T12:58:08Z</time>
      </trkpt>
      <trkpt lat="47.191" lon="-1.57786">
        <ele>48</ele>
        <time>2022-04-02T12:58:10Z</time>
      </trkpt>
      <trkpt lat="47.19094" lon="-1.57804">
        <ele>48</ele>
        <time>2022-04-02T12:58:12Z</time>
      </trkpt>
      <trkpt lat="47.19088" lon="-1.57821">
        <ele>48</ele>
        <time>2022-04-02T12:58:14Z</time>
      </trkpt>
      <trkpt lat="47.19082" lon="-1.57838">
        <ele>48</ele>
        <time>2022-04-02T12:58:16Z</time>
      </trkpt>
      <trkpt lat="47.19075" lon="-1.57855">
        <ele>48</ele>
        <time>2022-04-02T12:58:18Z</time>
      </trkpt>
      <trkpt lat="47.19069" lon="-1.57873">
        <ele>48</ele>
        <time>2022-04-02T12:58:20Z</time>
      </trkpt>
      <trkpt lat="47.19063" lon="-1.5789">
        <ele>48</ele>
        <time>2022-04-02T12:58:22Z</time>
      </trkpt>
      <trkpt lat="47.19057" lon="-1.57907">
        <ele>48</ele>
        <time>2022-04-02T12:58:24Z</time>
      </trkpt>
      <trkpt lat="47.1905" lon="-1.57925">
        <ele>48</ele>
        <time>2022-04-02T12:58:26Z</time>
      </trkpt>
      <trkpt lat="47.19044" lon="-1.57944">
        <ele>48</ele>
        <time>2022-04-02T12:58:28Z</time>
      </trkpt>
      <trkpt lat="47.19038" lon="-1.57962">
        <ele>47</ele>
        <time>2022-04-02T12:58:30Z</time>
      </trkpt>
      <trkpt lat="47.19032" lon="-1.5798">
        <ele>48</ele>
        <time>2022-04-02T12:58:32Z</time>
      </trkpt>
      <trkpt lat="47.19025" lon="-1.57997">
        <ele>48</ele>
        <time>2022-04-02T12:58:34Z</time>
      </trkpt>
      <trkpt lat="47.19019" lon="-1.58015">
        <ele>47</ele>
        <time>2022-04-02T12:58:36Z</time>
      </trkpt>
      <trkpt lat="47.19012" lon="-1.58033">
        <ele>47</ele>
        <time>2022-04-02T12:58:38Z</time>
      </trkpt>
      <trkpt lat="47.19006" lon="-1.58051">
        <ele>47</ele>
        <time>2022-04-02T12:58:40Z</time>
      </trkpt>
      <trkpt lat="47.19" lon="-1.58069">
        <ele>47</ele>
        <time>2022-04-02T12:58:42Z</time>
      </trkpt>
      <trkpt lat="47.18994" lon="-1.58086">
        <ele>47</ele>
        <time>2022-04-02T12:58:44Z</time>
      </trkpt>
      <trkpt lat="47.18987" lon="-1.58104">
        <ele>47</ele>
        <time>2022-04-02T12:58:46Z</time>
      </trkpt>
      <trkpt lat="47.18981" lon="-1.58121">
        <ele>47</ele>
        <time>2022-04-02T12:58:48Z</time>
      </trkpt>
      <trkpt lat="47.18975" lon="-1.58138">
        <ele>47</ele>
        <time>2022-04-02T12:58:50Z</time>
      </trkpt>
      <trkpt lat="47.18969" lon="-1.58156">
        <ele>47</ele>
        <time>2022-04-02T12:58:52Z</time>
      </trkpt>
      <trkpt lat="47.18962" lon="-1.58173">
        <ele>47</ele>
        <time>2022-04-02T12:58:54Z</time>
      </trkpt>
      <trkpt lat="47.18956" lon="-1.58191">
        <ele>47</ele>
        <time>2022-04-02T12:58:56Z</time>
      </trkpt>
      <trkpt lat="47.1895" lon="-1.58208">
        <ele>47</ele>
        <time>2022-04-02T12:58:58Z</time>
      </trkpt>
      <trkpt lat="47.18944" lon="-1.58226">
        <ele>47</ele>
        <time>2022-04-02T12:59:00Z</time>
      </trkpt>
      <trkpt lat="47.18938" lon="-1.58244">
        <ele>47</ele>
        <time>2022-04-02T12:59:02Z</time>
      </trkpt>
      <trkpt lat="47.18932" lon="-1.58262">
        <ele>47</ele>
        <time>2022-04-02T12:59:04Z</time>
      </trkpt>
      <trkpt lat="47.18925" lon="-1.5828">
        <ele>47</ele>
        <time>2022-04-02T12:59:06Z</time>
      </trkpt>
      <trkpt lat="47.18919" lon="-1.58298">
        <ele>47</ele>
        <time>2022-04-02T12:59:08Z</time>
      </trkpt>
      <trkpt lat="47.18913" lon="-1.58316">
        <ele>47</ele>
        <time>2022-04-02T12:59:10Z</time>
      </trkpt>
      <trkpt lat="47.18906" lon="-1.58334">
        <ele>47</ele>
        <time>2022-04-02T12:59:12Z</time>
      </trkpt>
      <trkpt lat="47.189" lon="-1.58352">
        <ele>47</ele>
        <time>2022-04-02T12:59:14Z</time>
      </trkpt>
      <trkpt lat="47.18894" lon="-1.5837">
        <ele>47</ele>
        <time>2022-04-02T12:59:16Z</time>
      </trkpt>
      <trkpt lat="47.18888" lon="-1.58389">
        <ele>47</ele>
        <time>2022-04-02T12:59:18Z</time>
      </trkpt>
      <trkpt lat="47.18882" lon="-1.58406">
        <ele>47</ele>
        <time>2022-04-02T12:59:20Z</time>
      </trkpt>
      <trkpt lat="47.18876" lon="-1.58424">
        <ele>47</ele>
        <time>2022-04-02T12:59:22Z</time>
      </trkpt>
      <trkpt lat="47.1887" lon="-1.58443">
        <ele>46</ele>
        <time>2022-04-02T12:59:24Z</time>
      </trkpt>
      <trkpt lat="47.18865" lon="-1.58461">
        <ele>46</ele>
        <time>2022-04-02T12:59:26Z</time>
      </trkpt>
      <trkpt lat="47.18859" lon="-1.58479">
        <ele>47</ele>
        <time>2022-04-02T12:59:28Z</time>
      </trkpt>
      <trkpt lat="47.18854" lon="-1.58497">
        <ele>47</ele>
        <time>2022-04-02T12:59:30Z</time>
      </trkpt>
      <trkpt lat="47.18849" lon="-1.58516">
        <ele>47</ele>
        <time>2022-04-02T12:59:32Z</time>
      </trkpt>
      <trkpt lat="47.18843" lon="-1.58534">
        <ele>47</ele>
        <time>2022-04-02T12:59:34Z</time>
      </trkpt>
      <trkpt lat="47.18838" lon="-1.58553">
        <ele>47</ele>
        <time>2022-04-02T12:59:36Z</time>
      </trkpt>
      <trkpt lat="47.18833" lon="-1.58572">
        <ele>47</ele>
        <time>2022-04-02T12:59:38Z</time>
      </trkpt>
      <trkpt lat="47.18829" lon="-1.58591">
        <ele>47</ele>
        <time>2022-04-02T12:59:40Z</time>
      </trkpt>
      <trkpt lat="47.18824" lon="-1.5861">
        <ele>48</ele>
        <time>2022-04-02T12:59:42Z</time>
      </trkpt>
      <trkpt lat="47.1882" lon="-1.58629">
        <ele>47</ele>
        <time>2022-04-02T12:59:44Z</time>
      </trkpt>
      <trkpt lat="47.18816" lon="-1.58649">
        <ele>47</ele>
        <time>2022-04-02T12:59:46Z</time>
      </trkpt>
      <trkpt lat="47.18813" lon="-1.58668">
        <ele>47</ele>
        <time>2022-04-02T12:59:48Z</time>
      </trkpt>
      <trkpt lat="47.18811" lon="-1.58686">
        <ele>47</ele>
        <time>2022-04-02T12:59:50Z</time>
      </trkpt>
      <trkpt lat="47.18811" lon="-1.58701">
        <ele>47</ele>
        <time>2022-04-02T12:59:53Z</time>
      </trkpt>
      <trkpt lat="47.18815" lon="-1.58714">
        <ele>47</ele>
        <time>2022-04-02T12:59:58Z</time>
      </trkpt>
      <trkpt lat="47.18821" lon="-1.58726">
        <ele>47</ele>
        <time>2022-04-02T13:00:00Z</time>
      </trkpt>
      <trkpt lat="47.18825" lon="-1.58746">
        <ele>46</ele>
        <time>2022-04-02T13:00:02Z</time>
      </trkpt>
      <trkpt lat="47.18824" lon="-1.58766">
        <ele>46</ele>
        <time>2022-04-02T13:00:04Z</time>
      </trkpt>
      <trkpt lat="47.18826" lon="-1.58786">
        <ele>46</ele>
        <time>2022-04-02T13:00:06Z</time>
      </trkpt>
      <trkpt lat="47.18835" lon="-1.58801">
        <ele>46</ele>
        <time>2022-04-02T13:00:08Z</time>
      </trkpt>
      <trkpt lat="47.18838" lon="-1.58818">
        <ele>46</ele>
        <time>2022-04-02T13:00:10Z</time>
      </trkpt>
      <trkpt lat="47.18834" lon="-1.58836">
        <ele>46</ele>
        <time>2022-04-02T13:00:12Z</time>
      </trkpt>
      <trkpt lat="47.18828" lon="-1.58854">
        <ele>46</ele>
        <time>2022-04-02T13:00:14Z</time>
      </trkpt>
      <trkpt lat="47.18821" lon="-1.58872">
        <ele>46</ele>
        <time>2022-04-02T13:00:16Z</time>
      </trkpt>
      <trkpt lat="47.18814" lon="-1.58889">
        <ele>47</ele>
        <time>2022-04-02T13:00:18Z</time>
      </trkpt>
      <trkpt lat="47.18807" lon="-1.58906">
        <ele>47</ele>
        <time>2022-04-02T13:00:20Z</time>
      </trkpt>
      <trkpt lat="47.18801" lon="-1.58923">
        <ele>47</ele>
        <time>2022-04-02T13:00:22Z</time>
      </trkpt>
      <trkpt lat="47.18795" lon="-1.58941">
        <ele>47</ele>
        <time>2022-04-02T13:00:24Z</time>
      </trkpt>
      <trkpt lat="47.18789" lon="-1.58959">
        <ele>46</ele>
        <time>2022-04-02T13:00:26Z</time>
      </trkpt>
      <trkpt lat="47.18785" lon="-1.58977">
        <ele>46</ele>
        <time>2022-04-02T13:00:28Z</time>
      </trkpt>
      <trkpt lat="47.18784" lon="-1.58997">
        <ele>46</ele>
        <time>2022-04-02T13:00:30Z</time>
      </trkpt>
      <trkpt lat="47.18783" lon="-1.59017">
        <ele>46</ele>
        <time>2022-04-02T13:00:32Z</time>
      </trkpt>
      <trkpt lat="47.18781" lon="-1.59037">
        <ele>46</ele>
        <time>2022-04-02T13:00:34Z</time>
      </trkpt>
      <trkpt lat="47.18779" lon="-1.59057">
        <ele>46</ele>
        <time>2022-04-02T13:00:36Z</time>
      </trkpt>
      <trkpt lat="47.18777" lon="-1.59077">
        <ele>46</ele>
        <time>2022-04-02T13:00:38Z</time>
      </trkpt>
      <trkpt lat="47.18775" lon="-1.59097">
        <ele>46</ele>
        <time>2022-04-02T13:00:40Z</time>
      </trkpt>
      <trkpt lat="47.18773" lon="-1.59116">
        <ele>46</ele>
        <time>2022-04-02T13:00:42Z</time>
      </trkpt>
      <trkpt lat="47.18771" lon="-1.59136">
        <ele>46</ele>
        <time>2022-04-02T13:00:44Z</time>
      </trkpt>
      <trkpt lat="47.18769" lon="-1.59156">
        <ele>46</ele>
        <time>2022-04-02T13:00:46Z</time>
      </trkpt>
      <trkpt lat="47.18766" lon="-1.59175">
        <ele>46</ele>
        <time>2022-04-02T13:00:48Z</time>
      </trkpt>
      <trkpt lat="47.18764" lon="-1.59195">
        <ele>47</ele>
        <time>2022-04-02T13:00:50Z</time>
      </trkpt>
      <trkpt lat="47.18762" lon="-1.59214">
        <ele>46</ele>
        <time>2022-04-02T13:00:52Z</time>
      </trkpt>
      <trkpt lat="47.1876" lon="-1.59232">
        <ele>47</ele>
        <time>2022-04-02T13:00:54Z</time>
      </trkpt>
      <trkpt lat="47.18758" lon="-1.59251">
        <ele>47</ele>
        <time>2022-04-02T13:00:56Z</time>
      </trkpt>
      <trkpt lat="47.18756" lon="-1.5927">
        <ele>47</ele>
        <time>2022-04-02T13:00:58Z</time>
      </trkpt>
      <trkpt lat="47.18754" lon="-1.59288">
        <ele>47</ele>
        <time>2022-04-02T13:01:00Z</time>
      </trkpt>
      <trkpt lat="47.18752" lon="-1.59307">
        <ele>47</ele>
        <time>2022-04-02T13:01:02Z</time>
      </trkpt>
      <trkpt lat="47.1875" lon="-1.59326">
        <ele>47</ele>
        <time>2022-04-02T13:01:04Z</time>
      </trkpt>
      <trkpt lat="47.18748" lon="-1.59345">
        <ele>47</ele>
        <time>2022-04-02T13:01:06Z</time>
      </trkpt>
      <trkpt lat="47.18746" lon="-1.59363">
        <ele>47</ele>
        <time>2022-04-02T13:01:08Z</time>
      </trkpt>
      <trkpt lat="47.18744" lon="-1.59382">
        <ele>47</ele>
        <time>2022-04-02T13:01:10Z</time>
      </trkpt>
      <trkpt lat="47.18742" lon="-1.594">
        <ele>47</ele>
        <time>2022-04-02T13:01:12Z</time>
      </trkpt>
      <trkpt lat="47.1874" lon="-1.59419">
        <ele>47</ele>
        <time>2022-04-02T13:01:14Z</time>
      </trkpt>
      <trkpt lat="47.18738" lon="-1.59438">
        <ele>47</ele>
        <time>2022-04-02T13:01:16Z</time>
      </trkpt>
      <trkpt lat="47.18737" lon="-1.59457">
        <ele>47</ele>
        <time>2022-04-02T13:01:18Z</time>
      </trkpt>
      <trkpt lat="47.18735" lon="-1.59475">
        <ele>47</ele>
        <time>2022-04-02T13:01:20Z</time>
      </trkpt>
      <trkpt lat="47.18734" lon="-1.59494">
        <ele>47</ele>
        <time>2022-04-02T13:01:22Z</time>
      </trkpt>
      <trkpt lat="47.18732" lon="-1.59513">
        <ele>47</ele>
        <time>2022-04-02T13:01:24Z</time>
      </trkpt>
      <trkpt lat="47.18731" lon="-1.59532">
        <ele>47</ele>
        <time>2022-04-02T13:01:26Z</time>
      </trkpt>
      <trkpt lat="47.1873" lon="-1.59551">
        <ele>47</ele>
        <time>2022-04-02T13:01:28Z</time>
      </trkpt>
      <trkpt lat="47.18728" lon="-1.5957">
        <ele>47</ele>
        <time>2022-04-02T13:01:30Z</time>
      </trkpt>
      <trkpt lat="47.18726" lon="-1.5959">
        <ele>47</ele>
        <time>2022-04-02T13:01:32Z</time>
      </trkpt>
      <trkpt lat="47.18723" lon="-1.59608">
        <ele>47</ele>
        <time>2022-04-02T13:01:34Z</time>
      </trkpt>
      <trkpt lat="47.18721" lon="-1.59627">
        <ele>47</ele>
        <time>2022-04-02T13:01:36Z</time>
      </trkpt>
      <trkpt lat="47.18719" lon="-1.59646">
        <ele>47</ele>
        <time>2022-04-02T13:01:38Z</time>
      </trkpt>
      <trkpt lat="47.18718" lon="-1.59665">
        <ele>48</ele>
        <time>2022-04-02T13:01:40Z</time>
      </trkpt>
      <trkpt lat="47.18716" lon="-1.59684">
        <ele>48</ele>
        <time>2022-04-02T13:01:42Z</time>
      </trkpt>
      <trkpt lat="47.18714" lon="-1.59702">
        <ele>48</ele>
        <time>2022-04-02T13:01:44Z</time>
      </trkpt>
      <trkpt lat="47.18713" lon="-1.59721">
        <ele>47</ele>
        <time>2022-04-02T13:01:46Z</time>
      </trkpt>
      <trkpt lat="47.18711" lon="-1.5974">
        <ele>47</ele>
        <time>2022-04-02T13:01:48Z</time>
      </trkpt>
      <trkpt lat="47.18709" lon="-1.59759">
        <ele>47</ele>
        <time>2022-04-02T13:01:50Z</time>
      </trkpt>
      <trkpt lat="47.18707" lon="-1.59777">
        <ele>47</ele>
        <time>2022-04-02T13:01:52Z</time>
      </trkpt>
      <trkpt lat="47.18705" lon="-1.59795">
        <ele>47</ele>
        <time>2022-04-02T13:01:54Z</time>
      </trkpt>
      <trkpt lat="47.18704" lon="-1.59813">
        <ele>47</ele>
        <time>2022-04-02T13:01:56Z</time>
      </trkpt>
      <trkpt lat="47.18705" lon="-1.5983">
        <ele>47</ele>
        <time>2022-04-02T13:01:58Z</time>
      </trkpt>
      <trkpt lat="47.18701" lon="-1.59846">
        <ele>47</ele>
        <time>2022-04-02T13:02:00Z</time>
      </trkpt>
      <trkpt lat="47.18693" lon="-1.5986">
        <ele>47</ele>
        <time>2022-04-02T13:02:02Z</time>
      </trkpt>
      <trkpt lat="47.18686" lon="-1.59875">
        <ele>47</ele>
        <time>2022-04-02T13:02:04Z</time>
      </trkpt>
      <trkpt lat="47.18679" lon="-1.59892">
        <ele>47</ele>
        <time>2022-04-02T13:02:06Z</time>
      </trkpt>
      <trkpt lat="47.18669" lon="-1.59903">
        <ele>47</ele>
        <time>2022-04-02T13:02:08Z</time>
      </trkpt>
      <trkpt lat="47.18656" lon="-1.59908">
        <ele>47</ele>
        <time>2022-04-02T13:02:10Z</time>
      </trkpt>
      <trkpt lat="47.18648" lon="-1.59923">
        <ele>47</ele>
        <time>2022-04-02T13:02:12Z</time>
      </trkpt>
      <trkpt lat="47.18641" lon="-1.5994">
        <ele>46</ele>
        <time>2022-04-02T13:02:14Z</time>
      </trkpt>
      <trkpt lat="47.18636" lon="-1.59957">
        <ele>46</ele>
        <time>2022-04-02T13:02:16Z</time>
      </trkpt>
      <trkpt lat="47.18631" lon="-1.59972">
        <ele>46</ele>
        <time>2022-04-02T13:02:18Z</time>
      </trkpt>
      <trkpt lat="47.18626" lon="-1.59987">
        <ele>46</ele>
        <time>2022-04-02T13:02:20Z</time>
      </trkpt>
      <trkpt lat="47.18621" lon="-1.6">
        <ele>46</ele>
        <time>2022-04-02T13:02:23Z</time>
      </trkpt>
      <trkpt lat="47.18626" lon="-1.60011">
        <ele>46</ele>
        <time>2022-04-02T13:02:26Z</time>
      </trkpt>
      <trkpt lat="47.18619" lon="-1.60028">
        <ele>46</ele>
        <time>2022-04-02T13:02:29Z</time>
      </trkpt>
      <trkpt lat="47.18614" lon="-1.60044">
        <ele>46</ele>
        <time>2022-04-02T13:02:31Z</time>
      </trkpt>
      <trkpt lat="47.18609" lon="-1.60062">
        <ele>46</ele>
        <time>2022-04-02T13:02:33Z</time>
      </trkpt>
      <trkpt lat="47.18602" lon="-1.60082">
        <ele>46</ele>
        <time>2022-04-02T13:02:35Z</time>
      </trkpt>
      <trkpt lat="47.18596" lon="-1.601">
        <ele>46</ele>
        <time>2022-04-02T13:02:37Z</time>
      </trkpt>
      <trkpt lat="47.18589" lon="-1.6012">
        <ele>46</ele>
        <time>2022-04-02T13:02:39Z</time>
      </trkpt>
      <trkpt lat="47.18583" lon="-1.60139">
        <ele>46</ele>
        <time>2022-04-02T13:02:41Z</time>
      </trkpt>
      <trkpt lat="47.18577" lon="-1.60158">
        <ele>46</ele>
        <time>2022-04-02T13:02:43Z</time>
      </trkpt>
      <trkpt lat="47.18571" lon="-1.60176">
        <ele>46</ele>
        <time>2022-04-02T13:02:45Z</time>
      </trkpt>
      <trkpt lat="47.18564" lon="-1.60193">
        <ele>46</ele>
        <time>2022-04-02T13:02:47Z</time>
      </trkpt>
      <trkpt lat="47.18558" lon="-1.6021">
        <ele>46</ele>
        <time>2022-04-02T13:02:49Z</time>
      </trkpt>
      <trkpt lat="47.18552" lon="-1.60227">
        <ele>46</ele>
        <time>2022-04-02T13:02:51Z</time>
      </trkpt>
      <trkpt lat="47.18546" lon="-1.60244">
        <ele>47</ele>
        <time>2022-04-02T13:02:53Z</time>
      </trkpt>
      <trkpt lat="47.1854" lon="-1.60261">
        <ele>47</ele>
        <time>2022-04-02T13:02:55Z</time>
      </trkpt>
      <trkpt lat="47.18534" lon="-1.60277">
        <ele>48</ele>
        <time>2022-04-02T13:02:57Z</time>
      </trkpt>
      <trkpt lat="47.18528" lon="-1.60294">
        <ele>48</ele>
        <time>2022-04-02T13:02:59Z</time>
      </trkpt>
      <trkpt lat="47.18522" lon="-1.60311">
        <ele>48</ele>
        <time>2022-04-02T13:03:01Z</time>
      </trkpt>
      <trkpt lat="47.18515" lon="-1.60329">
        <ele>47</ele>
        <time>2022-04-02T13:03:03Z</time>
      </trkpt>
      <trkpt lat="47.18509" lon="-1.60346">
        <ele>48</ele>
        <time>2022-04-02T13:03:05Z</time>
      </trkpt>
      <trkpt lat="47.18503" lon="-1.60363">
        <ele>47</ele>
        <time>2022-04-02T13:03:07Z</time>
      </trkpt>
      <trkpt lat="47.18497" lon="-1.6038">
        <ele>48</ele>
        <time>2022-04-02T13:03:09Z</time>
      </trkpt>
      <trkpt lat="47.18492" lon="-1.60397">
        <ele>48</ele>
        <time>2022-04-02T13:03:11Z</time>
      </trkpt>
      <trkpt lat="47.18486" lon="-1.60415">
        <ele>48</ele>
        <time>2022-04-02T13:03:13Z</time>
      </trkpt>
      <trkpt lat="47.18481" lon="-1.60433">
        <ele>48</ele>
        <time>2022-04-02T13:03:15Z</time>
      </trkpt>
      <trkpt lat="47.18476" lon="-1.60451">
        <ele>48</ele>
        <time>2022-04-02T13:03:17Z</time>
      </trkpt>
      <trkpt lat="47.18471" lon="-1.60469">
        <ele>48</ele>
        <time>2022-04-02T13:03:19Z</time>
      </trkpt>
      <trkpt lat="47.18467" lon="-1.60487">
        <ele>47</ele>
        <time>2022-04-02T13:03:21Z</time>
      </trkpt>
      <trkpt lat="47.18462" lon="-1.60505">
        <ele>47</ele>
        <time>2022-04-02T13:03:23Z</time>
      </trkpt>
      <trkpt lat="47.18458" lon="-1.60523">
        <ele>48</ele>
        <time>2022-04-02T13:03:25Z</time>
      </trkpt>
      <trkpt lat="47.18454" lon="-1.60541">
        <ele>48</ele>
        <time>2022-04-02T13:03:27Z</time>
      </trkpt>
      <trkpt lat="47.1845" lon="-1.60559">
        <ele>47</ele>
        <time>2022-04-02T13:03:29Z</time>
      </trkpt>
      <trkpt lat="47.18447" lon="-1.60578">
        <ele>47</ele>
        <time>2022-04-02T13:03:31Z</time>
      </trkpt>
      <trkpt lat="47.18443" lon="-1.60595">
        <ele>47</ele>
        <time>2022-04-02T13:03:33Z</time>
      </trkpt>
      <trkpt lat="47.1844" lon="-1.60614">
        <ele>47</ele>
        <time>2022-04-02T13:03:35Z</time>
      </trkpt>
      <trkpt lat="47.18437" lon="-1.60632">
        <ele>47</ele>
        <time>2022-04-02T13:03:37Z</time>
      </trkpt>
      <trkpt lat="47.18434" lon="-1.6065">
        <ele>47</ele>
        <time>2022-04-02T13:03:39Z</time>
      </trkpt>
      <trkpt lat="47.18431" lon="-1.60669">
        <ele>47</ele>
        <time>2022-04-02T13:03:41Z</time>
      </trkpt>
      <trkpt lat="47.18428" lon="-1.60687">
        <ele>47</ele>
        <time>2022-04-02T13:03:43Z</time>
      </trkpt>
      <trkpt lat="47.18426" lon="-1.60706">
        <ele>46</ele>
        <time>2022-04-02T13:03:45Z</time>
      </trkpt>
      <trkpt lat="47.18423" lon="-1.60726">
        <ele>46</ele>
        <time>2022-04-02T13:03:47Z</time>
      </trkpt>
      <trkpt lat="47.18421" lon="-1.60744">
        <ele>46</ele>
        <time>2022-04-02T13:03:49Z</time>
      </trkpt>
      <trkpt lat="47.18419" lon="-1.60763">
        <ele>46</ele>
        <time>2022-04-02T13:03:51Z</time>
      </trkpt>
      <trkpt lat="47.18417" lon="-1.60782">
        <ele>46</ele>
        <time>2022-04-02T13:03:53Z</time>
      </trkpt>
      <trkpt lat="47.18416" lon="-1.608">
        <ele>47</ele>
        <time>2022-04-02T13:03:55Z</time>
      </trkpt>
      <trkpt lat="47.18414" lon="-1.60818">
        <ele>47</ele>
        <time>2022-04-02T13:03:57Z</time>
      </trkpt>
      <trkpt lat="47.18412" lon="-1.60837">
        <ele>47</ele>
        <time>2022-04-02T13:03:59Z</time>
      </trkpt>
      <trkpt lat="47.18412" lon="-1.60856">
        <ele>47</ele>
        <time>2022-04-02T13:04:01Z</time>
      </trkpt>
      <trkpt lat="47.18411" lon="-1.60874">
        <ele>47</ele>
        <time>2022-04-02T13:04:03Z</time>
      </trkpt>
      <trkpt lat="47.1841" lon="-1.60893">
        <ele>47</ele>
        <time>2022-04-02T13:04:05Z</time>
      </trkpt>
      <trkpt lat="47.1841" lon="-1.60911">
        <ele>47</ele>
        <time>2022-04-02T13:04:07Z</time>
      </trkpt>
      <trkpt lat="47.18409" lon="-1.60929">
        <ele>47</ele>
        <time>2022-04-02T13:04:09Z</time>
      </trkpt>
      <trkpt lat="47.18409" lon="-1.60947">
        <ele>48</ele>
        <time>2022-04-02T13:04:11Z</time>
      </trkpt>
      <trkpt lat="47.18409" lon="-1.60965">
        <ele>48</ele>
        <time>2022-04-02T13:04:13Z</time>
      </trkpt>
      <trkpt lat="47.18409" lon="-1.60983">
        <ele>48</ele>
        <time>2022-04-02T13:04:15Z</time>
      </trkpt>
      <trkpt lat="47.1841" lon="-1.61002">
        <ele>48</ele>
        <time>2022-04-02T13:04:17Z</time>
      </trkpt>
      <trkpt lat="47.1841" lon="-1.6102">
        <ele>47</ele>
        <time>2022-04-02T13:04:19Z</time>
      </trkpt>
      <trkpt lat="47.18411" lon="-1.6104">
        <ele>47</ele>
        <time>2022-04-02T13:04:21Z</time>
      </trkpt>
      <trkpt lat="47.18413" lon="-1.61059">
        <ele>47</ele>
        <time>2022-04-02T13:04:23Z</time>
      </trkpt>
      <trkpt lat="47.18414" lon="-1.61078">
        <ele>47</ele>
        <time>2022-04-02T13:04:25Z</time>
      </trkpt>
      <trkpt lat="47.18415" lon="-1.61097">
        <ele>47</ele>
        <time>2022-04-02T13:04:27Z</time>
      </trkpt>
      <trkpt lat="47.18416" lon="-1.61116">
        <ele>47</ele>
        <time>2022-04-02T13:04:29Z</time>
      </trkpt>
      <trkpt lat="47.18417" lon="-1.61136">
        <ele>47</ele>
        <time>2022-04-02T13:04:31Z</time>
      </trkpt>
      <trkpt lat="47.18419" lon="-1.61154">
        <ele>47</ele>
        <time>2022-04-02T13:04:33Z</time>
      </trkpt>
      <trkpt lat="47.1842" lon="-1.61173">
        <ele>47</ele>
        <time>2022-04-02T13:04:35Z</time>
      </trkpt>
      <trkpt lat="47.18421" lon="-1.61192">
        <ele>47</ele>
        <time>2022-04-02T13:04:37Z</time>
      </trkpt>
      <trkpt lat="47.18423" lon="-1.61211">
        <ele>47</ele>
        <time>2022-04-02T13:04:39Z</time>
      </trkpt>
      <trkpt lat="47.18424" lon="-1.6123">
        <ele>47</ele>
        <time>2022-04-02T13:04:41Z</time>
      </trkpt>
      <trkpt lat="47.18425" lon="-1.61249">
        <ele>47</ele>
        <time>2022-04-02T13:04:43Z</time>
      </trkpt>
      <trkpt lat="47.18426" lon="-1.61268">
        <ele>47</ele>
        <time>2022-04-02T13:04:45Z</time>
      </trkpt>
      <trkpt lat="47.18427" lon="-1.61288">
        <ele>47</ele>
        <time>2022-04-02T13:04:47Z</time>
      </trkpt>
      <trkpt lat="47.18428" lon="-1.61307">
        <ele>46</ele>
        <time>2022-04-02T13:04:49Z</time>
      </trkpt>
      <trkpt lat="47.18429" lon="-1.61326">
        <ele>46</ele>
        <time>2022-04-02T13:04:51Z</time>
      </trkpt>
      <trkpt lat="47.18431" lon="-1.61345">
        <ele>46</ele>
        <time>2022-04-02T13:04:53Z</time>
      </trkpt>
      <trkpt lat="47.18432" lon="-1.61364">
        <ele>46</ele>
        <time>2022-04-02T13:04:55Z</time>
      </trkpt>
      <trkpt lat="47.18433" lon="-1.61383">
        <ele>46</ele>
        <time>2022-04-02T13:04:57Z</time>
      </trkpt>
      <trkpt lat="47.18434" lon="-1.61402">
        <ele>45</ele>
        <time>2022-04-02T13:04:59Z</time>
      </trkpt>
      <trkpt lat="47.18435" lon="-1.6142">
        <ele>45</ele>
        <time>2022-04-02T13:05:01Z</time>
      </trkpt>
      <trkpt lat="47.18437" lon="-1.6144">
        <ele>45</ele>
        <time>2022-04-02T13:05:03Z</time>
      </trkpt>
      <trkpt lat="47.18438" lon="-1.61458">
        <ele>46</ele>
        <time>2022-04-02T13:05:05Z</time>
      </trkpt>
      <trkpt lat="47.18439" lon="-1.61476">
        <ele>46</ele>
        <time>2022-04-02T13:05:07Z</time>
      </trkpt>
      <trkpt lat="47.1844" lon="-1.61493">
        <ele>46</ele>
        <time>2022-04-02T13:05:09Z</time>
      </trkpt>
      <trkpt lat="47.18441" lon="-1.6151">
        <ele>46</ele>
        <time>2022-04-02T13:05:11Z</time>
      </trkpt>
      <trkpt lat="47.18442" lon="-1.61528">
        <ele>46</ele>
        <time>2022-04-02T13:05:13Z</time>
      </trkpt>
      <trkpt lat="47.18443" lon="-1.61545">
        <ele>46</ele>
        <time>2022-04-02T13:05:15Z</time>
      </trkpt>
      <trkpt lat="47.18444" lon="-1.61563">
        <ele>46</ele>
        <time>2022-04-02T13:05:17Z</time>
      </trkpt>
      <trkpt lat="47.18445" lon="-1.61581">
        <ele>46</ele>
        <time>2022-04-02T13:05:19Z</time>
      </trkpt>
      <trkpt lat="47.18446" lon="-1.61599">
        <ele>46</ele>
        <time>2022-04-02T13:05:21Z</time>
      </trkpt>
      <trkpt lat="47.18448" lon="-1.61617">
        <ele>46</ele>
        <time>2022-04-02T13:05:23Z</time>
      </trkpt>
      <trkpt lat="47.18449" lon="-1.61636">
        <ele>46</ele>
        <time>2022-04-02T13:05:25Z</time>
      </trkpt>
      <trkpt lat="47.1845" lon="-1.61654">
        <ele>46</ele>
        <time>2022-04-02T13:05:27Z</time>
      </trkpt>
      <trkpt lat="47.18451" lon="-1.61673">
        <ele>46</ele>
        <time>2022-04-02T13:05:29Z</time>
      </trkpt>
      <trkpt lat="47.18452" lon="-1.61691">
        <ele>46</ele>
        <time>2022-04-02T13:05:31Z</time>
      </trkpt>
      <trkpt lat="47.18453" lon="-1.61709">
        <ele>47</ele>
        <time>2022-04-02T13:05:33Z</time>
      </trkpt>
      <trkpt lat="47.18453" lon="-1.61726">
        <ele>47</ele>
        <time>2022-04-02T13:05:35Z</time>
      </trkpt>
      <trkpt lat="47.18454" lon="-1.61745">
        <ele>47</ele>
        <time>2022-04-02T13:05:37Z</time>
      </trkpt>
      <trkpt lat="47.18455" lon="-1.61763">
        <ele>47</ele>
        <time>2022-04-02T13:05:39Z</time>
      </trkpt>
      <trkpt lat="47.18456" lon="-1.61781">
        <ele>47</ele>
        <time>2022-04-02T13:05:41Z</time>
      </trkpt>
      <trkpt lat="47.18458" lon="-1.61798">
        <ele>47</ele>
        <time>2022-04-02T13:05:43Z</time>
      </trkpt>
      <trkpt lat="47.18459" lon="-1.61815">
        <ele>47</ele>
        <time>2022-04-02T13:05:45Z</time>
      </trkpt>
      <trkpt lat="47.18461" lon="-1.61833">
        <ele>47</ele>
        <time>2022-04-02T13:05:47Z</time>
      </trkpt>
      <trkpt lat="47.18463" lon="-1.6185">
        <ele>47</ele>
        <time>2022-04-02T13:05:49Z</time>
      </trkpt>
      <trkpt lat="47.18464" lon="-1.61868">
        <ele>47</ele>
        <time>2022-04-02T13:05:51Z</time>
      </trkpt>
      <trkpt lat="47.18465" lon="-1.61887">
        <ele>47</ele>
        <time>2022-04-02T13:05:53Z</time>
      </trkpt>
      <trkpt lat="47.18467" lon="-1.61906">
        <ele>47</ele>
        <time>2022-04-02T13:05:55Z</time>
      </trkpt>
      <trkpt lat="47.18468" lon="-1.61925">
        <ele>47</ele>
        <time>2022-04-02T13:05:57Z</time>
      </trkpt>
      <trkpt lat="47.18469" lon="-1.61943">
        <ele>47</ele>
        <time>2022-04-02T13:05:59Z</time>
      </trkpt>
      <trkpt lat="47.1847" lon="-1.61962">
        <ele>47</ele>
        <time>2022-04-02T13:06:01Z</time>
      </trkpt>
      <trkpt lat="47.18471" lon="-1.6198">
        <ele>47</ele>
        <time>2022-04-02T13:06:03Z</time>
      </trkpt>
      <trkpt lat="47.18472" lon="-1.61997">
        <ele>47</ele>
        <time>2022-04-02T13:06:05Z</time>
      </trkpt>
      <trkpt lat="47.18474" lon="-1.62016">
        <ele>47</ele>
        <time>2022-04-02T13:06:07Z</time>
      </trkpt>
      <trkpt lat="47.18475" lon="-1.62034">
        <ele>47</ele>
        <time>2022-04-02T13:06:09Z</time>
      </trkpt>
      <trkpt lat="47.18476" lon="-1.62052">
        <ele>47</ele>
        <time>2022-04-02T13:06:11Z</time>
      </trkpt>
      <trkpt lat="47.18476" lon="-1.62071">
        <ele>47</ele>
        <time>2022-04-02T13:06:13Z</time>
      </trkpt>
      <trkpt lat="47.18477" lon="-1.6209">
        <ele>46</ele>
        <time>2022-04-02T13:06:15Z</time>
      </trkpt>
      <trkpt lat="47.18478" lon="-1.62108">
        <ele>46</ele>
        <time>2022-04-02T13:06:17Z</time>
      </trkpt>
      <trkpt lat="47.18479" lon="-1.62127">
        <ele>46</ele>
        <time>2022-04-02T13:06:19Z</time>
      </trkpt>
      <trkpt lat="47.1848" lon="-1.62146">
        <ele>46</ele>
        <time>2022-04-02T13:06:21Z</time>
      </trkpt>
      <trkpt lat="47.1848" lon="-1.62165">
        <ele>46</ele>
        <time>2022-04-02T13:06:23Z</time>
      </trkpt>
      <trkpt lat="47.1848" lon="-1.62184">
        <ele>46</ele>
        <time>2022-04-02T13:06:25Z</time>
      </trkpt>
      <trkpt lat="47.1848" lon="-1.62202">
        <ele>46</ele>
        <time>2022-04-02T13:06:27Z</time>
      </trkpt>
      <trkpt lat="47.1848" lon="-1.62221">
        <ele>46</ele>
        <time>2022-04-02T13:06:29Z</time>
      </trkpt>
      <trkpt lat="47.1848" lon="-1.62238">
        <ele>46</ele>
        <time>2022-04-02T13:06:31Z</time>
      </trkpt>
      <trkpt lat="47.18477" lon="-1.62253">
        <ele>46</ele>
        <time>2022-04-02T13:06:33Z</time>
      </trkpt>
      <trkpt lat="47.18466" lon="-1.62261">
        <ele>46</ele>
        <time>2022-04-02T13:06:35Z</time>
      </trkpt>
      <trkpt lat="47.18455" lon="-1.62268">
        <ele>46</ele>
        <time>2022-04-02T13:06:37Z</time>
      </trkpt>
      <trkpt lat="47.18437" lon="-1.62281">
        <ele>46</ele>
        <time>2022-04-02T13:06:40Z</time>
      </trkpt>
      <trkpt lat="47.18423" lon="-1.62297">
        <ele>46</ele>
        <time>2022-04-02T13:06:43Z</time>
      </trkpt>
      <trkpt lat="47.18428" lon="-1.62308">
        <ele>47</ele>
        <time>2022-04-02T13:06:47Z</time>
      </trkpt>
      <trkpt lat="47.18437" lon="-1.62317">
        <ele>47</ele>
        <time>2022-04-02T13:06:50Z</time>
      </trkpt>
      <trkpt lat="47.18442" lon="-1.62334">
        <ele>47</ele>
        <time>2022-04-02T13:06:53Z</time>
      </trkpt>
      <trkpt lat="47.18443" lon="-1.62349">
        <ele>47</ele>
        <time>2022-04-02T13:06:55Z</time>
      </trkpt>
      <trkpt lat="47.18443" lon="-1.62364">
        <ele>47</ele>
        <time>2022-04-02T13:06:57Z</time>
      </trkpt>
      <trkpt lat="47.18444" lon="-1.62381">
        <ele>48</ele>
        <time>2022-04-02T13:06:59Z</time>
      </trkpt>
      <trkpt lat="47.18444" lon="-1.624">
        <ele>48</ele>
        <time>2022-04-02T13:07:01Z</time>
      </trkpt>
      <trkpt lat="47.18444" lon="-1.62416">
        <ele>48</ele>
        <time>2022-04-02T13:07:03Z</time>
      </trkpt>
      <trkpt lat="47.18444" lon="-1.62432">
        <ele>49</ele>
        <time>2022-04-02T13:07:05Z</time>
      </trkpt>
      <trkpt lat="47.18444" lon="-1.62449">
        <ele>49</ele>
        <time>2022-04-02T13:07:07Z</time>
      </trkpt>
      <trkpt lat="47.18444" lon="-1.62464">
        <ele>49</ele>
        <time>2022-04-02T13:07:09Z</time>
      </trkpt>
      <trkpt lat="47.18445" lon="-1.62482">
        <ele>49</ele>
        <time>2022-04-02T13:07:12Z</time>
      </trkpt>
      <trkpt lat="47.18444" lon="-1.62495">
        <ele>50</ele>
        <time>2022-04-02T13:07:16Z</time>
      </trkpt>
      <trkpt lat="47.18443" lon="-1.62511">
        <ele>50</ele>
        <time>2022-04-02T13:07:19Z</time>
      </trkpt>
      <trkpt lat="47.18444" lon="-1.62529">
        <ele>50</ele>
        <time>2022-04-02T13:07:21Z</time>
      </trkpt>
      <trkpt lat="47.18442" lon="-1.62549">
        <ele>50</ele>
        <time>2022-04-02T13:07:23Z</time>
      </trkpt>
      <trkpt lat="47.1844" lon="-1.62568">
        <ele>51</ele>
        <time>2022-04-02T13:07:25Z</time>
      </trkpt>
      <trkpt lat="47.18439" lon="-1.62588">
        <ele>51</ele>
        <time>2022-04-02T13:07:27Z</time>
      </trkpt>
      <trkpt lat="47.18437" lon="-1.62609">
        <ele>52</ele>
        <time>2022-04-02T13:07:29Z</time>
      </trkpt>
      <trkpt lat="47.18436" lon="-1.62629">
        <ele>52</ele>
        <time>2022-04-02T13:07:31Z</time>
      </trkpt>
      <trkpt lat="47.18434" lon="-1.62651">
        <ele>52</ele>
        <time>2022-04-02T13:07:33Z</time>
      </trkpt>
      <trkpt lat="47.18432" lon="-1.62671">
        <ele>52</ele>
        <time>2022-04-02T13:07:35Z</time>
      </trkpt>
      <trkpt lat="47.18431" lon="-1.62692">
        <ele>52</ele>
        <time>2022-04-02T13:07:37Z</time>
      </trkpt>
      <trkpt lat="47.18429" lon="-1.62713">
        <ele>52</ele>
        <time>2022-04-02T13:07:39Z</time>
      </trkpt>
      <trkpt lat="47.18426" lon="-1.62734">
        <ele>52</ele>
        <time>2022-04-02T13:07:41Z</time>
      </trkpt>
      <trkpt lat="47.18423" lon="-1.62755">
        <ele>52</ele>
        <time>2022-04-02T13:07:43Z</time>
      </trkpt>
      <trkpt lat="47.18419" lon="-1.62775">
        <ele>52</ele>
        <time>2022-04-02T13:07:45Z</time>
      </trkpt>
      <trkpt lat="47.18416" lon="-1.62795">
        <ele>52</ele>
        <time>2022-04-02T13:07:47Z</time>
      </trkpt>
      <trkpt lat="47.18413" lon="-1.62814">
        <ele>51</ele>
        <time>2022-04-02T13:07:49Z</time>
      </trkpt>
      <trkpt lat="47.1841" lon="-1.62833">
        <ele>50</ele>
        <time>2022-04-02T13:07:51Z</time>
      </trkpt>
      <trkpt lat="47.18405" lon="-1.6285">
        <ele>49</ele>
        <time>2022-04-02T13:07:53Z</time>
      </trkpt>
      <trkpt lat="47.18401" lon="-1.62868">
        <ele>49</ele>
        <time>2022-04-02T13:07:55Z</time>
      </trkpt>
      <trkpt lat="47.18398" lon="-1.62886">
        <ele>49</ele>
        <time>2022-04-02T13:07:57Z</time>
      </trkpt>
      <trkpt lat="47.18395" lon="-1.62903">
        <ele>48</ele>
        <time>2022-04-02T13:07:59Z</time>
      </trkpt>
      <trkpt lat="47.18392" lon="-1.6292">
        <ele>48</ele>
        <time>2022-04-02T13:08:01Z</time>
      </trkpt>
      <trkpt lat="47.1839" lon="-1.62937">
        <ele>48</ele>
        <time>2022-04-02T13:08:03Z</time>
      </trkpt>
      <trkpt lat="47.1839" lon="-1.62953">
        <ele>48</ele>
        <time>2022-04-02T13:08:05Z</time>
      </trkpt>
      <trkpt lat="47.18393" lon="-1.62969">
        <ele>49</ele>
        <time>2022-04-02T13:08:07Z</time>
      </trkpt>
      <trkpt lat="47.184" lon="-1.62983">
        <ele>49</ele>
        <time>2022-04-02T13:08:09Z</time>
      </trkpt>
      <trkpt lat="47.18407" lon="-1.62995">
        <ele>50</ele>
        <time>2022-04-02T13:08:11Z</time>
      </trkpt>
      <trkpt lat="47.18416" lon="-1.63004">
        <ele>49</ele>
        <time>2022-04-02T13:08:13Z</time>
      </trkpt>
      <trkpt lat="47.18426" lon="-1.63015">
        <ele>49</ele>
        <time>2022-04-02T13:08:15Z</time>
      </trkpt>
      <trkpt lat="47.18436" lon="-1.63027">
        <ele>50</ele>
        <time>2022-04-02T13:08:17Z</time>
      </trkpt>
      <trkpt lat="47.18445" lon="-1.63036">
        <ele>51</ele>
        <time>2022-04-02T13:08:19Z</time>
      </trkpt>
      <trkpt lat="47.18455" lon="-1.63048">
        <ele>51</ele>
        <time>2022-04-02T13:08:21Z</time>
      </trkpt>
      <trkpt lat="47.18464" lon="-1.6306">
        <ele>51</ele>
        <time>2022-04-02T13:08:23Z</time>
      </trkpt>
      <trkpt lat="47.18474" lon="-1.63071">
        <ele>51</ele>
        <time>2022-04-02T13:08:25Z</time>
      </trkpt>
      <trkpt lat="47.18484" lon="-1.63082">
        <ele>52</ele>
        <time>2022-04-02T13:08:27Z</time>
      </trkpt>
      <trkpt lat="47.18493" lon="-1.63094">
        <ele>52</ele>
        <time>2022-04-02T13:08:29Z</time>
      </trkpt>
      <trkpt lat="47.18502" lon="-1.63106">
        <ele>52</ele>
        <time>2022-04-02T13:08:31Z</time>
      </trkpt>
      <trkpt lat="47.18512" lon="-1.63117">
        <ele>52</ele>
        <time>2022-04-02T13:08:33Z</time>
      </trkpt>
      <trkpt lat="47.18521" lon="-1.63127">
        <ele>53</ele>
        <time>2022-04-02T13:08:35Z</time>
      </trkpt>
      <trkpt lat="47.18529" lon="-1.63137">
        <ele>53</ele>
        <time>2022-04-02T13:08:37Z</time>
      </trkpt>
      <trkpt lat="47.18538" lon="-1.63147">
        <ele>53</ele>
        <time>2022-04-02T13:08:39Z</time>
      </trkpt>
      <trkpt lat="47.18546" lon="-1.63158">
        <ele>53</ele>
        <time>2022-04-02T13:08:41Z</time>
      </trkpt>
      <trkpt lat="47.18555" lon="-1.63169">
        <ele>53</ele>
        <time>2022-04-02T13:08:43Z</time>
      </trkpt>
      <trkpt lat="47.18562" lon="-1.63179">
        <ele>52</ele>
        <time>2022-04-02T13:08:45Z</time>
      </trkpt>
      <trkpt lat="47.1856" lon="-1.63197">
        <ele>50</ele>
        <time>2022-04-02T13:08:48Z</time>
      </trkpt>
      <trkpt lat="47.18554" lon="-1.63214">
        <ele>50</ele>
        <time>2022-04-02T13:08:51Z</time>
      </trkpt>
      <trkpt lat="47.18557" lon="-1.63229">
        <ele>49</ele>
        <time>2022-04-02T13:08:53Z</time>
      </trkpt>
      <trkpt lat="47.18564" lon="-1.63242">
        <ele>49</ele>
        <time>2022-04-02T13:08:55Z</time>
      </trkpt>
      <trkpt lat="47.18573" lon="-1.63253">
        <ele>49</ele>
        <time>2022-04-02T13:08:57Z</time>
      </trkpt>
      <trkpt lat="47.18581" lon="-1.63264">
        <ele>48</ele>
        <time>2022-04-02T13:08:59Z</time>
      </trkpt>
      <trkpt lat="47.18589" lon="-1.63277">
        <ele>48</ele>
        <time>2022-04-02T13:09:01Z</time>
      </trkpt>
      <trkpt lat="47.18596" lon="-1.63289">
        <ele>48</ele>
        <time>2022-04-02T13:09:03Z</time>
      </trkpt>
      <trkpt lat="47.18604" lon="-1.63302">
        <ele>48</ele>
        <time>2022-04-02T13:09:05Z</time>
      </trkpt>
      <trkpt lat="47.18611" lon="-1.63315">
        <ele>47</ele>
        <time>2022-04-02T13:09:07Z</time>
      </trkpt>
      <trkpt lat="47.18618" lon="-1.63328">
        <ele>47</ele>
        <time>2022-04-02T13:09:09Z</time>
      </trkpt>
      <trkpt lat="47.18624" lon="-1.63342">
        <ele>47</ele>
        <time>2022-04-02T13:09:11Z</time>
      </trkpt>
      <trkpt lat="47.1863" lon="-1.63356">
        <ele>47</ele>
        <time>2022-04-02T13:09:13Z</time>
      </trkpt>
      <trkpt lat="47.18636" lon="-1.6337">
        <ele>47</ele>
        <time>2022-04-02T13:09:15Z</time>
      </trkpt>
      <trkpt lat="47.18641" lon="-1.63384">
        <ele>47</ele>
        <time>2022-04-02T13:09:17Z</time>
      </trkpt>
      <trkpt lat="47.18646" lon="-1.63399">
        <ele>47</ele>
        <time>2022-04-02T13:09:19Z</time>
      </trkpt>
      <trkpt lat="47.18651" lon="-1.63412">
        <ele>46</ele>
        <time>2022-04-02T13:09:21Z</time>
      </trkpt>
      <trkpt lat="47.18653" lon="-1.63431">
        <ele>46</ele>
        <time>2022-04-02T13:09:24Z</time>
      </trkpt>
      <trkpt lat="47.18647" lon="-1.63443">
        <ele>47</ele>
        <time>2022-04-02T13:09:26Z</time>
      </trkpt>
      <trkpt lat="47.18639" lon="-1.63452">
        <ele>47</ele>
        <time>2022-04-02T13:09:28Z</time>
      </trkpt>
      <trkpt lat="47.18631" lon="-1.63461">
        <ele>47</ele>
        <time>2022-04-02T13:09:30Z</time>
      </trkpt>
      <trkpt lat="47.18622" lon="-1.6347">
        <ele>48</ele>
        <time>2022-04-02T13:09:32Z</time>
      </trkpt>
      <trkpt lat="47.18615" lon="-1.6348">
        <ele>48</ele>
        <time>2022-04-02T13:09:34Z</time>
      </trkpt>
      <trkpt lat="47.18607" lon="-1.63489">
        <ele>48</ele>
        <time>2022-04-02T13:09:36Z</time>
      </trkpt>
      <trkpt lat="47.18598" lon="-1.63496">
        <ele>48</ele>
        <time>2022-04-02T13:09:38Z</time>
      </trkpt>
      <trkpt lat="47.18588" lon="-1.63503">
        <ele>48</ele>
        <time>2022-04-02T13:09:40Z</time>
      </trkpt>
      <trkpt lat="47.18577" lon="-1.63511">
        <ele>48</ele>
        <time>2022-04-02T13:09:42Z</time>
      </trkpt>
      <trkpt lat="47.18565" lon="-1.63518">
        <ele>48</ele>
        <time>2022-04-02T13:09:44Z</time>
      </trkpt>
      <trkpt lat="47.18553" lon="-1.63527">
        <ele>49</ele>
        <time>2022-04-02T13:09:46Z</time>
      </trkpt>
      <trkpt lat="47.18542" lon="-1.63535">
        <ele>48</ele>
        <time>2022-04-02T13:09:48Z</time>
      </trkpt>
      <trkpt lat="47.1853" lon="-1.6354">
        <ele>49</ele>
        <time>2022-04-02T13:09:50Z</time>
      </trkpt>
      <trkpt lat="47.18517" lon="-1.63543">
        <ele>49</ele>
        <time>2022-04-02T13:09:52Z</time>
      </trkpt>
      <trkpt lat="47.18505" lon="-1.63544">
        <ele>49</ele>
        <time>2022-04-02T13:09:54Z</time>
      </trkpt>
      <trkpt lat="47.18492" lon="-1.63542">
        <ele>49</ele>
        <time>2022-04-02T13:09:56Z</time>
      </trkpt>
      <trkpt lat="47.1848" lon="-1.63539">
        <ele>49</ele>
        <time>2022-04-02T13:09:58Z</time>
      </trkpt>
      <trkpt lat="47.18468" lon="-1.63534">
        <ele>50</ele>
        <time>2022-04-02T13:10:00Z</time>
      </trkpt>
      <trkpt lat="47.18456" lon="-1.63529">
        <ele>50</ele>
        <time>2022-04-02T13:10:02Z</time>
      </trkpt>
      <trkpt lat="47.18444" lon="-1.63523">
        <ele>50</ele>
        <time>2022-04-02T13:10:04Z</time>
      </trkpt>
      <trkpt lat="47.18433" lon="-1.63516">
        <ele>49</ele>
        <time>2022-04-02T13:10:06Z</time>
      </trkpt>
      <trkpt lat="47.18421" lon="-1.63508">
        <ele>50</ele>
        <time>2022-04-02T13:10:08Z</time>
      </trkpt>
      <trkpt lat="47.18409" lon="-1.63501">
        <ele>50</ele>
        <time>2022-04-02T13:10:10Z</time>
      </trkpt>
      <trkpt lat="47.18397" lon="-1.63492">
        <ele>49</ele>
        <time>2022-04-02T13:10:12Z</time>
      </trkpt>
      <trkpt lat="47.18385" lon="-1.63484">
        <ele>50</ele>
        <time>2022-04-02T13:10:14Z</time>
      </trkpt>
      <trkpt lat="47.18373" lon="-1.63476">
        <ele>50</ele>
        <time>2022-04-02T13:10:16Z</time>
      </trkpt>
      <trkpt lat="47.18362" lon="-1.63468">
        <ele>50</ele>
        <time>2022-04-02T13:10:18Z</time>
      </trkpt>
      <trkpt lat="47.1835" lon="-1.6346">
        <ele>50</ele>
        <time>2022-04-02T13:10:20Z</time>
      </trkpt>
      <trkpt lat="47.18339" lon="-1.63451">
        <ele>50</ele>
        <time>2022-04-02T13:10:22Z</time>
      </trkpt>
      <trkpt lat="47.18328" lon="-1.63444">
        <ele>50</ele>
        <time>2022-04-02T13:10:24Z</time>
      </trkpt>
      <trkpt lat="47.18317" lon="-1.63436">
        <ele>50</ele>
        <time>2022-04-02T13:10:26Z</time>
      </trkpt>
      <trkpt lat="47.18305" lon="-1.63428">
        <ele>50</ele>
        <time>2022-04-02T13:10:28Z</time>
      </trkpt>
      <trkpt lat="47.18294" lon="-1.63421">
        <ele>50</ele>
        <time>2022-04-02T13:10:30Z</time>
      </trkpt>
      <trkpt lat="47.18283" lon="-1.63413">
        <ele>50</ele>
        <time>2022-04-02T13:10:32Z</time>
      </trkpt>
      <trkpt lat="47.18272" lon="-1.63405">
        <ele>50</ele>
        <time>2022-04-02T13:10:34Z</time>
      </trkpt>
      <trkpt lat="47.18261" lon="-1.63398">
        <ele>50</ele>
        <time>2022-04-02T13:10:36Z</time>
      </trkpt>
      <trkpt lat="47.18249" lon="-1.6339">
        <ele>49</ele>
        <time>2022-04-02T13:10:38Z</time>
      </trkpt>
      <trkpt lat="47.18238" lon="-1.63382">
        <ele>49</ele>
        <time>2022-04-02T13:10:40Z</time>
      </trkpt>
      <trkpt lat="47.18226" lon="-1.63374">
        <ele>49</ele>
        <time>2022-04-02T13:10:42Z</time>
      </trkpt>
      <trkpt lat="47.18214" lon="-1.63365">
        <ele>49</ele>
        <time>2022-04-02T13:10:44Z</time>
      </trkpt>
      <trkpt lat="47.18202" lon="-1.63357">
        <ele>49</ele>
        <time>2022-04-02T13:10:46Z</time>
      </trkpt>
      <trkpt lat="47.1819" lon="-1.63349">
        <ele>49</ele>
        <time>2022-04-02T13:10:48Z</time>
      </trkpt>
      <trkpt lat="47.18179" lon="-1.63341">
        <ele>49</ele>
        <time>2022-04-02T13:10:50Z</time>
      </trkpt>
      <trkpt lat="47.18167" lon="-1.63333">
        <ele>49</ele>
        <time>2022-04-02T13:10:52Z</time>
      </trkpt>
      <trkpt lat="47.18156" lon="-1.63325">
        <ele>49</ele>
        <time>2022-04-02T13:10:54Z</time>
      </trkpt>
      <trkpt lat="47.18144" lon="-1.63317">
        <ele>49</ele>
        <time>2022-04-02T13:10:56Z</time>
      </trkpt>
      <trkpt lat="47.18133" lon="-1.63309">
        <ele>49</ele>
        <time>2022-04-02T13:10:58Z</time>
      </trkpt>
      <trkpt lat="47.18122" lon="-1.63301">
        <ele>49</ele>
        <time>2022-04-02T13:11:00Z</time>
      </trkpt>
      <trkpt lat="47.18112" lon="-1.63291">
        <ele>49</ele>
        <time>2022-04-02T13:11:02Z</time>
      </trkpt>
      <trkpt lat="47.18104" lon="-1.6328">
        <ele>49</ele>
        <time>2022-04-02T13:11:04Z</time>
      </trkpt>
      <trkpt lat="47.18095" lon="-1.6327">
        <ele>49</ele>
        <time>2022-04-02T13:11:06Z</time>
      </trkpt>
      <trkpt lat="47.18087" lon="-1.63261">
        <ele>49</ele>
        <time>2022-04-02T13:11:08Z</time>
      </trkpt>
      <trkpt lat="47.1808" lon="-1.6325">
        <ele>49</ele>
        <time>2022-04-02T13:11:10Z</time>
      </trkpt>
      <trkpt lat="47.18075" lon="-1.63238">
        <ele>50</ele>
        <time>2022-04-02T13:11:12Z</time>
      </trkpt>
      <trkpt lat="47.1807" lon="-1.63225">
        <ele>50</ele>
        <time>2022-04-02T13:11:14Z</time>
      </trkpt>
      <trkpt lat="47.18066" lon="-1.63213">
        <ele>51</ele>
        <time>2022-04-02T13:11:16Z</time>
      </trkpt>
      <trkpt lat="47.18062" lon="-1.632">
        <ele>51</ele>
        <time>2022-04-02T13:11:18Z</time>
      </trkpt>
      <trkpt lat="47.18058" lon="-1.63187">
        <ele>52</ele>
        <time>2022-04-02T13:11:20Z</time>
      </trkpt>
      <trkpt lat="47.18053" lon="-1.63175">
        <ele>52</ele>
        <time>2022-04-02T13:11:22Z</time>
      </trkpt>
      <trkpt lat="47.18047" lon="-1.63164">
        <ele>53</ele>
        <time>2022-04-02T13:11:24Z</time>
      </trkpt>
      <trkpt lat="47.18042" lon="-1.63152">
        <ele>54</ele>
        <time>2022-04-02T13:11:26Z</time>
      </trkpt>
      <trkpt lat="47.18036" lon="-1.63142">
        <ele>54</ele>
        <time>2022-04-02T13:11:28Z</time>
      </trkpt>
      <trkpt lat="47.18031" lon="-1.63131">
        <ele>55</ele>
        <time>2022-04-02T13:11:30Z</time>
      </trkpt>
      <trkpt lat="47.18025" lon="-1.63121">
        <ele>55</ele>
        <time>2022-04-02T13:11:32Z</time>
      </trkpt>
      <trkpt lat="47.1802" lon="-1.6311">
        <ele>56</ele>
        <time>2022-04-02T13:11:34Z</time>
      </trkpt>
      <trkpt lat="47.18012" lon="-1.63095">
        <ele>57</ele>
        <time>2022-04-02T13:11:37Z</time>
      </trkpt>
      <trkpt lat="47.18003" lon="-1.6308">
        <ele>57</ele>
        <time>2022-04-02T13:11:40Z</time>
      </trkpt>
      <trkpt lat="47.17995" lon="-1.63066">
        <ele>58</ele>
        <time>2022-04-02T13:11:43Z</time>
      </trkpt>
      <trkpt lat="47.17986" lon="-1.63051">
        <ele>59</ele>
        <time>2022-04-02T13:11:46Z</time>
      </trkpt>
      <trkpt lat="47.17981" lon="-1.63041">
        <ele>60</ele>
        <time>2022-04-02T13:11:48Z</time>
      </trkpt>
      <trkpt lat="47.17973" lon="-1.63025">
        <ele>60</ele>
        <time>2022-04-02T13:11:51Z</time>
      </trkpt>
      <trkpt lat="47.17966" lon="-1.63008">
        <ele>61</ele>
        <time>2022-04-02T13:11:54Z</time>
      </trkpt>
      <trkpt lat="47.17959" lon="-1.62992">
        <ele>61</ele>
        <time>2022-04-02T13:11:57Z</time>
      </trkpt>
      <trkpt lat="47.17952" lon="-1.62977">
        <ele>61</ele>
        <time>2022-04-02T13:12:00Z</time>
      </trkpt>
      <trkpt lat="47.17944" lon="-1.62962">
        <ele>62</ele>
        <time>2022-04-02T13:12:03Z</time>
      </trkpt>
      <trkpt lat="47.17936" lon="-1.62947">
        <ele>61</ele>
        <time>2022-04-02T13:12:06Z</time>
      </trkpt>
      <trkpt lat="47.17927" lon="-1.62933">
        <ele>62</ele>
        <time>2022-04-02T13:12:09Z</time>
      </trkpt>
      <trkpt lat="47.1792" lon="-1.62924">
        <ele>62</ele>
        <time>2022-04-02T13:12:11Z</time>
      </trkpt>
      <trkpt lat="47.1791" lon="-1.62913">
        <ele>62</ele>
        <time>2022-04-02T13:12:14Z</time>
      </trkpt>
      <trkpt lat="47.17902" lon="-1.62905">
        <ele>62</ele>
        <time>2022-04-02T13:12:16Z</time>
      </trkpt>
      <trkpt lat="47.17895" lon="-1.62896">
        <ele>62</ele>
        <time>2022-04-02T13:12:18Z</time>
      </trkpt>
      <trkpt lat="47.17888" lon="-1.62886">
        <ele>62</ele>
        <time>2022-04-02T13:12:20Z</time>
      </trkpt>
      <trkpt lat="47.17881" lon="-1.62877">
        <ele>62</ele>
        <time>2022-04-02T13:12:22Z</time>
      </trkpt>
      <trkpt lat="47.17872" lon="-1.62875">
        <ele>63</ele>
        <time>2022-04-02T13:12:24Z</time>
      </trkpt>
      <trkpt lat="47.17862" lon="-1.62874">
        <ele>63</ele>
        <time>2022-04-02T13:12:26Z</time>
      </trkpt>
      <trkpt lat="47.17853" lon="-1.62867">
        <ele>63</ele>
        <time>2022-04-02T13:12:28Z</time>
      </trkpt>
      <trkpt lat="47.17846" lon="-1.62855">
        <ele>63</ele>
        <time>2022-04-02T13:12:30Z</time>
      </trkpt>
      <trkpt lat="47.17839" lon="-1.62844">
        <ele>63</ele>
        <time>2022-04-02T13:12:32Z</time>
      </trkpt>
      <trkpt lat="47.17832" lon="-1.62834">
        <ele>63</ele>
        <time>2022-04-02T13:12:34Z</time>
      </trkpt>
      <trkpt lat="47.17824" lon="-1.62823">
        <ele>63</ele>
        <time>2022-04-02T13:12:36Z</time>
      </trkpt>
      <trkpt lat="47.17817" lon="-1.62813">
        <ele>63</ele>
        <time>2022-04-02T13:12:38Z</time>
      </trkpt>
      <trkpt lat="47.1781" lon="-1.62801">
        <ele>64</ele>
        <time>2022-04-02T13:12:40Z</time>
      </trkpt>
      <trkpt lat="47.17803" lon="-1.6279">
        <ele>64</ele>
        <time>2022-04-02T13:12:42Z</time>
      </trkpt>
      <trkpt lat="47.17795" lon="-1.62779">
        <ele>64</ele>
        <time>2022-04-02T13:12:44Z</time>
      </trkpt>
      <trkpt lat="47.17787" lon="-1.62767">
        <ele>64</ele>
        <time>2022-04-02T13:12:46Z</time>
      </trkpt>
      <trkpt lat="47.1778" lon="-1.62754">
        <ele>64</ele>
        <time>2022-04-02T13:12:48Z</time>
      </trkpt>
      <trkpt lat="47.17771" lon="-1.62742">
        <ele>64</ele>
        <time>2022-04-02T13:12:50Z</time>
      </trkpt>
      <trkpt lat="47.17763" lon="-1.62728">
        <ele>64</ele>
        <time>2022-04-02T13:12:52Z</time>
      </trkpt>
      <trkpt lat="47.17754" lon="-1.62716">
        <ele>64</ele>
        <time>2022-04-02T13:12:54Z</time>
      </trkpt>
      <trkpt lat="47.17746" lon="-1.62703">
        <ele>64</ele>
        <time>2022-04-02T13:12:56Z</time>
      </trkpt>
      <trkpt lat="47.17738" lon="-1.6269">
        <ele>64</ele>
        <time>2022-04-02T13:12:58Z</time>
      </trkpt>
      <trkpt lat="47.1773" lon="-1.62678">
        <ele>65</ele>
        <time>2022-04-02T13:13:00Z</time>
      </trkpt>
      <trkpt lat="47.17722" lon="-1.62666">
        <ele>65</ele>
        <time>2022-04-02T13:13:02Z</time>
      </trkpt>
      <trkpt lat="47.17713" lon="-1.62653">
        <ele>65</ele>
        <time>2022-04-02T13:13:04Z</time>
      </trkpt>
      <trkpt lat="47.17705" lon="-1.6264">
        <ele>65</ele>
        <time>2022-04-02T13:13:06Z</time>
      </trkpt>
      <trkpt lat="47.17697" lon="-1.62627">
        <ele>65</ele>
        <time>2022-04-02T13:13:08Z</time>
      </trkpt>
      <trkpt lat="47.17688" lon="-1.62616">
        <ele>65</ele>
        <time>2022-04-02T13:13:10Z</time>
      </trkpt>
      <trkpt lat="47.17678" lon="-1.62609">
        <ele>65</ele>
        <time>2022-04-02T13:13:12Z</time>
      </trkpt>
      <trkpt lat="47.17669" lon="-1.62599">
        <ele>65</ele>
        <time>2022-04-02T13:13:14Z</time>
      </trkpt>
      <trkpt lat="47.17663" lon="-1.62584">
        <ele>66</ele>
        <time>2022-04-02T13:13:16Z</time>
      </trkpt>
      <trkpt lat="47.17656" lon="-1.62571">
        <ele>66</ele>
        <time>2022-04-02T13:13:18Z</time>
      </trkpt>
      <trkpt lat="47.17649" lon="-1.62559">
        <ele>66</ele>
        <time>2022-04-02T13:13:20Z</time>
      </trkpt>
      <trkpt lat="47.1764" lon="-1.62547">
        <ele>67</ele>
        <time>2022-04-02T13:13:22Z</time>
      </trkpt>
      <trkpt lat="47.17631" lon="-1.62535">
        <ele>67</ele>
        <time>2022-04-02T13:13:24Z</time>
      </trkpt>
      <trkpt lat="47.17624" lon="-1.62523">
        <ele>68</ele>
        <time>2022-04-02T13:13:26Z</time>
      </trkpt>
      <trkpt lat="47.17616" lon="-1.62511">
        <ele>68</ele>
        <time>2022-04-02T13:13:28Z</time>
      </trkpt>
      <trkpt lat="47.17608" lon="-1.625">
        <ele>68</ele>
        <time>2022-04-02T13:13:30Z</time>
      </trkpt>
      <trkpt lat="47.176" lon="-1.62488">
        <ele>68</ele>
        <time>2022-04-02T13:13:32Z</time>
      </trkpt>
      <trkpt lat="47.17591" lon="-1.62476">
        <ele>68</ele>
        <time>2022-04-02T13:13:34Z</time>
      </trkpt>
      <trkpt lat="47.17583" lon="-1.62464">
        <ele>68</ele>
        <time>2022-04-02T13:13:36Z</time>
      </trkpt>
      <trkpt lat="47.17575" lon="-1.62452">
        <ele>68</ele>
        <time>2022-04-02T13:13:38Z</time>
      </trkpt>
      <trkpt lat="47.17567" lon="-1.6244">
        <ele>68</ele>
        <time>2022-04-02T13:13:40Z</time>
      </trkpt>
      <trkpt lat="47.17558" lon="-1.62427">
        <ele>67</ele>
        <time>2022-04-02T13:13:42Z</time>
      </trkpt>
      <trkpt lat="47.1755" lon="-1.62415">
        <ele>67</ele>
        <time>2022-04-02T13:13:44Z</time>
      </trkpt>
      <trkpt lat="47.17542" lon="-1.62404">
        <ele>67</ele>
        <time>2022-04-02T13:13:46Z</time>
      </trkpt>
      <trkpt lat="47.17531" lon="-1.62398">
        <ele>66</ele>
        <time>2022-04-02T13:13:48Z</time>
      </trkpt>
      <trkpt lat="47.17519" lon="-1.62403">
        <ele>66</ele>
        <time>2022-04-02T13:13:50Z</time>
      </trkpt>
      <trkpt lat="47.17508" lon="-1.62411">
        <ele>66</ele>
        <time>2022-04-02T13:13:52Z</time>
      </trkpt>
      <trkpt lat="47.17495" lon="-1.62408">
        <ele>66</ele>
        <time>2022-04-02T13:13:54Z</time>
      </trkpt>
      <trkpt lat="47.17485" lon="-1.62395">
        <ele>65</ele>
        <time>2022-04-02T13:13:56Z</time>
      </trkpt>
      <trkpt lat="47.17477" lon="-1.62381">
        <ele>64</ele>
        <time>2022-04-02T13:13:58Z</time>
      </trkpt>
      <trkpt lat="47.17464" lon="-1.62377">
        <ele>64</ele>
        <time>2022-04-02T13:14:00Z</time>
      </trkpt>
      <trkpt lat="47.1745" lon="-1.62378">
        <ele>63</ele>
        <time>2022-04-02T13:14:02Z</time>
      </trkpt>
      <trkpt lat="47.17435" lon="-1.6238">
        <ele>63</ele>
        <time>2022-04-02T13:14:04Z</time>
      </trkpt>
      <trkpt lat="47.17421" lon="-1.6238">
        <ele>61</ele>
        <time>2022-04-02T13:14:06Z</time>
      </trkpt>
      <trkpt lat="47.17407" lon="-1.62379">
        <ele>61</ele>
        <time>2022-04-02T13:14:08Z</time>
      </trkpt>
      <trkpt lat="47.17392" lon="-1.62378">
        <ele>61</ele>
        <time>2022-04-02T13:14:10Z</time>
      </trkpt>
      <trkpt lat="47.17378" lon="-1.62377">
        <ele>61</ele>
        <time>2022-04-02T13:14:12Z</time>
      </trkpt>
      <trkpt lat="47.17365" lon="-1.62377">
        <ele>61</ele>
        <time>2022-04-02T13:14:14Z</time>
      </trkpt>
      <trkpt lat="47.17351" lon="-1.62377">
        <ele>62</ele>
        <time>2022-04-02T13:14:16Z</time>
      </trkpt>
      <trkpt lat="47.17338" lon="-1.62378">
        <ele>62</ele>
        <time>2022-04-02T13:14:18Z</time>
      </trkpt>
      <trkpt lat="47.17325" lon="-1.6238">
        <ele>62</ele>
        <time>2022-04-02T13:14:20Z</time>
      </trkpt>
      <trkpt lat="47.17311" lon="-1.62382">
        <ele>62</ele>
        <time>2022-04-02T13:14:22Z</time>
      </trkpt>
      <trkpt lat="47.17298" lon="-1.62384">
        <ele>62</ele>
        <time>2022-04-02T13:14:24Z</time>
      </trkpt>
      <trkpt lat="47.17285" lon="-1.62387">
        <ele>62</ele>
        <time>2022-04-02T13:14:26Z</time>
      </trkpt>
      <trkpt lat="47.17271" lon="-1.6239">
        <ele>62</ele>
        <time>2022-04-02T13:14:28Z</time>
      </trkpt>
      <trkpt lat="47.17258" lon="-1.62392">
        <ele>62</ele>
        <time>2022-04-02T13:14:30Z</time>
      </trkpt>
      <trkpt lat="47.17244" lon="-1.62395">
        <ele>62</ele>
        <time>2022-04-02T13:14:32Z</time>
      </trkpt>
      <trkpt lat="47.1723" lon="-1.62398">
        <ele>62</ele>
        <time>2022-04-02T13:14:34Z</time>
      </trkpt>
      <trkpt lat="47.17217" lon="-1.624">
        <ele>62</ele>
        <time>2022-04-02T13:14:36Z</time>
      </trkpt>
      <trkpt lat="47.17203" lon="-1.62404">
        <ele>62</ele>
        <time>2022-04-02T13:14:38Z</time>
      </trkpt>
      <trkpt lat="47.1719" lon="-1.62406">
        <ele>62</ele>
        <time>2022-04-02T13:14:40Z</time>
      </trkpt>
      <trkpt lat="47.17177" lon="-1.62409">
        <ele>62</ele>
        <time>2022-04-02T13:14:42Z</time>
      </trkpt>
      <trkpt lat="47.17164" lon="-1.62411">
        <ele>62</ele>
        <time>2022-04-02T13:14:44Z</time>
      </trkpt>
      <trkpt lat="47.17151" lon="-1.62413">
        <ele>62</ele>
        <time>2022-04-02T13:14:46Z</time>
      </trkpt>
      <trkpt lat="47.17138" lon="-1.62416">
        <ele>62</ele>
        <time>2022-04-02T13:14:48Z</time>
      </trkpt>
      <trkpt lat="47.17124" lon="-1.62419">
        <ele>63</ele>
        <time>2022-04-02T13:14:50Z</time>
      </trkpt>
      <trkpt lat="47.17111" lon="-1.62422">
        <ele>63</ele>
        <time>2022-04-02T13:14:52Z</time>
      </trkpt>
      <trkpt lat="47.17098" lon="-1.62426">
        <ele>63</ele>
        <time>2022-04-02T13:14:54Z</time>
      </trkpt>
      <trkpt lat="47.17086" lon="-1.62432">
        <ele>62</ele>
        <time>2022-04-02T13:14:56Z</time>
      </trkpt>
      <trkpt lat="47.17074" lon="-1.62439">
        <ele>63</ele>
        <time>2022-04-02T13:14:58Z</time>
      </trkpt>
      <trkpt lat="47.17062" lon="-1.62446">
        <ele>63</ele>
        <time>2022-04-02T13:15:00Z</time>
      </trkpt>
      <trkpt lat="47.17049" lon="-1.62452">
        <ele>63</ele>
        <time>2022-04-02T13:15:02Z</time>
      </trkpt>
      <trkpt lat="47.17037" lon="-1.62459">
        <ele>63</ele>
        <time>2022-04-02T13:15:04Z</time>
      </trkpt>
      <trkpt lat="47.17025" lon="-1.62466">
        <ele>63</ele>
        <time>2022-04-02T13:15:06Z</time>
      </trkpt>
      <trkpt lat="47.17013" lon="-1.62473">
        <ele>62</ele>
        <time>2022-04-02T13:15:08Z</time>
      </trkpt>
      <trkpt lat="47.17001" lon="-1.6248">
        <ele>62</ele>
        <time>2022-04-02T13:15:10Z</time>
      </trkpt>
      <trkpt lat="47.16989" lon="-1.62486">
        <ele>62</ele>
        <time>2022-04-02T13:15:12Z</time>
      </trkpt>
      <trkpt lat="47.16977" lon="-1.62492">
        <ele>63</ele>
        <time>2022-04-02T13:15:14Z</time>
      </trkpt>
      <trkpt lat="47.16966" lon="-1.62498">
        <ele>63</ele>
        <time>2022-04-02T13:15:16Z</time>
      </trkpt>
      <trkpt lat="47.16955" lon="-1.62501">
        <ele>63</ele>
        <time>2022-04-02T13:15:18Z</time>
      </trkpt>
      <trkpt lat="47.16943" lon="-1.62503">
        <ele>63</ele>
        <time>2022-04-02T13:15:20Z</time>
      </trkpt>
      <trkpt lat="47.16932" lon="-1.62503">
        <ele>63</ele>
        <time>2022-04-02T13:15:22Z</time>
      </trkpt>
      <trkpt lat="47.16921" lon="-1.62502">
        <ele>63</ele>
        <time>2022-04-02T13:15:24Z</time>
      </trkpt>
      <trkpt lat="47.1691" lon="-1.62506">
        <ele>64</ele>
        <time>2022-04-02T13:15:27Z</time>
      </trkpt>
      <trkpt lat="47.169" lon="-1.62509">
        <ele>64</ele>
        <time>2022-04-02T13:15:32Z</time>
      </trkpt>
      <trkpt lat="47.16888" lon="-1.62509">
        <ele>65</ele>
        <time>2022-04-02T13:15:35Z</time>
      </trkpt>
      <trkpt lat="47.16878" lon="-1.62509">
        <ele>66</ele>
        <time>2022-04-02T13:15:37Z</time>
      </trkpt>
      <trkpt lat="47.16866" lon="-1.62506">
        <ele>67</ele>
        <time>2022-04-02T13:15:40Z</time>
      </trkpt>
      <trkpt lat="47.16857" lon="-1.62498">
        <ele>67</ele>
        <time>2022-04-02T13:15:43Z</time>
      </trkpt>
      <trkpt lat="47.16845" lon="-1.62493">
        <ele>68</ele>
        <time>2022-04-02T13:15:46Z</time>
      </trkpt>
      <trkpt lat="47.16834" lon="-1.62494">
        <ele>69</ele>
        <time>2022-04-02T13:15:48Z</time>
      </trkpt>
      <trkpt lat="47.16824" lon="-1.62495">
        <ele>69</ele>
        <time>2022-04-02T13:15:50Z</time>
      </trkpt>
      <trkpt lat="47.16811" lon="-1.62492">
        <ele>70</ele>
        <time>2022-04-02T13:15:53Z</time>
      </trkpt>
      <trkpt lat="47.16805" lon="-1.62503">
        <ele>68</ele>
        <time>2022-04-02T13:15:56Z</time>
      </trkpt>
      <trkpt lat="47.16801" lon="-1.62519">
        <ele>67</ele>
        <time>2022-04-02T13:15:59Z</time>
      </trkpt>
      <trkpt lat="47.16797" lon="-1.62533">
        <ele>67</ele>
        <time>2022-04-02T13:16:02Z</time>
      </trkpt>
      <trkpt lat="47.16799" lon="-1.62546">
        <ele>67</ele>
        <time>2022-04-02T13:16:07Z</time>
      </trkpt>
      <trkpt lat="47.16799" lon="-1.62546">
        <ele>67</ele>
        <time>2022-04-02T13:18:08Z</time>
      </trkpt>
      <trkpt lat="47.16799" lon="-1.62546">
        <ele>67</ele>
        <time>2022-04-02T13:20:09Z</time>
      </trkpt>
      <trkpt lat="47.16801" lon="-1.62546">
        <ele>69</ele>
        <time>2022-04-02T13:22:10Z</time>
      </trkpt>
      <trkpt lat="47.16802" lon="-1.62548">
        <ele>67</ele>
        <time>2022-04-02T13:24:11Z</time>
      </trkpt>
      <trkpt lat="47.16805" lon="-1.62549">
        <ele>68</ele>
        <time>2022-04-02T13:26:12Z</time>
      </trkpt>
      <trkpt lat="47.16805" lon="-1.62549">
        <ele>68</ele>
        <time>2022-04-02T13:28:13Z</time>
      </trkpt>
      <trkpt lat="47.16806" lon="-1.62549">
        <ele>67</ele>
        <time>2022-04-02T13:30:14Z</time>
      </trkpt>
      <trkpt lat="47.16814" lon="-1.62555">
        <ele>68</ele>
        <time>2022-04-02T13:30:42Z</time>
      </trkpt>
      <trkpt lat="47.16823" lon="-1.62565">
        <ele>68</ele>
        <time>2022-04-02T13:30:45Z</time>
      </trkpt>
      <trkpt lat="47.16827" lon="-1.62583">
        <ele>67</ele>
        <time>2022-04-02T13:30:48Z</time>
      </trkpt>
      <trkpt lat="47.1682" lon="-1.62599">
        <ele>66</ele>
        <time>2022-04-02T13:30:51Z</time>
      </trkpt>
      <trkpt lat="47.16813" lon="-1.6261">
        <ele>66</ele>
        <time>2022-04-02T13:30:53Z</time>
      </trkpt>
      <trkpt lat="47.16807" lon="-1.6262">
        <ele>65</ele>
        <time>2022-04-02T13:30:55Z</time>
      </trkpt>
      <trkpt lat="47.16801" lon="-1.62631">
        <ele>65</ele>
        <time>2022-04-02T13:30:57Z</time>
      </trkpt>
      <trkpt lat="47.16795" lon="-1.62641">
        <ele>65</ele>
        <time>2022-04-02T13:30:59Z</time>
      </trkpt>
      <trkpt lat="47.16787" lon="-1.62655">
        <ele>65</ele>
        <time>2022-04-02T13:31:02Z</time>
      </trkpt>
      <trkpt lat="47.16779" lon="-1.62661">
        <ele>65</ele>
        <time>2022-04-02T13:31:06Z</time>
      </trkpt>
    </trkseg>
  </trk>
</gpx>